﻿<?xml version="1.0" encoding="utf-8"?><gpx creator="Garmin Desktop App" version="1.1" xsi:schemaLocation="http://www.topografix.com/GPX/1/1 http://www.topografix.com/GPX/1/1/gpx.xsd http://www.garmin.com/xmlschemas/WaypointExtension/v1 http://www8.garmin.com/xmlschemas/WaypointExtensionv1.xsd http://www.garmin.com/xmlschemas/TrackPointExtension/v1 http://www.garmin.com/xmlschemas/TrackPointExtensionv1.xsd http://www.garmin.com/xmlschemas/GpxExtensions/v3 http://www8.garmin.com/xmlschemas/GpxExtensionsv3.xsd http://www.garmin.com/xmlschemas/ActivityExtension/v1 http://www8.garmin.com/xmlschemas/ActivityExtensionv1.xsd http://www.garmin.com/xmlschemas/AdventuresExtensions/v1 http://www8.garmin.com/xmlschemas/AdventuresExtensionv1.xsd http://www.garmin.com/xmlschemas/PressureExtension/v1 http://www.garmin.com/xmlschemas/PressureExtensionv1.xsd http://www.garmin.com/xmlschemas/TripExtensions/v1 http://www.garmin.com/xmlschemas/TripExtensionsv1.xsd http://www.garmin.com/xmlschemas/TripMetaDataExtensions/v1 http://www.garmin.com/xmlschemas/TripMetaDataExtensionsv1.xsd http://www.garmin.com/xmlschemas/ViaPointTransportationModeExtensions/v1 http://www.garmin.com/xmlschemas/ViaPointTransportationModeExtensionsv1.xsd http://www.garmin.com/xmlschemas/CreationTimeExtension/v1 http://www.garmin.com/xmlschemas/CreationTimeExtensionsv1.xsd http://www.garmin.com/xmlschemas/AccelerationExtension/v1 http://www.garmin.com/xmlschemas/AccelerationExtensionv1.xsd http://www.garmin.com/xmlschemas/PowerExtension/v1 http://www.garmin.com/xmlschemas/PowerExtensionv1.xsd http://www.garmin.com/xmlschemas/VideoExtension/v1 http://www.garmin.com/xmlschemas/VideoExtensionv1.xsd" xmlns="http://www.topografix.com/GPX/1/1" xmlns:xsi="http://www.w3.org/2001/XMLSchema-instance" xmlns:wptx1="http://www.garmin.com/xmlschemas/WaypointExtension/v1" xmlns:gpxtrx="http://www.garmin.com/xmlschemas/GpxExtensions/v3" xmlns:gpxtpx="http://www.garmin.com/xmlschemas/TrackPointExtension/v1" xmlns:gpxx="http://www.garmin.com/xmlschemas/GpxExtensions/v3" xmlns:trp="http://www.garmin.com/xmlschemas/TripExtensions/v1" xmlns:adv="http://www.garmin.com/xmlschemas/AdventuresExtensions/v1" xmlns:prs="http://www.garmin.com/xmlschemas/PressureExtension/v1" xmlns:tmd="http://www.garmin.com/xmlschemas/TripMetaDataExtensions/v1" xmlns:vptm="http://www.garmin.com/xmlschemas/ViaPointTransportationModeExtensions/v1" xmlns:ctx="http://www.garmin.com/xmlschemas/CreationTimeExtension/v1" xmlns:gpxacc="http://www.garmin.com/xmlschemas/AccelerationExtension/v1" xmlns:gpxpx="http://www.garmin.com/xmlschemas/PowerExtension/v1" xmlns:vidx1="http://www.garmin.com/xmlschemas/VideoExtension/v1">

  <metadata>
    <link href="http://www.garmin.com">
      <text>Garmin International</text>
    </link>
    <time>2021-01-27T10:42:43Z</time>
    <bounds maxlat="45.543810417875648" maxlon="7.125669792294502" minlat="45.494615603238344" minlon="7.058452041819692" />
  </metadata>

  <trk>
    <name>granta-parey2015-06-07</name>
    <extensions>
      <gpxx:TrackExtension>
        <gpxx:DisplayColor>Yellow</gpxx:DisplayColor>
      </gpxx:TrackExtension>
      <gpxtrkx:TrackStatsExtension xmlns:gpxtrkx="http://www.garmin.com/xmlschemas/TrackStatsExtension/v1">
        <gpxtrkx:Distance>21168</gpxtrkx:Distance>
        <gpxtrkx:TotalElapsedTime>34162</gpxtrkx:TotalElapsedTime>
        <gpxtrkx:MovingTime>23371</gpxtrkx:MovingTime>
        <gpxtrkx:StoppedTime>10777</gpxtrkx:StoppedTime>
        <gpxtrkx:MovingSpeed>1</gpxtrkx:MovingSpeed>
        <gpxtrkx:MaxSpeed>3</gpxtrkx:MaxSpeed>
        <gpxtrkx:MaxElevation>3382</gpxtrkx:MaxElevation>
        <gpxtrkx:MinElevation>1910</gpxtrkx:MinElevation>
        <gpxtrkx:Ascent>1517</gpxtrkx:Ascent>
        <gpxtrkx:Descent>1617</gpxtrkx:Descent>
        <gpxtrkx:AvgAscentRate>0</gpxtrkx:AvgAscentRate>
        <gpxtrkx:MaxAscentRate>0</gpxtrkx:MaxAscentRate>
        <gpxtrkx:AvgDescentRate>0</gpxtrkx:AvgDescentRate>
        <gpxtrkx:MaxDescentRate>-1</gpxtrkx:MaxDescentRate>
      </gpxtrkx:TrackStatsExtension>
    </extensions>
    <trkseg>
      <trkpt lat="45.532091930508614" lon="7.097502406686544">
        <ele>2014.0999999999999</ele>
        <time>2015-06-07T05:01:21Z</time>
      </trkpt>
      <trkpt lat="45.532092936336994" lon="7.097498718649149">
        <ele>2014.0999999999999</ele>
        <time>2015-06-07T05:01:22Z</time>
      </trkpt>
      <trkpt lat="45.532091679051518" lon="7.097507519647479">
        <ele>2009.77</ele>
        <time>2015-06-07T05:01:25Z</time>
      </trkpt>
      <trkpt lat="45.532092517241836" lon="7.097509279847145">
        <ele>2009.77</ele>
        <time>2015-06-07T05:01:26Z</time>
      </trkpt>
      <trkpt lat="45.532088913023472" lon="7.097500059753656">
        <ele>2011.22</ele>
        <time>2015-06-07T05:01:41Z</time>
      </trkpt>
      <trkpt lat="45.532089751213789" lon="7.097483044490218">
        <ele>2011.22</ele>
        <time>2015-06-07T05:02:07Z</time>
      </trkpt>
      <trkpt lat="45.532103916630149" lon="7.097489163279533">
        <ele>2011.22</ele>
        <time>2015-06-07T05:02:27Z</time>
      </trkpt>
      <trkpt lat="45.532090840861201" lon="7.097449181601405">
        <ele>2013.6199999999999</ele>
        <time>2015-06-07T05:02:39Z</time>
      </trkpt>
      <trkpt lat="45.532085727900267" lon="7.09744842723012">
        <ele>2013.1400000000001</ele>
        <time>2015-06-07T05:02:40Z</time>
      </trkpt>
      <trkpt lat="45.532074579969049" lon="7.097449935972691">
        <ele>2012.1800000000001</ele>
        <time>2015-06-07T05:02:42Z</time>
      </trkpt>
      <trkpt lat="45.532077932730317" lon="7.097438788041472">
        <ele>2011.7</ele>
        <time>2015-06-07T05:02:58Z</time>
      </trkpt>
      <trkpt lat="45.532085057348013" lon="7.097451947629452">
        <ele>2013.1400000000001</ele>
        <time>2015-06-07T05:03:14Z</time>
      </trkpt>
      <trkpt lat="45.532063515856862" lon="7.097448762506247">
        <ele>2012.6600000000001</ele>
        <time>2015-06-07T05:03:28Z</time>
      </trkpt>
      <trkpt lat="45.532108945772052" lon="7.097458569332957">
        <ele>2012.1800000000001</ele>
        <time>2015-06-07T05:03:43Z</time>
      </trkpt>
      <trkpt lat="45.532136522233486" lon="7.097470639273524">
        <ele>2011.7</ele>
        <time>2015-06-07T05:03:50Z</time>
      </trkpt>
      <trkpt lat="45.532145826146007" lon="7.097478602081537">
        <ele>2011.22</ele>
        <time>2015-06-07T05:04:11Z</time>
      </trkpt>
      <trkpt lat="45.53214892745018" lon="7.097476506605744">
        <ele>2011.22</ele>
        <time>2015-06-07T05:04:12Z</time>
      </trkpt>
      <trkpt lat="45.532158901914954" lon="7.097443984821439">
        <ele>2012.1800000000001</ele>
        <time>2015-06-07T05:04:18Z</time>
      </trkpt>
      <trkpt lat="45.53215429186821" lon="7.097430992871523">
        <ele>2012.1800000000001</ele>
        <time>2015-06-07T05:04:19Z</time>
      </trkpt>
      <trkpt lat="45.532157057896256" lon="7.097408613190055">
        <ele>2011.7</ele>
        <time>2015-06-07T05:04:28Z</time>
      </trkpt>
      <trkpt lat="45.532157309353352" lon="7.097368380054832">
        <ele>2012.6600000000001</ele>
        <time>2015-06-07T05:04:37Z</time>
      </trkpt>
      <trkpt lat="45.532144485041499" lon="7.097359243780375">
        <ele>2012.6600000000001</ele>
        <time>2015-06-07T05:04:39Z</time>
      </trkpt>
      <trkpt lat="45.532117579132318" lon="7.09733946248889">
        <ele>2012.1800000000001</ele>
        <time>2015-06-07T05:04:42Z</time>
      </trkpt>
      <trkpt lat="45.532038873061538" lon="7.097286572679877">
        <ele>2013.1400000000001</ele>
        <time>2015-06-07T05:04:51Z</time>
      </trkpt>
      <trkpt lat="45.532018672674894" lon="7.097291853278875">
        <ele>2012.6600000000001</ele>
        <time>2015-06-07T05:04:53Z</time>
      </trkpt>
      <trkpt lat="45.531999478116632" lon="7.097265785560012">
        <ele>2012.6600000000001</ele>
        <time>2015-06-07T05:04:56Z</time>
      </trkpt>
      <trkpt lat="45.531925801187754" lon="7.097217170521617">
        <ele>2013.1400000000001</ele>
        <time>2015-06-07T05:05:04Z</time>
      </trkpt>
      <trkpt lat="45.531895207241178" lon="7.097176434472203">
        <ele>2013.6199999999999</ele>
        <time>2015-06-07T05:05:08Z</time>
      </trkpt>
      <trkpt lat="45.531892105937004" lon="7.096959678456187">
        <ele>2014.5799999999999</ele>
        <time>2015-06-07T05:05:20Z</time>
      </trkpt>
      <trkpt lat="45.531915072351694" lon="7.096760859712958">
        <ele>2016.02</ele>
        <time>2015-06-07T05:05:33Z</time>
      </trkpt>
      <trkpt lat="45.531952623277903" lon="7.096593976020813">
        <ele>2017.9400000000001</ele>
        <time>2015-06-07T05:05:46Z</time>
      </trkpt>
      <trkpt lat="45.531987743452191" lon="7.096479060128331">
        <ele>2020.3499999999999</ele>
        <time>2015-06-07T05:05:57Z</time>
      </trkpt>
      <trkpt lat="45.531993107870221" lon="7.096437904983759">
        <ele>2021.3099999999999</ele>
        <time>2015-06-07T05:06:01Z</time>
      </trkpt>
      <trkpt lat="45.531975841149688" lon="7.096307147294283">
        <ele>2023.23</ele>
        <time>2015-06-07T05:06:12Z</time>
      </trkpt>
      <trkpt lat="45.531977349892259" lon="7.096182592213154">
        <ele>2025.1500000000001</ele>
        <time>2015-06-07T05:06:22Z</time>
      </trkpt>
      <trkpt lat="45.531955640763044" lon="7.096059126779437">
        <ele>2027.5599999999999</ele>
        <time>2015-06-07T05:06:34Z</time>
      </trkpt>
      <trkpt lat="45.531906103715301" lon="7.095946138724685">
        <ele>2029</ele>
        <time>2015-06-07T05:06:45Z</time>
      </trkpt>
      <trkpt lat="45.531898895278573" lon="7.095870031043887">
        <ele>2030.4400000000001</ele>
        <time>2015-06-07T05:06:52Z</time>
      </trkpt>
      <trkpt lat="45.531798647716641" lon="7.095778919756413">
        <ele>2031.8800000000001</ele>
        <time>2015-06-07T05:07:04Z</time>
      </trkpt>
      <trkpt lat="45.531769478693604" lon="7.095729885622859">
        <ele>2033.3299999999999</ele>
        <time>2015-06-07T05:07:10Z</time>
      </trkpt>
      <trkpt lat="45.531709883362055" lon="7.095629721879959">
        <ele>2034.77</ele>
        <time>2015-06-07T05:07:20Z</time>
      </trkpt>
      <trkpt lat="45.531685156747699" lon="7.09553886204958">
        <ele>2035.25</ele>
        <time>2015-06-07T05:07:26Z</time>
      </trkpt>
      <trkpt lat="45.531653892248869" lon="7.095371223986149">
        <ele>2036.21</ele>
        <time>2015-06-07T05:07:37Z</time>
      </trkpt>
      <trkpt lat="45.531651042401791" lon="7.095338366925716">
        <ele>2036.6900000000001</ele>
        <time>2015-06-07T05:07:39Z</time>
      </trkpt>
      <trkpt lat="45.531653137877584" lon="7.095310455188155">
        <ele>2037.1700000000001</ele>
        <time>2015-06-07T05:07:41Z</time>
      </trkpt>
      <trkpt lat="45.531639810651541" lon="7.095276257023215">
        <ele>2038.1300000000001</ele>
        <time>2015-06-07T05:07:44Z</time>
      </trkpt>
      <trkpt lat="45.531587675213814" lon="7.095190845429897">
        <ele>2038.6099999999999</ele>
        <time>2015-06-07T05:07:54Z</time>
      </trkpt>
      <trkpt lat="45.531561439856887" lon="7.095116330310702">
        <ele>2040.54</ele>
        <time>2015-06-07T05:08:02Z</time>
      </trkpt>
      <trkpt lat="45.531546268612146" lon="7.095092022791505">
        <ele>2041.02</ele>
        <time>2015-06-07T05:08:05Z</time>
      </trkpt>
      <trkpt lat="45.531522212550044" lon="7.095070900395513">
        <ele>2041.5</ele>
        <time>2015-06-07T05:08:08Z</time>
      </trkpt>
      <trkpt lat="45.531517183408141" lon="7.095028404146433">
        <ele>2042.46</ele>
        <time>2015-06-07T05:08:12Z</time>
      </trkpt>
      <trkpt lat="45.531485080718994" lon="7.094895383343101">
        <ele>2043.4200000000001</ele>
        <time>2015-06-07T05:08:22Z</time>
      </trkpt>
      <trkpt lat="45.531454067677259" lon="7.094709221273661">
        <ele>2043.9000000000001</ele>
        <time>2015-06-07T05:08:33Z</time>
      </trkpt>
      <trkpt lat="45.53143696859479" lon="7.094548121094704">
        <ele>2045.3399999999999</ele>
        <time>2015-06-07T05:08:44Z</time>
      </trkpt>
      <trkpt lat="45.531394891440868" lon="7.094380985945463">
        <ele>2045.3399999999999</ele>
        <time>2015-06-07T05:08:55Z</time>
      </trkpt>
      <trkpt lat="45.53136371076107" lon="7.094321893528104">
        <ele>2046.3</ele>
        <time>2015-06-07T05:09:00Z</time>
      </trkpt>
      <trkpt lat="45.531355580314994" lon="7.094280989840627">
        <ele>2046.78</ele>
        <time>2015-06-07T05:09:03Z</time>
      </trkpt>
      <trkpt lat="45.531275281682611" lon="7.094159033149481">
        <ele>2049.1900000000001</ele>
        <time>2015-06-07T05:09:15Z</time>
      </trkpt>
      <trkpt lat="45.531252650544047" lon="7.094102958217263">
        <ele>2049.6700000000001</ele>
        <time>2015-06-07T05:09:20Z</time>
      </trkpt>
      <trkpt lat="45.531225744634867" lon="7.094054259359837">
        <ele>2050.1500000000001</ele>
        <time>2015-06-07T05:09:24Z</time>
      </trkpt>
      <trkpt lat="45.531149553135037" lon="7.093909420073032">
        <ele>2050.6300000000001</ele>
        <time>2015-06-07T05:09:35Z</time>
      </trkpt>
      <trkpt lat="45.531073780730367" lon="7.093737339600921">
        <ele>2052.0700000000002</ele>
        <time>2015-06-07T05:09:47Z</time>
      </trkpt>
      <trkpt lat="45.531061543151736" lon="7.09371529519558">
        <ele>2052.0700000000002</ele>
        <time>2015-06-07T05:09:49Z</time>
      </trkpt>
      <trkpt lat="45.531053664162755" lon="7.093690317124128">
        <ele>2052.5500000000002</ele>
        <time>2015-06-07T05:09:51Z</time>
      </trkpt>
      <trkpt lat="45.531003540381789" lon="7.09360146895051">
        <ele>2053.9899999999998</ele>
        <time>2015-06-07T05:10:00Z</time>
      </trkpt>
      <trkpt lat="45.530970599502325" lon="7.093525193631649">
        <ele>2055.4400000000001</ele>
        <time>2015-06-07T05:10:08Z</time>
      </trkpt>
      <trkpt lat="45.530947046354413" lon="7.0933723077178">
        <ele>2055.4400000000001</ele>
        <time>2015-06-07T05:10:20Z</time>
      </trkpt>
      <trkpt lat="45.530922822654247" lon="7.093335092067719">
        <ele>2058.3200000000002</ele>
        <time>2015-06-07T05:10:24Z</time>
      </trkpt>
      <trkpt lat="45.530915781855583" lon="7.093334002420306">
        <ele>2058.3200000000002</ele>
        <time>2015-06-07T05:10:25Z</time>
      </trkpt>
      <trkpt lat="45.530882840976119" lon="7.093303576111794">
        <ele>2059.2800000000002</ele>
        <time>2015-06-07T05:10:30Z</time>
      </trkpt>
      <trkpt lat="45.530839003622532" lon="7.093300558626652">
        <ele>2060.2399999999998</ele>
        <time>2015-06-07T05:10:35Z</time>
      </trkpt>
      <trkpt lat="45.530775133520365" lon="7.093217074871063">
        <ele>2060.7199999999998</ele>
        <time>2015-06-07T05:10:43Z</time>
      </trkpt>
      <trkpt lat="45.530640184879303" lon="7.093027727678418">
        <ele>2057.8400000000001</ele>
        <time>2015-06-07T05:10:57Z</time>
      </trkpt>
      <trkpt lat="45.530510349199176" lon="7.092829160392284">
        <ele>2057.3600000000001</ele>
        <time>2015-06-07T05:11:10Z</time>
      </trkpt>
      <trkpt lat="45.530448826029897" lon="7.092774175107479">
        <ele>2057.8400000000001</ele>
        <time>2015-06-07T05:11:16Z</time>
      </trkpt>
      <trkpt lat="45.530394678935409" lon="7.092726398259401">
        <ele>2058.3200000000002</ele>
        <time>2015-06-07T05:11:21Z</time>
      </trkpt>
      <trkpt lat="45.530283618718386" lon="7.092567477375269">
        <ele>2059.7600000000002</ele>
        <time>2015-06-07T05:11:33Z</time>
      </trkpt>
      <trkpt lat="45.530154705047607" lon="7.09235742688179">
        <ele>2058.3200000000002</ele>
        <time>2015-06-07T05:11:47Z</time>
      </trkpt>
      <trkpt lat="45.530134839937091" lon="7.092157015576959">
        <ele>2056.4000000000001</ele>
        <time>2015-06-07T05:11:58Z</time>
      </trkpt>
      <trkpt lat="45.530117573216558" lon="7.092123823240399">
        <ele>2056.4000000000001</ele>
        <time>2015-06-07T05:12:02Z</time>
      </trkpt>
      <trkpt lat="45.530101899057627" lon="7.092106472700834">
        <ele>2056.8800000000001</ele>
        <time>2015-06-07T05:12:05Z</time>
      </trkpt>
      <trkpt lat="45.530051859095693" lon="7.092104209586978">
        <ele>2056.4000000000001</ele>
        <time>2015-06-07T05:12:09Z</time>
      </trkpt>
      <trkpt lat="45.530017828568816" lon="7.092078560963273">
        <ele>2056.8800000000001</ele>
        <time>2015-06-07T05:12:12Z</time>
      </trkpt>
      <trkpt lat="45.529986312612891" lon="7.092034975066781">
        <ele>2057.8400000000001</ele>
        <time>2015-06-07T05:12:16Z</time>
      </trkpt>
      <trkpt lat="45.529904924333096" lon="7.091807071119547">
        <ele>2057.3600000000001</ele>
        <time>2015-06-07T05:12:29Z</time>
      </trkpt>
      <trkpt lat="45.529807442799211" lon="7.091534743085504">
        <ele>2056.4000000000001</ele>
        <time>2015-06-07T05:12:44Z</time>
      </trkpt>
      <trkpt lat="45.52965790964663" lon="7.091356040909886">
        <ele>2056.4000000000001</ele>
        <time>2015-06-07T05:12:58Z</time>
      </trkpt>
      <trkpt lat="45.529499659314752" lon="7.09123601205647">
        <ele>2057.8400000000001</ele>
        <time>2015-06-07T05:13:12Z</time>
      </trkpt>
      <trkpt lat="45.529448110610247" lon="7.091137943789363">
        <ele>2060.2399999999998</ele>
        <time>2015-06-07T05:13:22Z</time>
      </trkpt>
      <trkpt lat="45.529391532763839" lon="7.090995786711574">
        <ele>2061.1999999999998</ele>
        <time>2015-06-07T05:13:32Z</time>
      </trkpt>
      <trkpt lat="45.529326824471354" lon="7.090821694582701">
        <ele>2061.6799999999998</ele>
        <time>2015-06-07T05:13:43Z</time>
      </trkpt>
      <trkpt lat="45.52921081893146" lon="7.090698229148984">
        <ele>2061.6799999999998</ele>
        <time>2015-06-07T05:13:54Z</time>
      </trkpt>
      <trkpt lat="45.529090706259012" lon="7.090516928583384">
        <ele>2062.1700000000001</ele>
        <time>2015-06-07T05:14:07Z</time>
      </trkpt>
      <trkpt lat="45.5289894528687" lon="7.090327832847834">
        <ele>2062.1700000000001</ele>
        <time>2015-06-07T05:14:20Z</time>
      </trkpt>
      <trkpt lat="45.52895525470376" lon="7.090088194236159">
        <ele>2060.7199999999998</ele>
        <time>2015-06-07T05:14:32Z</time>
      </trkpt>
      <trkpt lat="45.528941592201591" lon="7.089982498437166">
        <ele>2062.6500000000001</ele>
        <time>2015-06-07T05:14:39Z</time>
      </trkpt>
      <trkpt lat="45.528868502005935" lon="7.089908989146352">
        <ele>2062.6500000000001</ele>
        <time>2015-06-07T05:14:48Z</time>
      </trkpt>
      <trkpt lat="45.528807984665036" lon="7.089852914214134">
        <ele>2062.1700000000001</ele>
        <time>2015-06-07T05:14:54Z</time>
      </trkpt>
      <trkpt lat="45.528772445395589" lon="7.08984293974936">
        <ele>2061.6799999999998</ele>
        <time>2015-06-07T05:14:57Z</time>
      </trkpt>
      <trkpt lat="45.528654512017965" lon="7.089785104617477">
        <ele>2061.6799999999998</ele>
        <time>2015-06-07T05:15:07Z</time>
      </trkpt>
      <trkpt lat="45.528567340224981" lon="7.089711176231504">
        <ele>2063.6100000000001</ele>
        <time>2015-06-07T05:15:17Z</time>
      </trkpt>
      <trkpt lat="45.528526939451694" lon="7.089668679982424">
        <ele>2065.0500000000002</ele>
        <time>2015-06-07T05:15:23Z</time>
      </trkpt>
      <trkpt lat="45.528456699103117" lon="7.089605983346701">
        <ele>2067.4499999999998</ele>
        <time>2015-06-07T05:15:34Z</time>
      </trkpt>
      <trkpt lat="45.528428284451365" lon="7.089502466842532">
        <ele>2069.8600000000001</ele>
        <time>2015-06-07T05:15:45Z</time>
      </trkpt>
      <trkpt lat="45.528417807072401" lon="7.089435327798128">
        <ele>2072.2600000000002</ele>
        <time>2015-06-07T05:15:54Z</time>
      </trkpt>
      <trkpt lat="45.528397858142853" lon="7.089350670576096">
        <ele>2074.1799999999998</ele>
        <time>2015-06-07T05:16:04Z</time>
      </trkpt>
      <trkpt lat="45.528366342186928" lon="7.089256290346384">
        <ele>2077.0700000000002</ele>
        <time>2015-06-07T05:16:16Z</time>
      </trkpt>
      <trkpt lat="45.528343291953206" lon="7.089163837954402">
        <ele>2078.9899999999998</ele>
        <time>2015-06-07T05:16:27Z</time>
      </trkpt>
      <trkpt lat="45.528315296396613" lon="7.089083539322019">
        <ele>2080.9099999999999</ele>
        <time>2015-06-07T05:16:38Z</time>
      </trkpt>
      <trkpt lat="45.528282271698117" lon="7.089015813544393">
        <ele>2083.3099999999999</ele>
        <time>2015-06-07T05:16:48Z</time>
      </trkpt>
      <trkpt lat="45.528235249221325" lon="7.088960409164429">
        <ele>2085.2399999999998</ele>
        <time>2015-06-07T05:16:59Z</time>
      </trkpt>
      <trkpt lat="45.528198704123497" lon="7.088918751105666">
        <ele>2087.1599999999999</ele>
        <time>2015-06-07T05:17:08Z</time>
      </trkpt>
      <trkpt lat="45.528208846226335" lon="7.088874243199825">
        <ele>2088.5999999999999</ele>
        <time>2015-06-07T05:17:16Z</time>
      </trkpt>
      <trkpt lat="45.528188813477755" lon="7.088852366432548">
        <ele>2090.04</ele>
        <time>2015-06-07T05:17:25Z</time>
      </trkpt>
      <trkpt lat="45.528168361634016" lon="7.088842978700995">
        <ele>2091</ele>
        <time>2015-06-07T05:17:34Z</time>
      </trkpt>
      <trkpt lat="45.528112705796957" lon="7.088845241814852">
        <ele>2091</ele>
        <time>2015-06-07T05:17:45Z</time>
      </trkpt>
      <trkpt lat="45.528086135163903" lon="7.088873824104667">
        <ele>2091.4899999999998</ele>
        <time>2015-06-07T05:17:49Z</time>
      </trkpt>
      <trkpt lat="45.528045650571585" lon="7.089005503803492">
        <ele>2091.9699999999998</ele>
        <time>2015-06-07T05:18:00Z</time>
      </trkpt>
      <trkpt lat="45.528025114908814" lon="7.089014891535044">
        <ele>2092.9299999999998</ele>
        <time>2015-06-07T05:18:03Z</time>
      </trkpt>
      <trkpt lat="45.527924783527851" lon="7.088919254019857">
        <ele>2094.8499999999999</ele>
        <time>2015-06-07T05:18:14Z</time>
      </trkpt>
      <trkpt lat="45.527878934517503" lon="7.088843397796154">
        <ele>2095.8099999999999</ele>
        <time>2015-06-07T05:18:23Z</time>
      </trkpt>
      <trkpt lat="45.527815399691463" lon="7.088709203526378">
        <ele>2096.77</ele>
        <time>2015-06-07T05:18:33Z</time>
      </trkpt>
      <trkpt lat="45.527812298387289" lon="7.088693445548415">
        <ele>2096.77</ele>
        <time>2015-06-07T05:18:34Z</time>
      </trkpt>
      <trkpt lat="45.527757899835706" lon="7.088594790548086">
        <ele>2096.77</ele>
        <time>2015-06-07T05:18:41Z</time>
      </trkpt>
      <trkpt lat="45.527748093008995" lon="7.088508792221546">
        <ele>2098.21</ele>
        <time>2015-06-07T05:18:47Z</time>
      </trkpt>
      <trkpt lat="45.527694281190634" lon="7.088353224098682">
        <ele>2099.6599999999999</ele>
        <time>2015-06-07T05:18:58Z</time>
      </trkpt>
      <trkpt lat="45.527689000591636" lon="7.088321289047599">
        <ele>2099.6599999999999</ele>
        <time>2015-06-07T05:19:00Z</time>
      </trkpt>
      <trkpt lat="45.527610462158918" lon="7.088149124756455">
        <ele>2099.1799999999998</ele>
        <time>2015-06-07T05:19:12Z</time>
      </trkpt>
      <trkpt lat="45.527596129104495" lon="7.088094726204872">
        <ele>2099.1799999999998</ele>
        <time>2015-06-07T05:19:16Z</time>
      </trkpt>
      <trkpt lat="45.527529157698154" lon="7.088023396208882">
        <ele>2100.6199999999999</ele>
        <time>2015-06-07T05:19:25Z</time>
      </trkpt>
      <trkpt lat="45.527537707239389" lon="7.087942510843277">
        <ele>2101.5799999999999</ele>
        <time>2015-06-07T05:19:30Z</time>
      </trkpt>
      <trkpt lat="45.527512226253748" lon="7.087873527780175">
        <ele>2102.54</ele>
        <time>2015-06-07T05:19:37Z</time>
      </trkpt>
      <trkpt lat="45.527511639520526" lon="7.08788744173944">
        <ele>2102.54</ele>
        <time>2015-06-07T05:19:44Z</time>
      </trkpt>
      <trkpt lat="45.527507700026035" lon="7.087877634912729">
        <ele>2102.54</ele>
        <time>2015-06-07T05:20:13Z</time>
      </trkpt>
      <trkpt lat="45.527539132162929" lon="7.087911330163479">
        <ele>2102.54</ele>
        <time>2015-06-07T05:20:38Z</time>
      </trkpt>
      <trkpt lat="45.527528319507837" lon="7.087873863056302">
        <ele>2103.98</ele>
        <time>2015-06-07T05:20:47Z</time>
      </trkpt>
      <trkpt lat="45.527498899027705" lon="7.087820302695036">
        <ele>2103.98</ele>
        <time>2015-06-07T05:20:56Z</time>
      </trkpt>
      <trkpt lat="45.527475094422698" lon="7.087784595787525">
        <ele>2103.98</ele>
        <time>2015-06-07T05:21:05Z</time>
      </trkpt>
      <trkpt lat="45.52741507999599" lon="7.087656436488032">
        <ele>2104.46</ele>
        <time>2015-06-07T05:21:14Z</time>
      </trkpt>
      <trkpt lat="45.527321035042405" lon="7.087476728484035">
        <ele>2103.98</ele>
        <time>2015-06-07T05:21:27Z</time>
      </trkpt>
      <trkpt lat="45.527239143848419" lon="7.087310766801238">
        <ele>2103.98</ele>
        <time>2015-06-07T05:21:39Z</time>
      </trkpt>
      <trkpt lat="45.527175525203347" lon="7.087263325229287">
        <ele>2104.46</ele>
        <time>2015-06-07T05:21:45Z</time>
      </trkpt>
      <trkpt lat="45.527129089459777" lon="7.087203646078706">
        <ele>2104.9400000000001</ele>
        <time>2015-06-07T05:21:50Z</time>
      </trkpt>
      <trkpt lat="45.52709061652422" lon="7.087108511477709">
        <ele>2105.9099999999999</ele>
        <time>2015-06-07T05:21:58Z</time>
      </trkpt>
      <trkpt lat="45.52698265761137" lon="7.08715301938355">
        <ele>2104.9400000000001</ele>
        <time>2015-06-07T05:22:08Z</time>
      </trkpt>
      <trkpt lat="45.52684829570353" lon="7.087234072387219">
        <ele>2104.46</ele>
        <time>2015-06-07T05:22:19Z</time>
      </trkpt>
      <trkpt lat="45.52679255604744" lon="7.087212530896068">
        <ele>2103.98</ele>
        <time>2015-06-07T05:22:24Z</time>
      </trkpt>
      <trkpt lat="45.526771601289511" lon="7.08720188587904">
        <ele>2104.46</ele>
        <time>2015-06-07T05:22:26Z</time>
      </trkpt>
      <trkpt lat="45.526630030944943" lon="7.087192498147488">
        <ele>2103.98</ele>
        <time>2015-06-07T05:22:38Z</time>
      </trkpt>
      <trkpt lat="45.52657320164144" lon="7.08715301938355">
        <ele>2103.98</ele>
        <time>2015-06-07T05:22:43Z</time>
      </trkpt>
      <trkpt lat="45.526510085910559" lon="7.087138351053">
        <ele>2103.5</ele>
        <time>2015-06-07T05:22:49Z</time>
      </trkpt>
      <trkpt lat="45.526466248556972" lon="7.087170537561178">
        <ele>2103.5</ele>
        <time>2015-06-07T05:22:53Z</time>
      </trkpt>
      <trkpt lat="45.526316883042455" lon="7.087210435420275">
        <ele>2102.54</ele>
        <time>2015-06-07T05:23:05Z</time>
      </trkpt>
      <trkpt lat="45.526290815323591" lon="7.087213788181543">
        <ele>2102.54</ele>
        <time>2015-06-07T05:23:07Z</time>
      </trkpt>
      <trkpt lat="45.526174390688539" lon="7.087219404056668">
        <ele>2103.02</ele>
        <time>2015-06-07T05:23:16Z</time>
      </trkpt>
      <trkpt lat="45.526056624948978" lon="7.08717355504632">
        <ele>2103.98</ele>
        <time>2015-06-07T05:23:26Z</time>
      </trkpt>
      <trkpt lat="45.525951096788049" lon="7.087117312476039">
        <ele>2104.46</ele>
        <time>2015-06-07T05:23:35Z</time>
      </trkpt>
      <trkpt lat="45.525917988270521" lon="7.087069116532803">
        <ele>2104.9400000000001</ele>
        <time>2015-06-07T05:23:39Z</time>
      </trkpt>
      <trkpt lat="45.52588663995266" lon="7.087038354948163">
        <ele>2105.9099999999999</ele>
        <time>2015-06-07T05:23:48Z</time>
      </trkpt>
      <trkpt lat="45.525827882811427" lon="7.08694196306169">
        <ele>2106.8699999999999</ele>
        <time>2015-06-07T05:23:57Z</time>
      </trkpt>
      <trkpt lat="45.525765186175704" lon="7.086925031617284">
        <ele>2108.79</ele>
        <time>2015-06-07T05:24:07Z</time>
      </trkpt>
      <trkpt lat="45.525773651897907" lon="7.086919667199254">
        <ele>2109.27</ele>
        <time>2015-06-07T05:24:11Z</time>
      </trkpt>
      <trkpt lat="45.525735514238477" lon="7.086846744641662">
        <ele>2109.75</ele>
        <time>2015-06-07T05:24:18Z</time>
      </trkpt>
      <trkpt lat="45.52569318562746" lon="7.086815061047673">
        <ele>2110.71</ele>
        <time>2015-06-07T05:24:22Z</time>
      </trkpt>
      <trkpt lat="45.525588328018785" lon="7.086656726896763">
        <ele>2111.1900000000001</ele>
        <time>2015-06-07T05:24:35Z</time>
      </trkpt>
      <trkpt lat="45.52555781789124" lon="7.086624791845679">
        <ele>2111.6700000000001</ele>
        <time>2015-06-07T05:24:39Z</time>
      </trkpt>
      <trkpt lat="45.525485565885901" lon="7.086503421887755">
        <ele>2112.1500000000001</ele>
        <time>2015-06-07T05:24:49Z</time>
      </trkpt>
      <trkpt lat="45.525445248931646" lon="7.086472325026989">
        <ele>2112.6300000000001</ele>
        <time>2015-06-07T05:24:57Z</time>
      </trkpt>
      <trkpt lat="45.525416163727641" lon="7.086411472409964">
        <ele>2112.1500000000001</ele>
        <time>2015-06-07T05:25:01Z</time>
      </trkpt>
      <trkpt lat="45.525280209258199" lon="7.086299657821655">
        <ele>2112.6300000000001</ele>
        <time>2015-06-07T05:25:13Z</time>
      </trkpt>
      <trkpt lat="45.525149870663881" lon="7.086172923445702">
        <ele>2112.1500000000001</ele>
        <time>2015-06-07T05:25:25Z</time>
      </trkpt>
      <trkpt lat="45.525099746882915" lon="7.085965219885111">
        <ele>2112.6300000000001</ele>
        <time>2015-06-07T05:25:38Z</time>
      </trkpt>
      <trkpt lat="45.524977874010801" lon="7.085788948461413">
        <ele>2113.1199999999999</ele>
        <time>2015-06-07T05:25:53Z</time>
      </trkpt>
      <trkpt lat="45.524889780208468" lon="7.085612593218684">
        <ele>2113.1199999999999</ele>
        <time>2015-06-07T05:26:05Z</time>
      </trkpt>
      <trkpt lat="45.524750472977757" lon="7.085501784458756">
        <ele>2112.1500000000001</ele>
        <time>2015-06-07T05:26:16Z</time>
      </trkpt>
      <trkpt lat="45.524662798270583" lon="7.085373206064105">
        <ele>2111.6700000000001</ele>
        <time>2015-06-07T05:26:26Z</time>
      </trkpt>
      <trkpt lat="45.524639748036861" lon="7.085360046476126">
        <ele>2111.6700000000001</ele>
        <time>2015-06-07T05:26:28Z</time>
      </trkpt>
      <trkpt lat="45.524622732773423" lon="7.085318807512522">
        <ele>2111.6700000000001</ele>
        <time>2015-06-07T05:26:31Z</time>
      </trkpt>
      <trkpt lat="45.524602616205812" lon="7.085314700379968">
        <ele>2111.1900000000001</ele>
        <time>2015-06-07T05:26:33Z</time>
      </trkpt>
      <trkpt lat="45.524442018941045" lon="7.085205065086484">
        <ele>2110.23</ele>
        <time>2015-06-07T05:26:46Z</time>
      </trkpt>
      <trkpt lat="45.524372365325689" lon="7.085177404806018">
        <ele>2109.75</ele>
        <time>2015-06-07T05:26:51Z</time>
      </trkpt>
      <trkpt lat="45.524332551285625" lon="7.085132226347923">
        <ele>2108.79</ele>
        <time>2015-06-07T05:26:55Z</time>
      </trkpt>
      <trkpt lat="45.524206068366766" lon="7.085050502792001">
        <ele>2108.79</ele>
        <time>2015-06-07T05:27:06Z</time>
      </trkpt>
      <trkpt lat="45.524166086688638" lon="7.085014712065458">
        <ele>2109.27</ele>
        <time>2015-06-07T05:27:16Z</time>
      </trkpt>
      <trkpt lat="45.523985372856259" lon="7.084883451461792">
        <ele>2108.3099999999999</ele>
        <time>2015-06-07T05:27:31Z</time>
      </trkpt>
      <trkpt lat="45.523860566318035" lon="7.084757555276156">
        <ele>2108.79</ele>
        <time>2015-06-07T05:27:43Z</time>
      </trkpt>
      <trkpt lat="45.52383491769433" lon="7.084756130352616">
        <ele>2108.79</ele>
        <time>2015-06-07T05:27:45Z</time>
      </trkpt>
      <trkpt lat="45.523812705650926" lon="7.084774486720562">
        <ele>2108.79</ele>
        <time>2015-06-07T05:27:47Z</time>
      </trkpt>
      <trkpt lat="45.523672392591834" lon="7.084761830046773">
        <ele>2108.79</ele>
        <time>2015-06-07T05:27:57Z</time>
      </trkpt>
      <trkpt lat="45.523572145029902" lon="7.084740120917559">
        <ele>2109.75</ele>
        <time>2015-06-07T05:28:05Z</time>
      </trkpt>
      <trkpt lat="45.523518165573478" lon="7.084737354889512">
        <ele>2110.71</ele>
        <time>2015-06-07T05:28:10Z</time>
      </trkpt>
      <trkpt lat="45.523440213873982" lon="7.084624115377665">
        <ele>2112.1500000000001</ele>
        <time>2015-06-07T05:28:19Z</time>
      </trkpt>
      <trkpt lat="45.523359915241599" lon="7.084564939141274">
        <ele>2112.6300000000001</ele>
        <time>2015-06-07T05:28:26Z</time>
      </trkpt>
      <trkpt lat="45.523322029039264" lon="7.084471061825752">
        <ele>2114.0799999999999</ele>
        <time>2015-06-07T05:28:36Z</time>
      </trkpt>
      <trkpt lat="45.523328483104706" lon="7.084441473707557">
        <ele>2114.5599999999999</ele>
        <time>2015-06-07T05:28:39Z</time>
      </trkpt>
      <trkpt lat="45.523342061787844" lon="7.084337873384357">
        <ele>2115.52</ele>
        <time>2015-06-07T05:28:47Z</time>
      </trkpt>
      <trkpt lat="45.523335691541433" lon="7.084253551438451">
        <ele>2116.96</ele>
        <time>2015-06-07T05:28:55Z</time>
      </trkpt>
      <trkpt lat="45.523308701813221" lon="7.084162021055818">
        <ele>2119.3600000000001</ele>
        <time>2015-06-07T05:29:05Z</time>
      </trkpt>
      <trkpt lat="45.52327198907733" lon="7.084086583927274">
        <ele>2121.77</ele>
        <time>2015-06-07T05:29:15Z</time>
      </trkpt>
      <trkpt lat="45.523213399574161" lon="7.084029586985707">
        <ele>2123.6900000000001</ele>
        <time>2015-06-07T05:29:26Z</time>
      </trkpt>
      <trkpt lat="45.523176603019238" lon="7.083987174555659">
        <ele>2125.6100000000001</ele>
        <time>2015-06-07T05:29:35Z</time>
      </trkpt>
      <trkpt lat="45.523147350177169" lon="7.083980469033122">
        <ele>2126.5700000000002</ele>
        <time>2015-06-07T05:29:38Z</time>
      </trkpt>
      <trkpt lat="45.523126563057303" lon="7.083950294181705">
        <ele>2126.5700000000002</ele>
        <time>2015-06-07T05:29:41Z</time>
      </trkpt>
      <trkpt lat="45.523133268579841" lon="7.083880724385381">
        <ele>2127.5300000000002</ele>
        <time>2015-06-07T05:29:50Z</time>
      </trkpt>
      <trkpt lat="45.523132598027587" lon="7.083824565634131">
        <ele>2129.9400000000001</ele>
        <time>2015-06-07T05:30:01Z</time>
      </trkpt>
      <trkpt lat="45.523080127313733" lon="7.083753570914269">
        <ele>2131.3800000000001</ele>
        <time>2015-06-07T05:30:10Z</time>
      </trkpt>
      <trkpt lat="45.52293780259788" lon="7.083701267838478">
        <ele>2130.4200000000001</ele>
        <time>2015-06-07T05:30:21Z</time>
      </trkpt>
      <trkpt lat="45.522793466225266" lon="7.083849292248488">
        <ele>2129.46</ele>
        <time>2015-06-07T05:30:33Z</time>
      </trkpt>
      <trkpt lat="45.522624654695392" lon="7.083933195099235">
        <ele>2128.98</ele>
        <time>2015-06-07T05:30:46Z</time>
      </trkpt>
      <trkpt lat="45.522485096007586" lon="7.083934200927615">
        <ele>2127.5300000000002</ele>
        <time>2015-06-07T05:30:57Z</time>
      </trkpt>
      <trkpt lat="45.522347968071699" lon="7.08395884372294">
        <ele>2127.5300000000002</ele>
        <time>2015-06-07T05:31:08Z</time>
      </trkpt>
      <trkpt lat="45.522258281707764" lon="7.084007961675525">
        <ele>2127.0500000000002</ele>
        <time>2015-06-07T05:31:17Z</time>
      </trkpt>
      <trkpt lat="45.522214025259018" lon="7.084050290286541">
        <ele>2126.5700000000002</ele>
        <time>2015-06-07T05:31:23Z</time>
      </trkpt>
      <trkpt lat="45.522165996953845" lon="7.084080129861832">
        <ele>2127.0500000000002</ele>
        <time>2015-06-07T05:31:27Z</time>
      </trkpt>
      <trkpt lat="45.522055858746171" lon="7.084178701043129">
        <ele>2127.5300000000002</ele>
        <time>2015-06-07T05:31:36Z</time>
      </trkpt>
      <trkpt lat="45.521889645606279" lon="7.084249695762992">
        <ele>2126.0900000000001</ele>
        <time>2015-06-07T05:31:50Z</time>
      </trkpt>
      <trkpt lat="45.521739525720477" lon="7.084296131506562">
        <ele>2125.6100000000001</ele>
        <time>2015-06-07T05:32:02Z</time>
      </trkpt>
      <trkpt lat="45.521645816043019" lon="7.08436687476933">
        <ele>2125.6100000000001</ele>
        <time>2015-06-07T05:32:11Z</time>
      </trkpt>
      <trkpt lat="45.521653024479747" lon="7.084454046562314">
        <ele>2126.0900000000001</ele>
        <time>2015-06-07T05:32:22Z</time>
      </trkpt>
      <trkpt lat="45.521645732223988" lon="7.084468798711896">
        <ele>2126.0900000000001</ele>
        <time>2015-06-07T05:32:36Z</time>
      </trkpt>
      <trkpt lat="45.521618071943521" lon="7.084509786218405">
        <ele>2126.0900000000001</ele>
        <time>2015-06-07T05:32:48Z</time>
      </trkpt>
      <trkpt lat="45.521625867113471" lon="7.084545912221074">
        <ele>2125.6100000000001</ele>
        <time>2015-06-07T05:32:50Z</time>
      </trkpt>
      <trkpt lat="45.521589908748865" lon="7.084575165063143">
        <ele>2126.5700000000002</ele>
        <time>2015-06-07T05:33:00Z</time>
      </trkpt>
      <trkpt lat="45.521547999233007" lon="7.084579942747951">
        <ele>2128.02</ele>
        <time>2015-06-07T05:33:11Z</time>
      </trkpt>
      <trkpt lat="45.521482871845365" lon="7.084655715152621">
        <ele>2130.4200000000001</ele>
        <time>2015-06-07T05:33:22Z</time>
      </trkpt>
      <trkpt lat="45.521418582648039" lon="7.084704330191016">
        <ele>2132.3400000000001</ele>
        <time>2015-06-07T05:33:31Z</time>
      </trkpt>
      <trkpt lat="45.52139519713819" lon="7.084747161716223">
        <ele>2134.2600000000002</ele>
        <time>2015-06-07T05:33:40Z</time>
      </trkpt>
      <trkpt lat="45.52138882689178" lon="7.084750011563301">
        <ele>2134.2600000000002</ele>
        <time>2015-06-07T05:33:41Z</time>
      </trkpt>
      <trkpt lat="45.52136099897325" lon="7.084799716249108">
        <ele>2135.71</ele>
        <time>2015-06-07T05:33:50Z</time>
      </trkpt>
      <trkpt lat="45.521299308165908" lon="7.08483156748116">
        <ele>2137.1500000000001</ele>
        <time>2015-06-07T05:34:00Z</time>
      </trkpt>
      <trkpt lat="45.521218590438366" lon="7.084860568866134">
        <ele>2139.0700000000002</ele>
        <time>2015-06-07T05:34:11Z</time>
      </trkpt>
      <trkpt lat="45.521151451393962" lon="7.084867861121893">
        <ele>2140.9899999999998</ele>
        <time>2015-06-07T05:34:21Z</time>
      </trkpt>
      <trkpt lat="45.521084228530526" lon="7.084890156984329">
        <ele>2142.9200000000001</ele>
        <time>2015-06-07T05:34:32Z</time>
      </trkpt>
      <trkpt lat="45.521052377298474" lon="7.084923097863793">
        <ele>2144.8400000000001</ele>
        <time>2015-06-07T05:34:41Z</time>
      </trkpt>
      <trkpt lat="45.521055646240711" lon="7.084967019036412">
        <ele>2146.7600000000002</ele>
        <time>2015-06-07T05:34:51Z</time>
      </trkpt>
      <trkpt lat="45.521014239639044" lon="7.085035163909197">
        <ele>2148.6799999999998</ele>
        <time>2015-06-07T05:35:03Z</time>
      </trkpt>
      <trkpt lat="45.520957745611668" lon="7.085085958242416">
        <ele>2151.5700000000002</ele>
        <time>2015-06-07T05:35:13Z</time>
      </trkpt>
      <trkpt lat="45.520904436707497" lon="7.085120994597673">
        <ele>2153.4899999999998</ele>
        <time>2015-06-07T05:35:23Z</time>
      </trkpt>
      <trkpt lat="45.520860599353909" lon="7.085126861929894">
        <ele>2155.4099999999999</ele>
        <time>2015-06-07T05:35:33Z</time>
      </trkpt>
      <trkpt lat="45.520820366218686" lon="7.085166927427054">
        <ele>2156.8600000000001</ele>
        <time>2015-06-07T05:35:42Z</time>
      </trkpt>
      <trkpt lat="45.520824221894145" lon="7.085202634334564">
        <ele>2158.7800000000002</ele>
        <time>2015-06-07T05:35:51Z</time>
      </trkpt>
      <trkpt lat="45.520768817514181" lon="7.085234485566616">
        <ele>2159.7399999999998</ele>
        <time>2015-06-07T05:36:00Z</time>
      </trkpt>
      <trkpt lat="45.520739816129208" lon="7.085256865248084">
        <ele>2162.1399999999999</ele>
        <time>2015-06-07T05:36:11Z</time>
      </trkpt>
      <trkpt lat="45.520758172497153" lon="7.085314784198999">
        <ele>2164.0599999999999</ele>
        <time>2015-06-07T05:36:21Z</time>
      </trkpt>
      <trkpt lat="45.520794047042727" lon="7.085373625159264">
        <ele>2165.9899999999998</ele>
        <time>2015-06-07T05:36:32Z</time>
      </trkpt>
      <trkpt lat="45.520754819735885" lon="7.085436321794987">
        <ele>2167.9099999999999</ele>
        <time>2015-06-07T05:36:41Z</time>
      </trkpt>
      <trkpt lat="45.520738223567605" lon="7.085487116128206">
        <ele>2169.8299999999999</ele>
        <time>2015-06-07T05:36:49Z</time>
      </trkpt>
      <trkpt lat="45.520729841664433" lon="7.08554008975625">
        <ele>2170.79</ele>
        <time>2015-06-07T05:36:55Z</time>
      </trkpt>
      <trkpt lat="45.520634958520532" lon="7.085600607097149">
        <ele>2172.7199999999998</ele>
        <time>2015-06-07T05:37:05Z</time>
      </trkpt>
      <trkpt lat="45.520592126995325" lon="7.085690461099148">
        <ele>2174.1599999999999</ele>
        <time>2015-06-07T05:37:18Z</time>
      </trkpt>
      <trkpt lat="45.520526077598333" lon="7.085721138864756">
        <ele>2176.0799999999999</ele>
        <time>2015-06-07T05:37:29Z</time>
      </trkpt>
      <trkpt lat="45.520465476438403" lon="7.085770675912499">
        <ele>2178.48</ele>
        <time>2015-06-07T05:37:40Z</time>
      </trkpt>
      <trkpt lat="45.520476875826716" lon="7.085813172161579">
        <ele>2179.9299999999998</ele>
        <time>2015-06-07T05:37:47Z</time>
      </trkpt>
      <trkpt lat="45.520429601892829" lon="7.085849801078439">
        <ele>2181.8499999999999</ele>
        <time>2015-06-07T05:37:56Z</time>
      </trkpt>
      <trkpt lat="45.520389704033732" lon="7.085894141346216">
        <ele>2183.29</ele>
        <time>2015-06-07T05:38:04Z</time>
      </trkpt>
      <trkpt lat="45.520355673506856" lon="7.085984665900469">
        <ele>2184.73</ele>
        <time>2015-06-07T05:38:14Z</time>
      </trkpt>
      <trkpt lat="45.520345447584987" lon="7.086003441363573">
        <ele>2185.21</ele>
        <time>2015-06-07T05:38:16Z</time>
      </trkpt>
      <trkpt lat="45.520310578867793" lon="7.086008554324508">
        <ele>2185.6900000000001</ele>
        <time>2015-06-07T05:38:19Z</time>
      </trkpt>
      <trkpt lat="45.52020194940269" lon="7.086036801338196">
        <ele>2185.6900000000001</ele>
        <time>2015-06-07T05:38:29Z</time>
      </trkpt>
      <trkpt lat="45.520150065422058" lon="7.08607217296958">
        <ele>2185.6900000000001</ele>
        <time>2015-06-07T05:38:34Z</time>
      </trkpt>
      <trkpt lat="45.520099019631743" lon="7.086185496300459">
        <ele>2187.1399999999999</ele>
        <time>2015-06-07T05:38:44Z</time>
      </trkpt>
      <trkpt lat="45.520094325765967" lon="7.086265962570906">
        <ele>2189.54</ele>
        <time>2015-06-07T05:38:54Z</time>
      </trkpt>
      <trkpt lat="45.520162889733911" lon="7.086220281198621">
        <ele>2190.98</ele>
        <time>2015-06-07T05:39:03Z</time>
      </trkpt>
      <trkpt lat="45.520102456212044" lon="7.086349865421653">
        <ele>2191.9400000000001</ele>
        <time>2015-06-07T05:39:12Z</time>
      </trkpt>
      <trkpt lat="45.520064402371645" lon="7.086389344185591">
        <ele>2192.4200000000001</ele>
        <time>2015-06-07T05:39:16Z</time>
      </trkpt>
      <trkpt lat="45.519926520064473" lon="7.086384147405624">
        <ele>2193.3899999999999</ele>
        <time>2015-06-07T05:39:28Z</time>
      </trkpt>
      <trkpt lat="45.519808083772659" lon="7.086415411904454">
        <ele>2194.8299999999999</ele>
        <time>2015-06-07T05:39:39Z</time>
      </trkpt>
      <trkpt lat="45.519690318033099" lon="7.086413567885757">
        <ele>2197.23</ele>
        <time>2015-06-07T05:39:51Z</time>
      </trkpt>
      <trkpt lat="45.519586047157645" lon="7.086330084130168">
        <ele>2199.6300000000001</ele>
        <time>2015-06-07T05:40:04Z</time>
      </trkpt>
      <trkpt lat="45.519496193155646" lon="7.086249282583594">
        <ele>2202.04</ele>
        <time>2015-06-07T05:40:17Z</time>
      </trkpt>
      <trkpt lat="45.519412038847804" lon="7.08618943579495">
        <ele>2204.9200000000001</ele>
        <time>2015-06-07T05:40:28Z</time>
      </trkpt>
      <trkpt lat="45.519312126561999" lon="7.086202846840024">
        <ele>2207.8099999999999</ele>
        <time>2015-06-07T05:40:41Z</time>
      </trkpt>
      <trkpt lat="45.519247418269515" lon="7.086211312562227">
        <ele>2208.77</ele>
        <time>2015-06-07T05:40:49Z</time>
      </trkpt>
      <trkpt lat="45.519217494875193" lon="7.086197063326836">
        <ele>2209.73</ele>
        <time>2015-06-07T05:40:52Z</time>
      </trkpt>
      <trkpt lat="45.519195534288883" lon="7.086186334490776">
        <ele>2209.73</ele>
        <time>2015-06-07T05:40:54Z</time>
      </trkpt>
      <trkpt lat="45.519085060805082" lon="7.08614501170814">
        <ele>2211.1700000000001</ele>
        <time>2015-06-07T05:41:06Z</time>
      </trkpt>
      <trkpt lat="45.519056310877204" lon="7.086140150204301">
        <ele>2211.6500000000001</ele>
        <time>2015-06-07T05:41:09Z</time>
      </trkpt>
      <trkpt lat="45.518942903727293" lon="7.086087092757225">
        <ele>2213.5700000000002</ele>
        <time>2015-06-07T05:41:21Z</time>
      </trkpt>
      <trkpt lat="45.518832178786397" lon="7.086023055016995">
        <ele>2214.5300000000002</ele>
        <time>2015-06-07T05:41:32Z</time>
      </trkpt>
      <trkpt lat="45.518668983131647" lon="7.085948958992958">
        <ele>2216.46</ele>
        <time>2015-06-07T05:41:47Z</time>
      </trkpt>
      <trkpt lat="45.518526406958699" lon="7.085881987586618">
        <ele>2218.8600000000001</ele>
        <time>2015-06-07T05:42:00Z</time>
      </trkpt>
      <trkpt lat="45.518426829949021" lon="7.085827337577939">
        <ele>2219.8200000000002</ele>
        <time>2015-06-07T05:42:10Z</time>
      </trkpt>
      <trkpt lat="45.518341334536672" lon="7.085692640393972">
        <ele>2221.7399999999998</ele>
        <time>2015-06-07T05:42:22Z</time>
      </trkpt>
      <trkpt lat="45.518320631235838" lon="7.085658023133874">
        <ele>2222.2199999999998</ele>
        <time>2015-06-07T05:42:25Z</time>
      </trkpt>
      <trkpt lat="45.518303699791431" lon="7.085639918223023">
        <ele>2222.2199999999998</ele>
        <time>2015-06-07T05:42:27Z</time>
      </trkpt>
      <trkpt lat="45.518193058669567" lon="7.085573449730873">
        <ele>2224.1500000000001</ele>
        <time>2015-06-07T05:42:39Z</time>
      </trkpt>
      <trkpt lat="45.518162632361054" lon="7.085571605712175">
        <ele>2224.6300000000001</ele>
        <time>2015-06-07T05:42:42Z</time>
      </trkpt>
      <trkpt lat="45.518139498308301" lon="7.085563475266099">
        <ele>2224.6300000000001</ele>
        <time>2015-06-07T05:42:44Z</time>
      </trkpt>
      <trkpt lat="45.518025923520327" lon="7.085532713681459">
        <ele>2226.0700000000002</ele>
        <time>2015-06-07T05:42:56Z</time>
      </trkpt>
      <trkpt lat="45.517920143902302" lon="7.085470771417022">
        <ele>2227.5100000000002</ele>
        <time>2015-06-07T05:43:06Z</time>
      </trkpt>
      <trkpt lat="45.517835402861238" lon="7.085337331518531">
        <ele>2228.9499999999998</ele>
        <time>2015-06-07T05:43:17Z</time>
      </trkpt>
      <trkpt lat="45.517740100622177" lon="7.085194755345583">
        <ele>2230.4000000000001</ele>
        <time>2015-06-07T05:43:30Z</time>
      </trkpt>
      <trkpt lat="45.517724677920341" lon="7.085200874134898">
        <ele>2230.8800000000001</ele>
        <time>2015-06-07T05:43:36Z</time>
      </trkpt>
      <trkpt lat="45.517609510570765" lon="7.085126945748925">
        <ele>2231.8400000000001</ele>
        <time>2015-06-07T05:43:47Z</time>
      </trkpt>
      <trkpt lat="45.517520494759083" lon="7.085078079253435">
        <ele>2233.7600000000002</ele>
        <time>2015-06-07T05:43:57Z</time>
      </trkpt>
      <trkpt lat="45.517462240532041" lon="7.085050418972969">
        <ele>2236.1599999999999</ele>
        <time>2015-06-07T05:44:08Z</time>
      </trkpt>
      <trkpt lat="45.517396694049239" lon="7.08502259105444">
        <ele>2238.0900000000001</ele>
        <time>2015-06-07T05:44:17Z</time>
      </trkpt>
      <trkpt lat="45.517317904159427" lon="7.084982693195343">
        <ele>2239.5300000000002</ele>
        <time>2015-06-07T05:44:26Z</time>
      </trkpt>
      <trkpt lat="45.517243975773454" lon="7.085032565519214">
        <ele>2240.9699999999998</ele>
        <time>2015-06-07T05:44:36Z</time>
      </trkpt>
      <trkpt lat="45.517242969945073" lon="7.085042707622051">
        <ele>2241.4499999999998</ele>
        <time>2015-06-07T05:44:37Z</time>
      </trkpt>
      <trkpt lat="45.517230061814189" lon="7.085065674036741">
        <ele>2241.4499999999998</ele>
        <time>2015-06-07T05:44:39Z</time>
      </trkpt>
      <trkpt lat="45.517148841172457" lon="7.085046982392669">
        <ele>2242.8899999999999</ele>
        <time>2015-06-07T05:44:48Z</time>
      </trkpt>
      <trkpt lat="45.517104584723711" lon="7.085030218586326">
        <ele>2243.3699999999999</ele>
        <time>2015-06-07T05:44:53Z</time>
      </trkpt>
      <trkpt lat="45.517080947756767" lon="7.085024435073137">
        <ele>2243.3699999999999</ele>
        <time>2015-06-07T05:44:55Z</time>
      </trkpt>
      <trkpt lat="45.51705370657146" lon="7.084997529163957">
        <ele>2244.3299999999999</ele>
        <time>2015-06-07T05:44:58Z</time>
      </trkpt>
      <trkpt lat="45.517016826197505" lon="7.084955703467131">
        <ele>2245.3000000000002</ele>
        <time>2015-06-07T05:45:04Z</time>
      </trkpt>
      <trkpt lat="45.516941975802183" lon="7.084905412048101">
        <ele>2246.7399999999998</ele>
        <time>2015-06-07T05:45:15Z</time>
      </trkpt>
      <trkpt lat="45.516875674948096" lon="7.084831902757287">
        <ele>2249.6199999999999</ele>
        <time>2015-06-07T05:45:27Z</time>
      </trkpt>
      <trkpt lat="45.516818594187498" lon="7.084777085110545">
        <ele>2251.0599999999999</ele>
        <time>2015-06-07T05:45:37Z</time>
      </trkpt>
      <trkpt lat="45.516764614731073" lon="7.084803991019726">
        <ele>2253.4699999999998</ele>
        <time>2015-06-07T05:45:48Z</time>
      </trkpt>
      <trkpt lat="45.516706528142095" lon="7.084838440641761">
        <ele>2255.8699999999999</ele>
        <time>2015-06-07T05:46:00Z</time>
      </trkpt>
      <trkpt lat="45.516656739637256" lon="7.084890156984329">
        <ele>2258.27</ele>
        <time>2015-06-07T05:46:11Z</time>
      </trkpt>
      <trkpt lat="45.516618099063635" lon="7.08481639623642">
        <ele>2259.7199999999998</ele>
        <time>2015-06-07T05:46:21Z</time>
      </trkpt>
      <trkpt lat="45.516587421298027" lon="7.084788316860795">
        <ele>2262.1199999999999</ele>
        <time>2015-06-07T05:46:32Z</time>
      </trkpt>
      <trkpt lat="45.516561353579164" lon="7.084801979362965">
        <ele>2263.5599999999999</ele>
        <time>2015-06-07T05:46:40Z</time>
      </trkpt>
      <trkpt lat="45.51651818677783" lon="7.08483399823308">
        <ele>2265.48</ele>
        <time>2015-06-07T05:46:51Z</time>
      </trkpt>
      <trkpt lat="45.516491364687681" lon="7.084836093708873">
        <ele>2267.8899999999999</ele>
        <time>2015-06-07T05:47:01Z</time>
      </trkpt>
      <trkpt lat="45.516459764912724" lon="7.084896024316549">
        <ele>2269.8099999999999</ele>
        <time>2015-06-07T05:47:12Z</time>
      </trkpt>
      <trkpt lat="45.516432859003544" lon="7.084929719567299">
        <ele>2270.29</ele>
        <time>2015-06-07T05:47:19Z</time>
      </trkpt>
      <trkpt lat="45.516387009993196" lon="7.084932988509536">
        <ele>2271.25</ele>
        <time>2015-06-07T05:47:27Z</time>
      </trkpt>
      <trkpt lat="45.516329677775502" lon="7.084972131997347">
        <ele>2273.1700000000001</ele>
        <time>2015-06-07T05:47:35Z</time>
      </trkpt>
      <trkpt lat="45.516293132677674" lon="7.084977580234408">
        <ele>2274.1399999999999</ele>
        <time>2015-06-07T05:47:43Z</time>
      </trkpt>
      <trkpt lat="45.51626362837851" lon="7.084963414818049">
        <ele>2275.0999999999999</ele>
        <time>2015-06-07T05:47:47Z</time>
      </trkpt>
      <trkpt lat="45.516242673620582" lon="7.084959726780653">
        <ele>2275.0999999999999</ele>
        <time>2015-06-07T05:47:50Z</time>
      </trkpt>
      <trkpt lat="45.51614829339087" lon="7.084937263280153">
        <ele>2277.5</ele>
        <time>2015-06-07T05:48:01Z</time>
      </trkpt>
      <trkpt lat="45.516015607863665" lon="7.084952602162957">
        <ele>2278.9400000000001</ele>
        <time>2015-06-07T05:48:14Z</time>
      </trkpt>
      <trkpt lat="45.515903457999229" lon="7.085015047341585">
        <ele>2279.9000000000001</ele>
        <time>2015-06-07T05:48:24Z</time>
      </trkpt>
      <trkpt lat="45.515819722786546" lon="7.085104482248426">
        <ele>2278.9400000000001</ele>
        <time>2015-06-07T05:48:32Z</time>
      </trkpt>
      <trkpt lat="45.515768257901073" lon="7.085133315995336">
        <ele>2278.9400000000001</ele>
        <time>2015-06-07T05:48:36Z</time>
      </trkpt>
      <trkpt lat="45.515688462182879" lon="7.085155360400677">
        <ele>2278.9400000000001</ele>
        <time>2015-06-07T05:48:42Z</time>
      </trkpt>
      <trkpt lat="45.515587544068694" lon="7.085156533867121">
        <ele>2280.8699999999999</ele>
        <time>2015-06-07T05:48:53Z</time>
      </trkpt>
      <trkpt lat="45.515523506328464" lon="7.085137339308858">
        <ele>2282.79</ele>
        <time>2015-06-07T05:49:02Z</time>
      </trkpt>
      <trkpt lat="45.515482686460018" lon="7.085086712613702">
        <ele>2285.1900000000001</ele>
        <time>2015-06-07T05:49:11Z</time>
      </trkpt>
      <trkpt lat="45.515439519658685" lon="7.08506709896028">
        <ele>2286.1500000000001</ele>
        <time>2015-06-07T05:49:16Z</time>
      </trkpt>
      <trkpt lat="45.515390066429973" lon="7.084994846954942">
        <ele>2287.5900000000001</ele>
        <time>2015-06-07T05:49:25Z</time>
      </trkpt>
      <trkpt lat="45.515394592657685" lon="7.084908597171307">
        <ele>2289.52</ele>
        <time>2015-06-07T05:49:33Z</time>
      </trkpt>
      <trkpt lat="45.515401214361191" lon="7.084792340174317">
        <ele>2290.96</ele>
        <time>2015-06-07T05:49:45Z</time>
      </trkpt>
      <trkpt lat="45.515409344807267" lon="7.084787897765636">
        <ele>2291.4400000000001</ele>
        <time>2015-06-07T05:49:53Z</time>
      </trkpt>
      <trkpt lat="45.51541336812079" lon="7.08472310565412">
        <ele>2291.4400000000001</ele>
        <time>2015-06-07T05:49:57Z</time>
      </trkpt>
      <trkpt lat="45.515461228787899" lon="7.084691422060132">
        <ele>2292.4000000000001</ele>
        <time>2015-06-07T05:50:09Z</time>
      </trkpt>
      <trkpt lat="45.515488302335143" lon="7.084642807021737">
        <ele>2292.4000000000001</ele>
        <time>2015-06-07T05:50:18Z</time>
      </trkpt>
      <trkpt lat="45.515525937080383" lon="7.084594024345279">
        <ele>2293.3600000000001</ele>
        <time>2015-06-07T05:50:24Z</time>
      </trkpt>
      <trkpt lat="45.515577737241983" lon="7.084491681307554">
        <ele>2294.8000000000002</ele>
        <time>2015-06-07T05:50:36Z</time>
      </trkpt>
      <trkpt lat="45.515610845759511" lon="7.084406688809395">
        <ele>2296.25</ele>
        <time>2015-06-07T05:50:46Z</time>
      </trkpt>
      <trkpt lat="45.515628447756171" lon="7.084393529221416">
        <ele>2296.73</ele>
        <time>2015-06-07T05:50:56Z</time>
      </trkpt>
      <trkpt lat="45.51560983993113" lon="7.084371317178011">
        <ele>2297.21</ele>
        <time>2015-06-07T05:50:58Z</time>
      </trkpt>
      <trkpt lat="45.515602212399244" lon="7.084336029365659">
        <ele>2297.21</ele>
        <time>2015-06-07T05:51:07Z</time>
      </trkpt>
      <trkpt lat="45.515566254034638" lon="7.084306357428432">
        <ele>2296.73</ele>
        <time>2015-06-07T05:51:27Z</time>
      </trkpt>
      <trkpt lat="45.515590393915772" lon="7.084324797615409">
        <ele>2297.6900000000001</ele>
        <time>2015-06-07T05:51:36Z</time>
      </trkpt>
      <trkpt lat="45.515648229047656" lon="7.084292527288199">
        <ele>2298.1700000000001</ele>
        <time>2015-06-07T05:51:45Z</time>
      </trkpt>
      <trkpt lat="45.515720397233963" lon="7.084202757105231">
        <ele>2299.6100000000001</ele>
        <time>2015-06-07T05:51:57Z</time>
      </trkpt>
      <trkpt lat="45.515814442187548" lon="7.084253467619419">
        <ele>2299.6100000000001</ele>
        <time>2015-06-07T05:52:08Z</time>
      </trkpt>
      <trkpt lat="45.515821063891053" lon="7.084300825372338">
        <ele>2299.6100000000001</ele>
        <time>2015-06-07T05:52:16Z</time>
      </trkpt>
      <trkpt lat="45.51581067033112" lon="7.084289090707898">
        <ele>2300.0900000000001</ele>
        <time>2015-06-07T05:52:24Z</time>
      </trkpt>
      <trkpt lat="45.515792146325111" lon="7.084326390177012">
        <ele>2300.0900000000001</ele>
        <time>2015-06-07T05:52:37Z</time>
      </trkpt>
      <trkpt lat="45.515741603448987" lon="7.084380201995373">
        <ele>2300.0900000000001</ele>
        <time>2015-06-07T05:52:50Z</time>
      </trkpt>
      <trkpt lat="45.515785943716764" lon="7.084255563095212">
        <ele>2300.0900000000001</ele>
        <time>2015-06-07T05:53:02Z</time>
      </trkpt>
      <trkpt lat="45.515805305913091" lon="7.084290767088532">
        <ele>2299.6100000000001</ele>
        <time>2015-06-07T05:53:16Z</time>
      </trkpt>
      <trkpt lat="45.515797510743141" lon="7.084222035482526">
        <ele>2299.6100000000001</ele>
        <time>2015-06-07T05:53:27Z</time>
      </trkpt>
      <trkpt lat="45.515754511579871" lon="7.084197141230106">
        <ele>2299.6100000000001</ele>
        <time>2015-06-07T05:53:33Z</time>
      </trkpt>
      <trkpt lat="45.515678990632296" lon="7.084241984412074">
        <ele>2298.6500000000001</ele>
        <time>2015-06-07T05:53:35Z</time>
      </trkpt>
      <trkpt lat="45.515641774982214" lon="7.084285318851471">
        <ele>2298.6500000000001</ele>
        <time>2015-06-07T05:53:40Z</time>
      </trkpt>
      <trkpt lat="45.51564889959991" lon="7.084299903362989">
        <ele>2298.1700000000001</ele>
        <time>2015-06-07T05:53:43Z</time>
      </trkpt>
      <trkpt lat="45.515541778877378" lon="7.084141150116921">
        <ele>2297.21</ele>
        <time>2015-06-07T05:53:55Z</time>
      </trkpt>
      <trkpt lat="45.515506491065025" lon="7.084083734080195">
        <ele>2298.1700000000001</ele>
        <time>2015-06-07T05:54:00Z</time>
      </trkpt>
      <trkpt lat="45.515451421961188" lon="7.083977619186044">
        <ele>2298.1700000000001</ele>
        <time>2015-06-07T05:54:07Z</time>
      </trkpt>
      <trkpt lat="45.515325274318457" lon="7.083845939487219">
        <ele>2298.6500000000001</ele>
        <time>2015-06-07T05:54:20Z</time>
      </trkpt>
      <trkpt lat="45.515277413651347" lon="7.083801347762346">
        <ele>2299.6100000000001</ele>
        <time>2015-06-07T05:54:30Z</time>
      </trkpt>
      <trkpt lat="45.515191666781902" lon="7.083716103807092">
        <ele>2298.1700000000001</ele>
        <time>2015-06-07T05:54:40Z</time>
      </trkpt>
      <trkpt lat="45.515121510252357" lon="7.083661705255508">
        <ele>2296.73</ele>
        <time>2015-06-07T05:54:52Z</time>
      </trkpt>
      <trkpt lat="45.515115559101105" lon="7.083668578416109">
        <ele>2296.25</ele>
        <time>2015-06-07T05:55:03Z</time>
      </trkpt>
      <trkpt lat="45.515108769759536" lon="7.083636308088899">
        <ele>2296.25</ele>
        <time>2015-06-07T05:55:05Z</time>
      </trkpt>
      <trkpt lat="45.515082031488419" lon="7.083491971716285">
        <ele>2294.3200000000002</ele>
        <time>2015-06-07T05:55:13Z</time>
      </trkpt>
      <trkpt lat="45.515052694827318" lon="7.083462467417121">
        <ele>2293.8400000000001</ele>
        <time>2015-06-07T05:55:17Z</time>
      </trkpt>
      <trkpt lat="45.515034506097436" lon="7.083298852667213">
        <ele>2290.48</ele>
        <time>2015-06-07T05:55:28Z</time>
      </trkpt>
      <trkpt lat="45.515014221891761" lon="7.083103973418474">
        <ele>2288.5599999999999</ele>
        <time>2015-06-07T05:55:39Z</time>
      </trkpt>
      <trkpt lat="45.515007767826319" lon="7.082904987037182">
        <ele>2287.1100000000001</ele>
        <time>2015-06-07T05:55:50Z</time>
      </trkpt>
      <trkpt lat="45.515022771432996" lon="7.082753526046872">
        <ele>2286.6300000000001</ele>
        <time>2015-06-07T05:55:58Z</time>
      </trkpt>
      <trkpt lat="45.514971809461713" lon="7.082584211602807">
        <ele>2285.6700000000001</ele>
        <time>2015-06-07T05:56:09Z</time>
      </trkpt>
      <trkpt lat="45.514859659597278" lon="7.082489831373096">
        <ele>2283.27</ele>
        <time>2015-06-07T05:56:21Z</time>
      </trkpt>
      <trkpt lat="45.514786401763558" lon="7.082426967099309">
        <ele>2283.27</ele>
        <time>2015-06-07T05:56:29Z</time>
      </trkpt>
      <trkpt lat="45.514824371784925" lon="7.082171654328704">
        <ele>2282.79</ele>
        <time>2015-06-07T05:56:42Z</time>
      </trkpt>
      <trkpt lat="45.514851193875074" lon="7.082097474485636">
        <ele>2282.79</ele>
        <time>2015-06-07T05:56:47Z</time>
      </trkpt>
      <trkpt lat="45.514924870803952" lon="7.081998819485307">
        <ele>2281.8299999999999</ele>
        <time>2015-06-07T05:56:55Z</time>
      </trkpt>
      <trkpt lat="45.514940125867724" lon="7.081966884434223">
        <ele>2281.3499999999999</ele>
        <time>2015-06-07T05:56:57Z</time>
      </trkpt>
      <trkpt lat="45.514949765056372" lon="7.081819530576468">
        <ele>2279.4200000000001</ele>
        <time>2015-06-07T05:57:07Z</time>
      </trkpt>
      <trkpt lat="45.514927301555872" lon="7.081779800355434">
        <ele>2279.4200000000001</ele>
        <time>2015-06-07T05:57:10Z</time>
      </trkpt>
      <trkpt lat="45.514928642660379" lon="7.081636972725391">
        <ele>2280.8699999999999</ele>
        <time>2015-06-07T05:57:20Z</time>
      </trkpt>
      <trkpt lat="45.51499854773283" lon="7.081539239734411">
        <ele>2282.79</ele>
        <time>2015-06-07T05:57:29Z</time>
      </trkpt>
      <trkpt lat="45.515022687613964" lon="7.081486852839589">
        <ele>2282.79</ele>
        <time>2015-06-07T05:57:33Z</time>
      </trkpt>
      <trkpt lat="45.515017742291093" lon="7.081461623311043">
        <ele>2283.27</ele>
        <time>2015-06-07T05:57:35Z</time>
      </trkpt>
      <trkpt lat="45.514974156394601" lon="7.081409320235252">
        <ele>2283.75</ele>
        <time>2015-06-07T05:57:41Z</time>
      </trkpt>
      <trkpt lat="45.514983963221312" lon="7.081336732953787">
        <ele>2284.23</ele>
        <time>2015-06-07T05:57:45Z</time>
      </trkpt>
      <trkpt lat="45.514983125030994" lon="7.081308988854289">
        <ele>2284.71</ele>
        <time>2015-06-07T05:57:47Z</time>
      </trkpt>
      <trkpt lat="45.514985639601946" lon="7.081283424049616">
        <ele>2285.1900000000001</ele>
        <time>2015-06-07T05:57:49Z</time>
      </trkpt>
      <trkpt lat="45.515102986246347" lon="7.081144703552127">
        <ele>2286.1500000000001</ele>
        <time>2015-06-07T05:58:02Z</time>
      </trkpt>
      <trkpt lat="45.515169873833656" lon="7.081064321100712">
        <ele>2286.6300000000001</ele>
        <time>2015-06-07T05:58:10Z</time>
      </trkpt>
      <trkpt lat="45.515177082270384" lon="7.081058956682682">
        <ele>2287.1100000000001</ele>
        <time>2015-06-07T05:58:11Z</time>
      </trkpt>
      <trkpt lat="45.515275485813618" lon="7.080982429906726">
        <ele>2288.5599999999999</ele>
        <time>2015-06-07T05:58:22Z</time>
      </trkpt>
      <trkpt lat="45.515372045338154" lon="7.080910680815578">
        <ele>2289.52</ele>
        <time>2015-06-07T05:58:32Z</time>
      </trkpt>
      <trkpt lat="45.51541923545301" lon="7.080834740772843">
        <ele>2291.4400000000001</ele>
        <time>2015-06-07T05:58:42Z</time>
      </trkpt>
      <trkpt lat="45.515426276251674" lon="7.080821497365832">
        <ele>2291.4400000000001</ele>
        <time>2015-06-07T05:58:44Z</time>
      </trkpt>
      <trkpt lat="45.51550280302763" lon="7.080752681940794">
        <ele>2293.3600000000001</ele>
        <time>2015-06-07T05:58:55Z</time>
      </trkpt>
      <trkpt lat="45.515545131638646" lon="7.080738600343466">
        <ele>2294.3200000000002</ele>
        <time>2015-06-07T05:59:00Z</time>
      </trkpt>
      <trkpt lat="45.515599194914103" lon="7.080718651413918">
        <ele>2295.2800000000002</ele>
        <time>2015-06-07T05:59:06Z</time>
      </trkpt>
      <trkpt lat="45.515724420547485" lon="7.08069970831275">
        <ele>2297.21</ele>
        <time>2015-06-07T05:59:17Z</time>
      </trkpt>
      <trkpt lat="45.515793235972524" lon="7.080666348338127">
        <ele>2299.1300000000001</ele>
        <time>2015-06-07T05:59:27Z</time>
      </trkpt>
      <trkpt lat="45.515848640352488" lon="7.080612201243639">
        <ele>2300.5700000000002</ele>
        <time>2015-06-07T05:59:37Z</time>
      </trkpt>
      <trkpt lat="45.515895243734121" lon="7.080572554841638">
        <ele>2302.0100000000002</ele>
        <time>2015-06-07T05:59:45Z</time>
      </trkpt>
      <trkpt lat="45.515989456325769" lon="7.080570375546813">
        <ele>2303.46</ele>
        <time>2015-06-07T05:59:54Z</time>
      </trkpt>
      <trkpt lat="45.516087776049972" lon="7.080546570941806">
        <ele>2304.9000000000001</ele>
        <time>2015-06-07T06:00:05Z</time>
      </trkpt>
      <trkpt lat="45.516153993085027" lon="7.080523604527116">
        <ele>2305.3800000000001</ele>
        <time>2015-06-07T06:00:16Z</time>
      </trkpt>
      <trkpt lat="45.516261784359813" lon="7.080500470474362">
        <ele>2306.3400000000001</ele>
        <time>2015-06-07T06:00:26Z</time>
      </trkpt>
      <trkpt lat="45.516385082155466" lon="7.080502733588219">
        <ele>2308.2600000000002</ele>
        <time>2015-06-07T06:00:39Z</time>
      </trkpt>
      <trkpt lat="45.516508631408215" lon="7.080417573451996">
        <ele>2310.6700000000001</ele>
        <time>2015-06-07T06:00:53Z</time>
      </trkpt>
      <trkpt lat="45.516527406871319" lon="7.080397875979543">
        <ele>2311.1500000000001</ele>
        <time>2015-06-07T06:00:58Z</time>
      </trkpt>
      <trkpt lat="45.516582392156124" lon="7.08038748241961">
        <ele>2312.1100000000001</ele>
        <time>2015-06-07T06:01:03Z</time>
      </trkpt>
      <trkpt lat="45.51664131693542" lon="7.080386728048325">
        <ele>2313.0700000000002</ele>
        <time>2015-06-07T06:01:10Z</time>
      </trkpt>
      <trkpt lat="45.516668641939759" lon="7.080302070826292">
        <ele>2314.5100000000002</ele>
        <time>2015-06-07T06:01:20Z</time>
      </trkpt>
      <trkpt lat="45.516677191480994" lon="7.080296706408262">
        <ele>2314.5100000000002</ele>
        <time>2015-06-07T06:01:21Z</time>
      </trkpt>
      <trkpt lat="45.51677668467164" lon="7.08027265034616">
        <ele>2315.9499999999998</ele>
        <time>2015-06-07T06:01:31Z</time>
      </trkpt>
      <trkpt lat="45.516810715198517" lon="7.080271309241653">
        <ele>2316.9099999999999</ele>
        <time>2015-06-07T06:01:34Z</time>
      </trkpt>
      <trkpt lat="45.516907526180148" lon="7.080254293978214">
        <ele>2317.8800000000001</ele>
        <time>2015-06-07T06:01:43Z</time>
      </trkpt>
      <trkpt lat="45.516913561150432" lon="7.080166954547167">
        <ele>2319.8000000000002</ele>
        <time>2015-06-07T06:01:53Z</time>
      </trkpt>
      <trkpt lat="45.516995200887322" lon="7.080119848251343">
        <ele>2321.7199999999998</ele>
        <time>2015-06-07T06:02:03Z</time>
      </trkpt>
      <trkpt lat="45.517066949978471" lon="7.080124039202929">
        <ele>2323.1599999999999</ele>
        <time>2015-06-07T06:02:13Z</time>
      </trkpt>
      <trkpt lat="45.517096538096666" lon="7.080114232376218">
        <ele>2323.6399999999999</ele>
        <time>2015-06-07T06:02:17Z</time>
      </trkpt>
      <trkpt lat="45.517103411257267" lon="7.080095373094082">
        <ele>2324.1199999999999</ele>
        <time>2015-06-07T06:02:19Z</time>
      </trkpt>
      <trkpt lat="45.517153367400169" lon="7.079994287341833">
        <ele>2326.0500000000002</ele>
        <time>2015-06-07T06:02:30Z</time>
      </trkpt>
      <trkpt lat="45.517206508666277" lon="7.079932009801269">
        <ele>2327.9699999999998</ele>
        <time>2015-06-07T06:02:39Z</time>
      </trkpt>
      <trkpt lat="45.517283705994487" lon="7.079937374219298">
        <ele>2328.4499999999998</ele>
        <time>2015-06-07T06:02:53Z</time>
      </trkpt>
      <trkpt lat="45.517275827005506" lon="7.079891609027982">
        <ele>2328.9299999999998</ele>
        <time>2015-06-07T06:03:02Z</time>
      </trkpt>
      <trkpt lat="45.517281107604504" lon="7.079874509945512">
        <ele>2329.4099999999999</ele>
        <time>2015-06-07T06:03:04Z</time>
      </trkpt>
      <trkpt lat="45.51734053529799" lon="7.079832181334496">
        <ele>2331.3299999999999</ele>
        <time>2015-06-07T06:03:13Z</time>
      </trkpt>
      <trkpt lat="45.517386132851243" lon="7.079742243513465">
        <ele>2334.2199999999998</ele>
        <time>2015-06-07T06:03:26Z</time>
      </trkpt>
      <trkpt lat="45.517334332689643" lon="7.079708464443684">
        <ele>2335.6599999999999</ele>
        <time>2015-06-07T06:03:35Z</time>
      </trkpt>
      <trkpt lat="45.517296949401498" lon="7.079640654847026">
        <ele>2338.0599999999999</ele>
        <time>2015-06-07T06:03:46Z</time>
      </trkpt>
      <trkpt lat="45.517247915267944" lon="7.07957929931581">
        <ele>2339.9899999999998</ele>
        <time>2015-06-07T06:03:57Z</time>
      </trkpt>
      <trkpt lat="45.517196198925376" lon="7.079513585194945">
        <ele>2342.8699999999999</ele>
        <time>2015-06-07T06:04:08Z</time>
      </trkpt>
      <trkpt lat="45.517156049609184" lon="7.079456085339189">
        <ele>2344.79</ele>
        <time>2015-06-07T06:04:17Z</time>
      </trkpt>
      <trkpt lat="45.51709913648665" lon="7.079406715929508">
        <ele>2346.7199999999998</ele>
        <time>2015-06-07T06:04:27Z</time>
      </trkpt>
      <trkpt lat="45.517048761248589" lon="7.079354245215654">
        <ele>2348.6399999999999</ele>
        <time>2015-06-07T06:04:37Z</time>
      </trkpt>
      <trkpt lat="45.517020849511027" lon="7.079355083405972">
        <ele>2349.5999999999999</ele>
        <time>2015-06-07T06:04:46Z</time>
      </trkpt>
      <trkpt lat="45.517014060169458" lon="7.079347288236022">
        <ele>2349.5999999999999</ele>
        <time>2015-06-07T06:04:47Z</time>
      </trkpt>
      <trkpt lat="45.516962511464953" lon="7.079288363456726">
        <ele>2350.5599999999999</ele>
        <time>2015-06-07T06:04:55Z</time>
      </trkpt>
      <trkpt lat="45.516911884769797" lon="7.079214518889785">
        <ele>2352.48</ele>
        <time>2015-06-07T06:05:05Z</time>
      </trkpt>
      <trkpt lat="45.516868634149432" lon="7.079143607988954">
        <ele>2353.9299999999998</ele>
        <time>2015-06-07T06:05:15Z</time>
      </trkpt>
      <trkpt lat="45.516834268346429" lon="7.079088957980275">
        <ele>2355.8499999999999</ele>
        <time>2015-06-07T06:05:25Z</time>
      </trkpt>
      <trkpt lat="45.516767716035247" lon="7.079029614105821">
        <ele>2357.29</ele>
        <time>2015-06-07T06:05:35Z</time>
      </trkpt>
      <trkpt lat="45.516684902831912" lon="7.078993655741215">
        <ele>2358.25</ele>
        <time>2015-06-07T06:05:44Z</time>
      </trkpt>
      <trkpt lat="45.516578620299697" lon="7.079003797844052">
        <ele>2358.73</ele>
        <time>2015-06-07T06:05:53Z</time>
      </trkpt>
      <trkpt lat="45.516518019139767" lon="7.078955350443721">
        <ele>2361.6199999999999</ele>
        <time>2015-06-07T06:06:04Z</time>
      </trkpt>
      <trkpt lat="45.516455741599202" lon="7.078889971598983">
        <ele>2363.54</ele>
        <time>2015-06-07T06:06:16Z</time>
      </trkpt>
      <trkpt lat="45.516409557312727" lon="7.07884781062603">
        <ele>2365.46</ele>
        <time>2015-06-07T06:06:25Z</time>
      </trkpt>
      <trkpt lat="45.516348704695702" lon="7.078829370439053">
        <ele>2368.3499999999999</ele>
        <time>2015-06-07T06:06:36Z</time>
      </trkpt>
      <trkpt lat="45.516309142112732" lon="7.078794501721859">
        <ele>2370.75</ele>
        <time>2015-06-07T06:06:46Z</time>
      </trkpt>
      <trkpt lat="45.516265304759145" lon="7.078770864754915">
        <ele>2371.71</ele>
        <time>2015-06-07T06:06:54Z</time>
      </trkpt>
      <trkpt lat="45.516253905370831" lon="7.078758543357253">
        <ele>2372.1900000000001</ele>
        <time>2015-06-07T06:06:57Z</time>
      </trkpt>
      <trkpt lat="45.516199506819248" lon="7.078727027401328">
        <ele>2374.1100000000001</ele>
        <time>2015-06-07T06:07:06Z</time>
      </trkpt>
      <trkpt lat="45.516186682507396" lon="7.078718645498157">
        <ele>2373.6300000000001</ele>
        <time>2015-06-07T06:07:08Z</time>
      </trkpt>
      <trkpt lat="45.516161788254976" lon="7.078700205311179">
        <ele>2373.6300000000001</ele>
        <time>2015-06-07T06:07:12Z</time>
      </trkpt>
      <trkpt lat="45.516065396368504" lon="7.07868947647512">
        <ele>2376.04</ele>
        <time>2015-06-07T06:07:24Z</time>
      </trkpt>
      <trkpt lat="45.515983924269676" lon="7.078647902235389">
        <ele>2377</ele>
        <time>2015-06-07T06:07:36Z</time>
      </trkpt>
      <trkpt lat="45.515955593436956" lon="7.078651925548911">
        <ele>2377.96</ele>
        <time>2015-06-07T06:07:46Z</time>
      </trkpt>
      <trkpt lat="45.515975626185536" lon="7.078688470646739">
        <ele>2377.48</ele>
        <time>2015-06-07T06:07:56Z</time>
      </trkpt>
      <trkpt lat="45.515940841287374" lon="7.078676065430045">
        <ele>2378.4400000000001</ele>
        <time>2015-06-07T06:08:07Z</time>
      </trkpt>
      <trkpt lat="45.515865571796894" lon="7.078676652163267">
        <ele>2379.8800000000001</ele>
        <time>2015-06-07T06:08:17Z</time>
      </trkpt>
      <trkpt lat="45.515836151316762" lon="7.078602975234389">
        <ele>2381.3200000000002</ele>
        <time>2015-06-07T06:08:28Z</time>
      </trkpt>
      <trkpt lat="45.515874708071351" lon="7.078574309125543">
        <ele>2383.25</ele>
        <time>2015-06-07T06:08:36Z</time>
      </trkpt>
      <trkpt lat="45.515839252620935" lon="7.078543966636062">
        <ele>2385.1700000000001</ele>
        <time>2015-06-07T06:08:45Z</time>
      </trkpt>
      <trkpt lat="45.515880407765508" lon="7.078510271385312">
        <ele>2386.6100000000001</ele>
        <time>2015-06-07T06:08:53Z</time>
      </trkpt>
      <trkpt lat="45.51586490124464" lon="7.078482946380973">
        <ele>2387.5700000000002</ele>
        <time>2015-06-07T06:08:59Z</time>
      </trkpt>
      <trkpt lat="45.515775047242641" lon="7.078480934724212">
        <ele>2388.5300000000002</ele>
        <time>2015-06-07T06:09:10Z</time>
      </trkpt>
      <trkpt lat="45.515662813559175" lon="7.078489065170288">
        <ele>2389.4899999999998</ele>
        <time>2015-06-07T06:09:21Z</time>
      </trkpt>
      <trkpt lat="45.515579497441649" lon="7.078479006886482">
        <ele>2391.4200000000001</ele>
        <time>2015-06-07T06:09:32Z</time>
      </trkpt>
      <trkpt lat="45.515504395589232" lon="7.078522173687816">
        <ele>2393.3400000000001</ele>
        <time>2015-06-07T06:09:42Z</time>
      </trkpt>
      <trkpt lat="45.515461647883058" lon="7.078518066555262">
        <ele>2394.7800000000002</ele>
        <time>2015-06-07T06:09:48Z</time>
      </trkpt>
      <trkpt lat="45.515333572402596" lon="7.078527705743909">
        <ele>2396.2199999999998</ele>
        <time>2015-06-07T06:10:02Z</time>
      </trkpt>
      <trkpt lat="45.515223853290081" lon="7.078560311347246">
        <ele>2397.6700000000001</ele>
        <time>2015-06-07T06:10:14Z</time>
      </trkpt>
      <trkpt lat="45.51516811363399" lon="7.078541787341237">
        <ele>2399.1100000000001</ele>
        <time>2015-06-07T06:10:25Z</time>
      </trkpt>
      <trkpt lat="45.515126036480069" lon="7.078517815098167">
        <ele>2401.0300000000002</ele>
        <time>2015-06-07T06:10:34Z</time>
      </trkpt>
      <trkpt lat="45.515065183863044" lon="7.078468697145581">
        <ele>2403.4299999999998</ele>
        <time>2015-06-07T06:10:46Z</time>
      </trkpt>
      <trkpt lat="45.515032829716802" lon="7.078441455960274">
        <ele>2405.3600000000001</ele>
        <time>2015-06-07T06:10:53Z</time>
      </trkpt>
      <trkpt lat="45.514986142516136" lon="7.078478252515197">
        <ele>2407.2800000000002</ele>
        <time>2015-06-07T06:11:03Z</time>
      </trkpt>
      <trkpt lat="45.514950603246689" lon="7.078492920845747">
        <ele>2408.7199999999998</ele>
        <time>2015-06-07T06:11:10Z</time>
      </trkpt>
      <trkpt lat="45.514880698174238" lon="7.078442797064781">
        <ele>2410.1599999999999</ele>
        <time>2015-06-07T06:11:21Z</time>
      </trkpt>
      <trkpt lat="45.514795621857047" lon="7.078479174524546">
        <ele>2411.5999999999999</ele>
        <time>2015-06-07T06:11:32Z</time>
      </trkpt>
      <trkpt lat="45.514716664329171" lon="7.078490993008018">
        <ele>2414.0100000000002</ele>
        <time>2015-06-07T06:11:45Z</time>
      </trkpt>
      <trkpt lat="45.514710545539856" lon="7.078492501750588">
        <ele>2414.4899999999998</ele>
        <time>2015-06-07T06:11:46Z</time>
      </trkpt>
      <trkpt lat="45.514623876661062" lon="7.078531729057431">
        <ele>2415.9299999999998</ele>
        <time>2015-06-07T06:11:57Z</time>
      </trkpt>
      <trkpt lat="45.514535363763571" lon="7.078511361032724">
        <ele>2417.8499999999999</ele>
        <time>2015-06-07T06:12:09Z</time>
      </trkpt>
      <trkpt lat="45.514497812837362" lon="7.078511361032724">
        <ele>2419.7800000000002</ele>
        <time>2015-06-07T06:12:19Z</time>
      </trkpt>
      <trkpt lat="45.514459675177932" lon="7.078464757651091">
        <ele>2420.7399999999998</ele>
        <time>2015-06-07T06:12:32Z</time>
      </trkpt>
      <trkpt lat="45.514391697943211" lon="7.078434498980641">
        <ele>2423.1399999999999</ele>
        <time>2015-06-07T06:12:43Z</time>
      </trkpt>
      <trkpt lat="45.514361187815666" lon="7.078426871448755">
        <ele>2423.6199999999999</ele>
        <time>2015-06-07T06:12:47Z</time>
      </trkpt>
      <trkpt lat="45.514344507828355" lon="7.078422177582979">
        <ele>2424.0999999999999</ele>
        <time>2015-06-07T06:12:58Z</time>
      </trkpt>
      <trkpt lat="45.514279212802649" lon="7.078412119299173">
        <ele>2426.02</ele>
        <time>2015-06-07T06:13:08Z</time>
      </trkpt>
      <trkpt lat="45.514261610805988" lon="7.078355038538575">
        <ele>2426.5</ele>
        <time>2015-06-07T06:13:14Z</time>
      </trkpt>
      <trkpt lat="45.514197153970599" lon="7.07836308516562">
        <ele>2428.4299999999998</ele>
        <time>2015-06-07T06:13:22Z</time>
      </trkpt>
      <trkpt lat="45.514155495911837" lon="7.078281613066793">
        <ele>2429.8699999999999</ele>
        <time>2015-06-07T06:13:32Z</time>
      </trkpt>
      <trkpt lat="45.514129931107163" lon="7.078267112374306">
        <ele>2430.3499999999999</ele>
        <time>2015-06-07T06:13:42Z</time>
      </trkpt>
      <trkpt lat="45.514126494526863" lon="7.078266274183989">
        <ele>2429.8699999999999</ele>
        <time>2015-06-07T06:13:50Z</time>
      </trkpt>
      <trkpt lat="45.514125153422356" lon="7.07827071659267">
        <ele>2430.3499999999999</ele>
        <time>2015-06-07T06:14:12Z</time>
      </trkpt>
      <trkpt lat="45.514123979955912" lon="7.078259065747261">
        <ele>2430.8299999999999</ele>
        <time>2015-06-07T06:14:21Z</time>
      </trkpt>
      <trkpt lat="45.514104450121522" lon="7.078236266970635">
        <ele>2430.8299999999999</ele>
        <time>2015-06-07T06:14:39Z</time>
      </trkpt>
      <trkpt lat="45.514116268604994" lon="7.078231405466795">
        <ele>2430.8299999999999</ele>
        <time>2015-06-07T06:15:02Z</time>
      </trkpt>
      <trkpt lat="45.514119537547231" lon="7.078264178708196">
        <ele>2430.3499999999999</ele>
        <time>2015-06-07T06:15:19Z</time>
      </trkpt>
      <trkpt lat="45.514133451506495" lon="7.078275326639414">
        <ele>2431.3099999999999</ele>
        <time>2015-06-07T06:15:28Z</time>
      </trkpt>
      <trkpt lat="45.514132445678115" lon="7.078184299170971">
        <ele>2432.27</ele>
        <time>2015-06-07T06:15:36Z</time>
      </trkpt>
      <trkpt lat="45.514136971905828" lon="7.078090002760291">
        <ele>2434.1999999999998</ele>
        <time>2015-06-07T06:15:44Z</time>
      </trkpt>
      <trkpt lat="45.514118447899818" lon="7.077983720228076">
        <ele>2437.0799999999999</ele>
        <time>2015-06-07T06:15:55Z</time>
      </trkpt>
      <trkpt lat="45.514096319675446" lon="7.077927896752954">
        <ele>2439.48</ele>
        <time>2015-06-07T06:16:05Z</time>
      </trkpt>
      <trkpt lat="45.514074442908168" lon="7.077832175418735">
        <ele>2441.4099999999999</ele>
        <time>2015-06-07T06:16:16Z</time>
      </trkpt>
      <trkpt lat="45.514024319127202" lon="7.077772747725248">
        <ele>2443.3299999999999</ele>
        <time>2015-06-07T06:16:26Z</time>
      </trkpt>
      <trkpt lat="45.514089278876781" lon="7.077740896493197">
        <ele>2445.25</ele>
        <time>2015-06-07T06:16:36Z</time>
      </trkpt>
      <trkpt lat="45.51412196829915" lon="7.077709715813398">
        <ele>2447.1700000000001</ele>
        <time>2015-06-07T06:16:45Z</time>
      </trkpt>
      <trkpt lat="45.514201847836375" lon="7.07770150154829">
        <ele>2449.0999999999999</ele>
        <time>2015-06-07T06:16:57Z</time>
      </trkpt>
      <trkpt lat="45.514243254438043" lon="7.077661016955972">
        <ele>2451.5</ele>
        <time>2015-06-07T06:17:10Z</time>
      </trkpt>
      <trkpt lat="45.514274099841714" lon="7.077657077461481">
        <ele>2453.4200000000001</ele>
        <time>2015-06-07T06:17:19Z</time>
      </trkpt>
      <trkpt lat="45.514303687959909" lon="7.077624807134271">
        <ele>2454.8600000000001</ele>
        <time>2015-06-07T06:17:28Z</time>
      </trkpt>
      <trkpt lat="45.514373844489455" lon="7.077615587040782">
        <ele>2457.27</ele>
        <time>2015-06-07T06:17:39Z</time>
      </trkpt>
      <trkpt lat="45.514423465356231" lon="7.077599409967661">
        <ele>2458.71</ele>
        <time>2015-06-07T06:17:50Z</time>
      </trkpt>
      <trkpt lat="45.514443079009652" lon="7.077599409967661">
        <ele>2461.1100000000001</ele>
        <time>2015-06-07T06:18:01Z</time>
      </trkpt>
      <trkpt lat="45.514444168657064" lon="7.077544089406729">
        <ele>2463.52</ele>
        <time>2015-06-07T06:18:16Z</time>
      </trkpt>
      <trkpt lat="45.514410389587283" lon="7.077484913170338">
        <ele>2465.4400000000001</ele>
        <time>2015-06-07T06:18:26Z</time>
      </trkpt>
      <trkpt lat="45.514445509761572" lon="7.077446356415749">
        <ele>2467.3600000000001</ele>
        <time>2015-06-07T06:18:36Z</time>
      </trkpt>
      <trkpt lat="45.514532933011651" lon="7.0774454344064">
        <ele>2469.7600000000002</ele>
        <time>2015-06-07T06:18:49Z</time>
      </trkpt>
      <trkpt lat="45.51451675593853" lon="7.077382821589708">
        <ele>2471.6900000000001</ele>
        <time>2015-06-07T06:19:01Z</time>
      </trkpt>
      <trkpt lat="45.514479456469417" lon="7.077344181016088">
        <ele>2474.5700000000002</ele>
        <time>2015-06-07T06:19:12Z</time>
      </trkpt>
      <trkpt lat="45.514516839757562" lon="7.077275784686208">
        <ele>2476.4899999999998</ele>
        <time>2015-06-07T06:19:23Z</time>
      </trkpt>
      <trkpt lat="45.514564365148544" lon="7.077225157991052">
        <ele>2478.9000000000001</ele>
        <time>2015-06-07T06:19:34Z</time>
      </trkpt>
      <trkpt lat="45.514585906639695" lon="7.077175034210086">
        <ele>2481.3000000000002</ele>
        <time>2015-06-07T06:19:46Z</time>
      </trkpt>
      <trkpt lat="45.51455388776958" lon="7.077152989804745">
        <ele>2482.7399999999998</ele>
        <time>2015-06-07T06:19:55Z</time>
      </trkpt>
      <trkpt lat="45.514548271894455" lon="7.077131532132626">
        <ele>2483.6999999999998</ele>
        <time>2015-06-07T06:19:59Z</time>
      </trkpt>
      <trkpt lat="45.514514660462737" lon="7.077180314809084">
        <ele>2485.1500000000001</ele>
        <time>2015-06-07T06:20:10Z</time>
      </trkpt>
      <trkpt lat="45.514499237760901" lon="7.077139327302575">
        <ele>2487.0700000000002</ele>
        <time>2015-06-07T06:20:21Z</time>
      </trkpt>
      <trkpt lat="45.514549780637026" lon="7.077061627060175">
        <ele>2489.4699999999998</ele>
        <time>2015-06-07T06:20:33Z</time>
      </trkpt>
      <trkpt lat="45.51457735709846" lon="7.077037990093231">
        <ele>2489.9499999999998</ele>
        <time>2015-06-07T06:20:38Z</time>
      </trkpt>
      <trkpt lat="45.514662014320493" lon="7.077003121376038">
        <ele>2491.8699999999999</ele>
        <time>2015-06-07T06:20:49Z</time>
      </trkpt>
      <trkpt lat="45.514723118394613" lon="7.076958110556006">
        <ele>2494.2800000000002</ele>
        <time>2015-06-07T06:21:01Z</time>
      </trkpt>
      <trkpt lat="45.514758992940187" lon="7.076908824965358">
        <ele>2496.6799999999998</ele>
        <time>2015-06-07T06:21:12Z</time>
      </trkpt>
      <trkpt lat="45.51469168625772" lon="7.076917458325625">
        <ele>2498.1199999999999</ele>
        <time>2015-06-07T06:21:23Z</time>
      </trkpt>
      <trkpt lat="45.514637874439359" lon="7.076894072815776">
        <ele>2500.5300000000002</ele>
        <time>2015-06-07T06:21:35Z</time>
      </trkpt>
      <trkpt lat="45.514601999893785" lon="7.076836321502924">
        <ele>2502.9299999999998</ele>
        <time>2015-06-07T06:21:46Z</time>
      </trkpt>
      <trkpt lat="45.514583475887775" lon="7.076832884922624">
        <ele>2503.8899999999999</ele>
        <time>2015-06-07T06:21:51Z</time>
      </trkpt>
      <trkpt lat="45.51452262327075" lon="7.076825676485896">
        <ele>2505.8099999999999</ele>
        <time>2015-06-07T06:22:00Z</time>
      </trkpt>
      <trkpt lat="45.514454143121839" lon="7.076816204935312">
        <ele>2507.2600000000002</ele>
        <time>2015-06-07T06:22:12Z</time>
      </trkpt>
      <trkpt lat="45.514409467577934" lon="7.076767254620791">
        <ele>2509.1799999999998</ele>
        <time>2015-06-07T06:22:22Z</time>
      </trkpt>
      <trkpt lat="45.514387004077435" lon="7.076728865504265">
        <ele>2510.6199999999999</ele>
        <time>2015-06-07T06:22:31Z</time>
      </trkpt>
      <trkpt lat="45.514405444264412" lon="7.076610177755356">
        <ele>2513.02</ele>
        <time>2015-06-07T06:22:43Z</time>
      </trkpt>
      <trkpt lat="45.514407372102141" lon="7.07658838480711">
        <ele>2514.9499999999998</ele>
        <time>2015-06-07T06:22:55Z</time>
      </trkpt>
      <trkpt lat="45.514438049867749" lon="7.076535997912288">
        <ele>2516.8699999999999</ele>
        <time>2015-06-07T06:23:05Z</time>
      </trkpt>
      <trkpt lat="45.514504350721836" lon="7.076438516378403">
        <ele>2519.27</ele>
        <time>2015-06-07T06:23:20Z</time>
      </trkpt>
      <trkpt lat="45.514547601342201" lon="7.076379507780075">
        <ele>2521.1900000000001</ele>
        <time>2015-06-07T06:23:30Z</time>
      </trkpt>
      <trkpt lat="45.514585319906473" lon="7.076371712610126">
        <ele>2522.1599999999999</ele>
        <time>2015-06-07T06:23:36Z</time>
      </trkpt>
      <trkpt lat="45.514658661559224" lon="7.076413789764047">
        <ele>2522.1599999999999</ele>
        <time>2015-06-07T06:23:49Z</time>
      </trkpt>
      <trkpt lat="45.514684729278088" lon="7.076393673196435">
        <ele>2522.1599999999999</ele>
        <time>2015-06-07T06:24:08Z</time>
      </trkpt>
      <trkpt lat="45.514792604371905" lon="7.076416555792093">
        <ele>2522.6399999999999</ele>
        <time>2015-06-07T06:24:19Z</time>
      </trkpt>
      <trkpt lat="45.51487298682332" lon="7.076435582712293">
        <ele>2523.1199999999999</ele>
        <time>2015-06-07T06:24:29Z</time>
      </trkpt>
      <trkpt lat="45.514948591589928" lon="7.07643985748291">
        <ele>2524.5599999999999</ele>
        <time>2015-06-07T06:24:39Z</time>
      </trkpt>
      <trkpt lat="45.514987567439675" lon="7.07651705481112">
        <ele>2526.48</ele>
        <time>2015-06-07T06:24:50Z</time>
      </trkpt>
      <trkpt lat="45.515040708705783" lon="7.076554438099265">
        <ele>2526</ele>
        <time>2015-06-07T06:24:58Z</time>
      </trkpt>
      <trkpt lat="45.51509871147573" lon="7.076535914093256">
        <ele>2525.52</ele>
        <time>2015-06-07T06:25:09Z</time>
      </trkpt>
      <trkpt lat="45.515094771981239" lon="7.076541446149349">
        <ele>2525.52</ele>
        <time>2015-06-07T06:25:24Z</time>
      </trkpt>
      <trkpt lat="45.515231816098094" lon="7.07653122022748">
        <ele>2524.0799999999999</ele>
        <time>2015-06-07T06:25:36Z</time>
      </trkpt>
      <trkpt lat="45.515347318723798" lon="7.076534237712622">
        <ele>2524.0799999999999</ele>
        <time>2015-06-07T06:25:48Z</time>
      </trkpt>
      <trkpt lat="45.515460474416614" lon="7.076493082568049">
        <ele>2525.04</ele>
        <time>2015-06-07T06:25:59Z</time>
      </trkpt>
      <trkpt lat="45.515479668974876" lon="7.0764818508178">
        <ele>2525.04</ele>
        <time>2015-06-07T06:26:01Z</time>
      </trkpt>
      <trkpt lat="45.515574468299747" lon="7.07645745947957">
        <ele>2526.96</ele>
        <time>2015-06-07T06:26:11Z</time>
      </trkpt>
      <trkpt lat="45.515642948448658" lon="7.076420243829489">
        <ele>2529.8499999999999</ele>
        <time>2015-06-07T06:26:22Z</time>
      </trkpt>
      <trkpt lat="45.515653761103749" lon="7.07641739398241">
        <ele>2530.3299999999999</ele>
        <time>2015-06-07T06:26:23Z</time>
      </trkpt>
      <trkpt lat="45.515728695318103" lon="7.076376238837838">
        <ele>2531.29</ele>
        <time>2015-06-07T06:26:35Z</time>
      </trkpt>
      <trkpt lat="45.515763144940138" lon="7.076334832236171">
        <ele>2534.1700000000001</ele>
        <time>2015-06-07T06:26:44Z</time>
      </trkpt>
      <trkpt lat="45.515843192115426" lon="7.076335586607456">
        <ele>2536.5799999999999</ele>
        <time>2015-06-07T06:26:55Z</time>
      </trkpt>
      <trkpt lat="45.515796421095729" lon="7.076271213591099">
        <ele>2538.02</ele>
        <time>2015-06-07T06:27:04Z</time>
      </trkpt>
      <trkpt lat="45.515859872102737" lon="7.076232237741351">
        <ele>2540.4200000000001</ele>
        <time>2015-06-07T06:27:14Z</time>
      </trkpt>
      <trkpt lat="45.515893483534455" lon="7.076243972405791">
        <ele>2540.9000000000001</ele>
        <time>2015-06-07T06:27:17Z</time>
      </trkpt>
      <trkpt lat="45.515963807702065" lon="7.076278673484922">
        <ele>2542.3400000000001</ele>
        <time>2015-06-07T06:27:27Z</time>
      </trkpt>
      <trkpt lat="45.515973949804902" lon="7.076260652393103">
        <ele>2544.27</ele>
        <time>2015-06-07T06:27:35Z</time>
      </trkpt>
      <trkpt lat="45.515916952863336" lon="7.076150430366397">
        <ele>2546.6700000000001</ele>
        <time>2015-06-07T06:27:47Z</time>
      </trkpt>
      <trkpt lat="45.515922987833619" lon="7.076118160039187">
        <ele>2548.1100000000001</ele>
        <time>2015-06-07T06:27:56Z</time>
      </trkpt>
      <trkpt lat="45.515961544588208" lon="7.076143557205796">
        <ele>2549.0700000000002</ele>
        <time>2015-06-07T06:28:00Z</time>
      </trkpt>
      <trkpt lat="45.516029018908739" lon="7.076153112575412">
        <ele>2550.5100000000002</ele>
        <time>2015-06-07T06:28:11Z</time>
      </trkpt>
      <trkpt lat="45.516030108556151" lon="7.076118998229504">
        <ele>2552.9200000000001</ele>
        <time>2015-06-07T06:28:22Z</time>
      </trkpt>
      <trkpt lat="45.516044106334448" lon="7.076047752052546">
        <ele>2555.8000000000002</ele>
        <time>2015-06-07T06:28:35Z</time>
      </trkpt>
      <trkpt lat="45.516100767999887" lon="7.076054960489273">
        <ele>2557.2399999999998</ele>
        <time>2015-06-07T06:28:45Z</time>
      </trkpt>
      <trkpt lat="45.516099594533443" lon="7.076018331572413">
        <ele>2559.1700000000001</ele>
        <time>2015-06-07T06:28:53Z</time>
      </trkpt>
      <trkpt lat="45.516057349741459" lon="7.075956305488944">
        <ele>2560.6100000000001</ele>
        <time>2015-06-07T06:29:03Z</time>
      </trkpt>
      <trkpt lat="45.516120046377182" lon="7.075938452035189">
        <ele>2563.0100000000002</ele>
        <time>2015-06-07T06:29:14Z</time>
      </trkpt>
      <trkpt lat="45.516164554283023" lon="7.07592973485589">
        <ele>2564.9299999999998</ele>
        <time>2015-06-07T06:29:25Z</time>
      </trkpt>
      <trkpt lat="45.516154244542122" lon="7.075870474800468">
        <ele>2566.8600000000001</ele>
        <time>2015-06-07T06:29:34Z</time>
      </trkpt>
      <trkpt lat="45.516215600073338" lon="7.075875084847212">
        <ele>2568.7800000000002</ele>
        <time>2015-06-07T06:29:44Z</time>
      </trkpt>
      <trkpt lat="45.516278967261314" lon="7.075872989371419">
        <ele>2571.1799999999998</ele>
        <time>2015-06-07T06:29:56Z</time>
      </trkpt>
      <trkpt lat="45.516338059678674" lon="7.075886400416493">
        <ele>2573.1100000000001</ele>
        <time>2015-06-07T06:30:06Z</time>
      </trkpt>
      <trkpt lat="45.51637401804328" lon="7.075950857251883">
        <ele>2575.0300000000002</ele>
        <time>2015-06-07T06:30:17Z</time>
      </trkpt>
      <trkpt lat="45.516378460451961" lon="7.076025875285268">
        <ele>2576.9499999999998</ele>
        <time>2015-06-07T06:30:28Z</time>
      </trkpt>
      <trkpt lat="45.516443755477667" lon="7.076043309643865">
        <ele>2579.3499999999999</ele>
        <time>2015-06-07T06:30:39Z</time>
      </trkpt>
      <trkpt lat="45.516542242839932" lon="7.076121428981423">
        <ele>2581.2800000000002</ele>
        <time>2015-06-07T06:30:53Z</time>
      </trkpt>
      <trkpt lat="45.516579542309046" lon="7.076153866946697">
        <ele>2582.2399999999998</ele>
        <time>2015-06-07T06:31:00Z</time>
      </trkpt>
      <trkpt lat="45.516607286408544" lon="7.076093181967735">
        <ele>2583.6799999999998</ele>
        <time>2015-06-07T06:31:11Z</time>
      </trkpt>
      <trkpt lat="45.516604604199529" lon="7.075976002961397">
        <ele>2586.5599999999999</ele>
        <time>2015-06-07T06:31:25Z</time>
      </trkpt>
      <trkpt lat="45.5166838131845" lon="7.075982037931681">
        <ele>2588.0100000000002</ele>
        <time>2015-06-07T06:31:35Z</time>
      </trkpt>
      <trkpt lat="45.516771068796515" lon="7.076008776202798">
        <ele>2590.8899999999999</ele>
        <time>2015-06-07T06:31:48Z</time>
      </trkpt>
      <trkpt lat="45.516840973868966" lon="7.076016906648874">
        <ele>2591.8499999999999</ele>
        <time>2015-06-07T06:31:57Z</time>
      </trkpt>
      <trkpt lat="45.516931749880314" lon="7.075979523360729">
        <ele>2594.25</ele>
        <time>2015-06-07T06:32:10Z</time>
      </trkpt>
      <trkpt lat="45.516992434859276" lon="7.075959071516991">
        <ele>2595.6999999999998</ele>
        <time>2015-06-07T06:32:20Z</time>
      </trkpt>
      <trkpt lat="45.517054460942745" lon="7.075930908322334">
        <ele>2598.0999999999999</ele>
        <time>2015-06-07T06:32:30Z</time>
      </trkpt>
      <trkpt lat="45.517120007425547" lon="7.075940044596791">
        <ele>2600.98</ele>
        <time>2015-06-07T06:32:42Z</time>
      </trkpt>
      <trkpt lat="45.517199635505676" lon="7.075919844210148">
        <ele>2602.4299999999998</ele>
        <time>2015-06-07T06:32:54Z</time>
      </trkpt>
      <trkpt lat="45.517288399860263" lon="7.075910624116659">
        <ele>2604.3499999999999</ele>
        <time>2015-06-07T06:33:06Z</time>
      </trkpt>
      <trkpt lat="45.517365178093314" lon="7.075915904715657">
        <ele>2607.23</ele>
        <time>2015-06-07T06:33:17Z</time>
      </trkpt>
      <trkpt lat="45.517433490604162" lon="7.075927220284939">
        <ele>2609.1599999999999</ele>
        <time>2015-06-07T06:33:29Z</time>
      </trkpt>
      <trkpt lat="45.517461989074945" lon="7.075864104554057">
        <ele>2611.0799999999999</ele>
        <time>2015-06-07T06:33:40Z</time>
      </trkpt>
      <trkpt lat="45.517445476725698" lon="7.075707614421845">
        <ele>2613.96</ele>
        <time>2015-06-07T06:33:55Z</time>
      </trkpt>
      <trkpt lat="45.517407171428204" lon="7.0756512042135">
        <ele>2615.4000000000001</ele>
        <time>2015-06-07T06:34:04Z</time>
      </trkpt>
      <trkpt lat="45.517367022112012" lon="7.075617089867592">
        <ele>2615.8800000000001</ele>
        <time>2015-06-07T06:34:15Z</time>
      </trkpt>
      <trkpt lat="45.517331482842565" lon="7.075621113181114">
        <ele>2616.8499999999999</ele>
        <time>2015-06-07T06:34:27Z</time>
      </trkpt>
      <trkpt lat="45.517272893339396" lon="7.075554477050901">
        <ele>2617.8099999999999</ele>
        <time>2015-06-07T06:34:36Z</time>
      </trkpt>
      <trkpt lat="45.517237605527043" lon="7.075529331341386">
        <ele>2618.77</ele>
        <time>2015-06-07T06:34:41Z</time>
      </trkpt>
      <trkpt lat="45.517123276367784" lon="7.075508963316679">
        <ele>2619.25</ele>
        <time>2015-06-07T06:34:54Z</time>
      </trkpt>
      <trkpt lat="45.517056724056602" lon="7.075474932789803">
        <ele>2621.6500000000001</ele>
        <time>2015-06-07T06:35:04Z</time>
      </trkpt>
      <trkpt lat="45.517021352425218" lon="7.075455067679286">
        <ele>2622.6100000000001</ele>
        <time>2015-06-07T06:35:09Z</time>
      </trkpt>
      <trkpt lat="45.51695647649467" lon="7.075355825945735">
        <ele>2625.02</ele>
        <time>2015-06-07T06:35:22Z</time>
      </trkpt>
      <trkpt lat="45.516931163147092" lon="7.075261110439897">
        <ele>2627.4200000000001</ele>
        <time>2015-06-07T06:35:35Z</time>
      </trkpt>
      <trkpt lat="45.516853630542755" lon="7.075190953910351">
        <ele>2628.3800000000001</ele>
        <time>2015-06-07T06:35:47Z</time>
      </trkpt>
      <trkpt lat="45.516823707148433" lon="7.075183158740401">
        <ele>2629.3400000000001</ele>
        <time>2015-06-07T06:35:51Z</time>
      </trkpt>
      <trkpt lat="45.516751371324062" lon="7.075224062427878">
        <ele>2630.3000000000002</ele>
        <time>2015-06-07T06:36:03Z</time>
      </trkpt>
      <trkpt lat="45.516704767942429" lon="7.075154827907682">
        <ele>2632.23</ele>
        <time>2015-06-07T06:36:12Z</time>
      </trkpt>
      <trkpt lat="45.516693200916052" lon="7.075130855664611">
        <ele>2632.71</ele>
        <time>2015-06-07T06:36:14Z</time>
      </trkpt>
      <trkpt lat="45.516640143468976" lon="7.075019711628556">
        <ele>2631.75</ele>
        <time>2015-06-07T06:36:22Z</time>
      </trkpt>
      <trkpt lat="45.516583817079663" lon="7.074915105476975">
        <ele>2632.71</ele>
        <time>2015-06-07T06:36:33Z</time>
      </trkpt>
      <trkpt lat="45.516523635014892" lon="7.074873531237245">
        <ele>2635.1100000000001</ele>
        <time>2015-06-07T06:36:45Z</time>
      </trkpt>
      <trkpt lat="45.516500752419233" lon="7.07490798085928">
        <ele>2637.5100000000002</ele>
        <time>2015-06-07T06:36:53Z</time>
      </trkpt>
      <trkpt lat="45.516485245898366" lon="7.074905382469297">
        <ele>2637.9899999999998</ele>
        <time>2015-06-07T06:37:03Z</time>
      </trkpt>
      <trkpt lat="45.516468985006213" lon="7.07493924535811">
        <ele>2638.96</ele>
        <time>2015-06-07T06:37:16Z</time>
      </trkpt>
      <trkpt lat="45.516442749649286" lon="7.07498962059617">
        <ele>2640.8800000000001</ele>
        <time>2015-06-07T06:37:27Z</time>
      </trkpt>
      <trkpt lat="45.516428919509053" lon="7.075004540383816">
        <ele>2640.8800000000001</ele>
        <time>2015-06-07T06:37:52Z</time>
      </trkpt>
      <trkpt lat="45.51642632111907" lon="7.074957266449928">
        <ele>2640.8800000000001</ele>
        <time>2015-06-07T06:38:07Z</time>
      </trkpt>
      <trkpt lat="45.516421794891357" lon="7.074952237308025">
        <ele>2640.8800000000001</ele>
        <time>2015-06-07T06:38:21Z</time>
      </trkpt>
      <trkpt lat="45.516405869275331" lon="7.074923571199179">
        <ele>2640.8800000000001</ele>
        <time>2015-06-07T06:38:32Z</time>
      </trkpt>
      <trkpt lat="45.51641701720655" lon="7.074805805459619">
        <ele>2640.8800000000001</ele>
        <time>2015-06-07T06:38:43Z</time>
      </trkpt>
      <trkpt lat="45.516378208994865" lon="7.074734224006534">
        <ele>2641.8400000000001</ele>
        <time>2015-06-07T06:38:54Z</time>
      </trkpt>
      <trkpt lat="45.516315679997206" lon="7.074694745242596">
        <ele>2644.2399999999998</ele>
        <time>2015-06-07T06:39:05Z</time>
      </trkpt>
      <trkpt lat="45.516276368871331" lon="7.074675969779491">
        <ele>2646.6500000000001</ele>
        <time>2015-06-07T06:39:15Z</time>
      </trkpt>
      <trkpt lat="45.516250384971499" lon="7.074732044711709">
        <ele>2648.5700000000002</ele>
        <time>2015-06-07T06:39:24Z</time>
      </trkpt>
      <trkpt lat="45.516224149614573" lon="7.074746377766132">
        <ele>2650.0100000000002</ele>
        <time>2015-06-07T06:39:30Z</time>
      </trkpt>
      <trkpt lat="45.516134211793542" lon="7.074648477137089">
        <ele>2650.9699999999998</ele>
        <time>2015-06-07T06:39:42Z</time>
      </trkpt>
      <trkpt lat="45.516047291457653" lon="7.07458158954978">
        <ele>2651.9299999999998</ele>
        <time>2015-06-07T06:39:54Z</time>
      </trkpt>
      <trkpt lat="45.516012590378523" lon="7.074555354192853">
        <ele>2652.9000000000001</ele>
        <time>2015-06-07T06:40:05Z</time>
      </trkpt>
      <trkpt lat="45.516011416912079" lon="7.074537584558129">
        <ele>2652.4200000000001</ele>
        <time>2015-06-07T06:40:17Z</time>
      </trkpt>
      <trkpt lat="45.516010075807571" lon="7.074526688084006">
        <ele>2652.9000000000001</ele>
        <time>2015-06-07T06:40:32Z</time>
      </trkpt>
      <trkpt lat="45.516010327264667" lon="7.074524676427245">
        <ele>2652.9000000000001</ele>
        <time>2015-06-07T06:40:49Z</time>
      </trkpt>
      <trkpt lat="45.515988785773516" lon="7.074531381949782">
        <ele>2652.9000000000001</ele>
        <time>2015-06-07T06:41:01Z</time>
      </trkpt>
      <trkpt lat="45.515965316444635" lon="7.074505984783173">
        <ele>2653.8600000000001</ele>
        <time>2015-06-07T06:41:05Z</time>
      </trkpt>
      <trkpt lat="45.515960706397891" lon="7.074401378631592">
        <ele>2653.3800000000001</ele>
        <time>2015-06-07T06:41:12Z</time>
      </trkpt>
      <trkpt lat="45.51591033115983" lon="7.074344214051962">
        <ele>2654.8200000000002</ele>
        <time>2015-06-07T06:41:18Z</time>
      </trkpt>
      <trkpt lat="45.515831205993891" lon="7.074195854365826">
        <ele>2656.7399999999998</ele>
        <time>2015-06-07T06:41:32Z</time>
      </trkpt>
      <trkpt lat="45.515820393338799" lon="7.074187723919749">
        <ele>2656.7399999999998</ele>
        <time>2015-06-07T06:41:33Z</time>
      </trkpt>
      <trkpt lat="45.515765994787216" lon="7.074033245444298">
        <ele>2658.6599999999999</ele>
        <time>2015-06-07T06:41:45Z</time>
      </trkpt>
      <trkpt lat="45.515768341720104" lon="7.074001897126436">
        <ele>2659.6199999999999</ele>
        <time>2015-06-07T06:41:54Z</time>
      </trkpt>
      <trkpt lat="45.515739088878036" lon="7.073931489139795">
        <ele>2661.0700000000002</ele>
        <time>2015-06-07T06:42:03Z</time>
      </trkpt>
      <trkpt lat="45.515716290101409" lon="7.073844065889716">
        <ele>2663.4699999999998</ele>
        <time>2015-06-07T06:42:13Z</time>
      </trkpt>
      <trkpt lat="45.515679577365518" lon="7.073767622932792">
        <ele>2666.3499999999999</ele>
        <time>2015-06-07T06:42:25Z</time>
      </trkpt>
      <trkpt lat="45.515656359493732" lon="7.073690509423614">
        <ele>2667.8000000000002</ele>
        <time>2015-06-07T06:42:34Z</time>
      </trkpt>
      <trkpt lat="45.515648480504751" lon="7.073529493063688">
        <ele>2669.2399999999998</ele>
        <time>2015-06-07T06:42:46Z</time>
      </trkpt>
      <trkpt lat="45.515630878508091" lon="7.073418935760856">
        <ele>2671.6399999999999</ele>
        <time>2015-06-07T06:42:58Z</time>
      </trkpt>
      <trkpt lat="45.515608079731464" lon="7.073327573016286">
        <ele>2673.0799999999999</ele>
        <time>2015-06-07T06:43:09Z</time>
      </trkpt>
      <trkpt lat="45.515613025054336" lon="7.073224475607276">
        <ele>2675.9699999999998</ele>
        <time>2015-06-07T06:43:20Z</time>
      </trkpt>
      <trkpt lat="45.515607912093401" lon="7.073134789243341">
        <ele>2676.4499999999998</ele>
        <time>2015-06-07T06:43:27Z</time>
      </trkpt>
      <trkpt lat="45.515612605959177" lon="7.073011575266719">
        <ele>2676.4499999999998</ele>
        <time>2015-06-07T06:43:36Z</time>
      </trkpt>
      <trkpt lat="45.515613947063684" lon="7.073001265525818">
        <ele>2676.9299999999998</ele>
        <time>2015-06-07T06:43:37Z</time>
      </trkpt>
      <trkpt lat="45.515612857416272" lon="7.072977796196938">
        <ele>2677.4099999999999</ele>
        <time>2015-06-07T06:43:39Z</time>
      </trkpt>
      <trkpt lat="45.515605481341481" lon="7.072955248877406">
        <ele>2677.4099999999999</ele>
        <time>2015-06-07T06:43:41Z</time>
      </trkpt>
      <trkpt lat="45.515570612624288" lon="7.072911411523819">
        <ele>2677.4099999999999</ele>
        <time>2015-06-07T06:43:45Z</time>
      </trkpt>
      <trkpt lat="45.515558375045657" lon="7.072897749021649">
        <ele>2676.9299999999998</ele>
        <time>2015-06-07T06:43:47Z</time>
      </trkpt>
      <trkpt lat="45.515464665368199" lon="7.072816360741854">
        <ele>2677.4099999999999</ele>
        <time>2015-06-07T06:43:59Z</time>
      </trkpt>
      <trkpt lat="45.515470113605261" lon="7.072819042950869">
        <ele>2676.4499999999998</ele>
        <time>2015-06-07T06:44:05Z</time>
      </trkpt>
      <trkpt lat="45.515473801642656" lon="7.072817701846361">
        <ele>2676.9299999999998</ele>
        <time>2015-06-07T06:44:29Z</time>
      </trkpt>
      <trkpt lat="45.51547933369875" lon="7.072826586663723">
        <ele>2676.4499999999998</ele>
        <time>2015-06-07T06:44:49Z</time>
      </trkpt>
      <trkpt lat="45.515481932088733" lon="7.072823401540518">
        <ele>2676.4499999999998</ele>
        <time>2015-06-07T06:45:11Z</time>
      </trkpt>
      <trkpt lat="45.515482686460018" lon="7.072832034900785">
        <ele>2676.9299999999998</ele>
        <time>2015-06-07T06:45:36Z</time>
      </trkpt>
      <trkpt lat="45.515488721430302" lon="7.072816528379917">
        <ele>2676.9299999999998</ele>
        <time>2015-06-07T06:45:53Z</time>
      </trkpt>
      <trkpt lat="45.515485787764192" lon="7.072838572785258">
        <ele>2676.9299999999998</ele>
        <time>2015-06-07T06:46:08Z</time>
      </trkpt>
      <trkpt lat="45.515491319820285" lon="7.072841674089432">
        <ele>2676.9299999999998</ele>
        <time>2015-06-07T06:46:34Z</time>
      </trkpt>
      <trkpt lat="45.515466844663024" lon="7.072836644947529">
        <ele>2677.4099999999999</ele>
        <time>2015-06-07T06:46:54Z</time>
      </trkpt>
      <trkpt lat="45.515473801642656" lon="7.072841003537178">
        <ele>2676.9299999999998</ele>
        <time>2015-06-07T06:47:06Z</time>
      </trkpt>
      <trkpt lat="45.515471119433641" lon="7.072884840890765">
        <ele>2677.8899999999999</ele>
        <time>2015-06-07T06:47:18Z</time>
      </trkpt>
      <trkpt lat="45.515478244051337" lon="7.072913674637675">
        <ele>2678.3699999999999</ele>
        <time>2015-06-07T06:47:21Z</time>
      </trkpt>
      <trkpt lat="45.515471789985895" lon="7.07295935600996">
        <ele>2679.8099999999999</ele>
        <time>2015-06-07T06:47:30Z</time>
      </trkpt>
      <trkpt lat="45.515477824956179" lon="7.072835387662053">
        <ele>2678.8499999999999</ele>
        <time>2015-06-07T06:47:44Z</time>
      </trkpt>
      <trkpt lat="45.515467766672373" lon="7.072815522551537">
        <ele>2678.8499999999999</ele>
        <time>2015-06-07T06:47:58Z</time>
      </trkpt>
      <trkpt lat="45.51544513553381" lon="7.072852738201618">
        <ele>2678.8499999999999</ele>
        <time>2015-06-07T06:48:17Z</time>
      </trkpt>
      <trkpt lat="45.515483021736145" lon="7.072822898626328">
        <ele>2678.8499999999999</ele>
        <time>2015-06-07T06:48:35Z</time>
      </trkpt>
      <trkpt lat="45.515492158010602" lon="7.072836812585592">
        <ele>2677.8899999999999</ele>
        <time>2015-06-07T06:48:42Z</time>
      </trkpt>
      <trkpt lat="45.515485955402255" lon="7.072830861434341">
        <ele>2677.8899999999999</ele>
        <time>2015-06-07T06:49:00Z</time>
      </trkpt>
      <trkpt lat="45.515476232394576" lon="7.07281619310379">
        <ele>2678.8499999999999</ele>
        <time>2015-06-07T06:49:07Z</time>
      </trkpt>
      <trkpt lat="45.515459384769201" lon="7.072778642177582">
        <ele>2678.3699999999999</ele>
        <time>2015-06-07T06:49:17Z</time>
      </trkpt>
      <trkpt lat="45.51547204144299" lon="7.072769924998283">
        <ele>2678.3699999999999</ele>
        <time>2015-06-07T06:49:35Z</time>
      </trkpt>
      <trkpt lat="45.51546910777688" lon="7.072763303294778">
        <ele>2678.8499999999999</ele>
        <time>2015-06-07T06:49:36Z</time>
      </trkpt>
      <trkpt lat="45.515370955690742" lon="7.072688033804297">
        <ele>2678.3699999999999</ele>
        <time>2015-06-07T06:49:47Z</time>
      </trkpt>
      <trkpt lat="45.515292836353183" lon="7.07270915620029">
        <ele>2678.8499999999999</ele>
        <time>2015-06-07T06:49:56Z</time>
      </trkpt>
      <trkpt lat="45.515221590176225" lon="7.072726674377918">
        <ele>2680.77</ele>
        <time>2015-06-07T06:50:06Z</time>
      </trkpt>
      <trkpt lat="45.515143135562539" lon="7.072719214484096">
        <ele>2682.6999999999998</ele>
        <time>2015-06-07T06:50:16Z</time>
      </trkpt>
      <trkpt lat="45.515105249360204" lon="7.07275316119194">
        <ele>2685.0999999999999</ele>
        <time>2015-06-07T06:50:27Z</time>
      </trkpt>
      <trkpt lat="45.515095358714461" lon="7.072796244174242">
        <ele>2686.54</ele>
        <time>2015-06-07T06:50:35Z</time>
      </trkpt>
      <trkpt lat="45.515082534402609" lon="7.072824072092772">
        <ele>2688.46</ele>
        <time>2015-06-07T06:50:43Z</time>
      </trkpt>
      <trkpt lat="45.515064429491758" lon="7.072863718494773">
        <ele>2689.9099999999999</ele>
        <time>2015-06-07T06:50:51Z</time>
      </trkpt>
      <trkpt lat="45.515047330409288" lon="7.072891043499112">
        <ele>2690.8699999999999</ele>
        <time>2015-06-07T06:50:56Z</time>
      </trkpt>
      <trkpt lat="45.515050599351525" lon="7.072955500334501">
        <ele>2691.3499999999999</ele>
        <time>2015-06-07T06:51:05Z</time>
      </trkpt>
      <trkpt lat="45.515063926577568" lon="7.073021717369556">
        <ele>2692.79</ele>
        <time>2015-06-07T06:51:16Z</time>
      </trkpt>
      <trkpt lat="45.515038277953863" lon="7.073040995746851">
        <ele>2694.23</ele>
        <time>2015-06-07T06:51:25Z</time>
      </trkpt>
      <trkpt lat="45.51502738147974" lon="7.073083072900772">
        <ele>2696.1500000000001</ele>
        <time>2015-06-07T06:51:34Z</time>
      </trkpt>
      <trkpt lat="45.515033584088087" lon="7.073129676282406">
        <ele>2698.5599999999999</ele>
        <time>2015-06-07T06:51:44Z</time>
      </trkpt>
      <trkpt lat="45.51503911614418" lon="7.07316504791379">
        <ele>2699.04</ele>
        <time>2015-06-07T06:51:53Z</time>
      </trkpt>
      <trkpt lat="45.515042888000607" lon="7.073170160874724">
        <ele>2699.04</ele>
        <time>2015-06-07T06:51:54Z</time>
      </trkpt>
      <trkpt lat="45.515026627108455" lon="7.073254566639662">
        <ele>2699.52</ele>
        <time>2015-06-07T06:52:04Z</time>
      </trkpt>
      <trkpt lat="45.514977173879743" lon="7.073289770632982">
        <ele>2701.4400000000001</ele>
        <time>2015-06-07T06:52:14Z</time>
      </trkpt>
      <trkpt lat="45.5149189196527" lon="7.073243334889412">
        <ele>2703.3600000000001</ele>
        <time>2015-06-07T06:52:24Z</time>
      </trkpt>
      <trkpt lat="45.51487298682332" lon="7.073275437578559">
        <ele>2705.29</ele>
        <time>2015-06-07T06:52:36Z</time>
      </trkpt>
      <trkpt lat="45.514847924932837" lon="7.073274850845337">
        <ele>2706.73</ele>
        <time>2015-06-07T06:52:41Z</time>
      </trkpt>
      <trkpt lat="45.514785144478083" lon="7.073182314634323">
        <ele>2708.1700000000001</ele>
        <time>2015-06-07T06:52:53Z</time>
      </trkpt>
      <trkpt lat="45.514756059274077" lon="7.073073433712125">
        <ele>2709.6100000000001</ele>
        <time>2015-06-07T06:53:03Z</time>
      </trkpt>
      <trkpt lat="45.514747928828001" lon="7.073029847815633">
        <ele>2709.6100000000001</ele>
        <time>2015-06-07T06:53:07Z</time>
      </trkpt>
      <trkpt lat="45.514713563024998" lon="7.072956673800945">
        <ele>2711.0599999999999</ele>
        <time>2015-06-07T06:53:18Z</time>
      </trkpt>
      <trkpt lat="45.514687411487103" lon="7.072890121489763">
        <ele>2712.98</ele>
        <time>2015-06-07T06:53:28Z</time>
      </trkpt>
      <trkpt lat="45.51462572067976" lon="7.072874279692769">
        <ele>2714.9000000000001</ele>
        <time>2015-06-07T06:53:40Z</time>
      </trkpt>
      <trkpt lat="45.514538884162903" lon="7.072843434289098">
        <ele>2717.7800000000002</ele>
        <time>2015-06-07T06:53:57Z</time>
      </trkpt>
      <trkpt lat="45.514538045972586" lon="7.07284988835454">
        <ele>2717.7800000000002</ele>
        <time>2015-06-07T06:54:15Z</time>
      </trkpt>
      <trkpt lat="45.514486245810986" lon="7.072887774556875">
        <ele>2719.23</ele>
        <time>2015-06-07T06:54:28Z</time>
      </trkpt>
      <trkpt lat="45.514412485063076" lon="7.072881991043687">
        <ele>2721.1500000000001</ele>
        <time>2015-06-07T06:54:38Z</time>
      </trkpt>
      <trkpt lat="45.514343166723847" lon="7.072872938588262">
        <ele>2723.5500000000002</ele>
        <time>2015-06-07T06:54:49Z</time>
      </trkpt>
      <trkpt lat="45.514277117326856" lon="7.072899593040347">
        <ele>2725.48</ele>
        <time>2015-06-07T06:55:01Z</time>
      </trkpt>
      <trkpt lat="45.514218863099813" lon="7.072898084297776">
        <ele>2726.9200000000001</ele>
        <time>2015-06-07T06:55:11Z</time>
      </trkpt>
      <trkpt lat="45.514158429577947" lon="7.072945022955537">
        <ele>2728.8400000000001</ele>
        <time>2015-06-07T06:55:22Z</time>
      </trkpt>
      <trkpt lat="45.514094810932875" lon="7.072940832003951">
        <ele>2731.2399999999998</ele>
        <time>2015-06-07T06:55:33Z</time>
      </trkpt>
      <trkpt lat="45.514041166752577" lon="7.072958936914802">
        <ele>2732.6799999999998</ele>
        <time>2015-06-07T06:55:44Z</time>
      </trkpt>
      <trkpt lat="45.514016775414348" lon="7.072964468970895">
        <ele>2734.1300000000001</ele>
        <time>2015-06-07T06:55:53Z</time>
      </trkpt>
      <trkpt lat="45.51399783231318" lon="7.072959104552865">
        <ele>2735.0900000000001</ele>
        <time>2015-06-07T06:56:06Z</time>
      </trkpt>
      <trkpt lat="45.513924658298492" lon="7.072950303554535">
        <ele>2737.0100000000002</ele>
        <time>2015-06-07T06:56:18Z</time>
      </trkpt>
      <trkpt lat="45.513858525082469" lon="7.072859779000282">
        <ele>2738.4499999999998</ele>
        <time>2015-06-07T06:56:31Z</time>
      </trkpt>
      <trkpt lat="45.513829775154591" lon="7.072842428460717">
        <ele>2738.9299999999998</ele>
        <time>2015-06-07T06:56:48Z</time>
      </trkpt>
      <trkpt lat="45.513814184814692" lon="7.072836980223656">
        <ele>2739.4099999999999</ele>
        <time>2015-06-07T06:57:04Z</time>
      </trkpt>
      <trkpt lat="45.513776298612356" lon="7.072781324386597">
        <ele>2739.8899999999999</ele>
        <time>2015-06-07T06:57:13Z</time>
      </trkpt>
      <trkpt lat="45.513707315549254" lon="7.072740755975246">
        <ele>2740.3800000000001</ele>
        <time>2015-06-07T06:57:23Z</time>
      </trkpt>
      <trkpt lat="45.513664484024048" lon="7.072734888643026">
        <ele>2740.3800000000001</ele>
        <time>2015-06-07T06:57:37Z</time>
      </trkpt>
      <trkpt lat="45.513613522052765" lon="7.072710832580924">
        <ele>2740.8600000000001</ele>
        <time>2015-06-07T06:57:43Z</time>
      </trkpt>
      <trkpt lat="45.513549316674471" lon="7.0726896263659">
        <ele>2741.3400000000001</ele>
        <time>2015-06-07T06:57:50Z</time>
      </trkpt>
      <trkpt lat="45.513423085212708" lon="7.072666408494115">
        <ele>2742.7800000000002</ele>
        <time>2015-06-07T06:58:03Z</time>
      </trkpt>
      <trkpt lat="45.513404728844762" lon="7.072664983570576">
        <ele>2742.7800000000002</ele>
        <time>2015-06-07T06:58:05Z</time>
      </trkpt>
      <trkpt lat="45.513311438262463" lon="7.072645789012313">
        <ele>2742.3000000000002</ele>
        <time>2015-06-07T06:58:13Z</time>
      </trkpt>
      <trkpt lat="45.513150338083506" lon="7.072477983310819">
        <ele>2741.3400000000001</ele>
        <time>2015-06-07T06:58:30Z</time>
      </trkpt>
      <trkpt lat="45.513052772730589" lon="7.072330377995968">
        <ele>2741.3400000000001</ele>
        <time>2015-06-07T06:58:43Z</time>
      </trkpt>
      <trkpt lat="45.513006001710892" lon="7.072180341929197">
        <ele>2743.2600000000002</ele>
        <time>2015-06-07T06:58:54Z</time>
      </trkpt>
      <trkpt lat="45.512953866273165" lon="7.072095097973943">
        <ele>2745.1799999999998</ele>
        <time>2015-06-07T06:59:05Z</time>
      </trkpt>
      <trkpt lat="45.512883625924587" lon="7.071985127404332">
        <ele>2746.6199999999999</ele>
        <time>2015-06-07T06:59:16Z</time>
      </trkpt>
      <trkpt lat="45.512843644246459" lon="7.07188387401402">
        <ele>2749.0300000000002</ele>
        <time>2015-06-07T06:59:26Z</time>
      </trkpt>
      <trkpt lat="45.512806177139282" lon="7.071855794638395">
        <ele>2750.9499999999998</ele>
        <time>2015-06-07T06:59:35Z</time>
      </trkpt>
      <trkpt lat="45.512828892096877" lon="7.071813298389316">
        <ele>2753.3499999999999</ele>
        <time>2015-06-07T06:59:43Z</time>
      </trkpt>
      <trkpt lat="45.512808104977012" lon="7.071765270084143">
        <ele>2755.7600000000002</ele>
        <time>2015-06-07T06:59:53Z</time>
      </trkpt>
      <trkpt lat="45.512778852134943" lon="7.071750853210688">
        <ele>2756.2399999999998</ele>
        <time>2015-06-07T07:00:01Z</time>
      </trkpt>
      <trkpt lat="45.5127879884094" lon="7.071685055270791">
        <ele>2758.1599999999999</ele>
        <time>2015-06-07T07:00:10Z</time>
      </trkpt>
      <trkpt lat="45.512765860185027" lon="7.071664771065116">
        <ele>2760.5599999999999</ele>
        <time>2015-06-07T07:00:20Z</time>
      </trkpt>
      <trkpt lat="45.512750605121255" lon="7.07159461453557">
        <ele>2762</ele>
        <time>2015-06-07T07:00:28Z</time>
      </trkpt>
      <trkpt lat="45.512696709483862" lon="7.071518506854773">
        <ele>2762.4899999999998</ele>
        <time>2015-06-07T07:00:38Z</time>
      </trkpt>
      <trkpt lat="45.512697966769338" lon="7.071503838524222">
        <ele>2762.9699999999998</ele>
        <time>2015-06-07T07:00:39Z</time>
      </trkpt>
      <trkpt lat="45.512682544067502" lon="7.071378193795681">
        <ele>2763.4499999999998</ele>
        <time>2015-06-07T07:00:50Z</time>
      </trkpt>
      <trkpt lat="45.512598557397723" lon="7.071254560723901">
        <ele>2765.3699999999999</ele>
        <time>2015-06-07T07:01:04Z</time>
      </trkpt>
      <trkpt lat="45.512545332312584" lon="7.071085246279836">
        <ele>2765.8499999999999</ele>
        <time>2015-06-07T07:01:17Z</time>
      </trkpt>
      <trkpt lat="45.512485401704907" lon="7.071001594886184">
        <ele>2768.25</ele>
        <time>2015-06-07T07:01:29Z</time>
      </trkpt>
      <trkpt lat="45.512427818030119" lon="7.070911657065153">
        <ele>2769.21</ele>
        <time>2015-06-07T07:01:40Z</time>
      </trkpt>
      <trkpt lat="45.512399487197399" lon="7.070812415331602">
        <ele>2771.1399999999999</ele>
        <time>2015-06-07T07:01:51Z</time>
      </trkpt>
      <trkpt lat="45.512347351759672" lon="7.070699008181691">
        <ele>2773.0599999999999</ele>
        <time>2015-06-07T07:02:04Z</time>
      </trkpt>
      <trkpt lat="45.512311225757003" lon="7.070616949349642">
        <ele>2774.5</ele>
        <time>2015-06-07T07:02:14Z</time>
      </trkpt>
      <trkpt lat="45.512242913246155" lon="7.070578811690211">
        <ele>2776.4200000000001</ele>
        <time>2015-06-07T07:02:24Z</time>
      </trkpt>
      <trkpt lat="45.512221874669194" lon="7.070558611303568">
        <ele>2777.3899999999999</ele>
        <time>2015-06-07T07:02:28Z</time>
      </trkpt>
      <trkpt lat="45.512161692604423" lon="7.070488538593054">
        <ele>2779.3099999999999</ele>
        <time>2015-06-07T07:02:39Z</time>
      </trkpt>
      <trkpt lat="45.512073934078217" lon="7.070412263274193">
        <ele>2781.23</ele>
        <time>2015-06-07T07:02:53Z</time>
      </trkpt>
      <trkpt lat="45.512071587145329" lon="7.070412430912256">
        <ele>2781.23</ele>
        <time>2015-06-07T07:03:11Z</time>
      </trkpt>
      <trkpt lat="45.512053901329637" lon="7.070419136434794">
        <ele>2781.23</ele>
        <time>2015-06-07T07:03:15Z</time>
      </trkpt>
      <trkpt lat="45.512033114209771" lon="7.070426931604743">
        <ele>2781.23</ele>
        <time>2015-06-07T07:03:17Z</time>
      </trkpt>
      <trkpt lat="45.51201643422246" lon="7.070441264659166">
        <ele>2781.23</ele>
        <time>2015-06-07T07:03:19Z</time>
      </trkpt>
      <trkpt lat="45.511933704838157" lon="7.070396672934294">
        <ele>2782.1900000000001</ele>
        <time>2015-06-07T07:03:29Z</time>
      </trkpt>
      <trkpt lat="45.511906966567039" lon="7.070298185572028">
        <ele>2784.5999999999999</ele>
        <time>2015-06-07T07:03:39Z</time>
      </trkpt>
      <trkpt lat="45.511865224689245" lon="7.070212354883552">
        <ele>2787</ele>
        <time>2015-06-07T07:03:50Z</time>
      </trkpt>
      <trkpt lat="45.511838821694255" lon="7.070127278566361">
        <ele>2789.4000000000001</ele>
        <time>2015-06-07T07:04:01Z</time>
      </trkpt>
      <trkpt lat="45.511819375678897" lon="7.070006662979722">
        <ele>2791.3299999999999</ele>
        <time>2015-06-07T07:04:13Z</time>
      </trkpt>
      <trkpt lat="45.51178090274334" lon="7.069932734593749">
        <ele>2793.25</ele>
        <time>2015-06-07T07:04:26Z</time>
      </trkpt>
      <trkpt lat="45.511714685708284" lon="7.069848915562034">
        <ele>2796.1300000000001</ele>
        <time>2015-06-07T07:04:40Z</time>
      </trkpt>
      <trkpt lat="45.511658694595098" lon="7.069799629971385">
        <ele>2798.0500000000002</ele>
        <time>2015-06-07T07:04:52Z</time>
      </trkpt>
      <trkpt lat="45.511590298265219" lon="7.069762330502272">
        <ele>2799.5</ele>
        <time>2015-06-07T07:05:04Z</time>
      </trkpt>
      <trkpt lat="45.511563559994102" lon="7.069750260561705">
        <ele>2799.98</ele>
        <time>2015-06-07T07:05:08Z</time>
      </trkpt>
      <trkpt lat="45.51153514534235" lon="7.069747243076563">
        <ele>2799.5</ele>
        <time>2015-06-07T07:05:11Z</time>
      </trkpt>
      <trkpt lat="45.511404974386096" lon="7.069687144830823">
        <ele>2798.0500000000002</ele>
        <time>2015-06-07T07:05:24Z</time>
      </trkpt>
      <trkpt lat="45.511346971616149" lon="7.069673566147685">
        <ele>2797.0900000000001</ele>
        <time>2015-06-07T07:05:33Z</time>
      </trkpt>
      <trkpt lat="45.511288717389107" lon="7.069638026878238">
        <ele>2797.5700000000002</ele>
        <time>2015-06-07T07:05:44Z</time>
      </trkpt>
      <trkpt lat="45.511262649670243" lon="7.069573234766722">
        <ele>2796.6100000000001</ele>
        <time>2015-06-07T07:05:51Z</time>
      </trkpt>
      <trkpt lat="45.511259883642197" lon="7.069561164826155">
        <ele>2796.6100000000001</ele>
        <time>2015-06-07T07:05:52Z</time>
      </trkpt>
      <trkpt lat="45.511194840073586" lon="7.0694983843714">
        <ele>2793.73</ele>
        <time>2015-06-07T07:06:03Z</time>
      </trkpt>
      <trkpt lat="45.511135580018163" lon="7.069426802918315">
        <ele>2791.8099999999999</ele>
        <time>2015-06-07T07:06:11Z</time>
      </trkpt>
      <trkpt lat="45.511129042133689" lon="7.069382881745696">
        <ele>2791.3299999999999</ele>
        <time>2015-06-07T07:06:14Z</time>
      </trkpt>
      <trkpt lat="45.511065004393458" lon="7.069294787943363">
        <ele>2789.4000000000001</ele>
        <time>2015-06-07T07:06:21Z</time>
      </trkpt>
      <trkpt lat="45.510957716032863" lon="7.069130754098296">
        <ele>2788.4400000000001</ele>
        <time>2015-06-07T07:06:35Z</time>
      </trkpt>
      <trkpt lat="45.51092385314405" lon="7.06905959174037">
        <ele>2787.96</ele>
        <time>2015-06-07T07:06:40Z</time>
      </trkpt>
      <trkpt lat="45.510805668309331" lon="7.068976191803813">
        <ele>2788.9200000000001</ele>
        <time>2015-06-07T07:06:53Z</time>
      </trkpt>
      <trkpt lat="45.510706091299653" lon="7.068911986425519">
        <ele>2791.8099999999999</ele>
        <time>2015-06-07T07:07:05Z</time>
      </trkpt>
      <trkpt lat="45.510701397433877" lon="7.068904610350728">
        <ele>2791.8099999999999</ele>
        <time>2015-06-07T07:07:06Z</time>
      </trkpt>
      <trkpt lat="45.510624116286635" lon="7.068749209865928">
        <ele>2791.3299999999999</ele>
        <time>2015-06-07T07:07:18Z</time>
      </trkpt>
      <trkpt lat="45.510584553703666" lon="7.068640245124698">
        <ele>2790.8400000000001</ele>
        <time>2015-06-07T07:07:26Z</time>
      </trkpt>
      <trkpt lat="45.510522779077291" lon="7.068528598174453">
        <ele>2788.4400000000001</ele>
        <time>2015-06-07T07:07:36Z</time>
      </trkpt>
      <trkpt lat="45.510509619489312" lon="7.06842583604157">
        <ele>2787</ele>
        <time>2015-06-07T07:07:42Z</time>
      </trkpt>
      <trkpt lat="45.510518252849579" lon="7.06834964454174">
        <ele>2786.52</ele>
        <time>2015-06-07T07:07:47Z</time>
      </trkpt>
      <trkpt lat="45.510548008605838" lon="7.068279907107353">
        <ele>2785.0799999999999</ele>
        <time>2015-06-07T07:07:52Z</time>
      </trkpt>
      <trkpt lat="45.510539123788476" lon="7.068245876580477">
        <ele>2784.5999999999999</ele>
        <time>2015-06-07T07:07:55Z</time>
      </trkpt>
      <trkpt lat="45.510458908975124" lon="7.068213606253266">
        <ele>2786.52</ele>
        <time>2015-06-07T07:08:06Z</time>
      </trkpt>
      <trkpt lat="45.510400738567114" lon="7.06813951022923">
        <ele>2787.48</ele>
        <time>2015-06-07T07:08:15Z</time>
      </trkpt>
      <trkpt lat="45.510337958112359" lon="7.06805694848299">
        <ele>2790.3600000000001</ele>
        <time>2015-06-07T07:08:26Z</time>
      </trkpt>
      <trkpt lat="45.510305101051927" lon="7.068018559366465">
        <ele>2791.3299999999999</ele>
        <time>2015-06-07T07:08:36Z</time>
      </trkpt>
      <trkpt lat="45.510293114930391" lon="7.068033311516047">
        <ele>2790.8400000000001</ele>
        <time>2015-06-07T07:08:48Z</time>
      </trkpt>
      <trkpt lat="45.510253719985485" lon="7.067993246018887">
        <ele>2791.8099999999999</ele>
        <time>2015-06-07T07:08:59Z</time>
      </trkpt>
      <trkpt lat="45.510229915380478" lon="7.067979080602527">
        <ele>2791.8099999999999</ele>
        <time>2015-06-07T07:09:02Z</time>
      </trkpt>
      <trkpt lat="45.510148108005524" lon="7.067857626825571">
        <ele>2792.29</ele>
        <time>2015-06-07T07:09:15Z</time>
      </trkpt>
      <trkpt lat="45.51012204028666" lon="7.067815717309713">
        <ele>2791.8099999999999</ele>
        <time>2015-06-07T07:09:19Z</time>
      </trkpt>
      <trkpt lat="45.510094128549099" lon="7.067775232717395">
        <ele>2791.8099999999999</ele>
        <time>2015-06-07T07:09:23Z</time>
      </trkpt>
      <trkpt lat="45.509982649236917" lon="7.067697867751122">
        <ele>2792.77</ele>
        <time>2015-06-07T07:09:36Z</time>
      </trkpt>
      <trkpt lat="45.509879132732749" lon="7.067601727321744">
        <ele>2793.25</ele>
        <time>2015-06-07T07:09:49Z</time>
      </trkpt>
      <trkpt lat="45.509814592078328" lon="7.067553363740444">
        <ele>2791.8099999999999</ele>
        <time>2015-06-07T07:09:56Z</time>
      </trkpt>
      <trkpt lat="45.509739238768816" lon="7.067531486973167">
        <ele>2791.8099999999999</ele>
        <time>2015-06-07T07:10:04Z</time>
      </trkpt>
      <trkpt lat="45.509685762226582" lon="7.067516651004553">
        <ele>2792.77</ele>
        <time>2015-06-07T07:10:10Z</time>
      </trkpt>
      <trkpt lat="45.509665478020906" lon="7.067515645176172">
        <ele>2792.77</ele>
        <time>2015-06-07T07:10:12Z</time>
      </trkpt>
      <trkpt lat="45.509584844112396" lon="7.067509107291699">
        <ele>2794.21</ele>
        <time>2015-06-07T07:10:22Z</time>
      </trkpt>
      <trkpt lat="45.509560704231262" lon="7.067557219415903">
        <ele>2796.6100000000001</ele>
        <time>2015-06-07T07:10:34Z</time>
      </trkpt>
      <trkpt lat="45.509575875476003" lon="7.067644391208887">
        <ele>2799.02</ele>
        <time>2015-06-07T07:10:45Z</time>
      </trkpt>
      <trkpt lat="45.509582245722413" lon="7.067688144743443">
        <ele>2800.9400000000001</ele>
        <time>2015-06-07T07:10:53Z</time>
      </trkpt>
      <trkpt lat="45.509581994265318" lon="7.067738017067313">
        <ele>2802.8600000000001</ele>
        <time>2015-06-07T07:11:01Z</time>
      </trkpt>
      <trkpt lat="45.509526086971164" lon="7.067770706489682">
        <ele>2804.7800000000002</ele>
        <time>2015-06-07T07:11:11Z</time>
      </trkpt>
      <trkpt lat="45.509466156363487" lon="7.067782273516059">
        <ele>2806.23</ele>
        <time>2015-06-07T07:11:21Z</time>
      </trkpt>
      <trkpt lat="45.509447380900383" lon="7.067804485559464">
        <ele>2808.1500000000001</ele>
        <time>2015-06-07T07:11:31Z</time>
      </trkpt>
      <trkpt lat="45.509420726448298" lon="7.067807335406542">
        <ele>2809.1100000000001</ele>
        <time>2015-06-07T07:11:40Z</time>
      </trkpt>
      <trkpt lat="45.509397508576512" lon="7.067811274901032">
        <ele>2810.5500000000002</ele>
        <time>2015-06-07T07:11:49Z</time>
      </trkpt>
      <trkpt lat="45.509361634030938" lon="7.067815968766809">
        <ele>2812.4699999999998</ele>
        <time>2015-06-07T07:11:59Z</time>
      </trkpt>
      <trkpt lat="45.509320646524429" lon="7.067841030657291">
        <ele>2814.8800000000001</ele>
        <time>2015-06-07T07:12:09Z</time>
      </trkpt>
      <trkpt lat="45.509249651804566" lon="7.067859554663301">
        <ele>2816.3200000000002</ele>
        <time>2015-06-07T07:12:20Z</time>
      </trkpt>
      <trkpt lat="45.509217884391546" lon="7.067854609340429">
        <ele>2815.8400000000001</ele>
        <time>2015-06-07T07:12:24Z</time>
      </trkpt>
      <trkpt lat="45.509118307381868" lon="7.06786785274744">
        <ele>2816.3200000000002</ele>
        <time>2015-06-07T07:12:35Z</time>
      </trkpt>
      <trkpt lat="45.509092910215259" lon="7.067867936566472">
        <ele>2816.8000000000002</ele>
        <time>2015-06-07T07:12:38Z</time>
      </trkpt>
      <trkpt lat="45.509007917717099" lon="7.067852597683668">
        <ele>2818.2399999999998</ele>
        <time>2015-06-07T07:12:50Z</time>
      </trkpt>
      <trkpt lat="45.508932815864682" lon="7.067857543006539">
        <ele>2820.1599999999999</ele>
        <time>2015-06-07T07:13:01Z</time>
      </trkpt>
      <trkpt lat="45.508867939934134" lon="7.067849831655622">
        <ele>2821.6100000000001</ele>
        <time>2015-06-07T07:13:11Z</time>
      </trkpt>
      <trkpt lat="45.508810104802251" lon="7.067831307649612">
        <ele>2823.5300000000002</ele>
        <time>2015-06-07T07:13:22Z</time>
      </trkpt>
      <trkpt lat="45.508773308247328" lon="7.06781261600554">
        <ele>2824.4899999999998</ele>
        <time>2015-06-07T07:13:32Z</time>
      </trkpt>
      <trkpt lat="45.508751263841987" lon="7.067854525521398">
        <ele>2826.8899999999999</ele>
        <time>2015-06-07T07:13:43Z</time>
      </trkpt>
      <trkpt lat="45.50871673040092" lon="7.067888136953116">
        <ele>2828.3400000000001</ele>
        <time>2015-06-07T07:13:53Z</time>
      </trkpt>
      <trkpt lat="45.508691919967532" lon="7.067917892709374">
        <ele>2830.2600000000002</ele>
        <time>2015-06-07T07:14:05Z</time>
      </trkpt>
      <trkpt lat="45.508654033765197" lon="7.067948989570141">
        <ele>2832.1799999999998</ele>
        <time>2015-06-07T07:14:15Z</time>
      </trkpt>
      <trkpt lat="45.508655961602926" lon="7.067934237420559">
        <ele>2828.8200000000002</ele>
        <time>2015-06-07T07:14:17Z</time>
      </trkpt>
      <trkpt lat="45.508652357384562" lon="7.067933566868305">
        <ele>2828.8200000000002</ele>
        <time>2015-06-07T07:14:18Z</time>
      </trkpt>
      <trkpt lat="45.508646238595247" lon="7.06793281249702">
        <ele>2833.1399999999999</ele>
        <time>2015-06-07T07:14:30Z</time>
      </trkpt>
      <trkpt lat="45.508648166432977" lon="7.067934488877654">
        <ele>2832.6599999999999</ele>
        <time>2015-06-07T07:14:31Z</time>
      </trkpt>
      <trkpt lat="45.508611369878054" lon="7.067924598231912">
        <ele>2834.0999999999999</ele>
        <time>2015-06-07T07:14:41Z</time>
      </trkpt>
      <trkpt lat="45.508558480069041" lon="7.067915629595518">
        <ele>2835.5500000000002</ele>
        <time>2015-06-07T07:14:51Z</time>
      </trkpt>
      <trkpt lat="45.508512631058693" lon="7.067923760041595">
        <ele>2837.4699999999998</ele>
        <time>2015-06-07T07:15:01Z</time>
      </trkpt>
      <trkpt lat="45.508459741249681" lon="7.067948319017887">
        <ele>2839.3899999999999</ele>
        <time>2015-06-07T07:15:12Z</time>
      </trkpt>
      <trkpt lat="45.508425794541836" lon="7.06796164624393">
        <ele>2841.3099999999999</ele>
        <time>2015-06-07T07:15:21Z</time>
      </trkpt>
      <trkpt lat="45.508403582498431" lon="7.068003555759788">
        <ele>2842.2800000000002</ele>
        <time>2015-06-07T07:15:30Z</time>
      </trkpt>
      <trkpt lat="45.508401906117797" lon="7.068020738661289">
        <ele>2843.2399999999998</ele>
        <time>2015-06-07T07:15:45Z</time>
      </trkpt>
      <trkpt lat="45.508398301899433" lon="7.068033730611205">
        <ele>2843.7199999999998</ele>
        <time>2015-06-07T07:15:59Z</time>
      </trkpt>
      <trkpt lat="45.508407019078732" lon="7.068020990118384">
        <ele>2843.2399999999998</ele>
        <time>2015-06-07T07:16:19Z</time>
      </trkpt>
      <trkpt lat="45.508398720994592" lon="7.068026773631573">
        <ele>2843.7199999999998</ele>
        <time>2015-06-07T07:16:35Z</time>
      </trkpt>
      <trkpt lat="45.508373994380236" lon="7.068047309294343">
        <ele>2844.1999999999998</ele>
        <time>2015-06-07T07:16:46Z</time>
      </trkpt>
      <trkpt lat="45.508297719061375" lon="7.068023169413209">
        <ele>2844.1999999999998</ele>
        <time>2015-06-07T07:16:59Z</time>
      </trkpt>
      <trkpt lat="45.508207781240344" lon="7.068063989281654">
        <ele>2843.7199999999998</ele>
        <time>2015-06-07T07:17:11Z</time>
      </trkpt>
      <trkpt lat="45.508220689371228" lon="7.068051667883992">
        <ele>2843.2399999999998</ele>
        <time>2015-06-07T07:17:14Z</time>
      </trkpt>
      <trkpt lat="45.508157070726156" lon="7.068073879927397">
        <ele>2842.7600000000002</ele>
        <time>2015-06-07T07:17:20Z</time>
      </trkpt>
      <trkpt lat="45.508053051307797" lon="7.068158369511366">
        <ele>2842.7600000000002</ele>
        <time>2015-06-07T07:17:31Z</time>
      </trkpt>
      <trkpt lat="45.507993875071406" lon="7.068177396431565">
        <ele>2842.7600000000002</ele>
        <time>2015-06-07T07:17:40Z</time>
      </trkpt>
      <trkpt lat="45.507924892008305" lon="7.068202458322048">
        <ele>2842.7600000000002</ele>
        <time>2015-06-07T07:17:47Z</time>
      </trkpt>
      <trkpt lat="45.507881389930844" lon="7.06821771338582">
        <ele>2843.2399999999998</ele>
        <time>2015-06-07T07:17:59Z</time>
      </trkpt>
      <trkpt lat="45.507882479578257" lon="7.068208577111363">
        <ele>2843.2399999999998</ele>
        <time>2015-06-07T07:18:15Z</time>
      </trkpt>
      <trkpt lat="45.507898153737187" lon="7.068219054490328">
        <ele>2843.2399999999998</ele>
        <time>2015-06-07T07:18:30Z</time>
      </trkpt>
      <trkpt lat="45.507824728265405" lon="7.068253085017204">
        <ele>2843.7199999999998</ele>
        <time>2015-06-07T07:18:43Z</time>
      </trkpt>
      <trkpt lat="45.507766809314489" lon="7.068327013403177">
        <ele>2844.1999999999998</ele>
        <time>2015-06-07T07:18:51Z</time>
      </trkpt>
      <trkpt lat="45.50765885040164" lon="7.068409658968449">
        <ele>2845.1599999999999</ele>
        <time>2015-06-07T07:19:03Z</time>
      </trkpt>
      <trkpt lat="45.507576204836369" lon="7.06836330704391">
        <ele>2847.0799999999999</ele>
        <time>2015-06-07T07:19:14Z</time>
      </trkpt>
      <trkpt lat="45.507535804063082" lon="7.068369509652257">
        <ele>2847.5599999999999</ele>
        <time>2015-06-07T07:19:19Z</time>
      </trkpt>
      <trkpt lat="45.507492972537875" lon="7.068321984261274">
        <ele>2848.52</ele>
        <time>2015-06-07T07:19:26Z</time>
      </trkpt>
      <trkpt lat="45.507439915090799" lon="7.068326594308019">
        <ele>2850.4499999999998</ele>
        <time>2015-06-07T07:19:35Z</time>
      </trkpt>
      <trkpt lat="45.507381660863757" lon="7.068303376436234">
        <ele>2852.3699999999999</ele>
        <time>2015-06-07T07:19:44Z</time>
      </trkpt>
      <trkpt lat="45.507339751347899" lon="7.06828317604959">
        <ele>2852.8499999999999</ele>
        <time>2015-06-07T07:19:50Z</time>
      </trkpt>
      <trkpt lat="45.507236067205667" lon="7.068220814689994">
        <ele>2853.8099999999999</ele>
        <time>2015-06-07T07:20:03Z</time>
      </trkpt>
      <trkpt lat="45.507147135213017" lon="7.068154932931066">
        <ele>2853.8099999999999</ele>
        <time>2015-06-07T07:20:14Z</time>
      </trkpt>
      <trkpt lat="45.507033057510853" lon="7.068133223801851">
        <ele>2855.25</ele>
        <time>2015-06-07T07:20:27Z</time>
      </trkpt>
      <trkpt lat="45.506922919303179" lon="7.068123668432236">
        <ele>2857.1799999999998</ele>
        <time>2015-06-07T07:20:40Z</time>
      </trkpt>
      <trkpt lat="45.506892828270793" lon="7.068124087527394">
        <ele>2857.6599999999999</ele>
        <time>2015-06-07T07:20:44Z</time>
      </trkpt>
      <trkpt lat="45.506796939298511" lon="7.068113191053271">
        <ele>2859.0999999999999</ele>
        <time>2015-06-07T07:20:56Z</time>
      </trkpt>
      <trkpt lat="45.506702391430736" lon="7.068074382841587">
        <ele>2860.54</ele>
        <time>2015-06-07T07:21:07Z</time>
      </trkpt>
      <trkpt lat="45.50662737339735" lon="7.068023839965463">
        <ele>2861.98</ele>
        <time>2015-06-07T07:21:19Z</time>
      </trkpt>
      <trkpt lat="45.506551181897521" lon="7.067998107522726">
        <ele>2863.9000000000001</ele>
        <time>2015-06-07T07:21:29Z</time>
      </trkpt>
      <trkpt lat="45.506452107802033" lon="7.0679821819067">
        <ele>2864.8699999999999</ele>
        <time>2015-06-07T07:21:41Z</time>
      </trkpt>
      <trkpt lat="45.506383460015059" lon="7.067966759204865">
        <ele>2865.8299999999999</ele>
        <time>2015-06-07T07:21:51Z</time>
      </trkpt>
      <trkpt lat="45.506266029551625" lon="7.06795041449368">
        <ele>2866.79</ele>
        <time>2015-06-07T07:22:04Z</time>
      </trkpt>
      <trkpt lat="45.506163351237774" lon="7.067955024540424">
        <ele>2868.71</ele>
        <time>2015-06-07T07:22:16Z</time>
      </trkpt>
      <trkpt lat="45.506108365952969" lon="7.067957287654281">
        <ele>2870.1500000000001</ele>
        <time>2015-06-07T07:22:23Z</time>
      </trkpt>
      <trkpt lat="45.505995629355311" lon="7.067933902144432">
        <ele>2871.5999999999999</ele>
        <time>2015-06-07T07:22:35Z</time>
      </trkpt>
      <trkpt lat="45.505894375964999" lon="7.067931303754449">
        <ele>2873.04</ele>
        <time>2015-06-07T07:22:47Z</time>
      </trkpt>
      <trkpt lat="45.505832768976688" lon="7.067924095317721">
        <ele>2872.5599999999999</ele>
        <time>2015-06-07T07:22:57Z</time>
      </trkpt>
      <trkpt lat="45.505732437595725" lon="7.067909594625235">
        <ele>2872.5599999999999</ele>
        <time>2015-06-07T07:23:07Z</time>
      </trkpt>
      <trkpt lat="45.505617186427116" lon="7.067911354824901">
        <ele>2874.96</ele>
        <time>2015-06-07T07:23:19Z</time>
      </trkpt>
      <trkpt lat="45.505491038784385" lon="7.06793867982924">
        <ele>2875.4400000000001</ele>
        <time>2015-06-07T07:23:32Z</time>
      </trkpt>
      <trkpt lat="45.505410321056843" lon="7.067942954599857">
        <ele>2875.4400000000001</ele>
        <time>2015-06-07T07:23:43Z</time>
      </trkpt>
      <trkpt lat="45.505409482866526" lon="7.067941781133413">
        <ele>2875.4400000000001</ele>
        <time>2015-06-07T07:23:45Z</time>
      </trkpt>
      <trkpt lat="45.50538282841444" lon="7.067942954599857">
        <ele>2875.4400000000001</ele>
        <time>2015-06-07T07:23:48Z</time>
      </trkpt>
      <trkpt lat="45.505360532552004" lon="7.067964412271977">
        <ele>2875.9200000000001</ele>
        <time>2015-06-07T07:23:51Z</time>
      </trkpt>
      <trkpt lat="45.505260452628136" lon="7.06794505007565">
        <ele>2875.9200000000001</ele>
        <time>2015-06-07T07:24:00Z</time>
      </trkpt>
      <trkpt lat="45.50520395860076" lon="7.067918227985501">
        <ele>2875.9200000000001</ele>
        <time>2015-06-07T07:24:06Z</time>
      </trkpt>
      <trkpt lat="45.50509549677372" lon="7.067894507199526">
        <ele>2874.96</ele>
        <time>2015-06-07T07:24:18Z</time>
      </trkpt>
      <trkpt lat="45.505037661641836" lon="7.067857543006539">
        <ele>2875.9200000000001</ele>
        <time>2015-06-07T07:24:29Z</time>
      </trkpt>
      <trkpt lat="45.505015617236495" lon="7.067846059799194">
        <ele>2876.4000000000001</ele>
        <time>2015-06-07T07:24:37Z</time>
      </trkpt>
      <trkpt lat="45.504963900893927" lon="7.067823261022568">
        <ele>2876.8800000000001</ele>
        <time>2015-06-07T07:24:47Z</time>
      </trkpt>
      <trkpt lat="45.5049411021173" lon="7.067790906876326">
        <ele>2877.3600000000001</ele>
        <time>2015-06-07T07:24:57Z</time>
      </trkpt>
      <trkpt lat="45.504918806254864" lon="7.067769281566143">
        <ele>2877.8400000000001</ele>
        <time>2015-06-07T07:25:05Z</time>
      </trkpt>
      <trkpt lat="45.50487563945353" lon="7.067751176655293">
        <ele>2878.8099999999999</ele>
        <time>2015-06-07T07:25:15Z</time>
      </trkpt>
      <trkpt lat="45.504857366904616" lon="7.067801803350449">
        <ele>2880.25</ele>
        <time>2015-06-07T07:25:23Z</time>
      </trkpt>
      <trkpt lat="45.504847560077906" lon="7.067823596298695">
        <ele>2880.73</ele>
        <time>2015-06-07T07:25:28Z</time>
      </trkpt>
      <trkpt lat="45.504785450175405" lon="7.06776081584394">
        <ele>2882.1700000000001</ele>
        <time>2015-06-07T07:25:39Z</time>
      </trkpt>
      <trkpt lat="45.504718981683254" lon="7.067728964611888">
        <ele>2884.0900000000001</ele>
        <time>2015-06-07T07:25:52Z</time>
      </trkpt>
      <trkpt lat="45.504671204835176" lon="7.067682864144445">
        <ele>2885.0500000000002</ele>
        <time>2015-06-07T07:26:03Z</time>
      </trkpt>
      <trkpt lat="45.504596186801791" lon="7.067635087296367">
        <ele>2887.46</ele>
        <time>2015-06-07T07:26:19Z</time>
      </trkpt>
      <trkpt lat="45.504527203738689" lon="7.067580353468657">
        <ele>2889.3800000000001</ele>
        <time>2015-06-07T07:26:33Z</time>
      </trkpt>
      <trkpt lat="45.504499794915318" lon="7.06761228851974">
        <ele>2890.8200000000002</ele>
        <time>2015-06-07T07:26:41Z</time>
      </trkpt>
      <trkpt lat="45.504433242604136" lon="7.067552944645286">
        <ele>2892.7399999999998</ele>
        <time>2015-06-07T07:26:54Z</time>
      </trkpt>
      <trkpt lat="45.504394518211484" lon="7.067550430074334">
        <ele>2894.1900000000001</ele>
        <time>2015-06-07T07:27:04Z</time>
      </trkpt>
      <trkpt lat="45.504322685301304" lon="7.067511957138777">
        <ele>2895.1500000000001</ele>
        <time>2015-06-07T07:27:16Z</time>
      </trkpt>
      <trkpt lat="45.504262335598469" lon="7.0675038266927">
        <ele>2896.1100000000001</ele>
        <time>2015-06-07T07:27:26Z</time>
      </trkpt>
      <trkpt lat="45.504246242344379" lon="7.067491002380848">
        <ele>2896.5900000000001</ele>
        <time>2015-06-07T07:27:29Z</time>
      </trkpt>
      <trkpt lat="45.504209194332361" lon="7.067490834742785">
        <ele>2897.0700000000002</ele>
        <time>2015-06-07T07:27:34Z</time>
      </trkpt>
      <trkpt lat="45.504186144098639" lon="7.067490080371499">
        <ele>2898.5100000000002</ele>
        <time>2015-06-07T07:27:45Z</time>
      </trkpt>
      <trkpt lat="45.504190502688289" lon="7.067486895248294">
        <ele>2898.0300000000002</ele>
        <time>2015-06-07T07:27:51Z</time>
      </trkpt>
      <trkpt lat="45.504163848236203" lon="7.067514639347792">
        <ele>2898.9899999999998</ele>
        <time>2015-06-07T07:27:56Z</time>
      </trkpt>
      <trkpt lat="45.504090674221516" lon="7.067530900239945">
        <ele>2898.0300000000002</ele>
        <time>2015-06-07T07:28:07Z</time>
      </trkpt>
      <trkpt lat="45.5040552187711" lon="7.06748228520155">
        <ele>2898.9899999999998</ele>
        <time>2015-06-07T07:28:17Z</time>
      </trkpt>
      <trkpt lat="45.504023618996143" lon="7.067461917176843">
        <ele>2899.9499999999998</ele>
        <time>2015-06-07T07:28:26Z</time>
      </trkpt>
      <trkpt lat="45.503997132182121" lon="7.067432831972837">
        <ele>2901.4000000000001</ele>
        <time>2015-06-07T07:28:33Z</time>
      </trkpt>
      <trkpt lat="45.503966957330704" lon="7.067421432584524">
        <ele>2902.8400000000001</ele>
        <time>2015-06-07T07:28:41Z</time>
      </trkpt>
      <trkpt lat="45.503944242373109" lon="7.067427802830935">
        <ele>2903.8000000000002</ele>
        <time>2015-06-07T07:28:49Z</time>
      </trkpt>
      <trkpt lat="45.503921778872609" lon="7.067424701526761">
        <ele>2904.2800000000002</ele>
        <time>2015-06-07T07:28:56Z</time>
      </trkpt>
      <trkpt lat="45.503886993974447" lon="7.067425455898047">
        <ele>2905.2399999999998</ele>
        <time>2015-06-07T07:29:04Z</time>
      </trkpt>
      <trkpt lat="45.503858746960759" lon="7.067422103136778">
        <ele>2906.1999999999998</ele>
        <time>2015-06-07T07:29:12Z</time>
      </trkpt>
      <trkpt lat="45.503826225176454" lon="7.067395448684692">
        <ele>2906.6799999999998</ele>
        <time>2015-06-07T07:29:20Z</time>
      </trkpt>
      <trkpt lat="45.50381088629365" lon="7.067387318238616">
        <ele>2907.6500000000001</ele>
        <time>2015-06-07T07:29:28Z</time>
      </trkpt>
      <trkpt lat="45.503780040889978" lon="7.067380947992206">
        <ele>2909.0900000000001</ele>
        <time>2015-06-07T07:29:36Z</time>
      </trkpt>
      <trkpt lat="45.503748608753085" lon="7.067377343773842">
        <ele>2909.5700000000002</ele>
        <time>2015-06-07T07:29:47Z</time>
      </trkpt>
      <trkpt lat="45.503744836896658" lon="7.067359993234277">
        <ele>2909.5700000000002</ele>
        <time>2015-06-07T07:30:06Z</time>
      </trkpt>
      <trkpt lat="45.503776939585805" lon="7.067340211942792">
        <ele>2910.0500000000002</ele>
        <time>2015-06-07T07:30:20Z</time>
      </trkpt>
      <trkpt lat="45.503781046718359" lon="7.067402405664325">
        <ele>2910.0500000000002</ele>
        <time>2015-06-07T07:30:31Z</time>
      </trkpt>
      <trkpt lat="45.503772245720029" lon="7.067462503910065">
        <ele>2911.0100000000002</ele>
        <time>2015-06-07T07:30:39Z</time>
      </trkpt>
      <trkpt lat="45.50380602478981" lon="7.067481866106391">
        <ele>2911.4899999999998</ele>
        <time>2015-06-07T07:30:58Z</time>
      </trkpt>
      <trkpt lat="45.503760008141398" lon="7.067449595779181">
        <ele>2911.0100000000002</ele>
        <time>2015-06-07T07:31:15Z</time>
      </trkpt>
      <trkpt lat="45.503745255991817" lon="7.067438196390867">
        <ele>2910.0500000000002</ele>
        <time>2015-06-07T07:31:23Z</time>
      </trkpt>
      <trkpt lat="45.503729833289981" lon="7.067433167248964">
        <ele>2911.0100000000002</ele>
        <time>2015-06-07T07:31:39Z</time>
      </trkpt>
      <trkpt lat="45.503741232678294" lon="7.067415984347463">
        <ele>2910.5300000000002</ele>
        <time>2015-06-07T07:32:01Z</time>
      </trkpt>
      <trkpt lat="45.503729581832886" lon="7.067410536110401">
        <ele>2911.0100000000002</ele>
        <time>2015-06-07T07:32:33Z</time>
      </trkpt>
      <trkpt lat="45.503719691187143" lon="7.067416235804558">
        <ele>2911.4899999999998</ele>
        <time>2015-06-07T07:33:03Z</time>
      </trkpt>
      <trkpt lat="45.503723127767444" lon="7.067409781739116">
        <ele>2912.4499999999998</ele>
        <time>2015-06-07T07:33:30Z</time>
      </trkpt>
      <trkpt lat="45.503746345639229" lon="7.067408105358481">
        <ele>2913.4099999999999</ele>
        <time>2015-06-07T07:33:35Z</time>
      </trkpt>
      <trkpt lat="45.503748441115022" lon="7.067341385409236">
        <ele>2912.9299999999998</ele>
        <time>2015-06-07T07:33:41Z</time>
      </trkpt>
      <trkpt lat="45.503744836896658" lon="7.067340882495046">
        <ele>2911.9699999999998</ele>
        <time>2015-06-07T07:33:52Z</time>
      </trkpt>
      <trkpt lat="45.503752883523703" lon="7.067342307418585">
        <ele>2911.9699999999998</ele>
        <time>2015-06-07T07:34:01Z</time>
      </trkpt>
      <trkpt lat="45.503754978999496" lon="7.067367034032941">
        <ele>2911.4899999999998</ele>
        <time>2015-06-07T07:34:19Z</time>
      </trkpt>
      <trkpt lat="45.503741484135389" lon="7.067346079275012">
        <ele>2911.9699999999998</ele>
        <time>2015-06-07T07:34:29Z</time>
      </trkpt>
      <trkpt lat="45.50375372171402" lon="7.067338367924094">
        <ele>2911.9699999999998</ele>
        <time>2015-06-07T07:34:52Z</time>
      </trkpt>
      <trkpt lat="45.50375179387629" lon="7.067345324903727">
        <ele>2911.9699999999998</ele>
        <time>2015-06-07T07:35:17Z</time>
      </trkpt>
      <trkpt lat="45.503756990656257" lon="7.067339457571507">
        <ele>2911.9699999999998</ele>
        <time>2015-06-07T07:35:37Z</time>
      </trkpt>
      <trkpt lat="45.503753973171115" lon="7.067330405116081">
        <ele>2911.9699999999998</ele>
        <time>2015-06-07T07:35:55Z</time>
      </trkpt>
      <trkpt lat="45.503751961514354" lon="7.067325878888369">
        <ele>2912.4499999999998</ele>
        <time>2015-06-07T07:36:15Z</time>
      </trkpt>
      <trkpt lat="45.503745004534721" lon="7.067335015162826">
        <ele>2912.4499999999998</ele>
        <time>2015-06-07T07:36:38Z</time>
      </trkpt>
      <trkpt lat="45.503737879917026" lon="7.067322945222259">
        <ele>2912.9299999999998</ele>
        <time>2015-06-07T07:37:02Z</time>
      </trkpt>
      <trkpt lat="45.503739304840565" lon="7.067321352660656">
        <ele>2912.9299999999998</ele>
        <time>2015-06-07T07:37:23Z</time>
      </trkpt>
      <trkpt lat="45.503742322325706" lon="7.067297380417585">
        <ele>2913.8899999999999</ele>
        <time>2015-06-07T07:37:40Z</time>
      </trkpt>
      <trkpt lat="45.5037512909621" lon="7.067322190850973">
        <ele>2913.4099999999999</ele>
        <time>2015-06-07T07:38:00Z</time>
      </trkpt>
      <trkpt lat="45.503746513277292" lon="7.067307019606233">
        <ele>2913.4099999999999</ele>
        <time>2015-06-07T07:38:23Z</time>
      </trkpt>
      <trkpt lat="45.503739723935723" lon="7.067309617996216">
        <ele>2913.4099999999999</ele>
        <time>2015-06-07T07:38:39Z</time>
      </trkpt>
      <trkpt lat="45.503732599318027" lon="7.067315485328436">
        <ele>2913.8899999999999</ele>
        <time>2015-06-07T07:38:57Z</time>
      </trkpt>
      <trkpt lat="45.503747938200831" lon="7.067306181415916">
        <ele>2913.8899999999999</ele>
        <time>2015-06-07T07:39:26Z</time>
      </trkpt>
      <trkpt lat="45.503744166344404" lon="7.067295871675015">
        <ele>2913.8899999999999</ele>
        <time>2015-06-07T07:39:49Z</time>
      </trkpt>
      <trkpt lat="45.503747100010514" lon="7.06729025579989">
        <ele>2914.3699999999999</ele>
        <time>2015-06-07T07:39:57Z</time>
      </trkpt>
      <trkpt lat="45.503737544640899" lon="7.067284723743796">
        <ele>2912.9299999999998</ele>
        <time>2015-06-07T07:40:00Z</time>
      </trkpt>
      <trkpt lat="45.503740897402167" lon="7.067292518913746">
        <ele>2914.3699999999999</ele>
        <time>2015-06-07T07:40:04Z</time>
      </trkpt>
      <trkpt lat="45.503760762512684" lon="7.067300816997886">
        <ele>2914.8499999999999</ele>
        <time>2015-06-07T07:40:27Z</time>
      </trkpt>
      <trkpt lat="45.503755230456591" lon="7.067307187244296">
        <ele>2914.3699999999999</ele>
        <time>2015-06-07T07:40:41Z</time>
      </trkpt>
      <trkpt lat="45.503763193264604" lon="7.067286232486367">
        <ele>2913.8899999999999</ele>
        <time>2015-06-07T07:41:00Z</time>
      </trkpt>
      <trkpt lat="45.503755481913686" lon="7.067296877503395">
        <ele>2914.3699999999999</ele>
        <time>2015-06-07T07:41:17Z</time>
      </trkpt>
      <trkpt lat="45.503771994262934" lon="7.067288747057319">
        <ele>2913.8899999999999</ele>
        <time>2015-06-07T07:41:26Z</time>
      </trkpt>
      <trkpt lat="45.503783812746406" lon="7.067290842533112">
        <ele>2913.8899999999999</ele>
        <time>2015-06-07T07:41:38Z</time>
      </trkpt>
      <trkpt lat="45.503786327317357" lon="7.067282209172845">
        <ele>2913.8899999999999</ele>
        <time>2015-06-07T07:41:52Z</time>
      </trkpt>
      <trkpt lat="45.503781801089644" lon="7.06728296354413">
        <ele>2913.8899999999999</ele>
        <time>2015-06-07T07:42:05Z</time>
      </trkpt>
      <trkpt lat="45.503739723935723" lon="7.067339960485697">
        <ele>2913.4099999999999</ele>
        <time>2015-06-07T07:42:37Z</time>
      </trkpt>
      <trkpt lat="45.503738969564438" lon="7.067335266619921">
        <ele>2913.4099999999999</ele>
        <time>2015-06-07T07:43:03Z</time>
      </trkpt>
      <trkpt lat="45.503738382831216" lon="7.067338870838285">
        <ele>2913.8899999999999</ele>
        <time>2015-06-07T07:43:31Z</time>
      </trkpt>
      <trkpt lat="45.503744836896658" lon="7.067354125902057">
        <ele>2913.4099999999999</ele>
        <time>2015-06-07T07:44:07Z</time>
      </trkpt>
      <trkpt lat="45.503724720329046" lon="7.067353455349803">
        <ele>2912.9299999999998</ele>
        <time>2015-06-07T07:44:35Z</time>
      </trkpt>
      <trkpt lat="45.503735197708011" lon="7.06735328771174">
        <ele>2913.4099999999999</ele>
        <time>2015-06-07T07:45:02Z</time>
      </trkpt>
      <trkpt lat="45.503746848553419" lon="7.067351276054978">
        <ele>2912.9299999999998</ele>
        <time>2015-06-07T07:45:20Z</time>
      </trkpt>
      <trkpt lat="45.503759169951081" lon="7.067344319075346">
        <ele>2912.4499999999998</ele>
        <time>2015-06-07T07:45:29Z</time>
      </trkpt>
      <trkpt lat="45.503759505227208" lon="7.067343732342124">
        <ele>2913.4099999999999</ele>
        <time>2015-06-07T07:45:48Z</time>
      </trkpt>
      <trkpt lat="45.503753134980798" lon="7.067335434257984">
        <ele>2912.9299999999998</ele>
        <time>2015-06-07T07:46:09Z</time>
      </trkpt>
      <trkpt lat="45.503760427236557" lon="7.067351443693042">
        <ele>2913.4099999999999</ele>
        <time>2015-06-07T07:46:18Z</time>
      </trkpt>
      <trkpt lat="45.503750368952751" lon="7.067305678501725">
        <ele>2914.8499999999999</ele>
        <time>2015-06-07T07:46:27Z</time>
      </trkpt>
      <trkpt lat="45.50375766120851" lon="7.067308947443962">
        <ele>2915.3400000000001</ele>
        <time>2015-06-07T07:46:40Z</time>
      </trkpt>
      <trkpt lat="45.503754559904337" lon="7.067311042919755">
        <ele>2914.3699999999999</ele>
        <time>2015-06-07T07:46:54Z</time>
      </trkpt>
      <trkpt lat="45.503755481913686" lon="7.067320011556149">
        <ele>2914.3699999999999</ele>
        <time>2015-06-07T07:47:07Z</time>
      </trkpt>
      <trkpt lat="45.50375908613205" lon="7.067340966314077">
        <ele>2912.9299999999998</ele>
        <time>2015-06-07T07:47:18Z</time>
      </trkpt>
      <trkpt lat="45.503771239891648" lon="7.067313557490706">
        <ele>2912.4499999999998</ele>
        <time>2015-06-07T07:47:40Z</time>
      </trkpt>
      <trkpt lat="45.503771156072617" lon="7.067319843918085">
        <ele>2912.4499999999998</ele>
        <time>2015-06-07T07:48:11Z</time>
      </trkpt>
      <trkpt lat="45.503763863816857" lon="7.067335434257984">
        <ele>2912.9299999999998</ele>
        <time>2015-06-07T07:48:24Z</time>
      </trkpt>
      <trkpt lat="45.503760175779462" lon="7.067325711250305">
        <ele>2912.9299999999998</ele>
        <time>2015-06-07T07:48:45Z</time>
      </trkpt>
      <trkpt lat="45.503753554075956" lon="7.067332332953811">
        <ele>2912.4499999999998</ele>
        <time>2015-06-07T07:49:11Z</time>
      </trkpt>
      <trkpt lat="45.503748692572117" lon="7.067329818382859">
        <ele>2912.9299999999998</ele>
        <time>2015-06-07T07:49:36Z</time>
      </trkpt>
      <trkpt lat="45.503756823018193" lon="7.067333506420255">
        <ele>2912.4499999999998</ele>
        <time>2015-06-07T07:49:58Z</time>
      </trkpt>
      <trkpt lat="45.503772580996156" lon="7.06732738763094">
        <ele>2912.9299999999998</ele>
        <time>2015-06-07T07:50:10Z</time>
      </trkpt>
      <trkpt lat="45.5037478543818" lon="7.067326046526432">
        <ele>2913.4099999999999</ele>
        <time>2015-06-07T07:50:18Z</time>
      </trkpt>
      <trkpt lat="45.503755230456591" lon="7.067314395681024">
        <ele>2913.4099999999999</ele>
        <time>2015-06-07T07:50:35Z</time>
      </trkpt>
      <trkpt lat="45.503749279305339" lon="7.067322693765163">
        <ele>2912.9299999999998</ele>
        <time>2015-06-07T07:50:52Z</time>
      </trkpt>
      <trkpt lat="45.503742154687643" lon="7.067302744835615">
        <ele>2913.4099999999999</ele>
        <time>2015-06-07T07:51:09Z</time>
      </trkpt>
      <trkpt lat="45.503745088353753" lon="7.067331410944462">
        <ele>2913.4099999999999</ele>
        <time>2015-06-07T07:51:30Z</time>
      </trkpt>
      <trkpt lat="45.5037478543818" lon="7.067325375974178">
        <ele>2912.9299999999998</ele>
        <time>2015-06-07T07:51:50Z</time>
      </trkpt>
      <trkpt lat="45.503756906837225" lon="7.067322107031941">
        <ele>2913.4099999999999</ele>
        <time>2015-06-07T07:52:03Z</time>
      </trkpt>
      <trkpt lat="45.503751374781132" lon="7.067316742613912">
        <ele>2913.4099999999999</ele>
        <time>2015-06-07T07:52:23Z</time>
      </trkpt>
      <trkpt lat="45.503750871866941" lon="7.06732202321291">
        <ele>2913.4099999999999</ele>
        <time>2015-06-07T07:52:37Z</time>
      </trkpt>
      <trkpt lat="45.5037547275424" lon="7.067283466458321">
        <ele>2913.4099999999999</ele>
        <time>2015-06-07T07:52:52Z</time>
      </trkpt>
      <trkpt lat="45.503725809976459" lon="7.067232169210911">
        <ele>2912.9299999999998</ele>
        <time>2015-06-07T07:53:03Z</time>
      </trkpt>
      <trkpt lat="45.503706280142069" lon="7.067172741517425">
        <ele>2912.4499999999998</ele>
        <time>2015-06-07T07:53:11Z</time>
      </trkpt>
      <trkpt lat="45.503690438345075" lon="7.067173328250647">
        <ele>2912.4499999999998</ele>
        <time>2015-06-07T07:53:15Z</time>
      </trkpt>
      <trkpt lat="45.503579713404179" lon="7.0671221986413">
        <ele>2910.5300000000002</ele>
        <time>2015-06-07T07:53:28Z</time>
      </trkpt>
      <trkpt lat="45.503494972363114" lon="7.067077187821269">
        <ele>2908.6100000000001</ele>
        <time>2015-06-07T07:53:39Z</time>
      </trkpt>
      <trkpt lat="45.503465468063951" lon="7.067071571946144">
        <ele>2908.6100000000001</ele>
        <time>2015-06-07T07:53:49Z</time>
      </trkpt>
      <trkpt lat="45.50341509282589" lon="7.067021364346147">
        <ele>2908.6100000000001</ele>
        <time>2015-06-07T07:54:00Z</time>
      </trkpt>
      <trkpt lat="45.503350468352437" lon="7.066960511729121">
        <ele>2908.6100000000001</ele>
        <time>2015-06-07T07:54:10Z</time>
      </trkpt>
      <trkpt lat="45.503261536359787" lon="7.066871663555503">
        <ele>2908.6100000000001</ele>
        <time>2015-06-07T07:54:24Z</time>
      </trkpt>
      <trkpt lat="45.503230690956116" lon="7.066824221983552">
        <ele>2908.1300000000001</ele>
        <time>2015-06-07T07:54:36Z</time>
      </trkpt>
      <trkpt lat="45.503219123929739" lon="7.066803267225623">
        <ele>2908.1300000000001</ele>
        <time>2015-06-07T07:54:39Z</time>
      </trkpt>
      <trkpt lat="45.503181237727404" lon="7.066716514527798">
        <ele>2906.6799999999998</ele>
        <time>2015-06-07T07:54:50Z</time>
      </trkpt>
      <trkpt lat="45.50318107008934" lon="7.066688602790237">
        <ele>2906.1999999999998</ele>
        <time>2015-06-07T07:55:04Z</time>
      </trkpt>
      <trkpt lat="45.503140250220895" lon="7.06664090976119">
        <ele>2905.7199999999998</ele>
        <time>2015-06-07T07:55:14Z</time>
      </trkpt>
      <trkpt lat="45.50309699960053" lon="7.066576788201928">
        <ele>2905.2399999999998</ele>
        <time>2015-06-07T07:55:24Z</time>
      </trkpt>
      <trkpt lat="45.503063639625907" lon="7.066523563116789">
        <ele>2904.2800000000002</ele>
        <time>2015-06-07T07:55:36Z</time>
      </trkpt>
      <trkpt lat="45.503031201660633" lon="7.066501351073384">
        <ele>2904.2800000000002</ele>
        <time>2015-06-07T07:55:48Z</time>
      </trkpt>
      <trkpt lat="45.503002116456628" lon="7.066504117101431">
        <ele>2904.7600000000002</ele>
        <time>2015-06-07T07:55:57Z</time>
      </trkpt>
      <trkpt lat="45.502961883321404" lon="7.066472684964538">
        <ele>2905.2399999999998</ele>
        <time>2015-06-07T07:56:06Z</time>
      </trkpt>
      <trkpt lat="45.502936067059636" lon="7.066446114331484">
        <ele>2905.2399999999998</ele>
        <time>2015-06-07T07:56:17Z</time>
      </trkpt>
      <trkpt lat="45.502901030704379" lon="7.066398421302438">
        <ele>2905.2399999999998</ele>
        <time>2015-06-07T07:56:27Z</time>
      </trkpt>
      <trkpt lat="45.50287177786231" lon="7.066355925053358">
        <ele>2905.7199999999998</ele>
        <time>2015-06-07T07:56:35Z</time>
      </trkpt>
      <trkpt lat="45.502817546948791" lon="7.066269759088755">
        <ele>2906.1999999999998</ele>
        <time>2015-06-07T07:56:47Z</time>
      </trkpt>
      <trkpt lat="45.502775553613901" lon="7.066227430477738">
        <ele>2906.1999999999998</ele>
        <time>2015-06-07T07:56:58Z</time>
      </trkpt>
      <trkpt lat="45.502726435661316" lon="7.066164650022984">
        <ele>2906.6799999999998</ele>
        <time>2015-06-07T07:57:09Z</time>
      </trkpt>
      <trkpt lat="45.50265870988369" lon="7.066110083833337">
        <ele>2907.6500000000001</ele>
        <time>2015-06-07T07:57:22Z</time>
      </trkpt>
      <trkpt lat="45.502606155350804" lon="7.066053673624992">
        <ele>2908.6100000000001</ele>
        <time>2015-06-07T07:57:36Z</time>
      </trkpt>
      <trkpt lat="45.502563994377851" lon="7.065998604521155">
        <ele>2909.5700000000002</ele>
        <time>2015-06-07T07:57:47Z</time>
      </trkpt>
      <trkpt lat="45.502559300512075" lon="7.06599734723568">
        <ele>2909.5700000000002</ele>
        <time>2015-06-07T07:58:02Z</time>
      </trkpt>
      <trkpt lat="45.502548487856984" lon="7.066022660583258">
        <ele>2909.5700000000002</ele>
        <time>2015-06-07T07:58:12Z</time>
      </trkpt>
      <trkpt lat="45.502533065155149" lon="7.065995754674077">
        <ele>2909.5700000000002</ele>
        <time>2015-06-07T07:58:26Z</time>
      </trkpt>
      <trkpt lat="45.502491826191545" lon="7.065934985876083">
        <ele>2910.5300000000002</ele>
        <time>2015-06-07T07:58:38Z</time>
      </trkpt>
      <trkpt lat="45.50244371406734" lon="7.065865080803633">
        <ele>2911.9699999999998</ele>
        <time>2015-06-07T07:58:49Z</time>
      </trkpt>
      <trkpt lat="45.502395434305072" lon="7.065814537927508">
        <ele>2912.9299999999998</ele>
        <time>2015-06-07T07:58:59Z</time>
      </trkpt>
      <trkpt lat="45.50235721282661" lon="7.06576818600297">
        <ele>2913.8899999999999</ele>
        <time>2015-06-07T07:59:08Z</time>
      </trkpt>
      <trkpt lat="45.502317985519767" lon="7.065705908462405">
        <ele>2914.8499999999999</ele>
        <time>2015-06-07T07:59:18Z</time>
      </trkpt>
      <trkpt lat="45.502270711585879" lon="7.065647067502141">
        <ele>2915.8200000000002</ele>
        <time>2015-06-07T07:59:29Z</time>
      </trkpt>
      <trkpt lat="45.502221342176199" lon="7.065590908750892">
        <ele>2917.2600000000002</ele>
        <time>2015-06-07T07:59:42Z</time>
      </trkpt>
      <trkpt lat="45.502173397690058" lon="7.065530894324184">
        <ele>2918.6999999999998</ele>
        <time>2015-06-07T07:59:54Z</time>
      </trkpt>
      <trkpt lat="45.5021314881742" lon="7.065483871847391">
        <ele>2919.6599999999999</ele>
        <time>2015-06-07T08:00:04Z</time>
      </trkpt>
      <trkpt lat="45.502083795145154" lon="7.065428383648396">
        <ele>2920.6199999999999</ele>
        <time>2015-06-07T08:00:15Z</time>
      </trkpt>
      <trkpt lat="45.502033336088061" lon="7.065377505496144">
        <ele>2922.0599999999999</ele>
        <time>2015-06-07T08:00:27Z</time>
      </trkpt>
      <trkpt lat="45.501981116831303" lon="7.065304582938552">
        <ele>2923.9899999999998</ele>
        <time>2015-06-07T08:00:40Z</time>
      </trkpt>
      <trkpt lat="45.501933256164193" lon="7.065244233235717">
        <ele>2924.9499999999998</ele>
        <time>2015-06-07T08:00:54Z</time>
      </trkpt>
      <trkpt lat="45.501890676096082" lon="7.065202156081796">
        <ele>2926.8699999999999</ele>
        <time>2015-06-07T08:01:06Z</time>
      </trkpt>
      <trkpt lat="45.501843569800258" lon="7.065161587670445">
        <ele>2927.8299999999999</ele>
        <time>2015-06-07T08:01:17Z</time>
      </trkpt>
      <trkpt lat="45.501807779073715" lon="7.065129233524203">
        <ele>2929.27</ele>
        <time>2015-06-07T08:01:25Z</time>
      </trkpt>
      <trkpt lat="45.501763606444001" lon="7.065065614879131">
        <ele>2930.7199999999998</ele>
        <time>2015-06-07T08:01:37Z</time>
      </trkpt>
      <trkpt lat="45.501723540946841" lon="7.065004510805011">
        <ele>2932.1599999999999</ele>
        <time>2015-06-07T08:01:50Z</time>
      </trkpt>
      <trkpt lat="45.501672243699431" lon="7.064943658187985">
        <ele>2934.0799999999999</ele>
        <time>2015-06-07T08:02:03Z</time>
      </trkpt>
      <trkpt lat="45.501642571762204" lon="7.064909711480141">
        <ele>2935.52</ele>
        <time>2015-06-07T08:02:13Z</time>
      </trkpt>
      <trkpt lat="45.501593705266714" lon="7.064837543293834">
        <ele>2937.4499999999998</ele>
        <time>2015-06-07T08:02:27Z</time>
      </trkpt>
      <trkpt lat="45.501561099663377" lon="7.064773673191667">
        <ele>2938.8899999999999</ele>
        <time>2015-06-07T08:02:40Z</time>
      </trkpt>
      <trkpt lat="45.501532349735498" lon="7.064729165285826">
        <ele>2939.8499999999999</ele>
        <time>2015-06-07T08:02:50Z</time>
      </trkpt>
      <trkpt lat="45.501505024731159" lon="7.064682310447097">
        <ele>2941.29</ele>
        <time>2015-06-07T08:03:00Z</time>
      </trkpt>
      <trkpt lat="45.501474849879742" lon="7.064636629074812">
        <ele>2942.25</ele>
        <time>2015-06-07T08:03:10Z</time>
      </trkpt>
      <trkpt lat="45.501439059153199" lon="7.06458524800837">
        <ele>2943.6900000000001</ele>
        <time>2015-06-07T08:03:19Z</time>
      </trkpt>
      <trkpt lat="45.501410476863384" lon="7.064527496695519">
        <ele>2944.6599999999999</ele>
        <time>2015-06-07T08:03:29Z</time>
      </trkpt>
      <trkpt lat="45.501379128545523" lon="7.064476618543267">
        <ele>2946.5799999999999</ele>
        <time>2015-06-07T08:03:43Z</time>
      </trkpt>
      <trkpt lat="45.501352390274405" lon="7.064445018768311">
        <ele>2948.02</ele>
        <time>2015-06-07T08:03:52Z</time>
      </trkpt>
      <trkpt lat="45.501301847398281" lon="7.064365725964308">
        <ele>2949.46</ele>
        <time>2015-06-07T08:04:06Z</time>
      </trkpt>
      <trkpt lat="45.501277791336179" lon="7.064327588304877">
        <ele>2950.9000000000001</ele>
        <time>2015-06-07T08:04:16Z</time>
      </trkpt>
      <trkpt lat="45.501241581514478" lon="7.064272686839104">
        <ele>2952.3499999999999</ele>
        <time>2015-06-07T08:04:29Z</time>
      </trkpt>
      <trkpt lat="45.501210317015648" lon="7.064208146184683">
        <ele>2953.79</ele>
        <time>2015-06-07T08:04:41Z</time>
      </trkpt>
      <trkpt lat="45.501175532117486" lon="7.064152741804719">
        <ele>2954.75</ele>
        <time>2015-06-07T08:04:51Z</time>
      </trkpt>
      <trkpt lat="45.501145189628005" lon="7.064094487577677">
        <ele>2956.1900000000001</ele>
        <time>2015-06-07T08:05:03Z</time>
      </trkpt>
      <trkpt lat="45.501110488548875" lon="7.06403061747551">
        <ele>2957.6300000000001</ele>
        <time>2015-06-07T08:05:15Z</time>
      </trkpt>
      <trkpt lat="45.501083834096789" lon="7.063978901132941">
        <ele>2959.0799999999999</ele>
        <time>2015-06-07T08:05:25Z</time>
      </trkpt>
      <trkpt lat="45.501051899045706" lon="7.063922742381692">
        <ele>2960.52</ele>
        <time>2015-06-07T08:05:36Z</time>
      </trkpt>
      <trkpt lat="45.501012336462736" lon="7.063888795673847">
        <ele>2961.96</ele>
        <time>2015-06-07T08:05:48Z</time>
      </trkpt>
      <trkpt lat="45.500979060307145" lon="7.063834397122264">
        <ele>2963.4000000000001</ele>
        <time>2015-06-07T08:05:58Z</time>
      </trkpt>
      <trkpt lat="45.500966319814324" lon="7.063823752105236">
        <ele>2964.3600000000001</ele>
        <time>2015-06-07T08:06:08Z</time>
      </trkpt>
      <trkpt lat="45.500959781929851" lon="7.063817968592048">
        <ele>2963.8800000000001</ele>
        <time>2015-06-07T08:06:27Z</time>
      </trkpt>
      <trkpt lat="45.500964056700468" lon="7.063825512304902">
        <ele>2964.3600000000001</ele>
        <time>2015-06-07T08:06:40Z</time>
      </trkpt>
      <trkpt lat="45.500977048650384" lon="7.063813861459494">
        <ele>2962.9200000000001</ele>
        <time>2015-06-07T08:06:48Z</time>
      </trkpt>
      <trkpt lat="45.500974701717496" lon="7.063803467899561">
        <ele>2963.4000000000001</ele>
        <time>2015-06-07T08:07:05Z</time>
      </trkpt>
      <trkpt lat="45.500978976488113" lon="7.063810089603066">
        <ele>2963.8800000000001</ele>
        <time>2015-06-07T08:07:34Z</time>
      </trkpt>
      <trkpt lat="45.500965481624007" lon="7.063798438757658">
        <ele>2964.3600000000001</ele>
        <time>2015-06-07T08:07:48Z</time>
      </trkpt>
      <trkpt lat="45.500960368663073" lon="7.0637824293226">
        <ele>2964.8400000000001</ele>
        <time>2015-06-07T08:07:58Z</time>
      </trkpt>
      <trkpt lat="45.500951986759901" lon="7.063811430707574">
        <ele>2964.8400000000001</ele>
        <time>2015-06-07T08:08:11Z</time>
      </trkpt>
      <trkpt lat="45.500961961224675" lon="7.063815118744969">
        <ele>2964.8400000000001</ele>
        <time>2015-06-07T08:08:24Z</time>
      </trkpt>
      <trkpt lat="45.500964727252722" lon="7.063825093209744">
        <ele>2964.8400000000001</ele>
        <time>2015-06-07T08:08:37Z</time>
      </trkpt>
      <trkpt lat="45.50096120685339" lon="7.063838420435786">
        <ele>2964.8400000000001</ele>
        <time>2015-06-07T08:08:57Z</time>
      </trkpt>
      <trkpt lat="45.50094754435122" lon="7.063844623044133">
        <ele>2965.3200000000002</ele>
        <time>2015-06-07T08:09:20Z</time>
      </trkpt>
      <trkpt lat="45.500965397804976" lon="7.063841186463833">
        <ele>2965.3200000000002</ele>
        <time>2015-06-07T08:09:37Z</time>
      </trkpt>
      <trkpt lat="45.500956093892455" lon="7.063840264454484">
        <ele>2965.3200000000002</ele>
        <time>2015-06-07T08:09:58Z</time>
      </trkpt>
      <trkpt lat="45.50096808001399" lon="7.063808161765337">
        <ele>2965.3200000000002</ele>
        <time>2015-06-07T08:10:13Z</time>
      </trkpt>
      <trkpt lat="45.500966487452388" lon="7.063808999955654">
        <ele>2965.3200000000002</ele>
        <time>2015-06-07T08:10:36Z</time>
      </trkpt>
      <trkpt lat="45.500952573493123" lon="7.063825596123934">
        <ele>2965.3200000000002</ele>
        <time>2015-06-07T08:10:50Z</time>
      </trkpt>
      <trkpt lat="45.500923320651054" lon="7.063755104318261">
        <ele>2966.77</ele>
        <time>2015-06-07T08:11:00Z</time>
      </trkpt>
      <trkpt lat="45.500893229618669" lon="7.063704980537295">
        <ele>2968.21</ele>
        <time>2015-06-07T08:11:12Z</time>
      </trkpt>
      <trkpt lat="45.500857522711158" lon="7.063657455146313">
        <ele>2969.6500000000001</ele>
        <time>2015-06-07T08:11:25Z</time>
      </trkpt>
      <trkpt lat="45.500830113887787" lon="7.063599117100239">
        <ele>2971.0900000000001</ele>
        <time>2015-06-07T08:11:35Z</time>
      </trkpt>
      <trkpt lat="45.500804549083114" lon="7.063553268089891">
        <ele>2972.0500000000002</ele>
        <time>2015-06-07T08:11:46Z</time>
      </trkpt>
      <trkpt lat="45.500781582668424" lon="7.063478585332632">
        <ele>2973.98</ele>
        <time>2015-06-07T08:11:57Z</time>
      </trkpt>
      <trkpt lat="45.50076087936759" lon="7.063425276428461">
        <ele>2974.46</ele>
        <time>2015-06-07T08:12:09Z</time>
      </trkpt>
      <trkpt lat="45.500740762799978" lon="7.063384708017111">
        <ele>2975.9000000000001</ele>
        <time>2015-06-07T08:12:18Z</time>
      </trkpt>
      <trkpt lat="45.50072324462235" lon="7.06334657035768">
        <ele>2976.3800000000001</ele>
        <time>2015-06-07T08:12:32Z</time>
      </trkpt>
      <trkpt lat="45.500701535493135" lon="7.063299128785729">
        <ele>2977.8200000000002</ele>
        <time>2015-06-07T08:12:43Z</time>
      </trkpt>
      <trkpt lat="45.500672953203321" lon="7.063255878165364">
        <ele>2978.7800000000002</ele>
        <time>2015-06-07T08:12:53Z</time>
      </trkpt>
      <trkpt lat="45.50064554437995" lon="7.063213298097253">
        <ele>2981.1900000000001</ele>
        <time>2015-06-07T08:13:03Z</time>
      </trkpt>
      <trkpt lat="45.500625008717179" lon="7.06314280629158">
        <ele>2981.6700000000001</ele>
        <time>2015-06-07T08:13:14Z</time>
      </trkpt>
      <trkpt lat="45.500607658177614" lon="7.063074661418796">
        <ele>2982.6300000000001</ele>
        <time>2015-06-07T08:13:24Z</time>
      </trkpt>
      <trkpt lat="45.500584188848734" lon="7.063000313937664">
        <ele>2984.0700000000002</ele>
        <time>2015-06-07T08:13:36Z</time>
      </trkpt>
      <trkpt lat="45.500563317909837" lon="7.062940383329988">
        <ele>2985.0300000000002</ele>
        <time>2015-06-07T08:13:47Z</time>
      </trkpt>
      <trkpt lat="45.500543620437384" lon="7.062871232628822">
        <ele>2986.4699999999998</ele>
        <time>2015-06-07T08:13:57Z</time>
      </trkpt>
      <trkpt lat="45.500526018440723" lon="7.062814235687256">
        <ele>2987.4299999999998</ele>
        <time>2015-06-07T08:14:07Z</time>
      </trkpt>
      <trkpt lat="45.500500956550241" lon="7.062753047794104">
        <ele>2988.4000000000001</ele>
        <time>2015-06-07T08:14:18Z</time>
      </trkpt>
      <trkpt lat="45.500483186915517" lon="7.062687082216144">
        <ele>2989.8400000000001</ele>
        <time>2015-06-07T08:14:29Z</time>
      </trkpt>
      <trkpt lat="45.500463070347905" lon="7.062628492712975">
        <ele>2991.2800000000002</ele>
        <time>2015-06-07T08:14:39Z</time>
      </trkpt>
      <trkpt lat="45.500436834990978" lon="7.062567891553044">
        <ele>2992.7199999999998</ele>
        <time>2015-06-07T08:14:51Z</time>
      </trkpt>
      <trkpt lat="45.500415209680796" lon="7.062514666467905">
        <ele>2993.6799999999998</ele>
        <time>2015-06-07T08:15:03Z</time>
      </trkpt>
      <trkpt lat="45.50039442256093" lon="7.062454987317324">
        <ele>2995.1199999999999</ele>
        <time>2015-06-07T08:15:15Z</time>
      </trkpt>
      <trkpt lat="45.500367935746908" lon="7.062393799424171">
        <ele>2996.5700000000002</ele>
        <time>2015-06-07T08:15:26Z</time>
      </trkpt>
      <trkpt lat="45.500345807522535" lon="7.062333701178432">
        <ele>2997.5300000000002</ele>
        <time>2015-06-07T08:15:37Z</time>
      </trkpt>
      <trkpt lat="45.50032602623105" lon="7.062263293191791">
        <ele>2998.4899999999998</ele>
        <time>2015-06-07T08:15:48Z</time>
      </trkpt>
      <trkpt lat="45.50030498765409" lon="7.06220855936408">
        <ele>3000.4099999999999</ele>
        <time>2015-06-07T08:16:01Z</time>
      </trkpt>
      <trkpt lat="45.500286798924208" lon="7.062146617099643">
        <ele>3001.3699999999999</ele>
        <time>2015-06-07T08:16:11Z</time>
      </trkpt>
      <trkpt lat="45.500275902450085" lon="7.062050309032202">
        <ele>3002.3299999999999</ele>
        <time>2015-06-07T08:16:22Z</time>
      </trkpt>
      <trkpt lat="45.500266933813691" lon="7.062009992077947">
        <ele>3003.3000000000002</ele>
        <time>2015-06-07T08:16:30Z</time>
      </trkpt>
      <trkpt lat="45.500249415636063" lon="7.061931034550071">
        <ele>3004.2600000000002</ele>
        <time>2015-06-07T08:16:42Z</time>
      </trkpt>
      <trkpt lat="45.500228460878134" lon="7.06189725548029">
        <ele>3005.2199999999998</ele>
        <time>2015-06-07T08:16:51Z</time>
      </trkpt>
      <trkpt lat="45.500210439786315" lon="7.061850484460592">
        <ele>3005.6999999999998</ele>
        <time>2015-06-07T08:17:00Z</time>
      </trkpt>
      <trkpt lat="45.500191496685147" lon="7.061774460598826">
        <ele>3007.1399999999999</ele>
        <time>2015-06-07T08:17:11Z</time>
      </trkpt>
      <trkpt lat="45.500171631574631" lon="7.06168519333005">
        <ele>3008.5799999999999</ele>
        <time>2015-06-07T08:17:24Z</time>
      </trkpt>
      <trkpt lat="45.500154113397002" lon="7.061648732051253">
        <ele>3009.54</ele>
        <time>2015-06-07T08:17:34Z</time>
      </trkpt>
      <trkpt lat="45.500137852504849" lon="7.061573630198836">
        <ele>3010.5100000000002</ele>
        <time>2015-06-07T08:17:44Z</time>
      </trkpt>
      <trkpt lat="45.500112874433398" lon="7.061485536396503">
        <ele>3011.9499999999998</ele>
        <time>2015-06-07T08:17:57Z</time>
      </trkpt>
      <trkpt lat="45.500082951039076" lon="7.061438681557775">
        <ele>3013.3899999999999</ele>
        <time>2015-06-07T08:18:08Z</time>
      </trkpt>
      <trkpt lat="45.500064427033067" lon="7.061368944123387">
        <ele>3014.3499999999999</ele>
        <time>2015-06-07T08:18:18Z</time>
      </trkpt>
      <trkpt lat="45.500037772580981" lon="7.061336170881987">
        <ele>3015.79</ele>
        <time>2015-06-07T08:18:28Z</time>
      </trkpt>
      <trkpt lat="45.500014806166291" lon="7.061266014352441">
        <ele>3016.75</ele>
        <time>2015-06-07T08:18:38Z</time>
      </trkpt>
      <trkpt lat="45.499994941055775" lon="7.061216477304697">
        <ele>3018.1999999999998</ele>
        <time>2015-06-07T08:18:48Z</time>
      </trkpt>
      <trkpt lat="45.499965101480484" lon="7.06116191111505">
        <ele>3019.1599999999999</ele>
        <time>2015-06-07T08:18:59Z</time>
      </trkpt>
      <trkpt lat="45.499938866123557" lon="7.061097621917725">
        <ele>3020.5999999999999</ele>
        <time>2015-06-07T08:19:09Z</time>
      </trkpt>
      <trkpt lat="45.499917156994343" lon="7.061045318841934">
        <ele>3021.0799999999999</ele>
        <time>2015-06-07T08:19:19Z</time>
      </trkpt>
      <trkpt lat="45.499897627159953" lon="7.060972480103374">
        <ele>3022.52</ele>
        <time>2015-06-07T08:19:30Z</time>
      </trkpt>
      <trkpt lat="45.49987256526947" lon="7.060949429869652">
        <ele>3023.48</ele>
        <time>2015-06-07T08:19:39Z</time>
      </trkpt>
      <trkpt lat="45.499844653531909" lon="7.060890672728419">
        <ele>3024.4400000000001</ele>
        <time>2015-06-07T08:19:49Z</time>
      </trkpt>
      <trkpt lat="45.499810874462128" lon="7.06084230914712">
        <ele>3025.8899999999999</ele>
        <time>2015-06-07T08:20:00Z</time>
      </trkpt>
      <trkpt lat="45.499784890562296" lon="7.060780953615904">
        <ele>3026.8499999999999</ele>
        <time>2015-06-07T08:20:12Z</time>
      </trkpt>
      <trkpt lat="45.499748010188341" lon="7.060741893947125">
        <ele>3028.29</ele>
        <time>2015-06-07T08:20:23Z</time>
      </trkpt>
      <trkpt lat="45.499709537252784" lon="7.060680203139782">
        <ele>3029.25</ele>
        <time>2015-06-07T08:20:35Z</time>
      </trkpt>
      <trkpt lat="45.499681038782001" lon="7.060626642778516">
        <ele>3030.21</ele>
        <time>2015-06-07T08:20:46Z</time>
      </trkpt>
      <trkpt lat="45.499664861708879" lon="7.060567969456315">
        <ele>3031.1700000000001</ele>
        <time>2015-06-07T08:20:56Z</time>
      </trkpt>
      <trkpt lat="45.499633429571986" lon="7.060520192608237">
        <ele>3032.6199999999999</ele>
        <time>2015-06-07T08:21:08Z</time>
      </trkpt>
      <trkpt lat="45.499599818140268" lon="7.060469565913081">
        <ele>3033.0999999999999</ele>
        <time>2015-06-07T08:21:18Z</time>
      </trkpt>
      <trkpt lat="45.499579617753625" lon="7.060420867055655">
        <ele>3034.54</ele>
        <time>2015-06-07T08:21:27Z</time>
      </trkpt>
      <trkpt lat="45.499556735157967" lon="7.060382980853319">
        <ele>3035.02</ele>
        <time>2015-06-07T08:21:35Z</time>
      </trkpt>
      <trkpt lat="45.499527314677835" lon="7.060347441583872">
        <ele>3035.5</ele>
        <time>2015-06-07T08:21:46Z</time>
      </trkpt>
      <trkpt lat="45.499493703246117" lon="7.060293713584542">
        <ele>3036.46</ele>
        <time>2015-06-07T08:21:57Z</time>
      </trkpt>
      <trkpt lat="45.499466545879841" lon="7.060258509591222">
        <ele>3037.4200000000001</ele>
        <time>2015-06-07T08:22:07Z</time>
      </trkpt>
      <trkpt lat="45.499436790123582" lon="7.060196399688721">
        <ele>3038.3800000000001</ele>
        <time>2015-06-07T08:22:17Z</time>
      </trkpt>
      <trkpt lat="45.499405357986689" lon="7.060133283957839">
        <ele>3039.3499999999999</ele>
        <time>2015-06-07T08:22:28Z</time>
      </trkpt>
      <trkpt lat="45.499393371865153" lon="7.060097912326455">
        <ele>3040.3099999999999</ele>
        <time>2015-06-07T08:22:37Z</time>
      </trkpt>
      <trkpt lat="45.49937903881073" lon="7.060053823515773">
        <ele>3040.79</ele>
        <time>2015-06-07T08:22:47Z</time>
      </trkpt>
      <trkpt lat="45.499363699927926" lon="7.060017110779882">
        <ele>3041.27</ele>
        <time>2015-06-07T08:22:58Z</time>
      </trkpt>
      <trkpt lat="45.4993443377316" lon="7.059961371123791">
        <ele>3042.23</ele>
        <time>2015-06-07T08:23:07Z</time>
      </trkpt>
      <trkpt lat="45.499311983585358" lon="7.059892388060689">
        <ele>3043.1900000000001</ele>
        <time>2015-06-07T08:23:20Z</time>
      </trkpt>
      <trkpt lat="45.499291950836778" lon="7.059831200167537">
        <ele>3044.1500000000001</ele>
        <time>2015-06-07T08:23:28Z</time>
      </trkpt>
      <trkpt lat="45.499267475679517" lon="7.05979079939425">
        <ele>3044.6300000000001</ele>
        <time>2015-06-07T08:23:39Z</time>
      </trkpt>
      <trkpt lat="45.49924953840673" lon="7.059750063344836">
        <ele>3045.5900000000001</ele>
        <time>2015-06-07T08:23:48Z</time>
      </trkpt>
      <trkpt lat="45.499222297221422" lon="7.059673368930817">
        <ele>3046.5599999999999</ele>
        <time>2015-06-07T08:24:00Z</time>
      </trkpt>
      <trkpt lat="45.499211316928267" lon="7.059635315090418">
        <ele>3047.04</ele>
        <time>2015-06-07T08:24:08Z</time>
      </trkpt>
      <trkpt lat="45.499180806800723" lon="7.059567170217633">
        <ele>3048</ele>
        <time>2015-06-07T08:24:19Z</time>
      </trkpt>
      <trkpt lat="45.499157588928938" lon="7.059506485238671">
        <ele>3048.48</ele>
        <time>2015-06-07T08:24:29Z</time>
      </trkpt>
      <trkpt lat="45.499118110165" lon="7.059455271810293">
        <ele>3049.4400000000001</ele>
        <time>2015-06-07T08:24:41Z</time>
      </trkpt>
      <trkpt lat="45.499098915606737" lon="7.059401292353869">
        <ele>3050.4000000000001</ele>
        <time>2015-06-07T08:24:49Z</time>
      </trkpt>
      <trkpt lat="45.499077374115586" lon="7.059356449171901">
        <ele>3051.3600000000001</ele>
        <time>2015-06-07T08:24:59Z</time>
      </trkpt>
      <trkpt lat="45.49904627725482" lon="7.059280090034008">
        <ele>3052.3200000000002</ele>
        <time>2015-06-07T08:25:11Z</time>
      </trkpt>
      <trkpt lat="45.499020209535956" lon="7.059204149991274">
        <ele>3052.8000000000002</ele>
        <time>2015-06-07T08:25:22Z</time>
      </trkpt>
      <trkpt lat="45.499012833461165" lon="7.059189481660724">
        <ele>3053.2800000000002</ele>
        <time>2015-06-07T08:25:27Z</time>
      </trkpt>
      <trkpt lat="45.49898081459105" lon="7.05910868011415">
        <ele>3054.25</ele>
        <time>2015-06-07T08:25:38Z</time>
      </trkpt>
      <trkpt lat="45.498958937823772" lon="7.059066854417324">
        <ele>3054.25</ele>
        <time>2015-06-07T08:25:48Z</time>
      </trkpt>
      <trkpt lat="45.498950891196728" lon="7.059057885780931">
        <ele>3054.73</ele>
        <time>2015-06-07T08:25:58Z</time>
      </trkpt>
      <trkpt lat="45.498944353312254" lon="7.0590490847826">
        <ele>3054.25</ele>
        <time>2015-06-07T08:26:11Z</time>
      </trkpt>
      <trkpt lat="45.498947203159332" lon="7.059076242148876">
        <ele>3055.21</ele>
        <time>2015-06-07T08:26:26Z</time>
      </trkpt>
      <trkpt lat="45.498939659446478" lon="7.059077080339193">
        <ele>3055.21</ele>
        <time>2015-06-07T08:26:42Z</time>
      </trkpt>
      <trkpt lat="45.498944353312254" lon="7.059069536626339">
        <ele>3055.6900000000001</ele>
        <time>2015-06-07T08:27:05Z</time>
      </trkpt>
      <trkpt lat="45.498950472101569" lon="7.059069201350212">
        <ele>3055.6900000000001</ele>
        <time>2015-06-07T08:27:19Z</time>
      </trkpt>
      <trkpt lat="45.498934462666512" lon="7.059073895215988">
        <ele>3055.6900000000001</ele>
        <time>2015-06-07T08:27:40Z</time>
      </trkpt>
      <trkpt lat="45.498926332220435" lon="7.059092586860061">
        <ele>3055.6900000000001</ele>
        <time>2015-06-07T08:28:02Z</time>
      </trkpt>
      <trkpt lat="45.498921805992723" lon="7.059001056477428">
        <ele>3056.1700000000001</ele>
        <time>2015-06-07T08:28:19Z</time>
      </trkpt>
      <trkpt lat="45.498906215652823" lon="7.058935007080436">
        <ele>3056.6500000000001</ele>
        <time>2015-06-07T08:28:31Z</time>
      </trkpt>
      <trkpt lat="45.498879561200738" lon="7.058852780610323">
        <ele>3057.6100000000001</ele>
        <time>2015-06-07T08:28:43Z</time>
      </trkpt>
      <trkpt lat="45.498863467946649" lon="7.058816319331527">
        <ele>3057.6100000000001</ele>
        <time>2015-06-07T08:28:53Z</time>
      </trkpt>
      <trkpt lat="45.49885081127286" lon="7.058754963800311">
        <ele>3058.0900000000001</ele>
        <time>2015-06-07T08:29:02Z</time>
      </trkpt>
      <trkpt lat="45.498831449076533" lon="7.058700146153569">
        <ele>3058.5700000000002</ele>
        <time>2015-06-07T08:29:13Z</time>
      </trkpt>
      <trkpt lat="45.498812003061175" lon="7.058630660176277">
        <ele>3059.0500000000002</ele>
        <time>2015-06-07T08:29:23Z</time>
      </trkpt>
      <trkpt lat="45.498786438256502" lon="7.058569053187966">
        <ele>3060.0100000000002</ele>
        <time>2015-06-07T08:29:36Z</time>
      </trkpt>
      <trkpt lat="45.49874184653163" lon="7.058545667678118">
        <ele>3060.4899999999998</ele>
        <time>2015-06-07T08:29:46Z</time>
      </trkpt>
      <trkpt lat="45.498671354725957" lon="7.058549774810672">
        <ele>3060.4899999999998</ele>
        <time>2015-06-07T08:29:59Z</time>
      </trkpt>
      <trkpt lat="45.498620811849833" lon="7.05853745341301">
        <ele>3060.98</ele>
        <time>2015-06-07T08:30:09Z</time>
      </trkpt>
      <trkpt lat="45.498550655320287" lon="7.058529406785965">
        <ele>3061.9400000000001</ele>
        <time>2015-06-07T08:30:22Z</time>
      </trkpt>
      <trkpt lat="45.498487623408437" lon="7.058515325188637">
        <ele>3062.9000000000001</ele>
        <time>2015-06-07T08:30:34Z</time>
      </trkpt>
      <trkpt lat="45.498413108289242" lon="7.05849445424974">
        <ele>3063.8600000000001</ele>
        <time>2015-06-07T08:30:49Z</time>
      </trkpt>
      <trkpt lat="45.498336078599095" lon="7.058492610231042">
        <ele>3064.3400000000001</ele>
        <time>2015-06-07T08:31:01Z</time>
      </trkpt>
      <trkpt lat="45.498255528509617" lon="7.05850032158196">
        <ele>3065.3000000000002</ele>
        <time>2015-06-07T08:31:13Z</time>
      </trkpt>
      <trkpt lat="45.498187635093927" lon="7.058499902486801">
        <ele>3066.2600000000002</ele>
        <time>2015-06-07T08:31:26Z</time>
      </trkpt>
      <trkpt lat="45.498131811618805" lon="7.058481462299824">
        <ele>3066.7399999999998</ele>
        <time>2015-06-07T08:31:38Z</time>
      </trkpt>
      <trkpt lat="45.498070120811462" lon="7.058468805626035">
        <ele>3067.6999999999998</ele>
        <time>2015-06-07T08:31:52Z</time>
      </trkpt>
      <trkpt lat="45.498024774715304" lon="7.058452041819692">
        <ele>3068.1900000000001</ele>
        <time>2015-06-07T08:32:03Z</time>
      </trkpt>
      <trkpt lat="45.497984206303954" lon="7.058466961607337">
        <ele>3069.6300000000001</ele>
        <time>2015-06-07T08:32:13Z</time>
      </trkpt>
      <trkpt lat="45.497929304838181" lon="7.058473667129874">
        <ele>3070.5900000000001</ele>
        <time>2015-06-07T08:32:26Z</time>
      </trkpt>
      <trkpt lat="45.497871385887265" lon="7.058498561382294">
        <ele>3071.5500000000002</ele>
        <time>2015-06-07T08:32:40Z</time>
      </trkpt>
      <trkpt lat="45.497826877981424" lon="7.058498980477452">
        <ele>3071.0700000000002</ele>
        <time>2015-06-07T08:32:52Z</time>
      </trkpt>
      <trkpt lat="45.497760241851211" lon="7.058519097045064">
        <ele>3071.5500000000002</ele>
        <time>2015-06-07T08:33:03Z</time>
      </trkpt>
      <trkpt lat="45.49771866761148" lon="7.058541309088469">
        <ele>3073.4699999999998</ele>
        <time>2015-06-07T08:33:13Z</time>
      </trkpt>
      <trkpt lat="45.497653875499964" lon="7.058565784245729">
        <ele>3074.4299999999998</ele>
        <time>2015-06-07T08:33:25Z</time>
      </trkpt>
      <trkpt lat="45.497603667899966" lon="7.058569639921188">
        <ele>3075.4000000000001</ele>
        <time>2015-06-07T08:33:34Z</time>
      </trkpt>
      <trkpt lat="45.49756770953536" lon="7.058590594679117">
        <ele>3076.3600000000001</ele>
        <time>2015-06-07T08:33:45Z</time>
      </trkpt>
      <trkpt lat="45.497521022334695" lon="7.058610375970602">
        <ele>3077.3200000000002</ele>
        <time>2015-06-07T08:33:56Z</time>
      </trkpt>
      <trkpt lat="45.497484225779772" lon="7.058628983795643">
        <ele>3078.7600000000002</ele>
        <time>2015-06-07T08:34:06Z</time>
      </trkpt>
      <trkpt lat="45.497435107827187" lon="7.05863225273788">
        <ele>3079.7199999999998</ele>
        <time>2015-06-07T08:34:17Z</time>
      </trkpt>
      <trkpt lat="45.497413398697972" lon="7.058642143383622">
        <ele>3080.1999999999998</ele>
        <time>2015-06-07T08:34:28Z</time>
      </trkpt>
      <trkpt lat="45.497373249381781" lon="7.058668378740549">
        <ele>3081.6399999999999</ele>
        <time>2015-06-07T08:34:39Z</time>
      </trkpt>
      <trkpt lat="45.497341314330697" lon="7.058682544156909">
        <ele>3082.1199999999999</ele>
        <time>2015-06-07T08:34:47Z</time>
      </trkpt>
      <trkpt lat="45.497315330430865" lon="7.058678437024355">
        <ele>3083.5700000000002</ele>
        <time>2015-06-07T08:34:57Z</time>
      </trkpt>
      <trkpt lat="45.497316000983119" lon="7.058676341548562">
        <ele>3083.5700000000002</ele>
        <time>2015-06-07T08:35:19Z</time>
      </trkpt>
      <trkpt lat="45.49728867597878" lon="7.058704672381282">
        <ele>3083.5700000000002</ele>
        <time>2015-06-07T08:35:34Z</time>
      </trkpt>
      <trkpt lat="45.497259506955743" lon="7.058720765635371">
        <ele>3085.4899999999998</ele>
        <time>2015-06-07T08:35:45Z</time>
      </trkpt>
      <trkpt lat="45.497208628803492" lon="7.058744234964252">
        <ele>3086.4499999999998</ele>
        <time>2015-06-07T08:35:56Z</time>
      </trkpt>
      <trkpt lat="45.497165378183126" lon="7.058765944093466">
        <ele>3087.8899999999999</ele>
        <time>2015-06-07T08:36:05Z</time>
      </trkpt>
      <trkpt lat="45.49713134765625" lon="7.058782372623682">
        <ele>3089.3299999999999</ele>
        <time>2015-06-07T08:36:14Z</time>
      </trkpt>
      <trkpt lat="45.497107375413179" lon="7.058791508898139">
        <ele>3090.29</ele>
        <time>2015-06-07T08:36:23Z</time>
      </trkpt>
      <trkpt lat="45.497054988518357" lon="7.058820677921176">
        <ele>3091.7399999999998</ele>
        <time>2015-06-07T08:36:36Z</time>
      </trkpt>
      <trkpt lat="45.497038224712014" lon="7.058829814195633">
        <ele>3092.2199999999998</ele>
        <time>2015-06-07T08:36:47Z</time>
      </trkpt>
      <trkpt lat="45.497009390965104" lon="7.058834927156568">
        <ele>3093.1799999999998</ele>
        <time>2015-06-07T08:36:56Z</time>
      </trkpt>
      <trkpt lat="45.496987514197826" lon="7.058857642114162">
        <ele>3094.1399999999999</ele>
        <time>2015-06-07T08:37:10Z</time>
      </trkpt>
      <trkpt lat="45.496977875009179" lon="7.05887314863503">
        <ele>3095.0999999999999</ele>
        <time>2015-06-07T08:37:29Z</time>
      </trkpt>
      <trkpt lat="45.49695055000484" lon="7.058910364285111">
        <ele>3095.5799999999999</ele>
        <time>2015-06-07T08:37:38Z</time>
      </trkpt>
      <trkpt lat="45.496926829218864" lon="7.05893324688077">
        <ele>3096.54</ele>
        <time>2015-06-07T08:37:46Z</time>
      </trkpt>
      <trkpt lat="45.496904700994492" lon="7.058958392590284">
        <ele>3097.9899999999998</ele>
        <time>2015-06-07T08:37:59Z</time>
      </trkpt>
      <trkpt lat="45.49687284976244" lon="7.059001140296459">
        <ele>3098.9499999999998</ele>
        <time>2015-06-07T08:38:11Z</time>
      </trkpt>
      <trkpt lat="45.496851140633225" lon="7.059051180258393">
        <ele>3100.3899999999999</ele>
        <time>2015-06-07T08:38:24Z</time>
      </trkpt>
      <trkpt lat="45.496833706274629" lon="7.059094095602632">
        <ele>3101.8299999999999</ele>
        <time>2015-06-07T08:38:36Z</time>
      </trkpt>
      <trkpt lat="45.496804034337401" lon="7.05915067344904">
        <ele>3103.75</ele>
        <time>2015-06-07T08:38:48Z</time>
      </trkpt>
      <trkpt lat="45.496770506724715" lon="7.059201803058386">
        <ele>3104.71</ele>
        <time>2015-06-07T08:39:01Z</time>
      </trkpt>
      <trkpt lat="45.496733458712697" lon="7.059244131669402">
        <ele>3105.6799999999998</ele>
        <time>2015-06-07T08:39:12Z</time>
      </trkpt>
      <trkpt lat="45.496699428185821" lon="7.059280592948198">
        <ele>3107.1199999999999</ele>
        <time>2015-06-07T08:39:22Z</time>
      </trkpt>
      <trkpt lat="45.496691297739744" lon="7.059304565191269">
        <ele>3107.5999999999999</ele>
        <time>2015-06-07T08:39:33Z</time>
      </trkpt>
      <trkpt lat="45.496655674651265" lon="7.059330716729164">
        <ele>3108.5599999999999</ele>
        <time>2015-06-07T08:39:47Z</time>
      </trkpt>
      <trkpt lat="45.496636312454939" lon="7.059366255998612">
        <ele>3109.52</ele>
        <time>2015-06-07T08:39:58Z</time>
      </trkpt>
      <trkpt lat="45.496620303019881" lon="7.059388048946858">
        <ele>3110.48</ele>
        <time>2015-06-07T08:40:06Z</time>
      </trkpt>
      <trkpt lat="45.496582249179482" lon="7.059438675642014">
        <ele>3111.9200000000001</ele>
        <time>2015-06-07T08:40:18Z</time>
      </trkpt>
      <trkpt lat="45.496561713516712" lon="7.059461893513799">
        <ele>3112.4099999999999</ele>
        <time>2015-06-07T08:40:30Z</time>
      </trkpt>
      <trkpt lat="45.496525755152106" lon="7.059482093900442">
        <ele>3114.3299999999999</ele>
        <time>2015-06-07T08:40:41Z</time>
      </trkpt>
      <trkpt lat="45.49649809487164" lon="7.059517130255699">
        <ele>3114.8099999999999</ele>
        <time>2015-06-07T08:40:50Z</time>
      </trkpt>
      <trkpt lat="45.496488036587834" lon="7.059525931254029">
        <ele>3114.8099999999999</ele>
        <time>2015-06-07T08:40:52Z</time>
      </trkpt>
      <trkpt lat="45.496465321630239" lon="7.05957337282598">
        <ele>3116.25</ele>
        <time>2015-06-07T08:41:02Z</time>
      </trkpt>
      <trkpt lat="45.496433218941092" lon="7.059602374210954">
        <ele>3117.21</ele>
        <time>2015-06-07T08:41:15Z</time>
      </trkpt>
      <trkpt lat="45.49638569355011" lon="7.059641350060701">
        <ele>3118.6500000000001</ele>
        <time>2015-06-07T08:41:28Z</time>
      </trkpt>
      <trkpt lat="45.496346214786172" lon="7.059657778590918">
        <ele>3119.6199999999999</ele>
        <time>2015-06-07T08:41:37Z</time>
      </trkpt>
      <trkpt lat="45.496306316927075" lon="7.059686025604606">
        <ele>3120.5799999999999</ele>
        <time>2015-06-07T08:41:46Z</time>
      </trkpt>
      <trkpt lat="45.496253846213222" lon="7.059701029211283">
        <ele>3122.02</ele>
        <time>2015-06-07T08:41:58Z</time>
      </trkpt>
      <trkpt lat="45.496214367449284" lon="7.059720475226641">
        <ele>3123.46</ele>
        <time>2015-06-07T08:42:07Z</time>
      </trkpt>
      <trkpt lat="45.496159549802542" lon="7.059734556823969">
        <ele>3124.4200000000001</ele>
        <time>2015-06-07T08:42:18Z</time>
      </trkpt>
      <trkpt lat="45.496114874258637" lon="7.059720642864704">
        <ele>3125.3800000000001</ele>
        <time>2015-06-07T08:42:27Z</time>
      </trkpt>
      <trkpt lat="45.496081598103046" lon="7.059720894321799">
        <ele>3125.8600000000001</ele>
        <time>2015-06-07T08:42:38Z</time>
      </trkpt>
      <trkpt lat="45.496047819033265" lon="7.059710081666708">
        <ele>3126.8299999999999</ele>
        <time>2015-06-07T08:42:46Z</time>
      </trkpt>
      <trkpt lat="45.496015716344118" lon="7.059722319245338">
        <ele>3127.79</ele>
        <time>2015-06-07T08:42:55Z</time>
      </trkpt>
      <trkpt lat="45.495973052456975" lon="7.059723408892751">
        <ele>3128.75</ele>
        <time>2015-06-07T08:43:07Z</time>
      </trkpt>
      <trkpt lat="45.495946230366826" lon="7.059732209891081">
        <ele>3129.23</ele>
        <time>2015-06-07T08:43:17Z</time>
      </trkpt>
      <trkpt lat="45.495899375528097" lon="7.059736400842667">
        <ele>3130.1900000000001</ele>
        <time>2015-06-07T08:43:29Z</time>
      </trkpt>
      <trkpt lat="45.495857298374176" lon="7.059717709198594">
        <ele>3131.1500000000001</ele>
        <time>2015-06-07T08:43:39Z</time>
      </trkpt>
      <trkpt lat="45.495816310867667" lon="7.059712344780564">
        <ele>3132.1100000000001</ele>
        <time>2015-06-07T08:43:50Z</time>
      </trkpt>
      <trkpt lat="45.495795272290707" lon="7.05973950214684">
        <ele>3132.5900000000001</ele>
        <time>2015-06-07T08:44:03Z</time>
      </trkpt>
      <trkpt lat="45.495745651423931" lon="7.059741849079728">
        <ele>3133.5500000000002</ele>
        <time>2015-06-07T08:44:12Z</time>
      </trkpt>
      <trkpt lat="45.495718996971846" lon="7.059741010889411">
        <ele>3133.5500000000002</ele>
        <time>2015-06-07T08:44:25Z</time>
      </trkpt>
      <trkpt lat="45.495717404410243" lon="7.059698849916458">
        <ele>3134.04</ele>
        <time>2015-06-07T08:44:40Z</time>
      </trkpt>
      <trkpt lat="45.495735593140125" lon="7.059692060574889">
        <ele>3134.04</ele>
        <time>2015-06-07T08:44:58Z</time>
      </trkpt>
      <trkpt lat="45.495746657252312" lon="7.059693234041333">
        <ele>3134.52</ele>
        <time>2015-06-07T08:45:20Z</time>
      </trkpt>
      <trkpt lat="45.495748836547136" lon="7.059698514640331">
        <ele>3134.52</ele>
        <time>2015-06-07T08:45:38Z</time>
      </trkpt>
      <trkpt lat="45.495761828497052" lon="7.059704381972551">
        <ele>3134.52</ele>
        <time>2015-06-07T08:46:03Z</time>
      </trkpt>
      <trkpt lat="45.495746824890375" lon="7.059707650914788">
        <ele>3134.52</ele>
        <time>2015-06-07T08:46:20Z</time>
      </trkpt>
      <trkpt lat="45.495745902881026" lon="7.059716787189245">
        <ele>3134.52</ele>
        <time>2015-06-07T08:46:36Z</time>
      </trkpt>
      <trkpt lat="45.495749842375517" lon="7.059720139950514">
        <ele>3134.04</ele>
        <time>2015-06-07T08:46:51Z</time>
      </trkpt>
      <trkpt lat="45.4957558773458" lon="7.05969549715519">
        <ele>3133.0700000000002</ele>
        <time>2015-06-07T08:47:08Z</time>
      </trkpt>
      <trkpt lat="45.495744310319424" lon="7.059687785804272">
        <ele>3133.0700000000002</ele>
        <time>2015-06-07T08:47:23Z</time>
      </trkpt>
      <trkpt lat="45.495756715536118" lon="7.059711925685406">
        <ele>3134.04</ele>
        <time>2015-06-07T08:47:39Z</time>
      </trkpt>
      <trkpt lat="45.495747998356819" lon="7.059721061959863">
        <ele>3134.52</ele>
        <time>2015-06-07T08:48:01Z</time>
      </trkpt>
      <trkpt lat="45.495747243985534" lon="7.059715278446674">
        <ele>3135.48</ele>
        <time>2015-06-07T08:48:22Z</time>
      </trkpt>
      <trkpt lat="45.495769372209907" lon="7.059703208506107">
        <ele>3135</ele>
        <time>2015-06-07T08:48:42Z</time>
      </trkpt>
      <trkpt lat="45.495762750506401" lon="7.059702118858695">
        <ele>3135</ele>
        <time>2015-06-07T08:48:51Z</time>
      </trkpt>
      <trkpt lat="45.495757386088371" lon="7.05973313190043">
        <ele>3135</ele>
        <time>2015-06-07T08:49:10Z</time>
      </trkpt>
      <trkpt lat="45.495764007791877" lon="7.059731706976891">
        <ele>3135</ele>
        <time>2015-06-07T08:49:35Z</time>
      </trkpt>
      <trkpt lat="45.495738526806235" lon="7.059746710583568">
        <ele>3135.48</ele>
        <time>2015-06-07T08:49:51Z</time>
      </trkpt>
      <trkpt lat="45.4956972040236" lon="7.059759199619293">
        <ele>3135.96</ele>
        <time>2015-06-07T08:50:00Z</time>
      </trkpt>
      <trkpt lat="45.495664598420262" lon="7.059776466339827">
        <ele>3135.96</ele>
        <time>2015-06-07T08:50:09Z</time>
      </trkpt>
      <trkpt lat="45.495637021958828" lon="7.059793816879392">
        <ele>3136.9200000000001</ele>
        <time>2015-06-07T08:50:19Z</time>
      </trkpt>
      <trkpt lat="45.495608858764172" lon="7.059833463281393">
        <ele>3137.4000000000001</ele>
        <time>2015-06-07T08:50:28Z</time>
      </trkpt>
      <trkpt lat="45.495569044724107" lon="7.059878893196583">
        <ele>3138.3600000000001</ele>
        <time>2015-06-07T08:50:38Z</time>
      </trkpt>
      <trkpt lat="45.495533253997564" lon="7.059909738600254">
        <ele>3138.8400000000001</ele>
        <time>2015-06-07T08:50:47Z</time>
      </trkpt>
      <trkpt lat="45.495510287582874" lon="7.059925748035312">
        <ele>3138.8400000000001</ele>
        <time>2015-06-07T08:50:56Z</time>
      </trkpt>
      <trkpt lat="45.495509868487716" lon="7.059938907623291">
        <ele>3140.7600000000002</ele>
        <time>2015-06-07T08:51:12Z</time>
      </trkpt>
      <trkpt lat="45.495498636737466" lon="7.059959946200252">
        <ele>3141.73</ele>
        <time>2015-06-07T08:51:26Z</time>
      </trkpt>
      <trkpt lat="45.495452703908086" lon="7.06002339720726">
        <ele>3142.21</ele>
        <time>2015-06-07T08:51:39Z</time>
      </trkpt>
      <trkpt lat="45.495407609269023" lon="7.060068240389228">
        <ele>3142.21</ele>
        <time>2015-06-07T08:51:51Z</time>
      </trkpt>
      <trkpt lat="45.495370477437973" lon="7.060126159340143">
        <ele>3142.6900000000001</ele>
        <time>2015-06-07T08:52:02Z</time>
      </trkpt>
      <trkpt lat="45.495361257344484" lon="7.060202015563846">
        <ele>3142.6900000000001</ele>
        <time>2015-06-07T08:52:12Z</time>
      </trkpt>
      <trkpt lat="45.495355725288391" lon="7.060252893716097">
        <ele>3144.1300000000001</ele>
        <time>2015-06-07T08:52:20Z</time>
      </trkpt>
      <trkpt lat="45.495356731116772" lon="7.060262281447649">
        <ele>3144.1300000000001</ele>
        <time>2015-06-07T08:52:21Z</time>
      </trkpt>
      <trkpt lat="45.495335943996906" lon="7.060305867344141">
        <ele>3145.0900000000001</ele>
        <time>2015-06-07T08:52:30Z</time>
      </trkpt>
      <trkpt lat="45.495318761095405" lon="7.060357667505741">
        <ele>3145.0900000000001</ele>
        <time>2015-06-07T08:52:40Z</time>
      </trkpt>
      <trkpt lat="45.495292441919446" lon="7.060388932004571">
        <ele>3146.0500000000002</ele>
        <time>2015-06-07T08:52:49Z</time>
      </trkpt>
      <trkpt lat="45.495289172977209" lon="7.060439810156822">
        <ele>3146.0500000000002</ele>
        <time>2015-06-07T08:52:58Z</time>
      </trkpt>
      <trkpt lat="45.49527651630342" lon="7.060488341376185">
        <ele>3146.5300000000002</ele>
        <time>2015-06-07T08:53:10Z</time>
      </trkpt>
      <trkpt lat="45.495277354493737" lon="7.060537207871676">
        <ele>3147.0100000000002</ele>
        <time>2015-06-07T08:53:19Z</time>
      </trkpt>
      <trkpt lat="45.495244832709432" lon="7.060587918385863">
        <ele>3147.4899999999998</ele>
        <time>2015-06-07T08:53:28Z</time>
      </trkpt>
      <trkpt lat="45.495247347280383" lon="7.060638125985861">
        <ele>3148.46</ele>
        <time>2015-06-07T08:53:37Z</time>
      </trkpt>
      <trkpt lat="45.495240055024624" lon="7.060681041330099">
        <ele>3148.46</ele>
        <time>2015-06-07T08:53:47Z</time>
      </trkpt>
      <trkpt lat="45.49521834589541" lon="7.060735020786524">
        <ele>3148.9400000000001</ele>
        <time>2015-06-07T08:53:55Z</time>
      </trkpt>
      <trkpt lat="45.495215663686395" lon="7.060786569491029">
        <ele>3149.9000000000001</ele>
        <time>2015-06-07T08:54:06Z</time>
      </trkpt>
      <trkpt lat="45.495237205177546" lon="7.060836525633931">
        <ele>3150.3800000000001</ele>
        <time>2015-06-07T08:54:19Z</time>
      </trkpt>
      <trkpt lat="45.495220189914107" lon="7.060891762375832">
        <ele>3151.3400000000001</ele>
        <time>2015-06-07T08:54:27Z</time>
      </trkpt>
      <trkpt lat="45.495214238762856" lon="7.06094641238451">
        <ele>3152.3000000000002</ele>
        <time>2015-06-07T08:54:37Z</time>
      </trkpt>
      <trkpt lat="45.495206443592906" lon="7.061010617762804">
        <ele>3152.3000000000002</ele>
        <time>2015-06-07T08:54:48Z</time>
      </trkpt>
      <trkpt lat="45.495204851031303" lon="7.061079517006874">
        <ele>3152.7800000000002</ele>
        <time>2015-06-07T08:54:59Z</time>
      </trkpt>
      <trkpt lat="45.495205437764525" lon="7.061088234186173">
        <ele>3153.2600000000002</ele>
        <time>2015-06-07T08:55:11Z</time>
      </trkpt>
      <trkpt lat="45.495210802182555" lon="7.061114050447941">
        <ele>3153.2600000000002</ele>
        <time>2015-06-07T08:55:27Z</time>
      </trkpt>
      <trkpt lat="45.495222704485059" lon="7.061138190329075">
        <ele>3153.2600000000002</ele>
        <time>2015-06-07T08:55:36Z</time>
      </trkpt>
      <trkpt lat="45.495231254026294" lon="7.061147326603532">
        <ele>3153.2600000000002</ele>
        <time>2015-06-07T08:55:45Z</time>
      </trkpt>
      <trkpt lat="45.495236618444324" lon="7.061160989105701">
        <ele>3153.2600000000002</ele>
        <time>2015-06-07T08:55:54Z</time>
      </trkpt>
      <trkpt lat="45.49523351714015" lon="7.061191415414214">
        <ele>3153.7399999999998</ele>
        <time>2015-06-07T08:56:06Z</time>
      </trkpt>
      <trkpt lat="45.495248856022954" lon="7.061203317716718">
        <ele>3153.2600000000002</ele>
        <time>2015-06-07T08:56:18Z</time>
      </trkpt>
      <trkpt lat="45.495244832709432" lon="7.061255285516381">
        <ele>3154.2199999999998</ele>
        <time>2015-06-07T08:56:32Z</time>
      </trkpt>
      <trkpt lat="45.49525547772646" lon="7.061303900554776">
        <ele>3155.1799999999998</ele>
        <time>2015-06-07T08:56:41Z</time>
      </trkpt>
      <trkpt lat="45.495290765538812" lon="7.061295434832573">
        <ele>3155.1799999999998</ele>
        <time>2015-06-07T08:56:58Z</time>
      </trkpt>
      <trkpt lat="45.495279785245657" lon="7.061337511986494">
        <ele>3155.1799999999998</ele>
        <time>2015-06-07T08:57:11Z</time>
      </trkpt>
      <trkpt lat="45.495283724740148" lon="7.061376655474305">
        <ele>3155.6599999999999</ele>
        <time>2015-06-07T08:57:20Z</time>
      </trkpt>
      <trkpt lat="45.49528288654983" lon="7.061412530019879">
        <ele>3156.6300000000001</ele>
        <time>2015-06-07T08:57:30Z</time>
      </trkpt>
      <trkpt lat="45.495284227654338" lon="7.061428958550096">
        <ele>3157.1100000000001</ele>
        <time>2015-06-07T08:57:45Z</time>
      </trkpt>
      <trkpt lat="45.495274923741817" lon="7.061472628265619">
        <ele>3158.0700000000002</ele>
        <time>2015-06-07T08:57:54Z</time>
      </trkpt>
      <trkpt lat="45.495267547667027" lon="7.061506491154432">
        <ele>3159.0300000000002</ele>
        <time>2015-06-07T08:58:02Z</time>
      </trkpt>
      <trkpt lat="45.495268050581217" lon="7.061540270224214">
        <ele>3159.5100000000002</ele>
        <time>2015-06-07T08:58:10Z</time>
      </trkpt>
      <trkpt lat="45.495255226269364" lon="7.061559800058603">
        <ele>3160.9499999999998</ele>
        <time>2015-06-07T08:58:17Z</time>
      </trkpt>
      <trkpt lat="45.495247263461351" lon="7.061569606885314">
        <ele>3160.9499999999998</ele>
        <time>2015-06-07T08:58:25Z</time>
      </trkpt>
      <trkpt lat="45.495243994519114" lon="7.061592740938067">
        <ele>3161.9099999999999</ele>
        <time>2015-06-07T08:58:34Z</time>
      </trkpt>
      <trkpt lat="45.495234606787562" lon="7.06161386333406">
        <ele>3163.3600000000001</ele>
        <time>2015-06-07T08:58:42Z</time>
      </trkpt>
      <trkpt lat="45.495221866294742" lon="7.061642780900002">
        <ele>3165.2800000000002</ele>
        <time>2015-06-07T08:58:54Z</time>
      </trkpt>
      <trkpt lat="45.495213568210602" lon="7.061667926609516">
        <ele>3164.8000000000002</ele>
        <time>2015-06-07T08:59:03Z</time>
      </trkpt>
      <trkpt lat="45.495200073346496" lon="7.061692737042904">
        <ele>3165.7600000000002</ele>
        <time>2015-06-07T08:59:11Z</time>
      </trkpt>
      <trkpt lat="45.495167132467031" lon="7.061712015420198">
        <ele>3166.2399999999998</ele>
        <time>2015-06-07T08:59:23Z</time>
      </trkpt>
      <trkpt lat="45.495157912373543" lon="7.06172333098948">
        <ele>3167.1999999999998</ele>
        <time>2015-06-07T08:59:32Z</time>
      </trkpt>
      <trkpt lat="45.495146429166198" lon="7.061735484749079">
        <ele>3167.6799999999998</ele>
        <time>2015-06-07T08:59:42Z</time>
      </trkpt>
      <trkpt lat="45.495133940130472" lon="7.061745123937726">
        <ele>3168.1599999999999</ele>
        <time>2015-06-07T08:59:52Z</time>
      </trkpt>
      <trkpt lat="45.49512111581862" lon="7.061773119494319">
        <ele>3168.6399999999999</ele>
        <time>2015-06-07T09:00:00Z</time>
      </trkpt>
      <trkpt lat="45.495092198252678" lon="7.061793990433216">
        <ele>3170.5700000000002</ele>
        <time>2015-06-07T09:00:10Z</time>
      </trkpt>
      <trkpt lat="45.495099825784564" lon="7.06176683306694">
        <ele>3169.5999999999999</ele>
        <time>2015-06-07T09:00:19Z</time>
      </trkpt>
      <trkpt lat="45.495101418346167" lon="7.061766078695655">
        <ele>3170.0799999999999</ele>
        <time>2015-06-07T09:00:32Z</time>
      </trkpt>
      <trkpt lat="45.495110973715782" lon="7.061772281304002">
        <ele>3169.5999999999999</ele>
        <time>2015-06-07T09:00:47Z</time>
      </trkpt>
      <trkpt lat="45.495128491893411" lon="7.061757612973452">
        <ele>3169.5999999999999</ele>
        <time>2015-06-07T09:01:07Z</time>
      </trkpt>
      <trkpt lat="45.495118936523795" lon="7.061770353466272">
        <ele>3170.0799999999999</ele>
        <time>2015-06-07T09:01:34Z</time>
      </trkpt>
      <trkpt lat="45.495106112211943" lon="7.061759289354086">
        <ele>3172.0100000000002</ele>
        <time>2015-06-07T09:01:43Z</time>
      </trkpt>
      <trkpt lat="45.495109967887402" lon="7.06175459548831">
        <ele>3171.5300000000002</ele>
        <time>2015-06-07T09:01:59Z</time>
      </trkpt>
      <trkpt lat="45.495124300941825" lon="7.061750153079629">
        <ele>3171.5300000000002</ele>
        <time>2015-06-07T09:02:09Z</time>
      </trkpt>
      <trkpt lat="45.495128156617284" lon="7.061757277697325">
        <ele>3171.5300000000002</ele>
        <time>2015-06-07T09:02:17Z</time>
      </trkpt>
      <trkpt lat="45.495126396417618" lon="7.061754260212183">
        <ele>3170.0799999999999</ele>
        <time>2015-06-07T09:02:23Z</time>
      </trkpt>
      <trkpt lat="45.495116589590907" lon="7.061770353466272">
        <ele>3171.5300000000002</ele>
        <time>2015-06-07T09:02:39Z</time>
      </trkpt>
      <trkpt lat="45.495123211294413" lon="7.06174872815609">
        <ele>3171.0500000000002</ele>
        <time>2015-06-07T09:02:55Z</time>
      </trkpt>
      <trkpt lat="45.495105357840657" lon="7.061762055382133">
        <ele>3171.5300000000002</ele>
        <time>2015-06-07T09:03:05Z</time>
      </trkpt>
      <trkpt lat="45.495093204081059" lon="7.061763731762767">
        <ele>3171.0500000000002</ele>
        <time>2015-06-07T09:03:19Z</time>
      </trkpt>
      <trkpt lat="45.495096892118454" lon="7.061773622408509">
        <ele>3171.0500000000002</ele>
        <time>2015-06-07T09:03:30Z</time>
      </trkpt>
      <trkpt lat="45.495095383375883" lon="7.061807736754417">
        <ele>3171.0500000000002</ele>
        <time>2015-06-07T09:03:47Z</time>
      </trkpt>
      <trkpt lat="45.495075937360525" lon="7.061822237446904">
        <ele>3171.0500000000002</ele>
        <time>2015-06-07T09:04:03Z</time>
      </trkpt>
      <trkpt lat="45.495076104998589" lon="7.06181276589632">
        <ele>3171.5300000000002</ele>
        <time>2015-06-07T09:04:17Z</time>
      </trkpt>
      <trkpt lat="45.495063783600926" lon="7.061828104779124">
        <ele>3172.4899999999998</ele>
        <time>2015-06-07T09:04:32Z</time>
      </trkpt>
      <trkpt lat="45.495050707831979" lon="7.061855681240559">
        <ele>3173.9299999999998</ele>
        <time>2015-06-07T09:04:40Z</time>
      </trkpt>
      <trkpt lat="45.495052803307772" lon="7.061868421733379">
        <ele>3174.8899999999999</ele>
        <time>2015-06-07T09:04:53Z</time>
      </trkpt>
      <trkpt lat="45.495048360899091" lon="7.061870517209172">
        <ele>3175.8499999999999</ele>
        <time>2015-06-07T09:05:03Z</time>
      </trkpt>
      <trkpt lat="45.495037296786904" lon="7.061890047043562">
        <ele>3175.3699999999999</ele>
        <time>2015-06-07T09:05:21Z</time>
      </trkpt>
      <trkpt lat="45.495041823014617" lon="7.061878815293312">
        <ele>3175.8499999999999</ele>
        <time>2015-06-07T09:05:35Z</time>
      </trkpt>
      <trkpt lat="45.495026987046003" lon="7.06188309006393">
        <ele>3175.8499999999999</ele>
        <time>2015-06-07T09:05:48Z</time>
      </trkpt>
      <trkpt lat="45.49502044916153" lon="7.061895411461592">
        <ele>3177.29</ele>
        <time>2015-06-07T09:06:00Z</time>
      </trkpt>
      <trkpt lat="45.495019108057022" lon="7.0619001891464">
        <ele>3177.7800000000002</ele>
        <time>2015-06-07T09:06:09Z</time>
      </trkpt>
      <trkpt lat="45.495019359514117" lon="7.061887532472611">
        <ele>3178.2600000000002</ele>
        <time>2015-06-07T09:06:19Z</time>
      </trkpt>
      <trkpt lat="45.495015503838658" lon="7.06187479197979">
        <ele>3179.2199999999998</ele>
        <time>2015-06-07T09:06:28Z</time>
      </trkpt>
      <trkpt lat="45.495012486353517" lon="7.061874624341726">
        <ele>3179.2199999999998</ele>
        <time>2015-06-07T09:06:42Z</time>
      </trkpt>
      <trkpt lat="45.495014749467373" lon="7.06190412864089">
        <ele>3179.6999999999998</ele>
        <time>2015-06-07T09:06:51Z</time>
      </trkpt>
      <trkpt lat="45.495002930983901" lon="7.061895746737719">
        <ele>3180.1799999999998</ele>
        <time>2015-06-07T09:07:08Z</time>
      </trkpt>
      <trkpt lat="45.495003685355186" lon="7.061903793364763">
        <ele>3180.1799999999998</ele>
        <time>2015-06-07T09:07:19Z</time>
      </trkpt>
      <trkpt lat="45.494994129985571" lon="7.06188895739615">
        <ele>3180.6599999999999</ele>
        <time>2015-06-07T09:07:31Z</time>
      </trkpt>
      <trkpt lat="45.494989855214953" lon="7.061896752566099">
        <ele>3180.6599999999999</ele>
        <time>2015-06-07T09:07:40Z</time>
      </trkpt>
      <trkpt lat="45.4949891846627" lon="7.061926927417517">
        <ele>3182.0999999999999</ele>
        <time>2015-06-07T09:07:48Z</time>
      </trkpt>
      <trkpt lat="45.494981640949845" lon="7.061956515535712">
        <ele>3182.5799999999999</ele>
        <time>2015-06-07T09:07:56Z</time>
      </trkpt>
      <trkpt lat="45.494973175227642" lon="7.061963640153408">
        <ele>3183.0599999999999</ele>
        <time>2015-06-07T09:08:07Z</time>
      </trkpt>
      <trkpt lat="45.494985831901431" lon="7.061963388696313">
        <ele>3183.0599999999999</ele>
        <time>2015-06-07T09:08:18Z</time>
      </trkpt>
      <trkpt lat="45.494974097236991" lon="7.061976213008165">
        <ele>3183.0599999999999</ele>
        <time>2015-06-07T09:08:32Z</time>
      </trkpt>
      <trkpt lat="45.494978204369545" lon="7.061977051198483">
        <ele>3183.54</ele>
        <time>2015-06-07T09:08:49Z</time>
      </trkpt>
      <trkpt lat="45.494970912113786" lon="7.061987109482288">
        <ele>3184.02</ele>
        <time>2015-06-07T09:09:05Z</time>
      </trkpt>
      <trkpt lat="45.494964625686407" lon="7.061996581032872">
        <ele>3184.98</ele>
        <time>2015-06-07T09:09:14Z</time>
      </trkpt>
      <trkpt lat="45.494962194934487" lon="7.061999598518014">
        <ele>3184.98</ele>
        <time>2015-06-07T09:09:22Z</time>
      </trkpt>
      <trkpt lat="45.494950627908111" lon="7.062010997906327">
        <ele>3185.4699999999998</ele>
        <time>2015-06-07T09:09:33Z</time>
      </trkpt>
      <trkpt lat="45.494944844394922" lon="7.062015943229199">
        <ele>3185.9499999999998</ele>
        <time>2015-06-07T09:09:41Z</time>
      </trkpt>
      <trkpt lat="45.494944006204605" lon="7.062024576589465">
        <ele>3186.4299999999998</ele>
        <time>2015-06-07T09:09:51Z</time>
      </trkpt>
      <trkpt lat="45.494931181892753" lon="7.062045447528362">
        <ele>3186.9099999999999</ele>
        <time>2015-06-07T09:10:04Z</time>
      </trkpt>
      <trkpt lat="45.494924644008279" lon="7.062050560489297">
        <ele>3187.8699999999999</ele>
        <time>2015-06-07T09:10:14Z</time>
      </trkpt>
      <trkpt lat="45.494924308732152" lon="7.062079142779112">
        <ele>3187.8699999999999</ele>
        <time>2015-06-07T09:10:24Z</time>
      </trkpt>
      <trkpt lat="45.494911316782236" lon="7.062085513025522">
        <ele>3188.8299999999999</ele>
        <time>2015-06-07T09:10:33Z</time>
      </trkpt>
      <trkpt lat="45.494917184114456" lon="7.062082830816507">
        <ele>3189.79</ele>
        <time>2015-06-07T09:10:43Z</time>
      </trkpt>
      <trkpt lat="45.494893044233322" lon="7.0620590262115">
        <ele>3189.79</ele>
        <time>2015-06-07T09:10:56Z</time>
      </trkpt>
      <trkpt lat="45.49488365650177" lon="7.062065815553069">
        <ele>3190.27</ele>
        <time>2015-06-07T09:11:07Z</time>
      </trkpt>
      <trkpt lat="45.494885919615626" lon="7.062142426148057">
        <ele>3191.23</ele>
        <time>2015-06-07T09:11:17Z</time>
      </trkpt>
      <trkpt lat="45.494888350367546" lon="7.062134547159076">
        <ele>3191.71</ele>
        <time>2015-06-07T09:11:26Z</time>
      </trkpt>
      <trkpt lat="45.494897570461035" lon="7.062157262116671">
        <ele>3192.6799999999998</ele>
        <time>2015-06-07T09:11:35Z</time>
      </trkpt>
      <trkpt lat="45.494899163022637" lon="7.062164470553398">
        <ele>3192.6799999999998</ele>
        <time>2015-06-07T09:11:40Z</time>
      </trkpt>
      <trkpt lat="45.494898827746511" lon="7.062172600999475">
        <ele>3193.6399999999999</ele>
        <time>2015-06-07T09:11:50Z</time>
      </trkpt>
      <trkpt lat="45.494908634573221" lon="7.062226831912994">
        <ele>3194.1199999999999</ele>
        <time>2015-06-07T09:12:11Z</time>
      </trkpt>
      <trkpt lat="45.494907377287745" lon="7.062229933217168">
        <ele>3194.1199999999999</ele>
        <time>2015-06-07T09:12:12Z</time>
      </trkpt>
      <trkpt lat="45.494911652058363" lon="7.062263041734695">
        <ele>3195.0799999999999</ele>
        <time>2015-06-07T09:12:20Z</time>
      </trkpt>
      <trkpt lat="45.494914501905441" lon="7.062228927388787">
        <ele>3195.5599999999999</ele>
        <time>2015-06-07T09:12:31Z</time>
      </trkpt>
      <trkpt lat="45.494906790554523" lon="7.062226748093963">
        <ele>3195.0799999999999</ele>
        <time>2015-06-07T09:12:40Z</time>
      </trkpt>
      <trkpt lat="45.494910813868046" lon="7.062250468879938">
        <ele>3195.5599999999999</ele>
        <time>2015-06-07T09:12:47Z</time>
      </trkpt>
      <trkpt lat="45.494930259883404" lon="7.062261281535029">
        <ele>3196.52</ele>
        <time>2015-06-07T09:12:53Z</time>
      </trkpt>
      <trkpt lat="45.494920033961535" lon="7.062267232686281">
        <ele>3197</ele>
        <time>2015-06-07T09:13:02Z</time>
      </trkpt>
      <trkpt lat="45.494905449450016" lon="7.062276117503643">
        <ele>3197.48</ele>
        <time>2015-06-07T09:13:11Z</time>
      </trkpt>
      <trkpt lat="45.494912574067712" lon="7.062285589054227">
        <ele>3197.96</ele>
        <time>2015-06-07T09:13:22Z</time>
      </trkpt>
      <trkpt lat="45.494919950142503" lon="7.062297658994794">
        <ele>3198.9200000000001</ele>
        <time>2015-06-07T09:13:34Z</time>
      </trkpt>
      <trkpt lat="45.49490419216454" lon="7.062316769734025">
        <ele>3199.4000000000001</ele>
        <time>2015-06-07T09:13:56Z</time>
      </trkpt>
      <trkpt lat="45.494900001212955" lon="7.062304448336363">
        <ele>3199.8899999999999</ele>
        <time>2015-06-07T09:14:07Z</time>
      </trkpt>
      <trkpt lat="45.494901929050684" lon="7.062306124716997">
        <ele>3200.3699999999999</ele>
        <time>2015-06-07T09:14:20Z</time>
      </trkpt>
      <trkpt lat="45.494913998991251" lon="7.062319284304977">
        <ele>3201.3299999999999</ele>
        <time>2015-06-07T09:14:27Z</time>
      </trkpt>
      <trkpt lat="45.494914082810283" lon="7.062336970120668">
        <ele>3202.77</ele>
        <time>2015-06-07T09:14:38Z</time>
      </trkpt>
      <trkpt lat="45.494923386722803" lon="7.062367899343371">
        <ele>3203.25</ele>
        <time>2015-06-07T09:14:47Z</time>
      </trkpt>
      <trkpt lat="45.494911652058363" lon="7.062376281246543">
        <ele>3203.73</ele>
        <time>2015-06-07T09:14:59Z</time>
      </trkpt>
      <trkpt lat="45.494896564632654" lon="7.062371168285608">
        <ele>3203.25</ele>
        <time>2015-06-07T09:15:12Z</time>
      </trkpt>
      <trkpt lat="45.494923889636993" lon="7.062411569058895">
        <ele>3204.21</ele>
        <time>2015-06-07T09:15:25Z</time>
      </trkpt>
      <trkpt lat="45.494902599602938" lon="7.062392961233854">
        <ele>3205.1700000000001</ele>
        <time>2015-06-07T09:15:36Z</time>
      </trkpt>
      <trkpt lat="45.494903102517128" lon="7.06239614635706">
        <ele>3205.6500000000001</ele>
        <time>2015-06-07T09:15:44Z</time>
      </trkpt>
      <trkpt lat="45.494899246841669" lon="7.062423471361399">
        <ele>3206.6100000000001</ele>
        <time>2015-06-07T09:15:56Z</time>
      </trkpt>
      <trkpt lat="45.494888182729483" lon="7.062409305945039">
        <ele>3206.1300000000001</ele>
        <time>2015-06-07T09:16:13Z</time>
      </trkpt>
      <trkpt lat="45.494898995384574" lon="7.062394050881267">
        <ele>3207.0999999999999</ele>
        <time>2015-06-07T09:16:28Z</time>
      </trkpt>
      <trkpt lat="45.494892625138164" lon="7.062401343137026">
        <ele>3207.0999999999999</ele>
        <time>2015-06-07T09:16:45Z</time>
      </trkpt>
      <trkpt lat="45.494873346760869" lon="7.062401091679931">
        <ele>3207.0999999999999</ele>
        <time>2015-06-07T09:17:03Z</time>
      </trkpt>
      <trkpt lat="45.494866641238332" lon="7.062407545745373">
        <ele>3207.5799999999999</ele>
        <time>2015-06-07T09:17:12Z</time>
      </trkpt>
      <trkpt lat="45.494873933494091" lon="7.062419950962067">
        <ele>3207.5799999999999</ele>
        <time>2015-06-07T09:17:22Z</time>
      </trkpt>
      <trkpt lat="45.49488365650177" lon="7.062471332028508">
        <ele>3208.54</ele>
        <time>2015-06-07T09:17:30Z</time>
      </trkpt>
      <trkpt lat="45.494891870766878" lon="7.062473427504301">
        <ele>3209.5</ele>
        <time>2015-06-07T09:17:39Z</time>
      </trkpt>
      <trkpt lat="45.494893714785576" lon="7.062473343685269">
        <ele>3209.98</ele>
        <time>2015-06-07T09:17:48Z</time>
      </trkpt>
      <trkpt lat="45.494884494692087" lon="7.062461022287607">
        <ele>3209.98</ele>
        <time>2015-06-07T09:17:59Z</time>
      </trkpt>
      <trkpt lat="45.494852811098099" lon="7.062461692839861">
        <ele>3211.4200000000001</ele>
        <time>2015-06-07T09:18:09Z</time>
      </trkpt>
      <trkpt lat="45.494839232414961" lon="7.062472505494952">
        <ele>3211.4200000000001</ele>
        <time>2015-06-07T09:18:18Z</time>
      </trkpt>
      <trkpt lat="45.494843423366547" lon="7.062464375048876">
        <ele>3211.9000000000001</ele>
        <time>2015-06-07T09:18:33Z</time>
      </trkpt>
      <trkpt lat="45.494817858561873" lon="7.062478959560394">
        <ele>3212.3800000000001</ele>
        <time>2015-06-07T09:18:50Z</time>
      </trkpt>
      <trkpt lat="45.494821295142174" lon="7.062497483566403">
        <ele>3212.3800000000001</ele>
        <time>2015-06-07T09:18:59Z</time>
      </trkpt>
      <trkpt lat="45.494820540770888" lon="7.062499579042196">
        <ele>3212.8600000000001</ele>
        <time>2015-06-07T09:19:12Z</time>
      </trkpt>
      <trkpt lat="45.494800256565213" lon="7.062524389475584">
        <ele>3212.8600000000001</ele>
        <time>2015-06-07T09:19:22Z</time>
      </trkpt>
      <trkpt lat="45.494813499972224" lon="7.062545428052545">
        <ele>3213.8200000000002</ele>
        <time>2015-06-07T09:19:34Z</time>
      </trkpt>
      <trkpt lat="45.494837388396263" lon="7.062543332576752">
        <ele>3214.3099999999999</ele>
        <time>2015-06-07T09:19:44Z</time>
      </trkpt>
      <trkpt lat="45.494821965694427" lon="7.062503937631846">
        <ele>3214.79</ele>
        <time>2015-06-07T09:20:01Z</time>
      </trkpt>
      <trkpt lat="45.49480989575386" lon="7.062539476901293">
        <ele>3215.75</ele>
        <time>2015-06-07T09:20:08Z</time>
      </trkpt>
      <trkpt lat="45.494795897975564" lon="7.062562527135015">
        <ele>3215.75</ele>
        <time>2015-06-07T09:20:20Z</time>
      </trkpt>
      <trkpt lat="45.494788102805614" lon="7.062563197687268">
        <ele>3216.71</ele>
        <time>2015-06-07T09:20:31Z</time>
      </trkpt>
      <trkpt lat="45.49479522742331" lon="7.062583649531007">
        <ele>3217.1900000000001</ele>
        <time>2015-06-07T09:20:42Z</time>
      </trkpt>
      <trkpt lat="45.494787599891424" lon="7.062617931514978">
        <ele>3218.1500000000001</ele>
        <time>2015-06-07T09:20:49Z</time>
      </trkpt>
      <trkpt lat="45.494792545214295" lon="7.062640395015478">
        <ele>3218.6300000000001</ele>
        <time>2015-06-07T09:20:58Z</time>
      </trkpt>
      <trkpt lat="45.494796065613627" lon="7.062647771090269">
        <ele>3219.5900000000001</ele>
        <time>2015-06-07T09:21:07Z</time>
      </trkpt>
      <trkpt lat="45.494789108633995" lon="7.062656488269568">
        <ele>3220.5500000000002</ele>
        <time>2015-06-07T09:21:20Z</time>
      </trkpt>
      <trkpt lat="45.494819199666381" lon="7.062681466341019">
        <ele>3221.52</ele>
        <time>2015-06-07T09:21:29Z</time>
      </trkpt>
      <trkpt lat="45.494797239080071" lon="7.062687585130334">
        <ele>3222.48</ele>
        <time>2015-06-07T09:21:39Z</time>
      </trkpt>
      <trkpt lat="45.494784247130156" lon="7.062695799395442">
        <ele>3222.96</ele>
        <time>2015-06-07T09:21:48Z</time>
      </trkpt>
      <trkpt lat="45.494784330949187" lon="7.062712647020817">
        <ele>3222.96</ele>
        <time>2015-06-07T09:22:04Z</time>
      </trkpt>
      <trkpt lat="45.494794975966215" lon="7.062715999782085">
        <ele>3223.4400000000001</ele>
        <time>2015-06-07T09:22:13Z</time>
      </trkpt>
      <trkpt lat="45.494795395061374" lon="7.062699655070901">
        <ele>3223.4400000000001</ele>
        <time>2015-06-07T09:22:27Z</time>
      </trkpt>
      <trkpt lat="45.494788940995932" lon="7.062724633142352">
        <ele>3224.4000000000001</ele>
        <time>2015-06-07T09:22:38Z</time>
      </trkpt>
      <trkpt lat="45.494792126119137" lon="7.06273284740746">
        <ele>3224.4000000000001</ele>
        <time>2015-06-07T09:22:57Z</time>
      </trkpt>
      <trkpt lat="45.494776116684079" lon="7.062752293422818">
        <ele>3225.3600000000001</ele>
        <time>2015-06-07T09:23:05Z</time>
      </trkpt>
      <trkpt lat="45.494768153876066" lon="7.062740055844188">
        <ele>3225.8400000000001</ele>
        <time>2015-06-07T09:23:15Z</time>
      </trkpt>
      <trkpt lat="45.494772512465715" lon="7.062761010602117">
        <ele>3225.8400000000001</ele>
        <time>2015-06-07T09:23:22Z</time>
      </trkpt>
      <trkpt lat="45.494766812771559" lon="7.062780624255538">
        <ele>3226.8000000000002</ele>
        <time>2015-06-07T09:23:31Z</time>
      </trkpt>
      <trkpt lat="45.494747534394264" lon="7.062780121341348">
        <ele>3227.7600000000002</ele>
        <time>2015-06-07T09:23:48Z</time>
      </trkpt>
      <trkpt lat="45.494748707860708" lon="7.062787832692266">
        <ele>3228.2399999999998</ele>
        <time>2015-06-07T09:23:56Z</time>
      </trkpt>
      <trkpt lat="45.494767483323812" lon="7.06283493898809">
        <ele>3228.73</ele>
        <time>2015-06-07T09:24:05Z</time>
      </trkpt>
      <trkpt lat="45.494756000116467" lon="7.062853714451194">
        <ele>3230.1700000000001</ele>
        <time>2015-06-07T09:24:18Z</time>
      </trkpt>
      <trkpt lat="45.494750887155533" lon="7.062862599268556">
        <ele>3230.1700000000001</ele>
        <time>2015-06-07T09:24:26Z</time>
      </trkpt>
      <trkpt lat="45.494734710082412" lon="7.062855055555701">
        <ele>3231.1300000000001</ele>
        <time>2015-06-07T09:24:37Z</time>
      </trkpt>
      <trkpt lat="45.494731357321143" lon="7.062852205708623">
        <ele>3232.0900000000001</ele>
        <time>2015-06-07T09:24:43Z</time>
      </trkpt>
      <trkpt lat="45.494730686768889" lon="7.062874250113964">
        <ele>3233.0500000000002</ele>
        <time>2015-06-07T09:24:52Z</time>
      </trkpt>
      <trkpt lat="45.494740828871727" lon="7.062891181558371">
        <ele>3233.5300000000002</ele>
        <time>2015-06-07T09:24:59Z</time>
      </trkpt>
      <trkpt lat="45.494735967367887" lon="7.062906185165048">
        <ele>3233.5300000000002</ele>
        <time>2015-06-07T09:25:16Z</time>
      </trkpt>
      <trkpt lat="45.494731524959207" lon="7.062896462157369">
        <ele>3234.4899999999998</ele>
        <time>2015-06-07T09:25:27Z</time>
      </trkpt>
      <trkpt lat="45.494741918519139" lon="7.062911801040173">
        <ele>3234.9699999999998</ele>
        <time>2015-06-07T09:25:37Z</time>
      </trkpt>
      <trkpt lat="45.494725489988923" lon="7.062918255105615">
        <ele>3236.4200000000001</ele>
        <time>2015-06-07T09:25:47Z</time>
      </trkpt>
      <trkpt lat="45.494747366756201" lon="7.0629190094769">
        <ele>3236.4200000000001</ele>
        <time>2015-06-07T09:25:58Z</time>
      </trkpt>
      <trkpt lat="45.494732027873397" lon="7.062931749969721">
        <ele>3236.4200000000001</ele>
        <time>2015-06-07T09:26:11Z</time>
      </trkpt>
      <trkpt lat="45.494711324572563" lon="7.062912471592426">
        <ele>3236.4200000000001</ele>
        <time>2015-06-07T09:26:32Z</time>
      </trkpt>
      <trkpt lat="45.494726160541177" lon="7.062954213470221">
        <ele>3237.8600000000001</ele>
        <time>2015-06-07T09:26:41Z</time>
      </trkpt>
      <trkpt lat="45.494718533009291" lon="7.062961086630821">
        <ele>3238.8200000000002</ele>
        <time>2015-06-07T09:26:51Z</time>
      </trkpt>
      <trkpt lat="45.494728842750192" lon="7.062970139086247">
        <ele>3239.3000000000002</ele>
        <time>2015-06-07T09:27:03Z</time>
      </trkpt>
      <trkpt lat="45.494710318744183" lon="7.062983801588416">
        <ele>3240.2600000000002</ele>
        <time>2015-06-07T09:27:12Z</time>
      </trkpt>
      <trkpt lat="45.494716940447688" lon="7.062998721376061">
        <ele>3240.7399999999998</ele>
        <time>2015-06-07T09:27:22Z</time>
      </trkpt>
      <trkpt lat="45.494702691212296" lon="7.062989585101605">
        <ele>3240.7399999999998</ele>
        <time>2015-06-07T09:27:31Z</time>
      </trkpt>
      <trkpt lat="45.494735548272729" lon="7.063019592314959">
        <ele>3241.2199999999998</ele>
        <time>2015-06-07T09:27:43Z</time>
      </trkpt>
      <trkpt lat="45.494713336229324" lon="7.063034428283572">
        <ele>3241.6999999999998</ele>
        <time>2015-06-07T09:27:57Z</time>
      </trkpt>
      <trkpt lat="45.494701266288757" lon="7.063029231503606">
        <ele>3242.1799999999998</ele>
        <time>2015-06-07T09:28:05Z</time>
      </trkpt>
      <trkpt lat="45.494713503867388" lon="7.063053203746676">
        <ele>3242.6599999999999</ele>
        <time>2015-06-07T09:28:18Z</time>
      </trkpt>
      <trkpt lat="45.494715850800276" lon="7.06304457038641">
        <ele>3243.6300000000001</ele>
        <time>2015-06-07T09:28:28Z</time>
      </trkpt>
      <trkpt lat="45.494724735617638" lon="7.063064854592085">
        <ele>3243.6300000000001</ele>
        <time>2015-06-07T09:28:40Z</time>
      </trkpt>
      <trkpt lat="45.494726160541177" lon="7.063059154897928">
        <ele>3244.5900000000001</ele>
        <time>2015-06-07T09:28:53Z</time>
      </trkpt>
      <trkpt lat="45.494724987074733" lon="7.063071895390749">
        <ele>3245.0700000000002</ele>
        <time>2015-06-07T09:29:01Z</time>
      </trkpt>
      <trkpt lat="45.494740661233664" lon="7.06310517154634">
        <ele>3245.5500000000002</ele>
        <time>2015-06-07T09:29:13Z</time>
      </trkpt>
      <trkpt lat="45.494743511080742" lon="7.063105842098594">
        <ele>3246.0300000000002</ele>
        <time>2015-06-07T09:29:20Z</time>
      </trkpt>
      <trkpt lat="45.494729010388255" lon="7.063115565106273">
        <ele>3246.0300000000002</ele>
        <time>2015-06-07T09:29:27Z</time>
      </trkpt>
      <trkpt lat="45.494747534394264" lon="7.063130820170045">
        <ele>3246.9899999999998</ele>
        <time>2015-06-07T09:29:41Z</time>
      </trkpt>
      <trkpt lat="45.494729345664382" lon="7.063103746622801">
        <ele>3247.4699999999998</ele>
        <time>2015-06-07T09:29:49Z</time>
      </trkpt>
      <trkpt lat="45.494708977639675" lon="7.063110200688243">
        <ele>3246.9899999999998</ele>
        <time>2015-06-07T09:30:02Z</time>
      </trkpt>
      <trkpt lat="45.494732782244682" lon="7.063130401074886">
        <ele>3248.4299999999998</ele>
        <time>2015-06-07T09:30:10Z</time>
      </trkpt>
      <trkpt lat="45.494736470282078" lon="7.063144901767373">
        <ele>3249.3899999999999</ele>
        <time>2015-06-07T09:30:18Z</time>
      </trkpt>
      <trkpt lat="45.494730519130826" lon="7.063174741342664">
        <ele>3249.3899999999999</ele>
        <time>2015-06-07T09:30:32Z</time>
      </trkpt>
      <trkpt lat="45.494727250188589" lon="7.063175579532981">
        <ele>3250.3499999999999</ele>
        <time>2015-06-07T09:30:40Z</time>
      </trkpt>
      <trkpt lat="45.494724148884416" lon="7.063169879838824">
        <ele>3250.8299999999999</ele>
        <time>2015-06-07T09:30:51Z</time>
      </trkpt>
      <trkpt lat="45.494718281552196" lon="7.063181698322296">
        <ele>3250.8299999999999</ele>
        <time>2015-06-07T09:31:04Z</time>
      </trkpt>
      <trkpt lat="45.494726579636335" lon="7.063188990578055">
        <ele>3251.8000000000002</ele>
        <time>2015-06-07T09:31:11Z</time>
      </trkpt>
      <trkpt lat="45.494742505252361" lon="7.063202736899257">
        <ele>3253.2399999999998</ele>
        <time>2015-06-07T09:31:19Z</time>
      </trkpt>
      <trkpt lat="45.494741415604949" lon="7.063226876780391">
        <ele>3253.7199999999998</ele>
        <time>2015-06-07T09:31:26Z</time>
      </trkpt>
      <trkpt lat="45.494735045358539" lon="7.063205167651177">
        <ele>3255.1599999999999</ele>
        <time>2015-06-07T09:31:36Z</time>
      </trkpt>
      <trkpt lat="45.494745271280408" lon="7.063211621716619">
        <ele>3254.6799999999998</ele>
        <time>2015-06-07T09:31:57Z</time>
      </trkpt>
      <trkpt lat="45.494731273502111" lon="7.063216231763363">
        <ele>3255.1599999999999</ele>
        <time>2015-06-07T09:32:03Z</time>
      </trkpt>
      <trkpt lat="45.49471995793283" lon="7.063207263126969">
        <ele>3255.6399999999999</ele>
        <time>2015-06-07T09:32:13Z</time>
      </trkpt>
      <trkpt lat="45.494681484997272" lon="7.063195360824466">
        <ele>3256.1199999999999</ele>
        <time>2015-06-07T09:32:30Z</time>
      </trkpt>
      <trkpt lat="45.494709061458707" lon="7.063228385522962">
        <ele>3257.5599999999999</ele>
        <time>2015-06-07T09:32:45Z</time>
      </trkpt>
      <trkpt lat="45.494716018438339" lon="7.0632488373667">
        <ele>3259.0100000000002</ele>
        <time>2015-06-07T09:32:54Z</time>
      </trkpt>
      <trkpt lat="45.494720712304115" lon="7.063296781852841">
        <ele>3259.9699999999998</ele>
        <time>2015-06-07T09:33:03Z</time>
      </trkpt>
      <trkpt lat="45.494751809164882" lon="7.063360400497913">
        <ele>3260.9299999999998</ele>
        <time>2015-06-07T09:33:14Z</time>
      </trkpt>
      <trkpt lat="45.49473948776722" lon="7.063361154869199">
        <ele>3261.8899999999999</ele>
        <time>2015-06-07T09:33:21Z</time>
      </trkpt>
      <trkpt lat="45.494766477495432" lon="7.063349587842822">
        <ele>3261.8899999999999</ele>
        <time>2015-06-07T09:33:31Z</time>
      </trkpt>
      <trkpt lat="45.494721466675401" lon="7.06335537135601">
        <ele>3263.3299999999999</ele>
        <time>2015-06-07T09:33:40Z</time>
      </trkpt>
      <trkpt lat="45.494718700647354" lon="7.063363753259182">
        <ele>3263.8099999999999</ele>
        <time>2015-06-07T09:33:51Z</time>
      </trkpt>
      <trkpt lat="45.494688106700778" lon="7.06337540410459">
        <ele>3265.2600000000002</ele>
        <time>2015-06-07T09:34:07Z</time>
      </trkpt>
      <trkpt lat="45.494693052023649" lon="7.063394095748663">
        <ele>3265.7399999999998</ele>
        <time>2015-06-07T09:34:16Z</time>
      </trkpt>
      <trkpt lat="45.494670253247023" lon="7.06338269636035">
        <ele>3265.2600000000002</ele>
        <time>2015-06-07T09:34:31Z</time>
      </trkpt>
      <trkpt lat="45.494698751717806" lon="7.063398705795407">
        <ele>3265.7399999999998</ele>
        <time>2015-06-07T09:34:51Z</time>
      </trkpt>
      <trkpt lat="45.494686095044017" lon="7.063388479873538">
        <ele>3265.7399999999998</ele>
        <time>2015-06-07T09:34:57Z</time>
      </trkpt>
      <trkpt lat="45.494682993739843" lon="7.063402645289898">
        <ele>3267.1799999999998</ele>
        <time>2015-06-07T09:35:04Z</time>
      </trkpt>
      <trkpt lat="45.494668241590261" lon="7.063408009707928">
        <ele>3266.2199999999998</ele>
        <time>2015-06-07T09:35:19Z</time>
      </trkpt>
      <trkpt lat="45.494658937677741" lon="7.063417313620448">
        <ele>3267.6599999999999</ele>
        <time>2015-06-07T09:35:25Z</time>
      </trkpt>
      <trkpt lat="45.494667906314135" lon="7.063461821526289">
        <ele>3268.1399999999999</ele>
        <time>2015-06-07T09:35:37Z</time>
      </trkpt>
      <trkpt lat="45.494654746726155" lon="7.0634491648525">
        <ele>3269.0999999999999</ele>
        <time>2015-06-07T09:35:53Z</time>
      </trkpt>
      <trkpt lat="45.494661787524819" lon="7.063483446836472">
        <ele>3269.5799999999999</ele>
        <time>2015-06-07T09:36:01Z</time>
      </trkpt>
      <trkpt lat="45.494663128629327" lon="7.06349995918572">
        <ele>3270.54</ele>
        <time>2015-06-07T09:36:16Z</time>
      </trkpt>
      <trkpt lat="45.494672935456038" lon="7.0635044015944">
        <ele>3270.54</ele>
        <time>2015-06-07T09:36:29Z</time>
      </trkpt>
      <trkpt lat="45.494646281003952" lon="7.063476406037808">
        <ele>3271.5</ele>
        <time>2015-06-07T09:36:41Z</time>
      </trkpt>
      <trkpt lat="45.494661871343851" lon="7.063493588939309">
        <ele>3271.5</ele>
        <time>2015-06-07T09:36:53Z</time>
      </trkpt>
      <trkpt lat="45.494669079780579" lon="7.063507419079542">
        <ele>3271.98</ele>
        <time>2015-06-07T09:37:00Z</time>
      </trkpt>
      <trkpt lat="45.494661536067724" lon="7.063517812639475">
        <ele>3272.46</ele>
        <time>2015-06-07T09:37:21Z</time>
      </trkpt>
      <trkpt lat="45.494694476947188" lon="7.063531223684549">
        <ele>3272.9499999999998</ele>
        <time>2015-06-07T09:37:31Z</time>
      </trkpt>
      <trkpt lat="45.494659105315804" lon="7.063549244776368">
        <ele>3272.9499999999998</ele>
        <time>2015-06-07T09:37:57Z</time>
      </trkpt>
      <trkpt lat="45.494682407006621" lon="7.063538432121277">
        <ele>3273.9099999999999</ele>
        <time>2015-06-07T09:38:04Z</time>
      </trkpt>
      <trkpt lat="45.494669498875737" lon="7.063535079360008">
        <ele>3274.3899999999999</ele>
        <time>2015-06-07T09:38:21Z</time>
      </trkpt>
      <trkpt lat="45.494687687605619" lon="7.063553854823113">
        <ele>3275.3499999999999</ele>
        <time>2015-06-07T09:38:30Z</time>
      </trkpt>
      <trkpt lat="45.494699757546186" lon="7.063567517325282">
        <ele>3275.8299999999999</ele>
        <time>2015-06-07T09:38:38Z</time>
      </trkpt>
      <trkpt lat="45.494690537452698" lon="7.063560895621777">
        <ele>3276.3099999999999</ele>
        <time>2015-06-07T09:38:46Z</time>
      </trkpt>
      <trkpt lat="45.494674444198608" lon="7.063569445163012">
        <ele>3275.8299999999999</ele>
        <time>2015-06-07T09:38:58Z</time>
      </trkpt>
      <trkpt lat="45.494687017053366" lon="7.063572211191058">
        <ele>3277.27</ele>
        <time>2015-06-07T09:39:08Z</time>
      </trkpt>
      <trkpt lat="45.494709564372897" lon="7.063580760732293">
        <ele>3277.75</ele>
        <time>2015-06-07T09:39:20Z</time>
      </trkpt>
      <trkpt lat="45.494723226875067" lon="7.063592411577702">
        <ele>3278.23</ele>
        <time>2015-06-07T09:39:28Z</time>
      </trkpt>
      <trkpt lat="45.494728423655033" lon="7.063623340800405">
        <ele>3278.23</ele>
        <time>2015-06-07T09:39:43Z</time>
      </trkpt>
      <trkpt lat="45.494746528565884" lon="7.063632728531957">
        <ele>3278.23</ele>
        <time>2015-06-07T09:39:50Z</time>
      </trkpt>
      <trkpt lat="45.494756251573563" lon="7.06363532692194">
        <ele>3279.1900000000001</ele>
        <time>2015-06-07T09:39:58Z</time>
      </trkpt>
      <trkpt lat="45.494739906862378" lon="7.063625184819102">
        <ele>3279.1900000000001</ele>
        <time>2015-06-07T09:40:15Z</time>
      </trkpt>
      <trkpt lat="45.494745690375566" lon="7.063630549237132">
        <ele>3280.1599999999999</ele>
        <time>2015-06-07T09:40:27Z</time>
      </trkpt>
      <trkpt lat="45.494753485545516" lon="7.063653767108917">
        <ele>3280.6399999999999</ele>
        <time>2015-06-07T09:40:36Z</time>
      </trkpt>
      <trkpt lat="45.49475759267807" lon="7.06368075683713">
        <ele>3280.6399999999999</ele>
        <time>2015-06-07T09:40:47Z</time>
      </trkpt>
      <trkpt lat="45.494765304028988" lon="7.063701460137963">
        <ele>3282.0799999999999</ele>
        <time>2015-06-07T09:40:58Z</time>
      </trkpt>
      <trkpt lat="45.494776871055365" lon="7.063711602240801">
        <ele>3282.0799999999999</ele>
        <time>2015-06-07T09:41:09Z</time>
      </trkpt>
      <trkpt lat="45.494792042300105" lon="7.063715877011418">
        <ele>3282.5599999999999</ele>
        <time>2015-06-07T09:41:17Z</time>
      </trkpt>
      <trkpt lat="45.494802100583911" lon="7.063733646646142">
        <ele>3283.04</ele>
        <time>2015-06-07T09:41:24Z</time>
      </trkpt>
      <trkpt lat="45.494808051735163" lon="7.063735155388713">
        <ele>3283.52</ele>
        <time>2015-06-07T09:41:36Z</time>
      </trkpt>
      <trkpt lat="45.49482305534184" lon="7.063766336068511">
        <ele>3284.48</ele>
        <time>2015-06-07T09:41:44Z</time>
      </trkpt>
      <trkpt lat="45.494810650125146" lon="7.06376968882978">
        <ele>3284.96</ele>
        <time>2015-06-07T09:41:52Z</time>
      </trkpt>
      <trkpt lat="45.494814841076732" lon="7.063770778477192">
        <ele>3284.96</ele>
        <time>2015-06-07T09:42:00Z</time>
      </trkpt>
      <trkpt lat="45.494819451123476" lon="7.063789973035455">
        <ele>3285.4400000000001</ele>
        <time>2015-06-07T09:42:11Z</time>
      </trkpt>
      <trkpt lat="45.494848201051354" lon="7.063807910308242">
        <ele>3285.4400000000001</ele>
        <time>2015-06-07T09:42:28Z</time>
      </trkpt>
      <trkpt lat="45.494853900745511" lon="7.063814029097557">
        <ele>3285.4400000000001</ele>
        <time>2015-06-07T09:42:34Z</time>
      </trkpt>
      <trkpt lat="45.494858091697097" lon="7.063833558931947">
        <ele>3286.4000000000001</ele>
        <time>2015-06-07T09:42:47Z</time>
      </trkpt>
      <trkpt lat="45.494859013706446" lon="7.063819393515587">
        <ele>3286.8899999999999</ele>
        <time>2015-06-07T09:42:58Z</time>
      </trkpt>
      <trkpt lat="45.494855074211955" lon="7.063829367980361">
        <ele>3287.8499999999999</ele>
        <time>2015-06-07T09:43:08Z</time>
      </trkpt>
      <trkpt lat="45.494849123060703" lon="7.063826685771346">
        <ele>3288.3299999999999</ele>
        <time>2015-06-07T09:43:15Z</time>
      </trkpt>
      <trkpt lat="45.494848703965545" lon="7.063837079331279">
        <ele>3289.29</ele>
        <time>2015-06-07T09:43:22Z</time>
      </trkpt>
      <trkpt lat="45.494855660945177" lon="7.063835151493549">
        <ele>3289.29</ele>
        <time>2015-06-07T09:43:35Z</time>
      </trkpt>
      <trkpt lat="45.494847781956196" lon="7.063853340223432">
        <ele>3289.77</ele>
        <time>2015-06-07T09:43:43Z</time>
      </trkpt>
      <trkpt lat="45.494845015928149" lon="7.063858453184366">
        <ele>3289.77</ele>
        <time>2015-06-07T09:43:55Z</time>
      </trkpt>
      <trkpt lat="45.494835628196597" lon="7.063854262232781">
        <ele>3290.25</ele>
        <time>2015-06-07T09:44:04Z</time>
      </trkpt>
      <trkpt lat="45.494820708408952" lon="7.063859794288874">
        <ele>3291.21</ele>
        <time>2015-06-07T09:44:19Z</time>
      </trkpt>
      <trkpt lat="45.494797574356198" lon="7.063852166756988">
        <ele>3291.6900000000001</ele>
        <time>2015-06-07T09:44:26Z</time>
      </trkpt>
      <trkpt lat="45.494806123897433" lon="7.063859710469842">
        <ele>3292.1700000000001</ele>
        <time>2015-06-07T09:44:36Z</time>
      </trkpt>
      <trkpt lat="45.494800927117467" lon="7.063855435699225">
        <ele>3292.1700000000001</ele>
        <time>2015-06-07T09:44:46Z</time>
      </trkpt>
      <trkpt lat="45.494801681488752" lon="7.063878821209073">
        <ele>3292.6500000000001</ele>
        <time>2015-06-07T09:44:53Z</time>
      </trkpt>
      <trkpt lat="45.494799753651023" lon="7.063891058787704">
        <ele>3293.6100000000001</ele>
        <time>2015-06-07T09:45:01Z</time>
      </trkpt>
      <trkpt lat="45.494794640690088" lon="7.063879743218422">
        <ele>3294.0900000000001</ele>
        <time>2015-06-07T09:45:10Z</time>
      </trkpt>
      <trkpt lat="45.49480008892715" lon="7.063881503418088">
        <ele>3294.5799999999999</ele>
        <time>2015-06-07T09:45:23Z</time>
      </trkpt>
      <trkpt lat="45.494790198281407" lon="7.063898015767336">
        <ele>3294.0900000000001</ele>
        <time>2015-06-07T09:45:40Z</time>
      </trkpt>
      <trkpt lat="45.494785588234663" lon="7.063885275274515">
        <ele>3294.0900000000001</ele>
        <time>2015-06-07T09:45:50Z</time>
      </trkpt>
      <trkpt lat="45.494772847741842" lon="7.063895920291543">
        <ele>3295.0599999999999</ele>
        <time>2015-06-07T09:46:02Z</time>
      </trkpt>
      <trkpt lat="45.494766226038337" lon="7.063906565308571">
        <ele>3295.54</ele>
        <time>2015-06-07T09:46:12Z</time>
      </trkpt>
      <trkpt lat="45.49476589076221" lon="7.063920227810741">
        <ele>3295.54</ele>
        <time>2015-06-07T09:46:20Z</time>
      </trkpt>
      <trkpt lat="45.494770165532827" lon="7.063924167305231">
        <ele>3295.54</ele>
        <time>2015-06-07T09:46:39Z</time>
      </trkpt>
      <trkpt lat="45.494763208553195" lon="7.063935063779354">
        <ele>3296.02</ele>
        <time>2015-06-07T09:46:49Z</time>
      </trkpt>
      <trkpt lat="45.494759269058704" lon="7.063909331336618">
        <ele>3296.5</ele>
        <time>2015-06-07T09:47:04Z</time>
      </trkpt>
      <trkpt lat="45.49476689659059" lon="7.063917461782694">
        <ele>3296.5</ele>
        <time>2015-06-07T09:47:19Z</time>
      </trkpt>
      <trkpt lat="45.494744265452027" lon="7.063921149820089">
        <ele>3296.98</ele>
        <time>2015-06-07T09:47:28Z</time>
      </trkpt>
      <trkpt lat="45.494754323735833" lon="7.063957862555981">
        <ele>3297.9400000000001</ele>
        <time>2015-06-07T09:47:35Z</time>
      </trkpt>
      <trkpt lat="45.49473806284368" lon="7.063948726281524">
        <ele>3298.4200000000001</ele>
        <time>2015-06-07T09:47:41Z</time>
      </trkpt>
      <trkpt lat="45.494755078107119" lon="7.06397881731391">
        <ele>3299.3800000000001</ele>
        <time>2015-06-07T09:47:49Z</time>
      </trkpt>
      <trkpt lat="45.494750970974565" lon="7.06393875181675">
        <ele>3299.3800000000001</ele>
        <time>2015-06-07T09:47:59Z</time>
      </trkpt>
      <trkpt lat="45.494743008166552" lon="7.063967082649469">
        <ele>3299.8600000000001</ele>
        <time>2015-06-07T09:48:07Z</time>
      </trkpt>
      <trkpt lat="45.494742253795266" lon="7.063970016315579">
        <ele>3299.8600000000001</ele>
        <time>2015-06-07T09:48:17Z</time>
      </trkpt>
      <trkpt lat="45.494749210774899" lon="7.063985522836447">
        <ele>3300.8200000000002</ele>
        <time>2015-06-07T09:48:24Z</time>
      </trkpt>
      <trkpt lat="45.494725573807955" lon="7.063986528664827">
        <ele>3301.3000000000002</ele>
        <time>2015-06-07T09:48:36Z</time>
      </trkpt>
      <trkpt lat="45.494751390069723" lon="7.064025336876512">
        <ele>3301.79</ele>
        <time>2015-06-07T09:48:44Z</time>
      </trkpt>
      <trkpt lat="45.494774105027318" lon="7.064037909731269">
        <ele>3302.27</ele>
        <time>2015-06-07T09:48:58Z</time>
      </trkpt>
      <trkpt lat="45.494759269058704" lon="7.064038077369332">
        <ele>3302.27</ele>
        <time>2015-06-07T09:49:15Z</time>
      </trkpt>
      <trkpt lat="45.494752982631326" lon="7.064043106511235">
        <ele>3302.27</ele>
        <time>2015-06-07T09:49:31Z</time>
      </trkpt>
      <trkpt lat="45.494731944054365" lon="7.064028605818749">
        <ele>3302.27</ele>
        <time>2015-06-07T09:49:47Z</time>
      </trkpt>
      <trkpt lat="45.494739906862378" lon="7.064020475372672">
        <ele>3302.75</ele>
        <time>2015-06-07T09:49:56Z</time>
      </trkpt>
      <trkpt lat="45.494724232703447" lon="7.064015110954642">
        <ele>3303.71</ele>
        <time>2015-06-07T09:50:05Z</time>
      </trkpt>
      <trkpt lat="45.494732698425651" lon="7.064040005207062">
        <ele>3304.6700000000001</ele>
        <time>2015-06-07T09:50:13Z</time>
      </trkpt>
      <trkpt lat="45.494733871892095" lon="7.064036233350635">
        <ele>3304.6700000000001</ele>
        <time>2015-06-07T09:50:21Z</time>
      </trkpt>
      <trkpt lat="45.494731441140175" lon="7.064048806205392">
        <ele>3305.1500000000001</ele>
        <time>2015-06-07T09:50:30Z</time>
      </trkpt>
      <trkpt lat="45.494734207168221" lon="7.064060037955642">
        <ele>3305.6300000000001</ele>
        <time>2015-06-07T09:50:41Z</time>
      </trkpt>
      <trkpt lat="45.494736135005951" lon="7.064056852832437">
        <ele>3306.1100000000001</ele>
        <time>2015-06-07T09:50:49Z</time>
      </trkpt>
      <trkpt lat="45.494726914912462" lon="7.064048973843455">
        <ele>3306.5900000000001</ele>
        <time>2015-06-07T09:50:56Z</time>
      </trkpt>
      <trkpt lat="45.494743594899774" lon="7.064060289412737">
        <ele>3307.0700000000002</ele>
        <time>2015-06-07T09:51:07Z</time>
      </trkpt>
      <trkpt lat="45.49472875893116" lon="7.0640604570508">
        <ele>3308.0300000000002</ele>
        <time>2015-06-07T09:51:20Z</time>
      </trkpt>
      <trkpt lat="45.494741834700108" lon="7.06404285505414">
        <ele>3307.5500000000002</ele>
        <time>2015-06-07T09:51:43Z</time>
      </trkpt>
      <trkpt lat="45.494770752266049" lon="7.064037071540952">
        <ele>3308.0300000000002</ele>
        <time>2015-06-07T09:51:51Z</time>
      </trkpt>
      <trkpt lat="45.49478055909276" lon="7.064058277755976">
        <ele>3308.5100000000002</ele>
        <time>2015-06-07T09:52:00Z</time>
      </trkpt>
      <trkpt lat="45.49476882442832" lon="7.064050314947963">
        <ele>3309</ele>
        <time>2015-06-07T09:52:13Z</time>
      </trkpt>
      <trkpt lat="45.494773769751191" lon="7.064078478142619">
        <ele>3309</ele>
        <time>2015-06-07T09:52:28Z</time>
      </trkpt>
      <trkpt lat="45.494790282100439" lon="7.064074203372002">
        <ele>3309.48</ele>
        <time>2015-06-07T09:52:38Z</time>
      </trkpt>
      <trkpt lat="45.494778295978904" lon="7.064036568626761">
        <ele>3309.48</ele>
        <time>2015-06-07T09:52:59Z</time>
      </trkpt>
      <trkpt lat="45.494766142219305" lon="7.064038412645459">
        <ele>3309.96</ele>
        <time>2015-06-07T09:53:09Z</time>
      </trkpt>
      <trkpt lat="45.494790114462376" lon="7.064015613868833">
        <ele>3310.9200000000001</ele>
        <time>2015-06-07T09:53:33Z</time>
      </trkpt>
      <trkpt lat="45.494783911854029" lon="7.064000442624092">
        <ele>3311.4000000000001</ele>
        <time>2015-06-07T09:53:42Z</time>
      </trkpt>
      <trkpt lat="45.494801932945848" lon="7.064043693244457">
        <ele>3312.3600000000001</ele>
        <time>2015-06-07T09:53:51Z</time>
      </trkpt>
      <trkpt lat="45.49480302259326" lon="7.064050231128931">
        <ele>3312.3600000000001</ele>
        <time>2015-06-07T09:54:00Z</time>
      </trkpt>
      <trkpt lat="45.494796819984913" lon="7.064081998541951">
        <ele>3313.3200000000002</ele>
        <time>2015-06-07T09:54:08Z</time>
      </trkpt>
      <trkpt lat="45.494785252958536" lon="7.06406531855464">
        <ele>3313.3200000000002</ele>
        <time>2015-06-07T09:54:16Z</time>
      </trkpt>
      <trkpt lat="45.494792545214295" lon="7.064098427072167">
        <ele>3313.3200000000002</ele>
        <time>2015-06-07T09:54:27Z</time>
      </trkpt>
      <trkpt lat="45.494789779186249" lon="7.064096080139279">
        <ele>3314.2800000000002</ele>
        <time>2015-06-07T09:54:37Z</time>
      </trkpt>
      <trkpt lat="45.494803693145514" lon="7.064084010198712">
        <ele>3315.2399999999998</ele>
        <time>2015-06-07T09:54:57Z</time>
      </trkpt>
      <trkpt lat="45.494782235473394" lon="7.064070431515575">
        <ele>3315.2399999999998</ele>
        <time>2015-06-07T09:55:04Z</time>
      </trkpt>
      <trkpt lat="45.494777373969555" lon="7.064090128988028">
        <ele>3315.7199999999998</ele>
        <time>2015-06-07T09:55:16Z</time>
      </trkpt>
      <trkpt lat="45.49478692933917" lon="7.064091973006725">
        <ele>3315.7199999999998</ele>
        <time>2015-06-07T09:55:24Z</time>
      </trkpt>
      <trkpt lat="45.494789276272058" lon="7.064096163958311">
        <ele>3317.6500000000001</ele>
        <time>2015-06-07T09:55:28Z</time>
      </trkpt>
      <trkpt lat="45.494788689538836" lon="7.064103623852134">
        <ele>3316.21</ele>
        <time>2015-06-07T09:55:37Z</time>
      </trkpt>
      <trkpt lat="45.494776200503111" lon="7.064083255827427">
        <ele>3316.6900000000001</ele>
        <time>2015-06-07T09:55:53Z</time>
      </trkpt>
      <trkpt lat="45.494764382019639" lon="7.06408535130322">
        <ele>3317.1700000000001</ele>
        <time>2015-06-07T09:56:02Z</time>
      </trkpt>
      <trkpt lat="45.494755497202277" lon="7.064093733206391">
        <ele>3317.1700000000001</ele>
        <time>2015-06-07T09:56:14Z</time>
      </trkpt>
      <trkpt lat="45.494759436696768" lon="7.064069844782352">
        <ele>3317.1700000000001</ele>
        <time>2015-06-07T09:56:35Z</time>
      </trkpt>
      <trkpt lat="45.494777373969555" lon="7.064057942479849">
        <ele>3317.1700000000001</ele>
        <time>2015-06-07T09:56:52Z</time>
      </trkpt>
      <trkpt lat="45.494750887155533" lon="7.064065989106894">
        <ele>3317.6500000000001</ele>
        <time>2015-06-07T09:57:11Z</time>
      </trkpt>
      <trkpt lat="45.49474929459393" lon="7.064092140644789">
        <ele>3319.0900000000001</ele>
        <time>2015-06-07T09:57:19Z</time>
      </trkpt>
      <trkpt lat="45.494751138612628" lon="7.064075544476509">
        <ele>3319.5700000000002</ele>
        <time>2015-06-07T09:57:27Z</time>
      </trkpt>
      <trkpt lat="45.494749713689089" lon="7.064097840338945">
        <ele>3319.5700000000002</ele>
        <time>2015-06-07T09:57:44Z</time>
      </trkpt>
      <trkpt lat="45.494754910469055" lon="7.064094990491867">
        <ele>3320.0500000000002</ele>
        <time>2015-06-07T09:58:00Z</time>
      </trkpt>
      <trkpt lat="45.494755245745182" lon="7.06413078121841">
        <ele>3320.5300000000002</ele>
        <time>2015-06-07T09:58:13Z</time>
      </trkpt>
      <trkpt lat="45.494776787236333" lon="7.06412885338068">
        <ele>3321.0100000000002</ele>
        <time>2015-06-07T09:58:28Z</time>
      </trkpt>
      <trkpt lat="45.494762286543846" lon="7.064143605530262">
        <ele>3321.4899999999998</ele>
        <time>2015-06-07T09:58:39Z</time>
      </trkpt>
      <trkpt lat="45.494762370362878" lon="7.064144695177674">
        <ele>3321.9699999999998</ele>
        <time>2015-06-07T09:58:47Z</time>
      </trkpt>
      <trkpt lat="45.494762873277068" lon="7.064155004918575">
        <ele>3322.4499999999998</ele>
        <time>2015-06-07T09:58:57Z</time>
      </trkpt>
      <trkpt lat="45.494765555486083" lon="7.0641537476331">
        <ele>3322.9299999999998</ele>
        <time>2015-06-07T09:59:05Z</time>
      </trkpt>
      <trkpt lat="45.49475809559226" lon="7.064180318266153">
        <ele>3323.4200000000001</ele>
        <time>2015-06-07T09:59:18Z</time>
      </trkpt>
      <trkpt lat="45.49475415609777" lon="7.064178558066487">
        <ele>3323.9000000000001</ele>
        <time>2015-06-07T09:59:28Z</time>
      </trkpt>
      <trkpt lat="45.494760945439339" lon="7.064187275245786">
        <ele>3324.3800000000001</ele>
        <time>2015-06-07T09:59:40Z</time>
      </trkpt>
      <trkpt lat="45.494741331785917" lon="7.064176630228758">
        <ele>3324.8600000000001</ele>
        <time>2015-06-07T09:59:49Z</time>
      </trkpt>
      <trkpt lat="45.494745019823313" lon="7.064192723482847">
        <ele>3324.8600000000001</ele>
        <time>2015-06-07T09:59:58Z</time>
      </trkpt>
      <trkpt lat="45.494765220209956" lon="7.064198758453131">
        <ele>3325.8200000000002</ele>
        <time>2015-06-07T10:00:15Z</time>
      </trkpt>
      <trkpt lat="45.494754407554865" lon="7.064218204468489">
        <ele>3326.7800000000002</ele>
        <time>2015-06-07T10:00:25Z</time>
      </trkpt>
      <trkpt lat="45.494744433090091" lon="7.064241673797369">
        <ele>3326.7800000000002</ele>
        <time>2015-06-07T10:00:31Z</time>
      </trkpt>
      <trkpt lat="45.494732279330492" lon="7.064237985759974">
        <ele>3327.7399999999998</ele>
        <time>2015-06-07T10:00:42Z</time>
      </trkpt>
      <trkpt lat="45.494747785851359" lon="7.064247708767653">
        <ele>3327.7399999999998</ele>
        <time>2015-06-07T10:00:57Z</time>
      </trkpt>
      <trkpt lat="45.494748372584581" lon="7.064235722646117">
        <ele>3328.6999999999998</ele>
        <time>2015-06-07T10:01:10Z</time>
      </trkpt>
      <trkpt lat="45.494740912690759" lon="7.064246451482177">
        <ele>3330.1399999999999</ele>
        <time>2015-06-07T10:01:18Z</time>
      </trkpt>
      <trkpt lat="45.494723645970225" lon="7.064252570271492">
        <ele>3329.6599999999999</ele>
        <time>2015-06-07T10:01:28Z</time>
      </trkpt>
      <trkpt lat="45.494716688990593" lon="7.064211498945952">
        <ele>3329.6599999999999</ele>
        <time>2015-06-07T10:01:42Z</time>
      </trkpt>
      <trkpt lat="45.494716186076403" lon="7.064215857535601">
        <ele>3330.1399999999999</ele>
        <time>2015-06-07T10:01:59Z</time>
      </trkpt>
      <trkpt lat="45.494720125570893" lon="7.064224658533931">
        <ele>3331.1100000000001</ele>
        <time>2015-06-07T10:02:17Z</time>
      </trkpt>
      <trkpt lat="45.494736470282078" lon="7.064246870577335">
        <ele>3331.5900000000001</ele>
        <time>2015-06-07T10:02:27Z</time>
      </trkpt>
      <trkpt lat="45.49474292434752" lon="7.064262125641108">
        <ele>3332.0700000000002</ele>
        <time>2015-06-07T10:02:44Z</time>
      </trkpt>
      <trkpt lat="45.494729178026319" lon="7.064265562221408">
        <ele>3332.0700000000002</ele>
        <time>2015-06-07T10:02:57Z</time>
      </trkpt>
      <trkpt lat="45.494728339836001" lon="7.064271010458469">
        <ele>3332.5500000000002</ele>
        <time>2015-06-07T10:03:11Z</time>
      </trkpt>
      <trkpt lat="45.494729932397604" lon="7.064257599413395">
        <ele>3333.5100000000002</ele>
        <time>2015-06-07T10:03:21Z</time>
      </trkpt>
      <trkpt lat="45.49473755992949" lon="7.06425198353827">
        <ele>3335.4299999999998</ele>
        <time>2015-06-07T10:03:33Z</time>
      </trkpt>
      <trkpt lat="45.494752814993262" lon="7.064288444817066">
        <ele>3334.4699999999998</ele>
        <time>2015-06-07T10:03:50Z</time>
      </trkpt>
      <trkpt lat="45.494754575192928" lon="7.064294312149286">
        <ele>3334.9499999999998</ele>
        <time>2015-06-07T10:03:56Z</time>
      </trkpt>
      <trkpt lat="45.494741247966886" lon="7.064311662688851">
        <ele>3335.4299999999998</ele>
        <time>2015-06-07T10:04:04Z</time>
      </trkpt>
      <trkpt lat="45.494732027873397" lon="7.064291378483176">
        <ele>3334.9499999999998</ele>
        <time>2015-06-07T10:04:14Z</time>
      </trkpt>
      <trkpt lat="45.494713168591261" lon="7.064297832548618">
        <ele>3336.3899999999999</ele>
        <time>2015-06-07T10:04:23Z</time>
      </trkpt>
      <trkpt lat="45.494707133620977" lon="7.064299341291189">
        <ele>3336.8699999999999</ele>
        <time>2015-06-07T10:04:30Z</time>
      </trkpt>
      <trkpt lat="45.49471165984869" lon="7.06431794911623">
        <ele>3336.8699999999999</ele>
        <time>2015-06-07T10:04:43Z</time>
      </trkpt>
      <trkpt lat="45.494723562151194" lon="7.064299676567316">
        <ele>3337.3499999999999</ele>
        <time>2015-06-07T10:04:56Z</time>
      </trkpt>
      <trkpt lat="45.494713000953197" lon="7.064277548342943">
        <ele>3337.3499999999999</ele>
        <time>2015-06-07T10:05:07Z</time>
      </trkpt>
      <trkpt lat="45.49471165984869" lon="7.06428861245513">
        <ele>3338.3200000000002</ele>
        <time>2015-06-07T10:05:17Z</time>
      </trkpt>
      <trkpt lat="45.494695650413632" lon="7.064285008236766">
        <ele>3339.2800000000002</ele>
        <time>2015-06-07T10:05:27Z</time>
      </trkpt>
      <trkpt lat="45.494693974032998" lon="7.064302442595363">
        <ele>3338.8000000000002</ele>
        <time>2015-06-07T10:05:33Z</time>
      </trkpt>
      <trkpt lat="45.494696069508791" lon="7.064301017671824">
        <ele>3340.2399999999998</ele>
        <time>2015-06-07T10:05:34Z</time>
      </trkpt>
      <trkpt lat="45.494680227711797" lon="7.064319206401706">
        <ele>3339.7600000000002</ele>
        <time>2015-06-07T10:05:42Z</time>
      </trkpt>
      <trkpt lat="45.494681652635336" lon="7.064327755942941">
        <ele>3339.7600000000002</ele>
        <time>2015-06-07T10:06:01Z</time>
      </trkpt>
      <trkpt lat="45.494694393128157" lon="7.064319625496864">
        <ele>3339.7600000000002</ele>
        <time>2015-06-07T10:06:09Z</time>
      </trkpt>
      <trkpt lat="45.494674695655704" lon="7.064339658245444">
        <ele>3340.7199999999998</ele>
        <time>2015-06-07T10:06:15Z</time>
      </trkpt>
      <trkpt lat="45.494657848030329" lon="7.064353823661804">
        <ele>3340.2399999999998</ele>
        <time>2015-06-07T10:06:21Z</time>
      </trkpt>
      <trkpt lat="45.494651813060045" lon="7.0643609482795">
        <ele>3341.1999999999998</ele>
        <time>2015-06-07T10:06:30Z</time>
      </trkpt>
      <trkpt lat="45.494648041203618" lon="7.064396236091852">
        <ele>3341.1999999999998</ele>
        <time>2015-06-07T10:06:42Z</time>
      </trkpt>
      <trkpt lat="45.494673941284418" lon="7.064434206113219">
        <ele>3342.1599999999999</ele>
        <time>2015-06-07T10:06:54Z</time>
      </trkpt>
      <trkpt lat="45.494670672342181" lon="7.064429009333253">
        <ele>3343.5999999999999</ele>
        <time>2015-06-07T10:07:03Z</time>
      </trkpt>
      <trkpt lat="45.494671678170562" lon="7.064438983798027">
        <ele>3343.5999999999999</ele>
        <time>2015-06-07T10:07:17Z</time>
      </trkpt>
      <trkpt lat="45.494678467512131" lon="7.064446108415723">
        <ele>3344.0799999999999</ele>
        <time>2015-06-07T10:07:26Z</time>
      </trkpt>
      <trkpt lat="45.494683831930161" lon="7.06446404568851">
        <ele>3346.0100000000002</ele>
        <time>2015-06-07T10:07:35Z</time>
      </trkpt>
      <trkpt lat="45.494680982083082" lon="7.064466224983335">
        <ele>3346.0100000000002</ele>
        <time>2015-06-07T10:07:46Z</time>
      </trkpt>
      <trkpt lat="45.494673270732164" lon="7.064471170306206">
        <ele>3345.52</ele>
        <time>2015-06-07T10:07:57Z</time>
      </trkpt>
      <trkpt lat="45.494674779474735" lon="7.064477875828743">
        <ele>3346.4899999999998</ele>
        <time>2015-06-07T10:08:11Z</time>
      </trkpt>
      <trkpt lat="45.494671342894435" lon="7.06448650918901">
        <ele>3346.9699999999998</ele>
        <time>2015-06-07T10:08:20Z</time>
      </trkpt>
      <trkpt lat="45.494681987911463" lon="7.064503943547607">
        <ele>3347.4499999999998</ele>
        <time>2015-06-07T10:08:29Z</time>
      </trkpt>
      <trkpt lat="45.494683580473065" lon="7.064529173076153">
        <ele>3348.4099999999999</ele>
        <time>2015-06-07T10:08:43Z</time>
      </trkpt>
      <trkpt lat="45.494694141671062" lon="7.064523976296186">
        <ele>3348.8899999999999</ele>
        <time>2015-06-07T10:08:58Z</time>
      </trkpt>
      <trkpt lat="45.494691208004951" lon="7.064546942710877">
        <ele>3349.8499999999999</ele>
        <time>2015-06-07T10:09:06Z</time>
      </trkpt>
      <trkpt lat="45.49468039534986" lon="7.064542751759291">
        <ele>3350.3299999999999</ele>
        <time>2015-06-07T10:09:14Z</time>
      </trkpt>
      <trkpt lat="45.494680479168892" lon="7.064569238573313">
        <ele>3351.77</ele>
        <time>2015-06-07T10:09:24Z</time>
      </trkpt>
      <trkpt lat="45.494676288217306" lon="7.064579799771309">
        <ele>3351.77</ele>
        <time>2015-06-07T10:09:27Z</time>
      </trkpt>
      <trkpt lat="45.494667403399944" lon="7.064594887197018">
        <ele>3352.25</ele>
        <time>2015-06-07T10:09:34Z</time>
      </trkpt>
      <trkpt lat="45.49466036260128" lon="7.064579799771309">
        <ele>3353.6999999999998</ele>
        <time>2015-06-07T10:09:43Z</time>
      </trkpt>
      <trkpt lat="45.494658434763551" lon="7.064601592719555">
        <ele>3354.1799999999998</ele>
        <time>2015-06-07T10:09:55Z</time>
      </trkpt>
      <trkpt lat="45.494665810838342" lon="7.064652722328901">
        <ele>3354.6599999999999</ele>
        <time>2015-06-07T10:10:01Z</time>
      </trkpt>
      <trkpt lat="45.494674863293767" lon="7.064664624631405">
        <ele>3355.1399999999999</ele>
        <time>2015-06-07T10:10:09Z</time>
      </trkpt>
      <trkpt lat="45.494670085608959" lon="7.064653811976314">
        <ele>3356.0999999999999</ele>
        <time>2015-06-07T10:10:16Z</time>
      </trkpt>
      <trkpt lat="45.494666984304786" lon="7.064634282141924">
        <ele>3356.0999999999999</ele>
        <time>2015-06-07T10:10:29Z</time>
      </trkpt>
      <trkpt lat="45.49467796459794" lon="7.06465314142406">
        <ele>3357.0599999999999</ele>
        <time>2015-06-07T10:10:44Z</time>
      </trkpt>
      <trkpt lat="45.494673270732164" lon="7.064663115888834">
        <ele>3358.02</ele>
        <time>2015-06-07T10:10:52Z</time>
      </trkpt>
      <trkpt lat="45.494667822495103" lon="7.064664540812373">
        <ele>3358.5</ele>
        <time>2015-06-07T10:11:01Z</time>
      </trkpt>
      <trkpt lat="45.494670169427991" lon="7.064695470035076">
        <ele>3358.98</ele>
        <time>2015-06-07T10:11:11Z</time>
      </trkpt>
      <trkpt lat="45.494670085608959" lon="7.064700834453106">
        <ele>3359.46</ele>
        <time>2015-06-07T10:11:18Z</time>
      </trkpt>
      <trkpt lat="45.494667487218976" lon="7.064707539975643">
        <ele>3359.46</ele>
        <time>2015-06-07T10:11:25Z</time>
      </trkpt>
      <trkpt lat="45.494672264903784" lon="7.064696978777647">
        <ele>3359.9499999999998</ele>
        <time>2015-06-07T10:11:40Z</time>
      </trkpt>
      <trkpt lat="45.494669331237674" lon="7.064707707613707">
        <ele>3360.9099999999999</ele>
        <time>2015-06-07T10:11:49Z</time>
      </trkpt>
      <trkpt lat="45.494673103094101" lon="7.064725225791335">
        <ele>3360.9099999999999</ele>
        <time>2015-06-07T10:11:59Z</time>
      </trkpt>
      <trkpt lat="45.494679557159543" lon="7.064745845273137">
        <ele>3361.8699999999999</ele>
        <time>2015-06-07T10:12:06Z</time>
      </trkpt>
      <trkpt lat="45.494683831930161" lon="7.064746180549264">
        <ele>3362.3499999999999</ele>
        <time>2015-06-07T10:12:13Z</time>
      </trkpt>
      <trkpt lat="45.494673773646355" lon="7.064761184155941">
        <ele>3362.8299999999999</ele>
        <time>2015-06-07T10:12:22Z</time>
      </trkpt>
      <trkpt lat="45.49465985968709" lon="7.064757496118546">
        <ele>3362.8299999999999</ele>
        <time>2015-06-07T10:12:33Z</time>
      </trkpt>
      <trkpt lat="45.494662541896105" lon="7.06477870233357">
        <ele>3363.79</ele>
        <time>2015-06-07T10:12:44Z</time>
      </trkpt>
      <trkpt lat="45.494661955162883" lon="7.064787335693836">
        <ele>3364.75</ele>
        <time>2015-06-07T10:12:52Z</time>
      </trkpt>
      <trkpt lat="45.494672181084752" lon="7.064841063693166">
        <ele>3365.23</ele>
        <time>2015-06-07T10:13:01Z</time>
      </trkpt>
      <trkpt lat="45.494668576866388" lon="7.064846428111196">
        <ele>3365.71</ele>
        <time>2015-06-07T10:13:11Z</time>
      </trkpt>
      <trkpt lat="45.494671929627657" lon="7.064873334020376">
        <ele>3366.6700000000001</ele>
        <time>2015-06-07T10:13:29Z</time>
      </trkpt>
      <trkpt lat="45.494658602401614" lon="7.064884146675468">
        <ele>3368.5999999999999</ele>
        <time>2015-06-07T10:13:38Z</time>
      </trkpt>
      <trkpt lat="45.494658853858709" lon="7.06488573923707">
        <ele>3369.0799999999999</ele>
        <time>2015-06-07T10:13:46Z</time>
      </trkpt>
      <trkpt lat="45.494654076173902" lon="7.064893115311861">
        <ele>3369.0799999999999</ele>
        <time>2015-06-07T10:13:55Z</time>
      </trkpt>
      <trkpt lat="45.494656758382916" lon="7.064915830269456">
        <ele>3369.0799999999999</ele>
        <time>2015-06-07T10:14:02Z</time>
      </trkpt>
      <trkpt lat="45.494641754776239" lon="7.064913064241409">
        <ele>3370.04</ele>
        <time>2015-06-07T10:14:12Z</time>
      </trkpt>
      <trkpt lat="45.494630103930831" lon="7.064886577427387">
        <ele>3370.04</ele>
        <time>2015-06-07T10:14:27Z</time>
      </trkpt>
      <trkpt lat="45.494648963212967" lon="7.064895210787654">
        <ele>3370.04</ele>
        <time>2015-06-07T10:14:43Z</time>
      </trkpt>
      <trkpt lat="45.494653070345521" lon="7.0649204403162">
        <ele>3371.48</ele>
        <time>2015-06-07T10:14:51Z</time>
      </trkpt>
      <trkpt lat="45.494670588523149" lon="7.064940724521875">
        <ele>3371.96</ele>
        <time>2015-06-07T10:15:03Z</time>
      </trkpt>
      <trkpt lat="45.494665894657373" lon="7.064944496378303">
        <ele>3371.96</ele>
        <time>2015-06-07T10:15:15Z</time>
      </trkpt>
      <trkpt lat="45.49466815777123" lon="7.064933348447084">
        <ele>3371.96</ele>
        <time>2015-06-07T10:15:27Z</time>
      </trkpt>
      <trkpt lat="45.494656339287758" lon="7.064951285719872">
        <ele>3372.4400000000001</ele>
        <time>2015-06-07T10:15:35Z</time>
      </trkpt>
      <trkpt lat="45.494637312367558" lon="7.06498053856194">
        <ele>3373.4000000000001</ele>
        <time>2015-06-07T10:15:44Z</time>
      </trkpt>
      <trkpt lat="45.494642844423652" lon="7.064978191629052">
        <ele>3372.9200000000001</ele>
        <time>2015-06-07T10:15:53Z</time>
      </trkpt>
      <trkpt lat="45.494636474177241" lon="7.064978694543243">
        <ele>3373.4000000000001</ele>
        <time>2015-06-07T10:16:02Z</time>
      </trkpt>
      <trkpt lat="45.494644856080413" lon="7.064975090324879">
        <ele>3373.8800000000001</ele>
        <time>2015-06-07T10:16:10Z</time>
      </trkpt>
      <trkpt lat="45.494640581309795" lon="7.064976347610354">
        <ele>3373.8800000000001</ele>
        <time>2015-06-07T10:16:18Z</time>
      </trkpt>
      <trkpt lat="45.494638653472066" lon="7.064994871616364">
        <ele>3374.8499999999999</ele>
        <time>2015-06-07T10:16:27Z</time>
      </trkpt>
      <trkpt lat="45.494632534682751" lon="7.065010545775294">
        <ele>3376.29</ele>
        <time>2015-06-07T10:16:35Z</time>
      </trkpt>
      <trkpt lat="45.494620045647025" lon="7.065012808889151">
        <ele>3376.29</ele>
        <time>2015-06-07T10:16:44Z</time>
      </trkpt>
      <trkpt lat="45.494621889665723" lon="7.065020855516195">
        <ele>3377.25</ele>
        <time>2015-06-07T10:16:56Z</time>
      </trkpt>
      <trkpt lat="45.494624907150865" lon="7.06504943780601">
        <ele>3377.73</ele>
        <time>2015-06-07T10:17:06Z</time>
      </trkpt>
      <trkpt lat="45.494615603238344" lon="7.065074164420366">
        <ele>3378.21</ele>
        <time>2015-06-07T10:17:16Z</time>
      </trkpt>
      <trkpt lat="45.494622476398945" lon="7.065095202997327">
        <ele>3378.6900000000001</ele>
        <time>2015-06-07T10:17:27Z</time>
      </trkpt>
      <trkpt lat="45.494621219113469" lon="7.065109452232719">
        <ele>3379.1700000000001</ele>
        <time>2015-06-07T10:17:37Z</time>
      </trkpt>
      <trkpt lat="45.494631696492434" lon="7.065148008987308">
        <ele>3380.6100000000001</ele>
        <time>2015-06-07T10:17:45Z</time>
      </trkpt>
      <trkpt lat="45.49463789910078" lon="7.065156474709511">
        <ele>3380.6100000000001</ele>
        <time>2015-06-07T10:17:54Z</time>
      </trkpt>
      <trkpt lat="45.494633875787258" lon="7.065171813592315">
        <ele>3380.6100000000001</ele>
        <time>2015-06-07T10:18:09Z</time>
      </trkpt>
      <trkpt lat="45.494628427550197" lon="7.065159324556589">
        <ele>3381.0900000000001</ele>
        <time>2015-06-07T10:18:19Z</time>
      </trkpt>
      <trkpt lat="45.494636725634336" lon="7.065153038129211">
        <ele>3381.0900000000001</ele>
        <time>2015-06-07T10:18:32Z</time>
      </trkpt>
      <trkpt lat="45.49463739618659" lon="7.065155301243067">
        <ele>3381.0900000000001</ele>
        <time>2015-06-07T10:18:49Z</time>
      </trkpt>
      <trkpt lat="45.494639072567225" lon="7.065145326778293">
        <ele>3380.6100000000001</ele>
        <time>2015-06-07T10:19:00Z</time>
      </trkpt>
      <trkpt lat="45.494628762826324" lon="7.065150775015354">
        <ele>3380.6100000000001</ele>
        <time>2015-06-07T10:19:11Z</time>
      </trkpt>
      <trkpt lat="45.494641754776239" lon="7.065157731994987">
        <ele>3380.1300000000001</ele>
        <time>2015-06-07T10:19:19Z</time>
      </trkpt>
      <trkpt lat="45.494652483612299" lon="7.065123030915856">
        <ele>3379.1700000000001</ele>
        <time>2015-06-07T10:19:37Z</time>
      </trkpt>
      <trkpt lat="45.49466036260128" lon="7.065121354535222">
        <ele>3380.6100000000001</ele>
        <time>2015-06-07T10:20:06Z</time>
      </trkpt>
      <trkpt lat="45.494688861072063" lon="7.065119007602334">
        <ele>3379.6500000000001</ele>
        <time>2015-06-07T10:20:25Z</time>
      </trkpt>
      <trkpt lat="45.494686178863049" lon="7.065130993723869">
        <ele>3379.1700000000001</ele>
        <time>2015-06-07T10:20:51Z</time>
      </trkpt>
      <trkpt lat="45.494675617665052" lon="7.06513250246644">
        <ele>3379.6500000000001</ele>
        <time>2015-06-07T10:21:16Z</time>
      </trkpt>
      <trkpt lat="45.494695231318474" lon="7.065121522173286">
        <ele>3379.6500000000001</ele>
        <time>2015-06-07T10:21:39Z</time>
      </trkpt>
      <trkpt lat="45.494694812223315" lon="7.065128060057759">
        <ele>3380.1300000000001</ele>
        <time>2015-06-07T10:21:59Z</time>
      </trkpt>
      <trkpt lat="45.494675366207957" lon="7.065148847177625">
        <ele>3379.6500000000001</ele>
        <time>2015-06-07T10:22:12Z</time>
      </trkpt>
      <trkpt lat="45.494659692049026" lon="7.065140716731548">
        <ele>3380.1300000000001</ele>
        <time>2015-06-07T10:22:24Z</time>
      </trkpt>
      <trkpt lat="45.494650304317474" lon="7.06514566205442">
        <ele>3379.6500000000001</ele>
        <time>2015-06-07T10:22:46Z</time>
      </trkpt>
      <trkpt lat="45.494669917970896" lon="7.065114146098495">
        <ele>3380.1300000000001</ele>
        <time>2015-06-07T10:23:15Z</time>
      </trkpt>
      <trkpt lat="45.4946852568537" lon="7.065089168027043">
        <ele>3379.6500000000001</ele>
        <time>2015-06-07T10:23:43Z</time>
      </trkpt>
      <trkpt lat="45.494735548272729" lon="7.065096879377961">
        <ele>3379.1700000000001</ele>
        <time>2015-06-07T10:24:06Z</time>
      </trkpt>
      <trkpt lat="45.494697662070394" lon="7.065129820257425">
        <ele>3380.1300000000001</ele>
        <time>2015-06-07T10:24:27Z</time>
      </trkpt>
      <trkpt lat="45.49468819051981" lon="7.065124288201332">
        <ele>3380.6100000000001</ele>
        <time>2015-06-07T10:24:53Z</time>
      </trkpt>
      <trkpt lat="45.494692046195269" lon="7.065114816650748">
        <ele>3380.1300000000001</ele>
        <time>2015-06-07T10:25:18Z</time>
      </trkpt>
      <trkpt lat="45.494642509147525" lon="7.065087659284473">
        <ele>3380.1300000000001</ele>
        <time>2015-06-07T10:25:43Z</time>
      </trkpt>
      <trkpt lat="45.494645358994603" lon="7.065071314573288">
        <ele>3380.1300000000001</ele>
        <time>2015-06-07T10:26:16Z</time>
      </trkpt>
      <trkpt lat="45.494656590744853" lon="7.065087240189314">
        <ele>3380.6100000000001</ele>
        <time>2015-06-07T10:26:41Z</time>
      </trkpt>
      <trkpt lat="45.494650220498443" lon="7.06512319855392">
        <ele>3381.5700000000002</ele>
        <time>2015-06-07T10:27:05Z</time>
      </trkpt>
      <trkpt lat="45.494629014283419" lon="7.065134011209011">
        <ele>3381.0900000000001</ele>
        <time>2015-06-07T10:27:22Z</time>
      </trkpt>
      <trkpt lat="45.49463739618659" lon="7.065143901854754">
        <ele>3381.0900000000001</ele>
        <time>2015-06-07T10:27:35Z</time>
      </trkpt>
      <trkpt lat="45.494638821110129" lon="7.065142560750246">
        <ele>3382.54</ele>
        <time>2015-06-07T10:27:47Z</time>
      </trkpt>
      <trkpt lat="45.494630355387926" lon="7.065152116119862">
        <ele>3381.5700000000002</ele>
        <time>2015-06-07T10:28:00Z</time>
      </trkpt>
      <trkpt lat="45.494634630158544" lon="7.065146919339895">
        <ele>3381.5700000000002</ele>
        <time>2015-06-07T10:28:19Z</time>
      </trkpt>
      <trkpt lat="45.494636725634336" lon="7.065140129998326">
        <ele>3382.0599999999999</ele>
        <time>2015-06-07T10:28:35Z</time>
      </trkpt>
      <trkpt lat="45.494644688442349" lon="7.065109787508845">
        <ele>3381.5700000000002</ele>
        <time>2015-06-07T10:28:48Z</time>
      </trkpt>
      <trkpt lat="45.494650891050696" lon="7.065107775852084">
        <ele>3381.0900000000001</ele>
        <time>2015-06-07T10:28:59Z</time>
      </trkpt>
      <trkpt lat="45.494643598794937" lon="7.065114649012685">
        <ele>3381.5700000000002</ele>
        <time>2015-06-07T10:29:13Z</time>
      </trkpt>
      <trkpt lat="45.494643682613969" lon="7.065151948481798">
        <ele>3381.5700000000002</ele>
        <time>2015-06-07T10:29:25Z</time>
      </trkpt>
      <trkpt lat="45.494645610451698" lon="7.065144488587976">
        <ele>3381.5700000000002</ele>
        <time>2015-06-07T10:29:46Z</time>
      </trkpt>
      <trkpt lat="45.494647454470396" lon="7.065138956531882">
        <ele>3381.5700000000002</ele>
        <time>2015-06-07T10:30:07Z</time>
      </trkpt>
      <trkpt lat="45.494649801403284" lon="7.065137028694153">
        <ele>3381.0900000000001</ele>
        <time>2015-06-07T10:30:23Z</time>
      </trkpt>
      <trkpt lat="45.494659189134836" lon="7.06513543613255">
        <ele>3381.5700000000002</ele>
        <time>2015-06-07T10:30:42Z</time>
      </trkpt>
      <trkpt lat="45.494649801403284" lon="7.065123282372952">
        <ele>3381.0900000000001</ele>
        <time>2015-06-07T10:30:57Z</time>
      </trkpt>
      <trkpt lat="45.494661200791597" lon="7.06507969647646">
        <ele>3380.1300000000001</ele>
        <time>2015-06-07T10:31:07Z</time>
      </trkpt>
      <trkpt lat="45.494641503319144" lon="7.065075002610683">
        <ele>3378.21</ele>
        <time>2015-06-07T10:31:21Z</time>
      </trkpt>
      <trkpt lat="45.494648208841681" lon="7.06507676281035">
        <ele>3378.6900000000001</ele>
        <time>2015-06-07T10:31:31Z</time>
      </trkpt>
      <trkpt lat="45.494647957384586" lon="7.065076427534223">
        <ele>3377.73</ele>
        <time>2015-06-07T10:31:44Z</time>
      </trkpt>
      <trkpt lat="45.49465348944068" lon="7.065035775303841">
        <ele>3377.25</ele>
        <time>2015-06-07T10:32:02Z</time>
      </trkpt>
      <trkpt lat="45.494652818888426" lon="7.06504256464541">
        <ele>3376.77</ele>
        <time>2015-06-07T10:32:11Z</time>
      </trkpt>
      <trkpt lat="45.494650974869728" lon="7.065010126680136">
        <ele>3376.29</ele>
        <time>2015-06-07T10:32:20Z</time>
      </trkpt>
      <trkpt lat="45.494656004011631" lon="7.064988417550921">
        <ele>3374.8499999999999</ele>
        <time>2015-06-07T10:32:32Z</time>
      </trkpt>
      <trkpt lat="45.494649549946189" lon="7.0649981405586">
        <ele>3374.3600000000001</ele>
        <time>2015-06-07T10:32:41Z</time>
      </trkpt>
      <trkpt lat="45.494659692049026" lon="7.064982801675797">
        <ele>3372.9200000000001</ele>
        <time>2015-06-07T10:32:54Z</time>
      </trkpt>
      <trkpt lat="45.494653070345521" lon="7.064987579360604">
        <ele>3371.96</ele>
        <time>2015-06-07T10:33:11Z</time>
      </trkpt>
      <trkpt lat="45.494648963212967" lon="7.064967127516866">
        <ele>3371.96</ele>
        <time>2015-06-07T10:33:21Z</time>
      </trkpt>
      <trkpt lat="45.494645526632667" lon="7.064956482499838">
        <ele>3371</ele>
        <time>2015-06-07T10:33:34Z</time>
      </trkpt>
      <trkpt lat="45.494650052860379" lon="7.064938209950924">
        <ele>3370.52</ele>
        <time>2015-06-07T10:33:49Z</time>
      </trkpt>
      <trkpt lat="45.494649298489094" lon="7.064900491386652">
        <ele>3369.5599999999999</ele>
        <time>2015-06-07T10:34:01Z</time>
      </trkpt>
      <trkpt lat="45.494650974869728" lon="7.06486570648849">
        <ele>3368.1199999999999</ele>
        <time>2015-06-07T10:34:12Z</time>
      </trkpt>
      <trkpt lat="45.494644688442349" lon="7.064825389534235">
        <ele>3366.6700000000001</ele>
        <time>2015-06-07T10:34:23Z</time>
      </trkpt>
      <trkpt lat="45.494649549946189" lon="7.064817845821381">
        <ele>3366.1900000000001</ele>
        <time>2015-06-07T10:34:32Z</time>
      </trkpt>
      <trkpt lat="45.494660278782248" lon="7.064826227724552">
        <ele>3364.75</ele>
        <time>2015-06-07T10:34:43Z</time>
      </trkpt>
      <trkpt lat="45.49467989243567" lon="7.064771996811032">
        <ele>3363.79</ele>
        <time>2015-06-07T10:34:56Z</time>
      </trkpt>
      <trkpt lat="45.494694812223315" lon="7.064760345965624">
        <ele>3362.3499999999999</ele>
        <time>2015-06-07T10:35:10Z</time>
      </trkpt>
      <trkpt lat="45.494687687605619" lon="7.064748024567962">
        <ele>3360.9099999999999</ele>
        <time>2015-06-07T10:35:22Z</time>
      </trkpt>
      <trkpt lat="45.494693890213966" lon="7.064755400642753">
        <ele>3359.9499999999998</ele>
        <time>2015-06-07T10:35:38Z</time>
      </trkpt>
      <trkpt lat="45.494695398956537" lon="7.064704606309533">
        <ele>3358.98</ele>
        <time>2015-06-07T10:35:52Z</time>
      </trkpt>
      <trkpt lat="45.494687017053366" lon="7.064694464206696">
        <ele>3356.5799999999999</ele>
        <time>2015-06-07T10:36:04Z</time>
      </trkpt>
      <trkpt lat="45.494687184691429" lon="7.064698152244091">
        <ele>3356.0999999999999</ele>
        <time>2015-06-07T10:36:15Z</time>
      </trkpt>
      <trkpt lat="45.494684921577573" lon="7.064688932150602">
        <ele>3354.1799999999998</ele>
        <time>2015-06-07T10:36:25Z</time>
      </trkpt>
      <trkpt lat="45.494713420048356" lon="7.06466244533658">
        <ele>3354.1799999999998</ele>
        <time>2015-06-07T10:36:37Z</time>
      </trkpt>
      <trkpt lat="45.494712749496102" lon="7.06463118083775">
        <ele>3353.2199999999998</ele>
        <time>2015-06-07T10:36:49Z</time>
      </trkpt>
      <trkpt lat="45.494696320965886" lon="7.064610477536917">
        <ele>3352.25</ele>
        <time>2015-06-07T10:37:02Z</time>
      </trkpt>
      <trkpt lat="45.494710402563214" lon="7.064591031521559">
        <ele>3351.77</ele>
        <time>2015-06-07T10:37:21Z</time>
      </trkpt>
      <trkpt lat="45.494700176641345" lon="7.064579799771309">
        <ele>3351.29</ele>
        <time>2015-06-07T10:37:35Z</time>
      </trkpt>
      <trkpt lat="45.494694644585252" lon="7.064567813649774">
        <ele>3349.8499999999999</ele>
        <time>2015-06-07T10:37:44Z</time>
      </trkpt>
      <trkpt lat="45.494708558544517" lon="7.064546942710877">
        <ele>3349.3699999999999</ele>
        <time>2015-06-07T10:37:57Z</time>
      </trkpt>
      <trkpt lat="45.49470093101263" lon="7.06454367376864">
        <ele>3347.9299999999998</ele>
        <time>2015-06-07T10:38:08Z</time>
      </trkpt>
      <trkpt lat="45.494693638756871" lon="7.064523473381996">
        <ele>3347.9299999999998</ele>
        <time>2015-06-07T10:38:27Z</time>
      </trkpt>
      <trkpt lat="45.494696907699108" lon="7.064512241631746">
        <ele>3347.4499999999998</ele>
        <time>2015-06-07T10:38:35Z</time>
      </trkpt>
      <trkpt lat="45.494703026488423" lon="7.064523976296186">
        <ele>3346.9699999999998</ele>
        <time>2015-06-07T10:38:43Z</time>
      </trkpt>
      <trkpt lat="45.494695231318474" lon="7.064490616321564">
        <ele>3346.0100000000002</ele>
        <time>2015-06-07T10:39:05Z</time>
      </trkpt>
      <trkpt lat="45.49468626268208" lon="7.064464632421732">
        <ele>3345.52</ele>
        <time>2015-06-07T10:39:15Z</time>
      </trkpt>
      <trkpt lat="45.494691962376237" lon="7.064448203891516">
        <ele>3345.04</ele>
        <time>2015-06-07T10:39:38Z</time>
      </trkpt>
      <trkpt lat="45.494690202176571" lon="7.064458932727575">
        <ele>3345.52</ele>
        <time>2015-06-07T10:39:54Z</time>
      </trkpt>
      <trkpt lat="45.494712833315134" lon="7.064518025144935">
        <ele>3344.5599999999999</ele>
        <time>2015-06-07T10:40:17Z</time>
      </trkpt>
      <trkpt lat="45.494708642363548" lon="7.06447628326714">
        <ele>3343.5999999999999</ele>
        <time>2015-06-07T10:40:30Z</time>
      </trkpt>
      <trkpt lat="45.494707301259041" lon="7.06446991302073">
        <ele>3343.1199999999999</ele>
        <time>2015-06-07T10:40:41Z</time>
      </trkpt>
      <trkpt lat="45.494699841365218" lon="7.064422974362969">
        <ele>3343.1199999999999</ele>
        <time>2015-06-07T10:41:00Z</time>
      </trkpt>
      <trkpt lat="45.494697242975235" lon="7.064452646300197">
        <ele>3342.6399999999999</ele>
        <time>2015-06-07T10:41:13Z</time>
      </trkpt>
      <trkpt lat="45.49470042809844" lon="7.064458010718226">
        <ele>3342.1599999999999</ele>
        <time>2015-06-07T10:41:24Z</time>
      </trkpt>
      <trkpt lat="45.494706463068724" lon="7.064470751211047">
        <ele>3342.1599999999999</ele>
        <time>2015-06-07T10:41:42Z</time>
      </trkpt>
      <trkpt lat="45.494699506089091" lon="7.064453987404704">
        <ele>3341.6799999999998</ele>
        <time>2015-06-07T10:41:59Z</time>
      </trkpt>
      <trkpt lat="45.494707804173231" lon="7.064442588016391">
        <ele>3340.7199999999998</ele>
        <time>2015-06-07T10:42:12Z</time>
      </trkpt>
      <trkpt lat="45.494695315137506" lon="7.064443174749613">
        <ele>3340.7199999999998</ele>
        <time>2015-06-07T10:42:24Z</time>
      </trkpt>
      <trkpt lat="45.49470285885036" lon="7.064440827816725">
        <ele>3340.2399999999998</ele>
        <time>2015-06-07T10:42:49Z</time>
      </trkpt>
      <trkpt lat="45.494710821658373" lon="7.064423225820065">
        <ele>3340.2399999999998</ele>
        <time>2015-06-07T10:43:15Z</time>
      </trkpt>
      <trkpt lat="45.494684083387256" lon="7.064387518912554">
        <ele>3340.2399999999998</ele>
        <time>2015-06-07T10:43:30Z</time>
      </trkpt>
      <trkpt lat="45.494706965982914" lon="7.064411994069815">
        <ele>3340.2399999999998</ele>
        <time>2015-06-07T10:43:41Z</time>
      </trkpt>
      <trkpt lat="45.494707049801946" lon="7.06441861577332">
        <ele>3338.8000000000002</ele>
        <time>2015-06-07T10:43:51Z</time>
      </trkpt>
      <trkpt lat="45.494702020660043" lon="7.064387938007712">
        <ele>3338.8000000000002</ele>
        <time>2015-06-07T10:44:01Z</time>
      </trkpt>
      <trkpt lat="45.494716605171561" lon="7.064386261627078">
        <ele>3338.8000000000002</ele>
        <time>2015-06-07T10:44:13Z</time>
      </trkpt>
      <trkpt lat="45.494725573807955" lon="7.064375448971987">
        <ele>3339.2800000000002</ele>
        <time>2015-06-07T10:44:28Z</time>
      </trkpt>
      <trkpt lat="45.494706798344851" lon="7.064395230263472">
        <ele>3338.8000000000002</ele>
        <time>2015-06-07T10:44:50Z</time>
      </trkpt>
      <trkpt lat="45.494705038145185" lon="7.064409730955958">
        <ele>3338.8000000000002</ele>
        <time>2015-06-07T10:45:13Z</time>
      </trkpt>
      <trkpt lat="45.494704367592931" lon="7.0644093118608">
        <ele>3338.8000000000002</ele>
        <time>2015-06-07T10:45:34Z</time>
      </trkpt>
      <trkpt lat="45.494698667898774" lon="7.064416017383337">
        <ele>3338.8000000000002</ele>
        <time>2015-06-07T10:45:52Z</time>
      </trkpt>
      <trkpt lat="45.494692716747522" lon="7.064426997676492">
        <ele>3338.8000000000002</ele>
        <time>2015-06-07T10:46:06Z</time>
      </trkpt>
      <trkpt lat="45.494697745889425" lon="7.064405204728246">
        <ele>3338.8000000000002</ele>
        <time>2015-06-07T10:46:31Z</time>
      </trkpt>
      <trkpt lat="45.494686430320144" lon="7.064384249970317">
        <ele>3338.3200000000002</ele>
        <time>2015-06-07T10:46:43Z</time>
      </trkpt>
      <trkpt lat="45.494685843586922" lon="7.064391626045108">
        <ele>3338.3200000000002</ele>
        <time>2015-06-07T10:46:53Z</time>
      </trkpt>
      <trkpt lat="45.494697913527489" lon="7.064402857795358">
        <ele>3338.3200000000002</ele>
        <time>2015-06-07T10:47:05Z</time>
      </trkpt>
      <trkpt lat="45.494697829708457" lon="7.06439170986414">
        <ele>3337.8299999999999</ele>
        <time>2015-06-07T10:47:13Z</time>
      </trkpt>
      <trkpt lat="45.494685005396605" lon="7.064401851966977">
        <ele>3337.8299999999999</ele>
        <time>2015-06-07T10:47:28Z</time>
      </trkpt>
      <trkpt lat="45.494683412835002" lon="7.064406713470817">
        <ele>3337.8299999999999</ele>
        <time>2015-06-07T10:47:48Z</time>
      </trkpt>
      <trkpt lat="45.494701182469726" lon="7.064371593296528">
        <ele>3338.3200000000002</ele>
        <time>2015-06-07T10:47:58Z</time>
      </trkpt>
      <trkpt lat="45.494720377027988" lon="7.064412496984005">
        <ele>3337.3499999999999</ele>
        <time>2015-06-07T10:48:07Z</time>
      </trkpt>
      <trkpt lat="45.494716688990593" lon="7.064407216385007">
        <ele>3337.3499999999999</ele>
        <time>2015-06-07T10:48:19Z</time>
      </trkpt>
      <trkpt lat="45.494701350107789" lon="7.064390452578664">
        <ele>3336.8699999999999</ele>
        <time>2015-06-07T10:48:31Z</time>
      </trkpt>
      <trkpt lat="45.494710989296436" lon="7.064414508640766">
        <ele>3336.8699999999999</ele>
        <time>2015-06-07T10:48:44Z</time>
      </trkpt>
      <trkpt lat="45.494721047580242" lon="7.064416520297527">
        <ele>3336.8699999999999</ele>
        <time>2015-06-07T10:49:04Z</time>
      </trkpt>
      <trkpt lat="45.494722975417972" lon="7.064414089545608">
        <ele>3336.8699999999999</ele>
        <time>2015-06-07T10:49:21Z</time>
      </trkpt>
      <trkpt lat="45.494725406169891" lon="7.064388273283839">
        <ele>3335.9099999999999</ele>
        <time>2015-06-07T10:49:32Z</time>
      </trkpt>
      <trkpt lat="45.494724735617638" lon="7.064375448971987">
        <ele>3335.4299999999998</ele>
        <time>2015-06-07T10:49:42Z</time>
      </trkpt>
      <trkpt lat="45.494718449190259" lon="7.064347872510552">
        <ele>3334.4699999999998</ele>
        <time>2015-06-07T10:49:55Z</time>
      </trkpt>
      <trkpt lat="45.494773350656033" lon="7.064314344897866">
        <ele>3334.9499999999998</ele>
        <time>2015-06-07T10:50:20Z</time>
      </trkpt>
      <trkpt lat="45.494759604334831" lon="7.064329935237765">
        <ele>3334.9499999999998</ele>
        <time>2015-06-07T10:50:41Z</time>
      </trkpt>
      <trkpt lat="45.494719035923481" lon="7.064376035705209">
        <ele>3334.9499999999998</ele>
        <time>2015-06-07T10:50:55Z</time>
      </trkpt>
      <trkpt lat="45.494739320129156" lon="7.064373353496194">
        <ele>3334.4699999999998</ele>
        <time>2015-06-07T10:51:16Z</time>
      </trkpt>
      <trkpt lat="45.494729597121477" lon="7.064377209171653">
        <ele>3333.5100000000002</ele>
        <time>2015-06-07T10:51:25Z</time>
      </trkpt>
      <trkpt lat="45.494740912690759" lon="7.064378634095192">
        <ele>3333.0300000000002</ele>
        <time>2015-06-07T10:51:39Z</time>
      </trkpt>
      <trkpt lat="45.494734039530158" lon="7.064393386244774">
        <ele>3332.5500000000002</ele>
        <time>2015-06-07T10:51:56Z</time>
      </trkpt>
      <trkpt lat="45.494731608778238" lon="7.064380310475826">
        <ele>3332.5500000000002</ele>
        <time>2015-06-07T10:52:10Z</time>
      </trkpt>
      <trkpt lat="45.49473512917757" lon="7.064372096210718">
        <ele>3332.0700000000002</ele>
        <time>2015-06-07T10:52:19Z</time>
      </trkpt>
      <trkpt lat="45.494726495817304" lon="7.064388021826744">
        <ele>3331.5900000000001</ele>
        <time>2015-06-07T10:52:32Z</time>
      </trkpt>
      <trkpt lat="45.494722556322813" lon="7.064374862238765">
        <ele>3331.5900000000001</ele>
        <time>2015-06-07T10:52:46Z</time>
      </trkpt>
      <trkpt lat="45.494717610999942" lon="7.064354075118899">
        <ele>3331.1100000000001</ele>
        <time>2015-06-07T10:52:55Z</time>
      </trkpt>
      <trkpt lat="45.494721885770559" lon="7.064336221665144">
        <ele>3331.1100000000001</ele>
        <time>2015-06-07T10:53:11Z</time>
      </trkpt>
      <trkpt lat="45.494729597121477" lon="7.06433454528451">
        <ele>3330.6199999999999</ele>
        <time>2015-06-07T10:53:29Z</time>
      </trkpt>
      <trkpt lat="45.494738230481744" lon="7.064343765377998">
        <ele>3329.6599999999999</ele>
        <time>2015-06-07T10:53:41Z</time>
      </trkpt>
      <trkpt lat="45.494739403948188" lon="7.064334377646446">
        <ele>3328.2199999999998</ele>
        <time>2015-06-07T10:53:52Z</time>
      </trkpt>
      <trkpt lat="45.4947370570153" lon="7.064312165603042">
        <ele>3327.2600000000002</ele>
        <time>2015-06-07T10:54:02Z</time>
      </trkpt>
      <trkpt lat="45.494737224653363" lon="7.064316440373659">
        <ele>3326.7800000000002</ele>
        <time>2015-06-07T10:54:14Z</time>
      </trkpt>
      <trkpt lat="45.494757257401943" lon="7.064302274957299">
        <ele>3326.7800000000002</ele>
        <time>2015-06-07T10:54:25Z</time>
      </trkpt>
      <trkpt lat="45.494759017601609" lon="7.064283918589354">
        <ele>3325.3400000000001</ele>
        <time>2015-06-07T10:54:35Z</time>
      </trkpt>
      <trkpt lat="45.494751976802945" lon="7.064301520586014">
        <ele>3324.8600000000001</ele>
        <time>2015-06-07T10:54:46Z</time>
      </trkpt>
      <trkpt lat="45.494751892983913" lon="7.064275117591023">
        <ele>3323.9000000000001</ele>
        <time>2015-06-07T10:54:55Z</time>
      </trkpt>
      <trkpt lat="45.494747282937169" lon="7.064261035993695">
        <ele>3323.4200000000001</ele>
        <time>2015-06-07T10:55:06Z</time>
      </trkpt>
      <trkpt lat="45.494754323735833" lon="7.064285092055798">
        <ele>3323.9000000000001</ele>
        <time>2015-06-07T10:55:17Z</time>
      </trkpt>
      <trkpt lat="45.494744097813964" lon="7.064282912760973">
        <ele>3323.4200000000001</ele>
        <time>2015-06-07T10:55:34Z</time>
      </trkpt>
      <trkpt lat="45.494779804721475" lon="7.064235303550959">
        <ele>3323.4200000000001</ele>
        <time>2015-06-07T10:55:49Z</time>
      </trkpt>
      <trkpt lat="45.494766980409622" lon="7.064223401248455">
        <ele>3322.4499999999998</ele>
        <time>2015-06-07T10:55:58Z</time>
      </trkpt>
      <trkpt lat="45.494759269058704" lon="7.064225161448121">
        <ele>3321.9699999999998</ele>
        <time>2015-06-07T10:56:06Z</time>
      </trkpt>
      <trkpt lat="45.494778379797935" lon="7.064232956618071">
        <ele>3321.9699999999998</ele>
        <time>2015-06-07T10:56:20Z</time>
      </trkpt>
      <trkpt lat="45.494784163311124" lon="7.06421728245914">
        <ele>3320.5300000000002</ele>
        <time>2015-06-07T10:56:31Z</time>
      </trkpt>
      <trkpt lat="45.494775446131825" lon="7.064213929697871">
        <ele>3320.0500000000002</ele>
        <time>2015-06-07T10:56:41Z</time>
      </trkpt>
      <trkpt lat="45.494749881327152" lon="7.064213510602713">
        <ele>3319.5700000000002</ele>
        <time>2015-06-07T10:56:58Z</time>
      </trkpt>
      <trkpt lat="45.494735548272729" lon="7.064239243045449">
        <ele>3320.0500000000002</ele>
        <time>2015-06-07T10:57:20Z</time>
      </trkpt>
      <trkpt lat="45.494747366756201" lon="7.064206469804049">
        <ele>3320.0500000000002</ele>
        <time>2015-06-07T10:57:39Z</time>
      </trkpt>
      <trkpt lat="45.49473948776722" lon="7.064151652157307">
        <ele>3319.0900000000001</ele>
        <time>2015-06-07T10:57:54Z</time>
      </trkpt>
      <trkpt lat="45.49476882442832" lon="7.064140420407057">
        <ele>3318.1300000000001</ele>
        <time>2015-06-07T10:58:03Z</time>
      </trkpt>
      <trkpt lat="45.494794556871057" lon="7.064146539196372">
        <ele>3317.6500000000001</ele>
        <time>2015-06-07T10:58:15Z</time>
      </trkpt>
      <trkpt lat="45.494787264615297" lon="7.064155926927924">
        <ele>3316.6900000000001</ele>
        <time>2015-06-07T10:58:28Z</time>
      </trkpt>
      <trkpt lat="45.494770249351859" lon="7.064118124544621">
        <ele>3316.21</ele>
        <time>2015-06-07T10:58:41Z</time>
      </trkpt>
      <trkpt lat="45.49476346001029" lon="7.064132457599044">
        <ele>3315.2399999999998</ele>
        <time>2015-06-07T10:58:54Z</time>
      </trkpt>
      <trkpt lat="45.494764130562544" lon="7.064110413193703">
        <ele>3313.8000000000002</ele>
        <time>2015-06-07T10:59:03Z</time>
      </trkpt>
      <trkpt lat="45.494792209938169" lon="7.064108233898878">
        <ele>3313.8000000000002</ele>
        <time>2015-06-07T10:59:14Z</time>
      </trkpt>
      <trkpt lat="45.494788186624646" lon="7.064117370173335">
        <ele>3312.3600000000001</ele>
        <time>2015-06-07T10:59:24Z</time>
      </trkpt>
      <trkpt lat="45.49477469176054" lon="7.064105635508895">
        <ele>3311.8800000000001</ele>
        <time>2015-06-07T10:59:40Z</time>
      </trkpt>
      <trkpt lat="45.494787599891424" lon="7.064082752913237">
        <ele>3311.4000000000001</ele>
        <time>2015-06-07T10:59:51Z</time>
      </trkpt>
      <trkpt lat="45.49478248693049" lon="7.064050398766995">
        <ele>3310.4400000000001</ele>
        <time>2015-06-07T10:59:59Z</time>
      </trkpt>
      <trkpt lat="45.494789779186249" lon="7.064044028520584">
        <ele>3309.48</ele>
        <time>2015-06-07T11:00:08Z</time>
      </trkpt>
      <trkpt lat="45.494787348434329" lon="7.064036736264825">
        <ele>3308.5100000000002</ele>
        <time>2015-06-07T11:00:23Z</time>
      </trkpt>
      <trkpt lat="45.494823809713125" lon="7.064023157581687">
        <ele>3307.0700000000002</ele>
        <time>2015-06-07T11:00:35Z</time>
      </trkpt>
      <trkpt lat="45.494814002886415" lon="7.064023576676846">
        <ele>3306.1100000000001</ele>
        <time>2015-06-07T11:00:47Z</time>
      </trkpt>
      <trkpt lat="45.494819283485413" lon="7.064011925831437">
        <ele>3304.6700000000001</ele>
        <time>2015-06-07T11:00:56Z</time>
      </trkpt>
      <trkpt lat="45.494827581569552" lon="7.063994240015745">
        <ele>3303.71</ele>
        <time>2015-06-07T11:01:09Z</time>
      </trkpt>
      <trkpt lat="45.494818696752191" lon="7.063957611098886">
        <ele>3303.71</ele>
        <time>2015-06-07T11:01:26Z</time>
      </trkpt>
      <trkpt lat="45.494791874662042" lon="7.063943613320589">
        <ele>3303.71</ele>
        <time>2015-06-07T11:01:41Z</time>
      </trkpt>
      <trkpt lat="45.49482598900795" lon="7.063952749595046">
        <ele>3302.75</ele>
        <time>2015-06-07T11:01:56Z</time>
      </trkpt>
      <trkpt lat="45.494842501357198" lon="7.063920395448804">
        <ele>3301.3000000000002</ele>
        <time>2015-06-07T11:02:08Z</time>
      </trkpt>
      <trkpt lat="45.494839232414961" lon="7.063870690762997">
        <ele>3298.9000000000001</ele>
        <time>2015-06-07T11:02:18Z</time>
      </trkpt>
      <trkpt lat="45.494843507185578" lon="7.063823500648141">
        <ele>3297.46</ele>
        <time>2015-06-07T11:02:29Z</time>
      </trkpt>
      <trkpt lat="45.49487586133182" lon="7.063835570588708">
        <ele>3296.5</ele>
        <time>2015-06-07T11:02:41Z</time>
      </trkpt>
      <trkpt lat="45.494870748370886" lon="7.063816962763667">
        <ele>3294.5799999999999</ele>
        <time>2015-06-07T11:02:50Z</time>
      </trkpt>
      <trkpt lat="45.494876531884074" lon="7.063796762377024">
        <ele>3293.1300000000001</ele>
        <time>2015-06-07T11:03:04Z</time>
      </trkpt>
      <trkpt lat="45.49489002674818" lon="7.063770862296224">
        <ele>3292.6500000000001</ele>
        <time>2015-06-07T11:03:15Z</time>
      </trkpt>
      <trkpt lat="45.494894050061703" lon="7.063746219500899">
        <ele>3291.6900000000001</ele>
        <time>2015-06-07T11:03:27Z</time>
      </trkpt>
      <trkpt lat="45.494889356195927" lon="7.06371839158237">
        <ele>3290.73</ele>
        <time>2015-06-07T11:03:42Z</time>
      </trkpt>
      <trkpt lat="45.49489296041429" lon="7.063703220337629">
        <ele>3289.77</ele>
        <time>2015-06-07T11:03:54Z</time>
      </trkpt>
      <trkpt lat="45.494914334267378" lon="7.063682097941637">
        <ele>3288.8099999999999</ele>
        <time>2015-06-07T11:04:07Z</time>
      </trkpt>
      <trkpt lat="45.494932439178228" lon="7.063665334135294">
        <ele>3287.8499999999999</ele>
        <time>2015-06-07T11:04:21Z</time>
      </trkpt>
      <trkpt lat="45.494954818859696" lon="7.063644547015429">
        <ele>3286.4000000000001</ele>
        <time>2015-06-07T11:04:29Z</time>
      </trkpt>
      <trkpt lat="45.494987005367875" lon="7.063639601692557">
        <ele>3284.48</ele>
        <time>2015-06-07T11:04:39Z</time>
      </trkpt>
      <trkpt lat="45.494981640949845" lon="7.063625268638134">
        <ele>3283.52</ele>
        <time>2015-06-07T11:04:52Z</time>
      </trkpt>
      <trkpt lat="45.494961189106107" lon="7.063616383820772">
        <ele>3284</ele>
        <time>2015-06-07T11:05:06Z</time>
      </trkpt>
      <trkpt lat="45.494989436119795" lon="7.063620826229453">
        <ele>3283.04</ele>
        <time>2015-06-07T11:05:24Z</time>
      </trkpt>
      <trkpt lat="45.495009468868375" lon="7.063613198697567">
        <ele>3284</ele>
        <time>2015-06-07T11:05:46Z</time>
      </trkpt>
      <trkpt lat="45.494989855214953" lon="7.063616886734963">
        <ele>3283.52</ele>
        <time>2015-06-07T11:05:56Z</time>
      </trkpt>
      <trkpt lat="45.494992705062032" lon="7.063592243939638">
        <ele>3282.5599999999999</ele>
        <time>2015-06-07T11:06:06Z</time>
      </trkpt>
      <trkpt lat="45.494994046166539" lon="7.063547568395734">
        <ele>3281.1199999999999</ele>
        <time>2015-06-07T11:06:17Z</time>
      </trkpt>
      <trkpt lat="45.494990777224302" lon="7.063532983884215">
        <ele>3280.6399999999999</ele>
        <time>2015-06-07T11:06:25Z</time>
      </trkpt>
      <trkpt lat="45.495004020631313" lon="7.063520243391395">
        <ele>3279.1900000000001</ele>
        <time>2015-06-07T11:06:33Z</time>
      </trkpt>
      <trkpt lat="45.495013576000929" lon="7.063499540090561">
        <ele>3277.75</ele>
        <time>2015-06-07T11:06:41Z</time>
      </trkpt>
      <trkpt lat="45.495022712275386" lon="7.063465090468526">
        <ele>3275.8299999999999</ele>
        <time>2015-06-07T11:06:50Z</time>
      </trkpt>
      <trkpt lat="45.495049702003598" lon="7.063514711335301">
        <ele>3275.8299999999999</ele>
        <time>2015-06-07T11:07:01Z</time>
      </trkpt>
      <trkpt lat="45.495056826621294" lon="7.063474059104919">
        <ele>3274.3899999999999</ele>
        <time>2015-06-07T11:07:13Z</time>
      </trkpt>
      <trkpt lat="45.495046265423298" lon="7.063464000821114">
        <ele>3273.4299999999998</ele>
        <time>2015-06-07T11:07:25Z</time>
      </trkpt>
      <trkpt lat="45.49505322240293" lon="7.063416223973036">
        <ele>3271.98</ele>
        <time>2015-06-07T11:07:34Z</time>
      </trkpt>
      <trkpt lat="45.495088091120124" lon="7.063411865383387">
        <ele>3271.02</ele>
        <time>2015-06-07T11:07:43Z</time>
      </trkpt>
      <trkpt lat="45.495090521872044" lon="7.063380684703589">
        <ele>3269.5799999999999</ele>
        <time>2015-06-07T11:07:54Z</time>
      </trkpt>
      <trkpt lat="45.4950893484056" lon="7.063352186232805">
        <ele>3268.1399999999999</ele>
        <time>2015-06-07T11:08:06Z</time>
      </trkpt>
      <trkpt lat="45.495117679238319" lon="7.063348246738315">
        <ele>3267.1799999999998</ele>
        <time>2015-06-07T11:08:13Z</time>
      </trkpt>
      <trkpt lat="45.49515925347805" lon="7.063338104635477">
        <ele>3266.2199999999998</ele>
        <time>2015-06-07T11:08:25Z</time>
      </trkpt>
      <trkpt lat="45.495134191587567" lon="7.063336344435811">
        <ele>3266.2199999999998</ele>
        <time>2015-06-07T11:08:37Z</time>
      </trkpt>
      <trkpt lat="45.495134107768536" lon="7.063321592286229">
        <ele>3265.7399999999998</ele>
        <time>2015-06-07T11:08:48Z</time>
      </trkpt>
      <trkpt lat="45.495147434994578" lon="7.063306421041489">
        <ele>3263.3299999999999</ele>
        <time>2015-06-07T11:08:58Z</time>
      </trkpt>
      <trkpt lat="45.495169898495078" lon="7.063285214826465">
        <ele>3262.3699999999999</ele>
        <time>2015-06-07T11:09:13Z</time>
      </trkpt>
      <trkpt lat="45.495182555168867" lon="7.063252357766032">
        <ele>3260.9299999999998</ele>
        <time>2015-06-07T11:09:26Z</time>
      </trkpt>
      <trkpt lat="45.49521055072546" lon="7.06323416903615">
        <ele>3259.4899999999998</ele>
        <time>2015-06-07T11:09:35Z</time>
      </trkpt>
      <trkpt lat="45.495221111923456" lon="7.063208604231477">
        <ele>3257.5599999999999</ele>
        <time>2015-06-07T11:09:44Z</time>
      </trkpt>
      <trkpt lat="45.49522127956152" lon="7.063177591189742">
        <ele>3257.0799999999999</ele>
        <time>2015-06-07T11:09:53Z</time>
      </trkpt>
      <trkpt lat="45.495229661464691" lon="7.063163174316287">
        <ele>3256.1199999999999</ele>
        <time>2015-06-07T11:10:03Z</time>
      </trkpt>
      <trkpt lat="45.495250700041652" lon="7.063145404681563">
        <ele>3255.1599999999999</ele>
        <time>2015-06-07T11:10:11Z</time>
      </trkpt>
      <trkpt lat="45.495270816609263" lon="7.063120929524303">
        <ele>3253.2399999999998</ele>
        <time>2015-06-07T11:10:21Z</time>
      </trkpt>
      <trkpt lat="45.495274420827627" lon="7.063119672238827">
        <ele>3252.2800000000002</ele>
        <time>2015-06-07T11:10:31Z</time>
      </trkpt>
      <trkpt lat="45.49528137780726" lon="7.06309637054801">
        <ele>3250.3499999999999</ele>
        <time>2015-06-07T11:10:43Z</time>
      </trkpt>
      <trkpt lat="45.495297638699412" lon="7.063061920925975">
        <ele>3248.9099999999999</ele>
        <time>2015-06-07T11:10:54Z</time>
      </trkpt>
      <trkpt lat="45.495308535173535" lon="7.063025627285242">
        <ele>3247.4699999999998</ele>
        <time>2015-06-07T11:11:05Z</time>
      </trkpt>
      <trkpt lat="45.495306020602584" lon="7.062998469918966">
        <ele>3245.5500000000002</ele>
        <time>2015-06-07T11:11:16Z</time>
      </trkpt>
      <trkpt lat="45.495319850742817" lon="7.062964523211122">
        <ele>3244.5900000000001</ele>
        <time>2015-06-07T11:11:24Z</time>
      </trkpt>
      <trkpt lat="45.495327226817608" lon="7.062973408028483">
        <ele>3244.1100000000001</ele>
        <time>2015-06-07T11:11:40Z</time>
      </trkpt>
      <trkpt lat="45.495338626205921" lon="7.062966199591756">
        <ele>3243.6300000000001</ele>
        <time>2015-06-07T11:11:55Z</time>
      </trkpt>
      <trkpt lat="45.495351031422615" lon="7.062929486855865">
        <ele>3242.1799999999998</ele>
        <time>2015-06-07T11:12:04Z</time>
      </trkpt>
      <trkpt lat="45.495369387790561" lon="7.062905933707953">
        <ele>3240.7399999999998</ele>
        <time>2015-06-07T11:12:19Z</time>
      </trkpt>
      <trkpt lat="45.495371483266354" lon="7.062895959243178">
        <ele>3239.3000000000002</ele>
        <time>2015-06-07T11:12:31Z</time>
      </trkpt>
      <trkpt lat="45.495383301749825" lon="7.062869556248188">
        <ele>3238.3400000000001</ele>
        <time>2015-06-07T11:12:45Z</time>
      </trkpt>
      <trkpt lat="45.495402496308088" lon="7.062864108011127">
        <ele>3236.9000000000001</ele>
        <time>2015-06-07T11:12:54Z</time>
      </trkpt>
      <trkpt lat="45.495427558198571" lon="7.062882296741009">
        <ele>3235.9400000000001</ele>
        <time>2015-06-07T11:13:08Z</time>
      </trkpt>
      <trkpt lat="45.495442394167185" lon="7.062883889302611">
        <ele>3234.9699999999998</ele>
        <time>2015-06-07T11:13:19Z</time>
      </trkpt>
      <trkpt lat="45.495466617867351" lon="7.062876429408789">
        <ele>3233.5300000000002</ele>
        <time>2015-06-07T11:13:31Z</time>
      </trkpt>
      <trkpt lat="45.4954744130373" lon="7.062853714451194">
        <ele>3232.5700000000002</ele>
        <time>2015-06-07T11:13:48Z</time>
      </trkpt>
      <trkpt lat="45.495479190722108" lon="7.062853211537004">
        <ele>3230.6500000000001</ele>
        <time>2015-06-07T11:14:04Z</time>
      </trkpt>
      <trkpt lat="45.495431078597903" lon="7.06284373998642">
        <ele>3229.6900000000001</ele>
        <time>2015-06-07T11:14:19Z</time>
      </trkpt>
      <trkpt lat="45.495471898466349" lon="7.062827311456204">
        <ele>3228.73</ele>
        <time>2015-06-07T11:14:34Z</time>
      </trkpt>
      <trkpt lat="45.495536858215928" lon="7.062807362526655">
        <ele>3228.2399999999998</ele>
        <time>2015-06-07T11:14:45Z</time>
      </trkpt>
      <trkpt lat="45.495544569566846" lon="7.062759501859546">
        <ele>3228.2399999999998</ele>
        <time>2015-06-07T11:15:06Z</time>
      </trkpt>
      <trkpt lat="45.495583713054657" lon="7.062769224867225">
        <ele>3227.2800000000002</ele>
        <time>2015-06-07T11:15:21Z</time>
      </trkpt>
      <trkpt lat="45.495576504617929" lon="7.062794538214803">
        <ele>3226.3200000000002</ele>
        <time>2015-06-07T11:15:33Z</time>
      </trkpt>
      <trkpt lat="45.495604332536459" lon="7.062799818813801">
        <ele>3225.3600000000001</ele>
        <time>2015-06-07T11:15:46Z</time>
      </trkpt>
      <trkpt lat="45.495597207918763" lon="7.0627860724926">
        <ele>3224.4000000000001</ele>
        <time>2015-06-07T11:15:58Z</time>
      </trkpt>
      <trkpt lat="45.495601566508412" lon="7.062815073877573">
        <ele>3224.4000000000001</ele>
        <time>2015-06-07T11:16:09Z</time>
      </trkpt>
      <trkpt lat="45.495631825178862" lon="7.062787916511297">
        <ele>3221.52</ele>
        <time>2015-06-07T11:16:21Z</time>
      </trkpt>
      <trkpt lat="45.495651941746473" lon="7.062761010602117">
        <ele>3220.0700000000002</ele>
        <time>2015-06-07T11:16:32Z</time>
      </trkpt>
      <trkpt lat="45.495667699724436" lon="7.062783557921648">
        <ele>3219.5900000000001</ele>
        <time>2015-06-07T11:16:47Z</time>
      </trkpt>
      <trkpt lat="45.495695695281029" lon="7.062769308686256">
        <ele>3217.1900000000001</ele>
        <time>2015-06-07T11:17:00Z</time>
      </trkpt>
      <trkpt lat="45.495662838220596" lon="7.062770985066891">
        <ele>3215.27</ele>
        <time>2015-06-07T11:17:16Z</time>
      </trkpt>
      <trkpt lat="45.495717572048306" lon="7.06274650990963">
        <ele>3213.8200000000002</ele>
        <time>2015-06-07T11:17:25Z</time>
      </trkpt>
      <trkpt lat="45.495733330026269" lon="7.062746845185757">
        <ele>3212.8600000000001</ele>
        <time>2015-06-07T11:17:35Z</time>
      </trkpt>
      <trkpt lat="45.495707178488374" lon="7.062760256230831">
        <ele>3211.9000000000001</ele>
        <time>2015-06-07T11:17:47Z</time>
      </trkpt>
      <trkpt lat="45.495736934244633" lon="7.06274013966322">
        <ele>3210.9400000000001</ele>
        <time>2015-06-07T11:18:06Z</time>
      </trkpt>
      <trkpt lat="45.495729725807905" lon="7.062733266502619">
        <ele>3209.02</ele>
        <time>2015-06-07T11:18:20Z</time>
      </trkpt>
      <trkpt lat="45.495729893445969" lon="7.062708204612136">
        <ele>3208.0599999999999</ele>
        <time>2015-06-07T11:18:29Z</time>
      </trkpt>
      <trkpt lat="45.495713884010911" lon="7.062743995338678">
        <ele>3205.6500000000001</ele>
        <time>2015-06-07T11:18:38Z</time>
      </trkpt>
      <trkpt lat="45.495751518756151" lon="7.0627118088305">
        <ele>3204.21</ele>
        <time>2015-06-07T11:18:47Z</time>
      </trkpt>
      <trkpt lat="45.495778089389205" lon="7.062674760818481">
        <ele>3201.8099999999999</ele>
        <time>2015-06-07T11:18:59Z</time>
      </trkpt>
      <trkpt lat="45.495789321139455" lon="7.062671240419149">
        <ele>3199.4000000000001</ele>
        <time>2015-06-07T11:19:12Z</time>
      </trkpt>
      <trkpt lat="45.495816310867667" lon="7.062645759433508">
        <ele>3196.52</ele>
        <time>2015-06-07T11:19:27Z</time>
      </trkpt>
      <trkpt lat="45.495862411335111" lon="7.062590438872576">
        <ele>3194.1199999999999</ele>
        <time>2015-06-07T11:19:39Z</time>
      </trkpt>
      <trkpt lat="45.495889484882355" lon="7.062536710873246">
        <ele>3193.1599999999999</ele>
        <time>2015-06-07T11:19:47Z</time>
      </trkpt>
      <trkpt lat="45.495916390791535" lon="7.062519695609808">
        <ele>3190.75</ele>
        <time>2015-06-07T11:19:57Z</time>
      </trkpt>
      <trkpt lat="45.495929885655642" lon="7.062509469687939">
        <ele>3188.8299999999999</ele>
        <time>2015-06-07T11:20:09Z</time>
      </trkpt>
      <trkpt lat="45.495948409661651" lon="7.062485748901963">
        <ele>3187.8699999999999</ele>
        <time>2015-06-07T11:20:21Z</time>
      </trkpt>
      <trkpt lat="45.495969699695706" lon="7.062441492453218">
        <ele>3184.98</ele>
        <time>2015-06-07T11:20:31Z</time>
      </trkpt>
      <trkpt lat="45.495999120175838" lon="7.062402265146375">
        <ele>3181.6199999999999</ele>
        <time>2015-06-07T11:20:43Z</time>
      </trkpt>
      <trkpt lat="45.496048321947455" lon="7.062357421964407">
        <ele>3180.1799999999998</ele>
        <time>2015-06-07T11:20:54Z</time>
      </trkpt>
      <trkpt lat="45.496073132380843" lon="7.062328839674592">
        <ele>3176.8099999999999</ele>
        <time>2015-06-07T11:21:06Z</time>
      </trkpt>
      <trkpt lat="45.496093248948455" lon="7.062289109453559">
        <ele>3174.8899999999999</ele>
        <time>2015-06-07T11:21:17Z</time>
      </trkpt>
      <trkpt lat="45.496118310838938" lon="7.062238650396466">
        <ele>3173.4499999999998</ele>
        <time>2015-06-07T11:21:26Z</time>
      </trkpt>
      <trkpt lat="45.496077239513397" lon="7.062250971794128">
        <ele>3173.4499999999998</ele>
        <time>2015-06-07T11:21:35Z</time>
      </trkpt>
      <trkpt lat="45.496126944199204" lon="7.062207637354732">
        <ele>3172.0100000000002</ele>
        <time>2015-06-07T11:21:43Z</time>
      </trkpt>
      <trkpt lat="45.496147898957133" lon="7.062189029529691">
        <ele>3170.0799999999999</ele>
        <time>2015-06-07T11:21:52Z</time>
      </trkpt>
      <trkpt lat="45.496175140142441" lon="7.062157094478607">
        <ele>3168.1599999999999</ele>
        <time>2015-06-07T11:21:59Z</time>
      </trkpt>
      <trkpt lat="45.49618192948401" lon="7.062134128063917">
        <ele>3167.1999999999998</ele>
        <time>2015-06-07T11:22:06Z</time>
      </trkpt>
      <trkpt lat="45.496206572279334" lon="7.062102863565087">
        <ele>3165.2800000000002</ele>
        <time>2015-06-07T11:22:17Z</time>
      </trkpt>
      <trkpt lat="45.49625082872808" lon="7.062067659571767">
        <ele>3164.3200000000002</ele>
        <time>2015-06-07T11:22:25Z</time>
      </trkpt>
      <trkpt lat="45.496267424896359" lon="7.06204142421484">
        <ele>3162.3899999999999</ele>
        <time>2015-06-07T11:22:34Z</time>
      </trkpt>
      <trkpt lat="45.496261054649949" lon="7.062020972371101">
        <ele>3160.9499999999998</ele>
        <time>2015-06-07T11:22:43Z</time>
      </trkpt>
      <trkpt lat="45.496272370219231" lon="7.062008567154408">
        <ele>3159.9899999999998</ele>
        <time>2015-06-07T11:22:51Z</time>
      </trkpt>
      <trkpt lat="45.496300952509046" lon="7.061957269906998">
        <ele>3157.5900000000001</ele>
        <time>2015-06-07T11:23:00Z</time>
      </trkpt>
      <trkpt lat="45.49631679430604" lon="7.061944026499987">
        <ele>3156.6300000000001</ele>
        <time>2015-06-07T11:23:10Z</time>
      </trkpt>
      <trkpt lat="45.496347304433584" lon="7.061914438381791">
        <ele>3155.1799999999998</ele>
        <time>2015-06-07T11:23:17Z</time>
      </trkpt>
      <trkpt lat="45.496378485113382" lon="7.061891220510006">
        <ele>3154.2199999999998</ele>
        <time>2015-06-07T11:23:30Z</time>
      </trkpt>
      <trkpt lat="45.496403463184834" lon="7.061872445046902">
        <ele>3152.3000000000002</ele>
        <time>2015-06-07T11:23:40Z</time>
      </trkpt>
      <trkpt lat="45.496453335508704" lon="7.061873450875282">
        <ele>3150.8600000000001</ele>
        <time>2015-06-07T11:23:51Z</time>
      </trkpt>
      <trkpt lat="45.496448390185833" lon="7.061888203024864">
        <ele>3150.3800000000001</ele>
        <time>2015-06-07T11:24:07Z</time>
      </trkpt>
      <trkpt lat="45.496462136507034" lon="7.061852579936385">
        <ele>3150.3800000000001</ele>
        <time>2015-06-07T11:24:21Z</time>
      </trkpt>
      <trkpt lat="45.496488623321056" lon="7.061824752017856">
        <ele>3148.46</ele>
        <time>2015-06-07T11:24:30Z</time>
      </trkpt>
      <trkpt lat="45.496531706303358" lon="7.061814358457923">
        <ele>3147.0100000000002</ele>
        <time>2015-06-07T11:24:40Z</time>
      </trkpt>
      <trkpt lat="45.49658015370369" lon="7.061797007918358">
        <ele>3144.6100000000001</ele>
        <time>2015-06-07T11:24:50Z</time>
      </trkpt>
      <trkpt lat="45.496628684923053" lon="7.061774795874953">
        <ele>3142.6900000000001</ele>
        <time>2015-06-07T11:25:00Z</time>
      </trkpt>
      <trkpt lat="45.496644275262952" lon="7.061757361516357">
        <ele>3141.73</ele>
        <time>2015-06-07T11:25:09Z</time>
      </trkpt>
      <trkpt lat="45.496682245284319" lon="7.061735317111015">
        <ele>3140.2800000000002</ele>
        <time>2015-06-07T11:25:20Z</time>
      </trkpt>
      <trkpt lat="45.496716443449259" lon="7.061727689579129">
        <ele>3138.8400000000001</ele>
        <time>2015-06-07T11:25:31Z</time>
      </trkpt>
      <trkpt lat="45.496756760403514" lon="7.0617032982409">
        <ele>3137.4000000000001</ele>
        <time>2015-06-07T11:25:41Z</time>
      </trkpt>
      <trkpt lat="45.496785091236234" lon="7.061700951308012">
        <ele>3135.48</ele>
        <time>2015-06-07T11:25:50Z</time>
      </trkpt>
      <trkpt lat="45.49682155251503" lon="7.061691647395492">
        <ele>3134.04</ele>
        <time>2015-06-07T11:25:59Z</time>
      </trkpt>
      <trkpt lat="45.496838232502341" lon="7.061679325997829">
        <ele>3133.0700000000002</ele>
        <time>2015-06-07T11:26:13Z</time>
      </trkpt>
      <trkpt lat="45.496861534193158" lon="7.061678068712354">
        <ele>3132.1100000000001</ele>
        <time>2015-06-07T11:26:23Z</time>
      </trkpt>
      <trkpt lat="45.496895983815193" lon="7.061689887195826">
        <ele>3130.6700000000001</ele>
        <time>2015-06-07T11:26:33Z</time>
      </trkpt>
      <trkpt lat="45.496924482285976" lon="7.061675302684307">
        <ele>3129.71</ele>
        <time>2015-06-07T11:26:42Z</time>
      </trkpt>
      <trkpt lat="45.49694417975843" lon="7.061679912731051">
        <ele>3128.75</ele>
        <time>2015-06-07T11:26:56Z</time>
      </trkpt>
      <trkpt lat="45.496977120637894" lon="7.061661053448916">
        <ele>3127.3099999999999</ele>
        <time>2015-06-07T11:27:04Z</time>
      </trkpt>
      <trkpt lat="45.496997069567442" lon="7.061641355976462">
        <ele>3126.3400000000001</ele>
        <time>2015-06-07T11:27:16Z</time>
      </trkpt>
      <trkpt lat="45.49703017808497" lon="7.061637751758099">
        <ele>3124.9000000000001</ele>
        <time>2015-06-07T11:27:25Z</time>
      </trkpt>
      <trkpt lat="45.497043756768107" lon="7.061655186116695">
        <ele>3124.4200000000001</ele>
        <time>2015-06-07T11:27:36Z</time>
      </trkpt>
      <trkpt lat="45.497062532231212" lon="7.061631130054593">
        <ele>3123.46</ele>
        <time>2015-06-07T11:27:44Z</time>
      </trkpt>
      <trkpt lat="45.497086169198155" lon="7.061621909961104">
        <ele>3122.98</ele>
        <time>2015-06-07T11:27:54Z</time>
      </trkpt>
      <trkpt lat="45.497114919126034" lon="7.061621909961104">
        <ele>3121.54</ele>
        <time>2015-06-07T11:28:05Z</time>
      </trkpt>
      <trkpt lat="45.497135287150741" lon="7.061614701524377">
        <ele>3120.5799999999999</ele>
        <time>2015-06-07T11:28:14Z</time>
      </trkpt>
      <trkpt lat="45.497138556092978" lon="7.061615288257599">
        <ele>3120.5799999999999</ele>
        <time>2015-06-07T11:28:33Z</time>
      </trkpt>
      <trkpt lat="45.497166467830539" lon="7.061602547764778">
        <ele>3119.1300000000001</ele>
        <time>2015-06-07T11:28:46Z</time>
      </trkpt>
      <trkpt lat="45.497184991836548" lon="7.061603972688317">
        <ele>3118.1700000000001</ele>
        <time>2015-06-07T11:28:56Z</time>
      </trkpt>
      <trkpt lat="45.497215166687965" lon="7.061609337106347">
        <ele>3117.21</ele>
        <time>2015-06-07T11:29:07Z</time>
      </trkpt>
      <trkpt lat="45.497248778119683" lon="7.061624592170119">
        <ele>3115.77</ele>
        <time>2015-06-07T11:29:16Z</time>
      </trkpt>
      <trkpt lat="45.497312983497977" lon="7.06163096241653">
        <ele>3113.8499999999999</ele>
        <time>2015-06-07T11:29:25Z</time>
      </trkpt>
      <trkpt lat="45.497362101450562" lon="7.061612689867616">
        <ele>3111.9200000000001</ele>
        <time>2015-06-07T11:29:35Z</time>
      </trkpt>
      <trkpt lat="45.497386828064919" lon="7.061601709574461">
        <ele>3110.48</ele>
        <time>2015-06-07T11:29:44Z</time>
      </trkpt>
      <trkpt lat="45.497414320707321" lon="7.061607493087649">
        <ele>3109.52</ele>
        <time>2015-06-07T11:29:52Z</time>
      </trkpt>
      <trkpt lat="45.497395293787122" lon="7.061614114791155">
        <ele>3109.52</ele>
        <time>2015-06-07T11:30:05Z</time>
      </trkpt>
      <trkpt lat="45.497432928532362" lon="7.061614030972123">
        <ele>3109.04</ele>
        <time>2015-06-07T11:30:16Z</time>
      </trkpt>
      <trkpt lat="45.497442316263914" lon="7.061601625755429">
        <ele>3108.0799999999999</ele>
        <time>2015-06-07T11:30:32Z</time>
      </trkpt>
      <trkpt lat="45.497466707602143" lon="7.061612857505679">
        <ele>3107.1199999999999</ele>
        <time>2015-06-07T11:30:43Z</time>
      </trkpt>
      <trkpt lat="45.497500570490956" lon="7.061623334884644">
        <ele>3105.6799999999998</ele>
        <time>2015-06-07T11:30:51Z</time>
      </trkpt>
      <trkpt lat="45.49753200262785" lon="7.061634818091989">
        <ele>3104.71</ele>
        <time>2015-06-07T11:30:59Z</time>
      </trkpt>
      <trkpt lat="45.497553879395127" lon="7.061659712344408">
        <ele>3103.75</ele>
        <time>2015-06-07T11:31:09Z</time>
      </trkpt>
      <trkpt lat="45.497607858851552" lon="7.061692401766777">
        <ele>3102.79</ele>
        <time>2015-06-07T11:31:20Z</time>
      </trkpt>
      <trkpt lat="45.497654629871249" lon="7.061703884974122">
        <ele>3100.8699999999999</ele>
        <time>2015-06-07T11:31:28Z</time>
      </trkpt>
      <trkpt lat="45.497700395062566" lon="7.061760630458593">
        <ele>3098.9499999999998</ele>
        <time>2015-06-07T11:31:38Z</time>
      </trkpt>
      <trkpt lat="45.497739454731345" lon="7.061785524711013">
        <ele>3097.5100000000002</ele>
        <time>2015-06-07T11:31:47Z</time>
      </trkpt>
      <trkpt lat="45.497793853282928" lon="7.061825338751078">
        <ele>3096.0599999999999</ele>
        <time>2015-06-07T11:31:57Z</time>
      </trkpt>
      <trkpt lat="45.497825369238853" lon="7.061858866363764">
        <ele>3094.6199999999999</ele>
        <time>2015-06-07T11:32:06Z</time>
      </trkpt>
      <trkpt lat="45.49788823351264" lon="7.061908235773444">
        <ele>3092.6999999999998</ele>
        <time>2015-06-07T11:32:16Z</time>
      </trkpt>
      <trkpt lat="45.497912457212806" lon="7.061924329027534">
        <ele>3091.2600000000002</ele>
        <time>2015-06-07T11:32:24Z</time>
      </trkpt>
      <trkpt lat="45.497927544638515" lon="7.06195006147027">
        <ele>3090.7800000000002</ele>
        <time>2015-06-07T11:32:30Z</time>
      </trkpt>
      <trkpt lat="45.497953277081251" lon="7.061964143067598">
        <ele>3089.8099999999999</ele>
        <time>2015-06-07T11:32:33Z</time>
      </trkpt>
      <trkpt lat="45.497975656762719" lon="7.061998257413507">
        <ele>3088.3699999999999</ele>
        <time>2015-06-07T11:32:41Z</time>
      </trkpt>
      <trkpt lat="45.498010106384754" lon="7.062026923522353">
        <ele>3087.4099999999999</ele>
        <time>2015-06-07T11:32:50Z</time>
      </trkpt>
      <trkpt lat="45.49803969450295" lon="7.062053242698312">
        <ele>3085.9699999999998</ele>
        <time>2015-06-07T11:32:59Z</time>
      </trkpt>
      <trkpt lat="45.498070120811462" lon="7.06208392046392">
        <ele>3084.5300000000002</ele>
        <time>2015-06-07T11:33:07Z</time>
      </trkpt>
      <trkpt lat="45.498113287612796" lon="7.062134966254234">
        <ele>3082.5999999999999</ele>
        <time>2015-06-07T11:33:17Z</time>
      </trkpt>
      <trkpt lat="45.498161315917969" lon="7.062174696475267">
        <ele>3081.1599999999999</ele>
        <time>2015-06-07T11:33:27Z</time>
      </trkpt>
      <trkpt lat="45.498232310637832" lon="7.062243428081274">
        <ele>3078.7600000000002</ele>
        <time>2015-06-07T11:33:39Z</time>
      </trkpt>
      <trkpt lat="45.498266173526645" lon="7.062295312061906">
        <ele>3076.8400000000001</ele>
        <time>2015-06-07T11:33:49Z</time>
      </trkpt>
      <trkpt lat="45.49830405972898" lon="7.06234292127192">
        <ele>3074.9099999999999</ele>
        <time>2015-06-07T11:34:00Z</time>
      </trkpt>
      <trkpt lat="45.498341610655189" lon="7.062389859929681">
        <ele>3073.9499999999998</ele>
        <time>2015-06-07T11:34:09Z</time>
      </trkpt>
      <trkpt lat="45.498387208208442" lon="7.062427075579763">
        <ele>3072.0300000000002</ele>
        <time>2015-06-07T11:34:19Z</time>
      </trkpt>
      <trkpt lat="45.498391315340996" lon="7.062448030337691">
        <ele>3071.0700000000002</ele>
        <time>2015-06-07T11:34:31Z</time>
      </trkpt>
      <trkpt lat="45.498477397486567" lon="7.062545847147703">
        <ele>3068.6700000000001</ele>
        <time>2015-06-07T11:34:43Z</time>
      </trkpt>
      <trkpt lat="45.498490389436483" lon="7.062568813562393">
        <ele>3068.1900000000001</ele>
        <time>2015-06-07T11:34:52Z</time>
      </trkpt>
      <trkpt lat="45.498524252325296" lon="7.062604688107967">
        <ele>3066.7399999999998</ele>
        <time>2015-06-07T11:35:04Z</time>
      </trkpt>
      <trkpt lat="45.498582171276212" lon="7.062676185742021">
        <ele>3064.3400000000001</ele>
        <time>2015-06-07T11:35:16Z</time>
      </trkpt>
      <trkpt lat="45.498625757172704" lon="7.062737373635173">
        <ele>3062.9000000000001</ele>
        <time>2015-06-07T11:35:25Z</time>
      </trkpt>
      <trkpt lat="45.49866515211761" lon="7.062770314514637">
        <ele>3061.9400000000001</ele>
        <time>2015-06-07T11:35:31Z</time>
      </trkpt>
      <trkpt lat="45.498717958107591" lon="7.062845667824149">
        <ele>3060.0100000000002</ele>
        <time>2015-06-07T11:35:42Z</time>
      </trkpt>
      <trkpt lat="45.498737152665854" lon="7.06296100281179">
        <ele>3059.0500000000002</ele>
        <time>2015-06-07T11:35:54Z</time>
      </trkpt>
      <trkpt lat="45.498785683885217" lon="7.063101651147008">
        <ele>3056.6500000000001</ele>
        <time>2015-06-07T11:36:09Z</time>
      </trkpt>
      <trkpt lat="45.498790796846151" lon="7.063186140730977">
        <ele>3055.21</ele>
        <time>2015-06-07T11:36:20Z</time>
      </trkpt>
      <trkpt lat="45.498850056901574" lon="7.063269959762693">
        <ele>3053.77</ele>
        <time>2015-06-07T11:36:31Z</time>
      </trkpt>
      <trkpt lat="45.498897917568684" lon="7.063322765752673">
        <ele>3052.8000000000002</ele>
        <time>2015-06-07T11:36:41Z</time>
      </trkpt>
      <trkpt lat="45.498930774629116" lon="7.063440782949328">
        <ele>3051.3600000000001</ele>
        <time>2015-06-07T11:36:52Z</time>
      </trkpt>
      <trkpt lat="45.498984167352319" lon="7.063533822074533">
        <ele>3049.9200000000001</ele>
        <time>2015-06-07T11:37:05Z</time>
      </trkpt>
      <trkpt lat="45.499001601710916" lon="7.063533905893564">
        <ele>3049.4400000000001</ele>
        <time>2015-06-07T11:37:15Z</time>
      </trkpt>
      <trkpt lat="45.499001936987042" lon="7.063544886186719">
        <ele>3048.96</ele>
        <time>2015-06-07T11:37:23Z</time>
      </trkpt>
      <trkpt lat="45.499043511226773" lon="7.063616551458836">
        <ele>3047.52</ele>
        <time>2015-06-07T11:37:33Z</time>
      </trkpt>
      <trkpt lat="45.499069998040795" lon="7.063671033829451">
        <ele>3047.04</ele>
        <time>2015-06-07T11:37:43Z</time>
      </trkpt>
      <trkpt lat="45.499106040224433" lon="7.063719900324941">
        <ele>3045.5900000000001</ele>
        <time>2015-06-07T11:37:55Z</time>
      </trkpt>
      <trkpt lat="45.499155158177018" lon="7.063797852024436">
        <ele>3044.1500000000001</ele>
        <time>2015-06-07T11:38:08Z</time>
      </trkpt>
      <trkpt lat="45.499169491231441" lon="7.063821908086538">
        <ele>3043.6700000000001</ele>
        <time>2015-06-07T11:38:14Z</time>
      </trkpt>
      <trkpt lat="45.499200839549303" lon="7.06392265856266">
        <ele>3042.23</ele>
        <time>2015-06-07T11:38:26Z</time>
      </trkpt>
      <trkpt lat="45.499235792085528" lon="7.063988791778684">
        <ele>3041.27</ele>
        <time>2015-06-07T11:38:36Z</time>
      </trkpt>
      <trkpt lat="45.499266218394041" lon="7.064026594161987">
        <ele>3040.3099999999999</ele>
        <time>2015-06-07T11:38:41Z</time>
      </trkpt>
      <trkpt lat="45.499311983585358" lon="7.064087111502886">
        <ele>3039.8299999999999</ele>
        <time>2015-06-07T11:38:52Z</time>
      </trkpt>
      <trkpt lat="45.499358084052801" lon="7.064115358516574">
        <ele>3039.3499999999999</ele>
        <time>2015-06-07T11:39:01Z</time>
      </trkpt>
      <trkpt lat="45.499368561431766" lon="7.064162297174335">
        <ele>3038.8600000000001</ele>
        <time>2015-06-07T11:39:16Z</time>
      </trkpt>
      <trkpt lat="45.499429414048791" lon="7.064227005466819">
        <ele>3036.9400000000001</ele>
        <time>2015-06-07T11:39:27Z</time>
      </trkpt>
      <trkpt lat="45.499438131228089" lon="7.064259108155966">
        <ele>3036.9400000000001</ele>
        <time>2015-06-07T11:39:30Z</time>
      </trkpt>
      <trkpt lat="45.499468138441443" lon="7.064339909702539">
        <ele>3035.02</ele>
        <time>2015-06-07T11:39:43Z</time>
      </trkpt>
      <trkpt lat="45.499490601941943" lon="7.064387099817395">
        <ele>3034.0599999999999</ele>
        <time>2015-06-07T11:39:50Z</time>
      </trkpt>
      <trkpt lat="45.499557992443442" lon="7.064471757039428">
        <ele>3031.6599999999999</ele>
        <time>2015-06-07T11:40:03Z</time>
      </trkpt>
      <trkpt lat="45.49961213953793" lon="7.064559767022729">
        <ele>3029.73</ele>
        <time>2015-06-07T11:40:16Z</time>
      </trkpt>
      <trkpt lat="45.499696042388678" lon="7.064642747864127">
        <ele>3027.3299999999999</ele>
        <time>2015-06-07T11:40:27Z</time>
      </trkpt>
      <trkpt lat="45.499780448153615" lon="7.064727321267128">
        <ele>3023.96</ele>
        <time>2015-06-07T11:40:41Z</time>
      </trkpt>
      <trkpt lat="45.499851442873478" lon="7.064773757010698">
        <ele>3021.5599999999999</ele>
        <time>2015-06-07T11:40:51Z</time>
      </trkpt>
      <trkpt lat="45.499920258298516" lon="7.064824551343918">
        <ele>3018.6799999999998</ele>
        <time>2015-06-07T11:41:03Z</time>
      </trkpt>
      <trkpt lat="45.499996701255441" lon="7.064866879954934">
        <ele>3015.79</ele>
        <time>2015-06-07T11:41:13Z</time>
      </trkpt>
      <trkpt lat="45.500057553872466" lon="7.064899150282145">
        <ele>3013.3899999999999</ele>
        <time>2015-06-07T11:41:24Z</time>
      </trkpt>
      <trkpt lat="45.500136595219374" lon="7.064953213557601">
        <ele>3010.9899999999998</ele>
        <time>2015-06-07T11:41:34Z</time>
      </trkpt>
      <trkpt lat="45.500185713171959" lon="7.064980287104845">
        <ele>3007.6199999999999</ele>
        <time>2015-06-07T11:41:45Z</time>
      </trkpt>
      <trkpt lat="45.500273052603006" lon="7.065059076994658">
        <ele>3004.2600000000002</ele>
        <time>2015-06-07T11:41:57Z</time>
      </trkpt>
      <trkpt lat="45.500322673469782" lon="7.065086150541902">
        <ele>3002.8200000000002</ele>
        <time>2015-06-07T11:42:02Z</time>
      </trkpt>
      <trkpt lat="45.500423088669777" lon="7.06515840254724">
        <ele>2999.4499999999998</ele>
        <time>2015-06-07T11:42:14Z</time>
      </trkpt>
      <trkpt lat="45.500500872731209" lon="7.065228223800659">
        <ele>2997.5300000000002</ele>
        <time>2015-06-07T11:42:26Z</time>
      </trkpt>
      <trkpt lat="45.500523252412677" lon="7.065247166901827">
        <ele>2995.5999999999999</ele>
        <time>2015-06-07T11:42:29Z</time>
      </trkpt>
      <trkpt lat="45.500613693147898" lon="7.065330483019352">
        <ele>2992.2399999999998</ele>
        <time>2015-06-07T11:42:40Z</time>
      </trkpt>
      <trkpt lat="45.500693907961249" lon="7.065403992310166">
        <ele>2989.3600000000001</ele>
        <time>2015-06-07T11:42:52Z</time>
      </trkpt>
      <trkpt lat="45.500781163573265" lon="7.065482446923852">
        <ele>2986.9499999999998</ele>
        <time>2015-06-07T11:43:02Z</time>
      </trkpt>
      <trkpt lat="45.500878393650055" lon="7.065576072782278">
        <ele>2983.5900000000001</ele>
        <time>2015-06-07T11:43:14Z</time>
      </trkpt>
      <trkpt lat="45.500982915982604" lon="7.065700879320502">
        <ele>2980.71</ele>
        <time>2015-06-07T11:43:28Z</time>
      </trkpt>
      <trkpt lat="45.5010902043432" lon="7.065814789384604">
        <ele>2978.3000000000002</ele>
        <time>2015-06-07T11:43:40Z</time>
      </trkpt>
      <trkpt lat="45.501175867393613" lon="7.065916126593947">
        <ele>2974.9400000000001</ele>
        <time>2015-06-07T11:43:52Z</time>
      </trkpt>
      <trkpt lat="45.501262117177248" lon="7.066015033051372">
        <ele>2972.5300000000002</ele>
        <time>2015-06-07T11:44:04Z</time>
      </trkpt>
      <trkpt lat="45.501386420801282" lon="7.066115783527494">
        <ele>2969.6500000000001</ele>
        <time>2015-06-07T11:44:18Z</time>
      </trkpt>
      <trkpt lat="45.501492535695434" lon="7.06620505079627">
        <ele>2967.25</ele>
        <time>2015-06-07T11:44:30Z</time>
      </trkpt>
      <trkpt lat="45.501597058027983" lon="7.066332707181573">
        <ele>2964.3600000000001</ele>
        <time>2015-06-07T11:44:45Z</time>
      </trkpt>
      <trkpt lat="45.501629747450352" lon="7.066339664161205">
        <ele>2963.4000000000001</ele>
        <time>2015-06-07T11:44:57Z</time>
      </trkpt>
      <trkpt lat="45.501639051362872" lon="7.066360283643007">
        <ele>2964.3600000000001</ele>
        <time>2015-06-07T11:45:05Z</time>
      </trkpt>
      <trkpt lat="45.501630501821637" lon="7.066374281421304">
        <ele>2963.4000000000001</ele>
        <time>2015-06-07T11:45:25Z</time>
      </trkpt>
      <trkpt lat="45.501630753278732" lon="7.066361205652356">
        <ele>2962.9200000000001</ele>
        <time>2015-06-07T11:45:45Z</time>
      </trkpt>
      <trkpt lat="45.501656820997596" lon="7.0663848426193">
        <ele>2962.9200000000001</ele>
        <time>2015-06-07T11:46:17Z</time>
      </trkpt>
      <trkpt lat="45.501679033041" lon="7.06638727337122">
        <ele>2961.96</ele>
        <time>2015-06-07T11:46:36Z</time>
      </trkpt>
      <trkpt lat="45.501652210950851" lon="7.066372521221638">
        <ele>2963.8800000000001</ele>
        <time>2015-06-07T11:46:46Z</time>
      </trkpt>
      <trkpt lat="45.501652965322137" lon="7.066384423524141">
        <ele>2963.4000000000001</ele>
        <time>2015-06-07T11:46:58Z</time>
      </trkpt>
      <trkpt lat="45.501682804897428" lon="7.066391799598932">
        <ele>2963.4000000000001</ele>
        <time>2015-06-07T11:47:11Z</time>
      </trkpt>
      <trkpt lat="45.501769557595253" lon="7.066431865096092">
        <ele>2961.48</ele>
        <time>2015-06-07T11:47:24Z</time>
      </trkpt>
      <trkpt lat="45.501856226474047" lon="7.066488862037659">
        <ele>2960.04</ele>
        <time>2015-06-07T11:47:36Z</time>
      </trkpt>
      <trkpt lat="45.501923784613609" lon="7.066564885899425">
        <ele>2959.0799999999999</ele>
        <time>2015-06-07T11:47:48Z</time>
      </trkpt>
      <trkpt lat="45.501993270590901" lon="7.066630767658353">
        <ele>2958.1100000000001</ele>
        <time>2015-06-07T11:47:59Z</time>
      </trkpt>
      <trkpt lat="45.502093518152833" lon="7.06668290309608">
        <ele>2955.71</ele>
        <time>2015-06-07T11:48:11Z</time>
      </trkpt>
      <trkpt lat="45.502193011343479" lon="7.066728165373206">
        <ele>2955.23</ele>
        <time>2015-06-07T11:48:25Z</time>
      </trkpt>
      <trkpt lat="45.502290911972523" lon="7.066755406558514">
        <ele>2955.23</ele>
        <time>2015-06-07T11:48:39Z</time>
      </trkpt>
      <trkpt lat="45.502315554767847" lon="7.066743588075042">
        <ele>2954.75</ele>
        <time>2015-06-07T11:48:49Z</time>
      </trkpt>
      <trkpt lat="45.502336006611586" lon="7.066761441528797">
        <ele>2953.3099999999999</ele>
        <time>2015-06-07T11:49:00Z</time>
      </trkpt>
      <trkpt lat="45.502344220876694" lon="7.066786671057344">
        <ele>2952.8299999999999</ele>
        <time>2015-06-07T11:49:12Z</time>
      </trkpt>
      <trkpt lat="45.502384286373854" lon="7.06680016592145">
        <ele>2953.3099999999999</ele>
        <time>2015-06-07T11:49:50Z</time>
      </trkpt>
      <trkpt lat="45.502368360757828" lon="7.066810894757509">
        <ele>2953.3099999999999</ele>
        <time>2015-06-07T11:50:25Z</time>
      </trkpt>
      <trkpt lat="45.502376826480031" lon="7.066851546987891">
        <ele>2952.3499999999999</ele>
        <time>2015-06-07T11:50:45Z</time>
      </trkpt>
      <trkpt lat="45.502404402941465" lon="7.06679136492312">
        <ele>2952.3499999999999</ele>
        <time>2015-06-07T11:51:13Z</time>
      </trkpt>
      <trkpt lat="45.502383196726441" lon="7.06677770242095">
        <ele>2952.3499999999999</ele>
        <time>2015-06-07T11:51:40Z</time>
      </trkpt>
      <trkpt lat="45.502370959147811" lon="7.066805195063353">
        <ele>2951.8699999999999</ele>
        <time>2015-06-07T11:52:10Z</time>
      </trkpt>
      <trkpt lat="45.502372048795223" lon="7.066761609166861">
        <ele>2951.8699999999999</ele>
        <time>2015-06-07T11:52:26Z</time>
      </trkpt>
      <trkpt lat="45.502310106530786" lon="7.066763285547495">
        <ele>2951.8699999999999</ele>
        <time>2015-06-07T11:52:39Z</time>
      </trkpt>
      <trkpt lat="45.502313459292054" lon="7.066760687157512">
        <ele>2951.8699999999999</ele>
        <time>2015-06-07T11:52:57Z</time>
      </trkpt>
      <trkpt lat="45.502318320795894" lon="7.066779714077711">
        <ele>2951.8699999999999</ele>
        <time>2015-06-07T11:53:29Z</time>
      </trkpt>
      <trkpt lat="45.502281188964844" lon="7.066775606945157">
        <ele>2951.3800000000001</ele>
        <time>2015-06-07T11:53:53Z</time>
      </trkpt>
      <trkpt lat="45.502322511747479" lon="7.066743420436978">
        <ele>2950.4200000000001</ele>
        <time>2015-06-07T11:54:12Z</time>
      </trkpt>
      <trkpt lat="45.502333994954824" lon="7.066769823431969">
        <ele>2951.3800000000001</ele>
        <time>2015-06-07T11:54:36Z</time>
      </trkpt>
      <trkpt lat="45.502319410443306" lon="7.066776780411601">
        <ele>2950.4200000000001</ele>
        <time>2015-06-07T11:54:52Z</time>
      </trkpt>
      <trkpt lat="45.502349669113755" lon="7.066813912242651">
        <ele>2950.4200000000001</ele>
        <time>2015-06-07T11:55:16Z</time>
      </trkpt>
      <trkpt lat="45.502382526174188" lon="7.066820450127125">
        <ele>2950.4200000000001</ele>
        <time>2015-06-07T11:55:47Z</time>
      </trkpt>
      <trkpt lat="45.502385878935456" lon="7.066804943606257">
        <ele>2950.4200000000001</ele>
        <time>2015-06-07T11:56:18Z</time>
      </trkpt>
      <trkpt lat="45.502394596114755" lon="7.066812990233302">
        <ele>2950.4200000000001</ele>
        <time>2015-06-07T11:56:52Z</time>
      </trkpt>
      <trkpt lat="45.50237137824297" lon="7.066838555037975">
        <ele>2950.4200000000001</ele>
        <time>2015-06-07T11:57:24Z</time>
      </trkpt>
      <trkpt lat="45.502368360757828" lon="7.066850708797574">
        <ele>2950.4200000000001</ele>
        <time>2015-06-07T11:57:54Z</time>
      </trkpt>
      <trkpt lat="45.502385878935456" lon="7.066903011873364">
        <ele>2950.4200000000001</ele>
        <time>2015-06-07T11:58:24Z</time>
      </trkpt>
      <trkpt lat="45.50241437740624" lon="7.066907873377204">
        <ele>2950.4200000000001</ele>
        <time>2015-06-07T11:58:58Z</time>
      </trkpt>
      <trkpt lat="45.502453353255987" lon="7.066879542544484">
        <ele>2950.4200000000001</ele>
        <time>2015-06-07T11:59:32Z</time>
      </trkpt>
      <trkpt lat="45.502454778179526" lon="7.066904604434967">
        <ele>2950.4200000000001</ele>
        <time>2015-06-07T12:00:02Z</time>
      </trkpt>
      <trkpt lat="45.502395518124104" lon="7.066872669383884">
        <ele>2950.9000000000001</ele>
        <time>2015-06-07T12:00:34Z</time>
      </trkpt>
      <trkpt lat="45.502356039360166" lon="7.066814498975873">
        <ele>2950.9000000000001</ele>
        <time>2015-06-07T12:01:00Z</time>
      </trkpt>
      <trkpt lat="45.502332150936127" lon="7.066793208941817">
        <ele>2950.9000000000001</ele>
        <time>2015-06-07T12:01:15Z</time>
      </trkpt>
      <trkpt lat="45.502297198399901" lon="7.066756663843989">
        <ele>2950.9000000000001</ele>
        <time>2015-06-07T12:01:39Z</time>
      </trkpt>
      <trkpt lat="45.502295438200235" lon="7.066764710471034">
        <ele>2949.9400000000001</ele>
        <time>2015-06-07T12:01:51Z</time>
      </trkpt>
      <trkpt lat="45.502289738506079" lon="7.066758424043655">
        <ele>2949.9400000000001</ele>
        <time>2015-06-07T12:02:07Z</time>
      </trkpt>
      <trkpt lat="45.502275992184877" lon="7.06677133217454">
        <ele>2949.46</ele>
        <time>2015-06-07T12:02:34Z</time>
      </trkpt>
      <trkpt lat="45.502289906144142" lon="7.066782731562853">
        <ele>2949.9400000000001</ele>
        <time>2015-06-07T12:02:46Z</time>
      </trkpt>
      <trkpt lat="45.502319745719433" lon="7.066795555874705">
        <ele>2949.9400000000001</ele>
        <time>2015-06-07T12:03:11Z</time>
      </trkpt>
      <trkpt lat="45.502303065732121" lon="7.066774098202586">
        <ele>2948.98</ele>
        <time>2015-06-07T12:03:46Z</time>
      </trkpt>
      <trkpt lat="45.502264592796564" lon="7.066755741834641">
        <ele>2948.98</ele>
        <time>2015-06-07T12:04:15Z</time>
      </trkpt>
      <trkpt lat="45.502286637201905" lon="7.06677476875484">
        <ele>2948.98</ele>
        <time>2015-06-07T12:04:38Z</time>
      </trkpt>
      <trkpt lat="45.502270963042974" lon="7.066778540611267">
        <ele>2948.5</ele>
        <time>2015-06-07T12:05:11Z</time>
      </trkpt>
      <trkpt lat="45.502257803454995" lon="7.066734032705426">
        <ele>2948.5</ele>
        <time>2015-06-07T12:05:45Z</time>
      </trkpt>
      <trkpt lat="45.502239698544145" lon="7.06675423309207">
        <ele>2948.5</ele>
        <time>2015-06-07T12:06:17Z</time>
      </trkpt>
      <trkpt lat="45.502274399623275" lon="7.066759094595909">
        <ele>2948.02</ele>
        <time>2015-06-07T12:06:52Z</time>
      </trkpt>
      <trkpt lat="45.502273896709085" lon="7.0667440071702">
        <ele>2947.54</ele>
        <time>2015-06-07T12:07:25Z</time>
      </trkpt>
      <trkpt lat="45.502274064347148" lon="7.066751718521118">
        <ele>2947.54</ele>
        <time>2015-06-07T12:08:00Z</time>
      </trkpt>
      <trkpt lat="45.502269454300404" lon="7.066753730177879">
        <ele>2947.54</ele>
        <time>2015-06-07T12:08:32Z</time>
      </trkpt>
      <trkpt lat="45.502268448472023" lon="7.066776780411601">
        <ele>2947.0599999999999</ele>
        <time>2015-06-07T12:09:04Z</time>
      </trkpt>
      <trkpt lat="45.502307759597898" lon="7.066738894209266">
        <ele>2946.5799999999999</ele>
        <time>2015-06-07T12:09:24Z</time>
      </trkpt>
      <trkpt lat="45.502301305532455" lon="7.066755155101419">
        <ele>2947.54</ele>
        <time>2015-06-07T12:09:45Z</time>
      </trkpt>
      <trkpt lat="45.502304490655661" lon="7.066749203950167">
        <ele>2947.0599999999999</ele>
        <time>2015-06-07T12:10:01Z</time>
      </trkpt>
      <trkpt lat="45.502300718799233" lon="7.066753478720784">
        <ele>2947.0599999999999</ele>
        <time>2015-06-07T12:10:18Z</time>
      </trkpt>
      <trkpt lat="45.502304406836629" lon="7.066756160929799">
        <ele>2947.54</ele>
        <time>2015-06-07T12:10:38Z</time>
      </trkpt>
      <trkpt lat="45.502300718799233" lon="7.066755993291736">
        <ele>2947.54</ele>
        <time>2015-06-07T12:10:53Z</time>
      </trkpt>
      <trkpt lat="45.502300970256329" lon="7.06676110625267">
        <ele>2947.0599999999999</ele>
        <time>2015-06-07T12:11:07Z</time>
      </trkpt>
      <trkpt lat="45.502289151772857" lon="7.06674886867404">
        <ele>2947.54</ele>
        <time>2015-06-07T12:11:29Z</time>
      </trkpt>
      <trkpt lat="45.50228051841259" lon="7.066743252798915">
        <ele>2947.0599999999999</ele>
        <time>2015-06-07T12:12:01Z</time>
      </trkpt>
      <trkpt lat="45.502277249470353" lon="7.066747024655342">
        <ele>2947.0599999999999</ele>
        <time>2015-06-07T12:12:26Z</time>
      </trkpt>
      <trkpt lat="45.502275237813592" lon="7.066756496205926">
        <ele>2947.0599999999999</ele>
        <time>2015-06-07T12:12:56Z</time>
      </trkpt>
      <trkpt lat="45.502267191186547" lon="7.066744761541486">
        <ele>2947.0599999999999</ele>
        <time>2015-06-07T12:13:25Z</time>
      </trkpt>
      <trkpt lat="45.502277333289385" lon="7.066753897815943">
        <ele>2947.0599999999999</ele>
        <time>2015-06-07T12:13:57Z</time>
      </trkpt>
      <trkpt lat="45.502272555604577" lon="7.066754065454006">
        <ele>2947.0599999999999</ele>
        <time>2015-06-07T12:14:20Z</time>
      </trkpt>
      <trkpt lat="45.502274902537465" lon="7.066752472892404">
        <ele>2947.0599999999999</ele>
        <time>2015-06-07T12:14:44Z</time>
      </trkpt>
      <trkpt lat="45.502267777919769" lon="7.066755658015609">
        <ele>2947.0599999999999</ele>
        <time>2015-06-07T12:15:17Z</time>
      </trkpt>
      <trkpt lat="45.502258641645312" lon="7.066752724349499">
        <ele>2947.0599999999999</ele>
        <time>2015-06-07T12:15:43Z</time>
      </trkpt>
      <trkpt lat="45.502261742949486" lon="7.066746102645993">
        <ele>2947.0599999999999</ele>
        <time>2015-06-07T12:16:11Z</time>
      </trkpt>
      <trkpt lat="45.502277165651321" lon="7.066751718521118">
        <ele>2947.0599999999999</ele>
        <time>2015-06-07T12:16:35Z</time>
      </trkpt>
      <trkpt lat="45.502278003841639" lon="7.066751131787896">
        <ele>2947.0599999999999</ele>
        <time>2015-06-07T12:16:57Z</time>
      </trkpt>
      <trkpt lat="45.502278674393892" lon="7.066729590296745">
        <ele>2947.54</ele>
        <time>2015-06-07T12:17:10Z</time>
      </trkpt>
      <trkpt lat="45.502274818718433" lon="7.06673420034349">
        <ele>2947.54</ele>
        <time>2015-06-07T12:17:14Z</time>
      </trkpt>
      <trkpt lat="45.50227808766067" lon="7.06672539934516">
        <ele>2947.54</ele>
        <time>2015-06-07T12:17:32Z</time>
      </trkpt>
      <trkpt lat="45.502285715192556" lon="7.066744510084391">
        <ele>2947.0599999999999</ele>
        <time>2015-06-07T12:17:41Z</time>
      </trkpt>
      <trkpt lat="45.502279177308083" lon="7.06674937158823">
        <ele>2947.54</ele>
        <time>2015-06-07T12:17:49Z</time>
      </trkpt>
      <trkpt lat="45.5022834520787" lon="7.066736463457346">
        <ele>2947.54</ele>
        <time>2015-06-07T12:18:04Z</time>
      </trkpt>
      <trkpt lat="45.502297366037965" lon="7.066768482327461">
        <ele>2947.0599999999999</ele>
        <time>2015-06-07T12:18:24Z</time>
      </trkpt>
      <trkpt lat="45.502290492877364" lon="7.066747695207596">
        <ele>2948.02</ele>
        <time>2015-06-07T12:18:35Z</time>
      </trkpt>
      <trkpt lat="45.502281440421939" lon="7.066736212000251">
        <ele>2948.02</ele>
        <time>2015-06-07T12:18:56Z</time>
      </trkpt>
      <trkpt lat="45.502281859517097" lon="7.066729087382555">
        <ele>2948.02</ele>
        <time>2015-06-07T12:19:05Z</time>
      </trkpt>
      <trkpt lat="45.502277668565512" lon="7.066735289990902">
        <ele>2948.5</ele>
        <time>2015-06-07T12:19:19Z</time>
      </trkpt>
      <trkpt lat="45.502292839810252" lon="7.066741576418281">
        <ele>2948.02</ele>
        <time>2015-06-07T12:19:35Z</time>
      </trkpt>
      <trkpt lat="45.502280937507749" lon="7.066727494820952">
        <ele>2948.02</ele>
        <time>2015-06-07T12:19:56Z</time>
      </trkpt>
      <trkpt lat="45.502284206449986" lon="7.066738475114107">
        <ele>2947.54</ele>
        <time>2015-06-07T12:20:12Z</time>
      </trkpt>
      <trkpt lat="45.502288984134793" lon="7.066740319132805">
        <ele>2948.02</ele>
        <time>2015-06-07T12:20:32Z</time>
      </trkpt>
      <trkpt lat="45.502282781526446" lon="7.066740402951837">
        <ele>2948.02</ele>
        <time>2015-06-07T12:20:53Z</time>
      </trkpt>
      <trkpt lat="45.502280853688717" lon="7.066743252798915">
        <ele>2947.54</ele>
        <time>2015-06-07T12:21:11Z</time>
      </trkpt>
      <trkpt lat="45.502278842031956" lon="7.066730177029967">
        <ele>2948.5</ele>
        <time>2015-06-07T12:21:25Z</time>
      </trkpt>
      <trkpt lat="45.502282781526446" lon="7.066722298040986">
        <ele>2948.02</ele>
        <time>2015-06-07T12:21:39Z</time>
      </trkpt>
      <trkpt lat="45.50226928666234" lon="7.06672640517354">
        <ele>2948.98</ele>
        <time>2015-06-07T12:21:55Z</time>
      </trkpt>
      <trkpt lat="45.502270795404911" lon="7.066714083775878">
        <ele>2947.54</ele>
        <time>2015-06-07T12:22:17Z</time>
      </trkpt>
      <trkpt lat="45.502295102924109" lon="7.06672833301127">
        <ele>2947.54</ele>
        <time>2015-06-07T12:22:43Z</time>
      </trkpt>
      <trkpt lat="45.502297366037965" lon="7.066736966371536">
        <ele>2947.0599999999999</ele>
        <time>2015-06-07T12:22:54Z</time>
      </trkpt>
      <trkpt lat="45.502321757376194" lon="7.066704193130136">
        <ele>2946.5799999999999</ele>
        <time>2015-06-07T12:23:09Z</time>
      </trkpt>
      <trkpt lat="45.502391075715423" lon="7.066691871732473">
        <ele>2944.1700000000001</ele>
        <time>2015-06-07T12:23:20Z</time>
      </trkpt>
      <trkpt lat="45.502417478710413" lon="7.06668340601027">
        <ele>2943.6900000000001</ele>
        <time>2015-06-07T12:23:23Z</time>
      </trkpt>
      <trkpt lat="45.5024837795645" lon="7.066710647195578">
        <ele>2941.77</ele>
        <time>2015-06-07T12:23:32Z</time>
      </trkpt>
      <trkpt lat="45.502557707950473" lon="7.066768817603588">
        <ele>2941.77</ele>
        <time>2015-06-07T12:23:42Z</time>
      </trkpt>
      <trkpt lat="45.502602551132441" lon="7.066807961091399">
        <ele>2941.29</ele>
        <time>2015-06-07T12:23:52Z</time>
      </trkpt>
      <trkpt lat="45.502636916935444" lon="7.06685003824532">
        <ele>2940.8099999999999</ele>
        <time>2015-06-07T12:23:59Z</time>
      </trkpt>
      <trkpt lat="45.50264747813344" lon="7.066871579736471">
        <ele>2940.3299999999999</ele>
        <time>2015-06-07T12:24:07Z</time>
      </trkpt>
      <trkpt lat="45.502621997147799" lon="7.066873088479042">
        <ele>2941.29</ele>
        <time>2015-06-07T12:24:16Z</time>
      </trkpt>
      <trkpt lat="45.502618560567498" lon="7.06692622974515">
        <ele>2943.21</ele>
        <time>2015-06-07T12:24:26Z</time>
      </trkpt>
      <trkpt lat="45.502646388486028" lon="7.066943412646651">
        <ele>2943.21</ele>
        <time>2015-06-07T12:24:36Z</time>
      </trkpt>
      <trkpt lat="45.502675725147128" lon="7.066973755136132">
        <ele>2943.21</ele>
        <time>2015-06-07T12:24:45Z</time>
      </trkpt>
      <trkpt lat="45.502716125920415" lon="7.067001834511757">
        <ele>2943.6900000000001</ele>
        <time>2015-06-07T12:24:53Z</time>
      </trkpt>
      <trkpt lat="45.502749569714069" lon="7.067063776776195">
        <ele>2943.21</ele>
        <time>2015-06-07T12:25:05Z</time>
      </trkpt>
      <trkpt lat="45.502783935517073" lon="7.067098477855325">
        <ele>2943.21</ele>
        <time>2015-06-07T12:25:14Z</time>
      </trkpt>
      <trkpt lat="45.50281997770071" lon="7.067125635221601">
        <ele>2942.73</ele>
        <time>2015-06-07T12:25:23Z</time>
      </trkpt>
      <trkpt lat="45.50287764519453" lon="7.067184057086706">
        <ele>2941.77</ele>
        <time>2015-06-07T12:25:33Z</time>
      </trkpt>
      <trkpt lat="45.502924164757133" lon="7.067241137847304">
        <ele>2940.8099999999999</ele>
        <time>2015-06-07T12:25:42Z</time>
      </trkpt>
      <trkpt lat="45.502958027645946" lon="7.067308193072677">
        <ele>2941.77</ele>
        <time>2015-06-07T12:25:53Z</time>
      </trkpt>
      <trkpt lat="45.50297194160521" lon="7.067315988242626">
        <ele>2942.25</ele>
        <time>2015-06-07T12:26:06Z</time>
      </trkpt>
      <trkpt lat="45.502979988232255" lon="7.067320598289371">
        <ele>2942.73</ele>
        <time>2015-06-07T12:26:21Z</time>
      </trkpt>
      <trkpt lat="45.503042349591851" lon="7.067401902750135">
        <ele>2941.29</ele>
        <time>2015-06-07T12:26:31Z</time>
      </trkpt>
      <trkpt lat="45.503048887476325" lon="7.067410033196211">
        <ele>2941.29</ele>
        <time>2015-06-07T12:26:32Z</time>
      </trkpt>
      <trkpt lat="45.50311803817749" lon="7.067487649619579">
        <ele>2939.8499999999999</ele>
        <time>2015-06-07T12:26:43Z</time>
      </trkpt>
      <trkpt lat="45.503153158351779" lon="7.067482452839613">
        <ele>2937.9299999999998</ele>
        <time>2015-06-07T12:26:52Z</time>
      </trkpt>
      <trkpt lat="45.503183333203197" lon="7.067446913570166">
        <ele>2935.04</ele>
        <time>2015-06-07T12:27:02Z</time>
      </trkpt>
      <trkpt lat="45.503208395093679" lon="7.067408608272672">
        <ele>2933.5999999999999</ele>
        <time>2015-06-07T12:27:11Z</time>
      </trkpt>
      <trkpt lat="45.503255082294345" lon="7.06741682253778">
        <ele>2930.2399999999998</ele>
        <time>2015-06-07T12:27:19Z</time>
      </trkpt>
      <trkpt lat="45.503308977931738" lon="7.067446326836944">
        <ele>2926.8699999999999</ele>
        <time>2015-06-07T12:27:28Z</time>
      </trkpt>
      <trkpt lat="45.503347618505359" lon="7.067472226917744">
        <ele>2924.9499999999998</ele>
        <time>2015-06-07T12:27:39Z</time>
      </trkpt>
      <trkpt lat="45.50337259657681" lon="7.067499216645956">
        <ele>2923.5100000000002</ele>
        <time>2015-06-07T12:27:47Z</time>
      </trkpt>
      <trkpt lat="45.503410063683987" lon="7.067499635741115">
        <ele>2922.54</ele>
        <time>2015-06-07T12:27:57Z</time>
      </trkpt>
      <trkpt lat="45.503434790298343" lon="7.067507347092032">
        <ele>2922.0599999999999</ele>
        <time>2015-06-07T12:28:06Z</time>
      </trkpt>
      <trkpt lat="45.503446189686656" lon="7.067522183060646">
        <ele>2921.5799999999999</ele>
        <time>2015-06-07T12:28:14Z</time>
      </trkpt>
      <trkpt lat="45.503458259627223" lon="7.067573480308056">
        <ele>2922.0599999999999</ele>
        <time>2015-06-07T12:28:24Z</time>
      </trkpt>
      <trkpt lat="45.503473179414868" lon="7.06760885193944">
        <ele>2922.54</ele>
        <time>2015-06-07T12:28:31Z</time>
      </trkpt>
      <trkpt lat="45.503496313467622" lon="7.067642211914063">
        <ele>2923.0300000000002</ele>
        <time>2015-06-07T12:28:39Z</time>
      </trkpt>
      <trkpt lat="45.503571415320039" lon="7.067654365673661">
        <ele>2921.5799999999999</ele>
        <time>2015-06-07T12:28:49Z</time>
      </trkpt>
      <trkpt lat="45.50359295681119" lon="7.067615306004882">
        <ele>2922.0599999999999</ele>
        <time>2015-06-07T12:28:53Z</time>
      </trkpt>
      <trkpt lat="45.503674009814858" lon="7.067532911896706">
        <ele>2920.6199999999999</ele>
        <time>2015-06-07T12:29:04Z</time>
      </trkpt>
      <trkpt lat="45.503733269870281" lon="7.067468538880348">
        <ele>2921.5799999999999</ele>
        <time>2015-06-07T12:29:15Z</time>
      </trkpt>
      <trkpt lat="45.503751123324037" lon="7.067409446462989">
        <ele>2922.0599999999999</ele>
        <time>2015-06-07T12:29:21Z</time>
      </trkpt>
      <trkpt lat="45.503834439441562" lon="7.067378852516413">
        <ele>2919.1799999999998</ele>
        <time>2015-06-07T12:29:32Z</time>
      </trkpt>
      <trkpt lat="45.50388028845191" lon="7.067402573302388">
        <ele>2917.2600000000002</ele>
        <time>2015-06-07T12:29:42Z</time>
      </trkpt>
      <trkpt lat="45.503934854641557" lon="7.067422354593873">
        <ele>2915.3400000000001</ele>
        <time>2015-06-07T12:29:52Z</time>
      </trkpt>
      <trkpt lat="45.503996964544058" lon="7.067421767860651">
        <ele>2913.4099999999999</ele>
        <time>2015-06-07T12:30:02Z</time>
      </trkpt>
      <trkpt lat="45.504076760262251" lon="7.067490667104721">
        <ele>2910.5300000000002</ele>
        <time>2015-06-07T12:30:13Z</time>
      </trkpt>
      <trkpt lat="45.504084471613169" lon="7.067500557750464">
        <ele>2910.5300000000002</ele>
        <time>2015-06-07T12:30:14Z</time>
      </trkpt>
      <trkpt lat="45.504142306745052" lon="7.067552357912064">
        <ele>2910.0500000000002</ele>
        <time>2015-06-07T12:30:23Z</time>
      </trkpt>
      <trkpt lat="45.504187736660242" lon="7.067514304071665">
        <ele>2909.5700000000002</ele>
        <time>2015-06-07T12:30:28Z</time>
      </trkpt>
      <trkpt lat="45.504230987280607" lon="7.067500641569495">
        <ele>2908.1300000000001</ele>
        <time>2015-06-07T12:30:38Z</time>
      </trkpt>
      <trkpt lat="45.504230484366417" lon="7.067502737045288">
        <ele>2908.6100000000001</ele>
        <time>2015-06-07T12:30:54Z</time>
      </trkpt>
      <trkpt lat="45.504221767187119" lon="7.06751991994679">
        <ele>2908.6100000000001</ele>
        <time>2015-06-07T12:31:03Z</time>
      </trkpt>
      <trkpt lat="45.504237441346049" lon="7.06750575453043">
        <ele>2908.6100000000001</ele>
        <time>2015-06-07T12:31:14Z</time>
      </trkpt>
      <trkpt lat="45.504224197939038" lon="7.06751405261457">
        <ele>2907.1599999999999</ele>
        <time>2015-06-07T12:31:21Z</time>
      </trkpt>
      <trkpt lat="45.504224868491292" lon="7.067499719560146">
        <ele>2907.6500000000001</ele>
        <time>2015-06-07T12:31:30Z</time>
      </trkpt>
      <trkpt lat="45.504231322556734" lon="7.067512292414904">
        <ele>2907.6500000000001</ele>
        <time>2015-06-07T12:31:49Z</time>
      </trkpt>
      <trkpt lat="45.504230400547385" lon="7.067522183060646">
        <ele>2907.6500000000001</ele>
        <time>2015-06-07T12:32:18Z</time>
      </trkpt>
      <trkpt lat="45.50422084517777" lon="7.067523943260312">
        <ele>2907.6500000000001</ele>
        <time>2015-06-07T12:32:50Z</time>
      </trkpt>
      <trkpt lat="45.504215396940708" lon="7.067537689581513">
        <ele>2907.6500000000001</ele>
        <time>2015-06-07T12:33:15Z</time>
      </trkpt>
      <trkpt lat="45.504217827692628" lon="7.067542215809226">
        <ele>2907.6500000000001</ele>
        <time>2015-06-07T12:33:37Z</time>
      </trkpt>
      <trkpt lat="45.504216151311994" lon="7.067533917725086">
        <ele>2907.6500000000001</ele>
        <time>2015-06-07T12:34:03Z</time>
      </trkpt>
      <trkpt lat="45.504217073321342" lon="7.067531235516071">
        <ele>2907.1599999999999</ele>
        <time>2015-06-07T12:34:30Z</time>
      </trkpt>
      <trkpt lat="45.504221599549055" lon="7.067492930218577">
        <ele>2907.1599999999999</ele>
        <time>2015-06-07T12:34:47Z</time>
      </trkpt>
      <trkpt lat="45.504225203767419" lon="7.067494941875339">
        <ele>2907.1599999999999</ele>
        <time>2015-06-07T12:35:01Z</time>
      </trkpt>
      <trkpt lat="45.504227802157402" lon="7.067488487809897">
        <ele>2908.1300000000001</ele>
        <time>2015-06-07T12:35:09Z</time>
      </trkpt>
      <trkpt lat="45.504225371405482" lon="7.067451607435942">
        <ele>2907.1599999999999</ele>
        <time>2015-06-07T12:35:19Z</time>
      </trkpt>
      <trkpt lat="45.50421305000782" lon="7.067454792559147">
        <ele>2907.1599999999999</ele>
        <time>2015-06-07T12:35:41Z</time>
      </trkpt>
      <trkpt lat="45.504211038351059" lon="7.06746225245297">
        <ele>2907.1599999999999</ele>
        <time>2015-06-07T12:36:08Z</time>
      </trkpt>
      <trkpt lat="45.504240458831191" lon="7.067489996552467">
        <ele>2907.6500000000001</ele>
        <time>2015-06-07T12:36:19Z</time>
      </trkpt>
      <trkpt lat="45.504228305071592" lon="7.067489661276341">
        <ele>2907.6500000000001</ele>
        <time>2015-06-07T12:36:30Z</time>
      </trkpt>
      <trkpt lat="45.504308519884944" lon="7.067515142261982">
        <ele>2906.6799999999998</ele>
        <time>2015-06-07T12:36:41Z</time>
      </trkpt>
      <trkpt lat="45.504332324489951" lon="7.067518746480346">
        <ele>2906.1999999999998</ele>
        <time>2015-06-07T12:36:44Z</time>
      </trkpt>
      <trkpt lat="45.504467105492949" lon="7.067553866654635">
        <ele>2903.8000000000002</ele>
        <time>2015-06-07T12:37:00Z</time>
      </trkpt>
      <trkpt lat="45.50454581156373" lon="7.067597787827253">
        <ele>2901.4000000000001</ele>
        <time>2015-06-07T12:37:12Z</time>
      </trkpt>
      <trkpt lat="45.504587050527334" lon="7.067613126710057">
        <ele>2900.4400000000001</ele>
        <time>2015-06-07T12:37:17Z</time>
      </trkpt>
      <trkpt lat="45.504684867337346" lon="7.067680433392525">
        <ele>2897.0700000000002</ele>
        <time>2015-06-07T12:37:29Z</time>
      </trkpt>
      <trkpt lat="45.504739265888929" lon="7.067722678184509">
        <ele>2895.1500000000001</ele>
        <time>2015-06-07T12:37:36Z</time>
      </trkpt>
      <trkpt lat="45.504767009988427" lon="7.067722342908382">
        <ele>2894.1900000000001</ele>
        <time>2015-06-07T12:37:39Z</time>
      </trkpt>
      <trkpt lat="45.504820737987757" lon="7.067782944068313">
        <ele>2893.23</ele>
        <time>2015-06-07T12:37:50Z</time>
      </trkpt>
      <trkpt lat="45.504850242286921" lon="7.067782524973154">
        <ele>2891.7800000000002</ele>
        <time>2015-06-07T12:37:59Z</time>
      </trkpt>
      <trkpt lat="45.504899192601442" lon="7.067768778651953">
        <ele>2889.8600000000001</ele>
        <time>2015-06-07T12:38:07Z</time>
      </trkpt>
      <trkpt lat="45.504964403808117" lon="7.067813957110047">
        <ele>2887.9400000000001</ele>
        <time>2015-06-07T12:38:18Z</time>
      </trkpt>
      <trkpt lat="45.505002876743674" lon="7.067842287942767">
        <ele>2887.46</ele>
        <time>2015-06-07T12:38:28Z</time>
      </trkpt>
      <trkpt lat="45.505043948069215" lon="7.067861231043935">
        <ele>2887.46</ele>
        <time>2015-06-07T12:38:40Z</time>
      </trkpt>
      <trkpt lat="45.505075380206108" lon="7.067886292934418">
        <ele>2886.98</ele>
        <time>2015-06-07T12:38:48Z</time>
      </trkpt>
      <trkpt lat="45.505099603906274" lon="7.067898949608207">
        <ele>2886.5</ele>
        <time>2015-06-07T12:38:57Z</time>
      </trkpt>
      <trkpt lat="45.505146710202098" lon="7.067897273227572">
        <ele>2886.5</ele>
        <time>2015-06-07T12:39:05Z</time>
      </trkpt>
      <trkpt lat="45.50518250092864" lon="7.067903643473983">
        <ele>2886.98</ele>
        <time>2015-06-07T12:39:09Z</time>
      </trkpt>
      <trkpt lat="45.505290124565363" lon="7.067951336503029">
        <ele>2886.98</ele>
        <time>2015-06-07T12:39:20Z</time>
      </trkpt>
      <trkpt lat="45.505377296358347" lon="7.067971285432577">
        <ele>2886.02</ele>
        <time>2015-06-07T12:39:29Z</time>
      </trkpt>
      <trkpt lat="45.505402693524957" lon="7.067956449463964">
        <ele>2886.5</ele>
        <time>2015-06-07T12:39:32Z</time>
      </trkpt>
      <trkpt lat="45.505465222522616" lon="7.067943708971143">
        <ele>2886.5</ele>
        <time>2015-06-07T12:39:38Z</time>
      </trkpt>
      <trkpt lat="45.505483662709594" lon="7.067935913801193">
        <ele>2886.5</ele>
        <time>2015-06-07T12:39:40Z</time>
      </trkpt>
      <trkpt lat="45.50564325414598" lon="7.067918563261628">
        <ele>2885.5300000000002</ele>
        <time>2015-06-07T12:39:54Z</time>
      </trkpt>
      <trkpt lat="45.505804773420095" lon="7.067924179136753">
        <ele>2884.5700000000002</ele>
        <time>2015-06-07T12:40:07Z</time>
      </trkpt>
      <trkpt lat="45.506001245230436" lon="7.067921748384833">
        <ele>2883.1300000000001</ele>
        <time>2015-06-07T12:40:22Z</time>
      </trkpt>
      <trkpt lat="45.506167709827423" lon="7.067950582131743">
        <ele>2881.21</ele>
        <time>2015-06-07T12:40:35Z</time>
      </trkpt>
      <trkpt lat="45.50634347833693" lon="7.067960137501359">
        <ele>2878.3200000000002</ele>
        <time>2015-06-07T12:40:48Z</time>
      </trkpt>
      <trkpt lat="45.506505081430078" lon="7.067989390343428">
        <ele>2876.8800000000001</ele>
        <time>2015-06-07T12:41:01Z</time>
      </trkpt>
      <trkpt lat="45.506632486358285" lon="7.06802518106997">
        <ele>2875.4400000000001</ele>
        <time>2015-06-07T12:41:12Z</time>
      </trkpt>
      <trkpt lat="45.506642293184996" lon="7.068025516346097">
        <ele>2874.96</ele>
        <time>2015-06-07T12:41:13Z</time>
      </trkpt>
      <trkpt lat="45.506769027560949" lon="7.068094750866294">
        <ele>2872.5599999999999</ele>
        <time>2015-06-07T12:41:24Z</time>
      </trkpt>
      <trkpt lat="45.506794173270464" lon="7.068107323721051">
        <ele>2872.0799999999999</ele>
        <time>2015-06-07T12:41:26Z</time>
      </trkpt>
      <trkpt lat="45.506922416388988" lon="7.068114951252937">
        <ele>2870.1500000000001</ele>
        <time>2015-06-07T12:41:37Z</time>
      </trkpt>
      <trkpt lat="45.507105477154255" lon="7.068126769736409">
        <ele>2866.79</ele>
        <time>2015-06-07T12:41:51Z</time>
      </trkpt>
      <trkpt lat="45.507222069427371" lon="7.068176390603185">
        <ele>2866.3099999999999</ele>
        <time>2015-06-07T12:42:00Z</time>
      </trkpt>
      <trkpt lat="45.507269008085132" lon="7.068225927650929">
        <ele>2865.8299999999999</ele>
        <time>2015-06-07T12:42:05Z</time>
      </trkpt>
      <trkpt lat="45.507447374984622" lon="7.068317206576467">
        <ele>2863.9000000000001</ele>
        <time>2015-06-07T12:42:21Z</time>
      </trkpt>
      <trkpt lat="45.507553154602647" lon="7.068392559885979">
        <ele>2861.5</ele>
        <time>2015-06-07T12:42:32Z</time>
      </trkpt>
      <trkpt lat="45.507636470720172" lon="7.068454502150416">
        <ele>2858.1399999999999</ele>
        <time>2015-06-07T12:42:42Z</time>
      </trkpt>
      <trkpt lat="45.50764954648912" lon="7.068447880446911">
        <ele>2857.1799999999998</ele>
        <time>2015-06-07T12:42:44Z</time>
      </trkpt>
      <trkpt lat="45.507664298638701" lon="7.068451987579465">
        <ele>2857.6599999999999</ele>
        <time>2015-06-07T12:42:49Z</time>
      </trkpt>
      <trkpt lat="45.507782064378262" lon="7.068314021453261">
        <ele>2856.21</ele>
        <time>2015-06-07T12:43:02Z</time>
      </trkpt>
      <trkpt lat="45.507788602262735" lon="7.068300023674965">
        <ele>2856.21</ele>
        <time>2015-06-07T12:43:03Z</time>
      </trkpt>
      <trkpt lat="45.507964370772243" lon="7.068199357017875">
        <ele>2855.25</ele>
        <time>2015-06-07T12:43:17Z</time>
      </trkpt>
      <trkpt lat="45.508108204230666" lon="7.068120315670967">
        <ele>2855.25</ele>
        <time>2015-06-07T12:43:30Z</time>
      </trkpt>
      <trkpt lat="45.508213900029659" lon="7.068045129999518">
        <ele>2855.25</ele>
        <time>2015-06-07T12:43:40Z</time>
      </trkpt>
      <trkpt lat="45.508337868377566" lon="7.068006992340088">
        <ele>2856.21</ele>
        <time>2015-06-07T12:43:53Z</time>
      </trkpt>
      <trkpt lat="45.50843819975853" lon="7.067976063117385">
        <ele>2854.29</ele>
        <time>2015-06-07T12:44:04Z</time>
      </trkpt>
      <trkpt lat="45.508500812575221" lon="7.067940188571811">
        <ele>2851.4099999999999</ele>
        <time>2015-06-07T12:44:12Z</time>
      </trkpt>
      <trkpt lat="45.508507015183568" lon="7.067934405058622">
        <ele>2851.4099999999999</ele>
        <time>2015-06-07T12:44:13Z</time>
      </trkpt>
      <trkpt lat="45.508524030447006" lon="7.06792158074677">
        <ele>2850.4499999999998</ele>
        <time>2015-06-07T12:44:15Z</time>
      </trkpt>
      <trkpt lat="45.50860483199358" lon="7.067901967093349">
        <ele>2847.5599999999999</ele>
        <time>2015-06-07T12:44:25Z</time>
      </trkpt>
      <trkpt lat="45.508631737902761" lon="7.06790397875011">
        <ele>2846.5999999999999</ele>
        <time>2015-06-07T12:44:28Z</time>
      </trkpt>
      <trkpt lat="45.508694183081388" lon="7.067927196621895">
        <ele>2843.7199999999998</ele>
        <time>2015-06-07T12:44:38Z</time>
      </trkpt>
      <trkpt lat="45.508686890825629" lon="7.067911271005869">
        <ele>2842.7600000000002</ele>
        <time>2015-06-07T12:44:40Z</time>
      </trkpt>
      <trkpt lat="45.508727626875043" lon="7.067856285721064">
        <ele>2840.3499999999999</ele>
        <time>2015-06-07T12:44:48Z</time>
      </trkpt>
      <trkpt lat="45.508784204721451" lon="7.067808425053954">
        <ele>2836.9899999999998</ele>
        <time>2015-06-07T12:45:00Z</time>
      </trkpt>
      <trkpt lat="45.50879099406302" lon="7.067805239930749">
        <ele>2836.5100000000002</ele>
        <time>2015-06-07T12:45:01Z</time>
      </trkpt>
      <trkpt lat="45.508827622979879" lon="7.067823763936758">
        <ele>2836.0300000000002</ele>
        <time>2015-06-07T12:45:05Z</time>
      </trkpt>
      <trkpt lat="45.508875902742147" lon="7.067850083112717">
        <ele>2835.5500000000002</ele>
        <time>2015-06-07T12:45:12Z</time>
      </trkpt>
      <trkpt lat="45.508990986272693" lon="7.067851088941097">
        <ele>2831.6999999999998</ele>
        <time>2015-06-07T12:45:21Z</time>
      </trkpt>
      <trkpt lat="45.509109674021602" lon="7.067855447530747">
        <ele>2829.3000000000002</ele>
        <time>2015-06-07T12:45:32Z</time>
      </trkpt>
      <trkpt lat="45.509142950177193" lon="7.067854525521398">
        <ele>2829.3000000000002</ele>
        <time>2015-06-07T12:45:36Z</time>
      </trkpt>
      <trkpt lat="45.509264906868339" lon="7.06783901900053">
        <ele>2828.8200000000002</ele>
        <time>2015-06-07T12:45:47Z</time>
      </trkpt>
      <trkpt lat="45.509367249906063" lon="7.067836755886674">
        <ele>2826.8899999999999</ele>
        <time>2015-06-07T12:45:59Z</time>
      </trkpt>
      <trkpt lat="45.509420642629266" lon="7.067812280729413">
        <ele>2823.5300000000002</ele>
        <time>2015-06-07T12:46:07Z</time>
      </trkpt>
      <trkpt lat="45.509436568245292" lon="7.067808005958796">
        <ele>2822.5700000000002</ele>
        <time>2015-06-07T12:46:09Z</time>
      </trkpt>
      <trkpt lat="45.509475041180849" lon="7.067770957946777">
        <ele>2819.6799999999998</ele>
        <time>2015-06-07T12:46:18Z</time>
      </trkpt>
      <trkpt lat="45.509550059214234" lon="7.067742794752121">
        <ele>2816.8000000000002</ele>
        <time>2015-06-07T12:46:28Z</time>
      </trkpt>
      <trkpt lat="45.509557435289025" lon="7.067735837772489">
        <ele>2816.3200000000002</ele>
        <time>2015-06-07T12:46:29Z</time>
      </trkpt>
      <trkpt lat="45.50955961458385" lon="7.067665932700038">
        <ele>2813.4400000000001</ele>
        <time>2015-06-07T12:46:39Z</time>
      </trkpt>
      <trkpt lat="45.509555591270328" lon="7.067586639896035">
        <ele>2811.5100000000002</ele>
        <time>2015-06-07T12:46:45Z</time>
      </trkpt>
      <trkpt lat="45.50956891849637" lon="7.067500054836273">
        <ele>2808.1500000000001</ele>
        <time>2015-06-07T12:46:54Z</time>
      </trkpt>
      <trkpt lat="45.509639158844948" lon="7.067486559972167">
        <ele>2806.23</ele>
        <time>2015-06-07T12:47:01Z</time>
      </trkpt>
      <trkpt lat="45.509729264304042" lon="7.067514806985855">
        <ele>2805.75</ele>
        <time>2015-06-07T12:47:09Z</time>
      </trkpt>
      <trkpt lat="45.509859770536423" lon="7.067593010142446">
        <ele>2805.2600000000002</ele>
        <time>2015-06-07T12:47:22Z</time>
      </trkpt>
      <trkpt lat="45.509923556819558" lon="7.067670794203877">
        <ele>2806.23</ele>
        <time>2015-06-07T12:47:34Z</time>
      </trkpt>
      <trkpt lat="45.510013410821557" lon="7.067716894671321">
        <ele>2806.23</ele>
        <time>2015-06-07T12:47:45Z</time>
      </trkpt>
      <trkpt lat="45.510130925104022" lon="7.067814376205206">
        <ele>2805.2600000000002</ele>
        <time>2015-06-07T12:47:56Z</time>
      </trkpt>
      <trkpt lat="45.510134277865291" lon="7.06782091408968">
        <ele>2805.2600000000002</ele>
        <time>2015-06-07T12:47:57Z</time>
      </trkpt>
      <trkpt lat="45.510223042219877" lon="7.067943792790175">
        <ele>2804.7800000000002</ele>
        <time>2015-06-07T12:48:09Z</time>
      </trkpt>
      <trkpt lat="45.510335192084312" lon="7.068068347871304">
        <ele>2803.3400000000001</ele>
        <time>2015-06-07T12:48:21Z</time>
      </trkpt>
      <trkpt lat="45.510420436039567" lon="7.068158285692334">
        <ele>2801.9000000000001</ele>
        <time>2015-06-07T12:48:32Z</time>
      </trkpt>
      <trkpt lat="45.510500567033887" lon="7.068230621516705">
        <ele>2799.02</ele>
        <time>2015-06-07T12:48:43Z</time>
      </trkpt>
      <trkpt lat="45.510558318346739" lon="7.06825383938849">
        <ele>2798.0500000000002</ele>
        <time>2015-06-07T12:48:48Z</time>
      </trkpt>
      <trkpt lat="45.510546416044235" lon="7.068379987031221">
        <ele>2798.54</ele>
        <time>2015-06-07T12:48:58Z</time>
      </trkpt>
      <trkpt lat="45.510550774633884" lon="7.068418543785811">
        <ele>2799.98</ele>
        <time>2015-06-07T12:49:08Z</time>
      </trkpt>
      <trkpt lat="45.510550355538726" lon="7.068415945395827">
        <ele>2799.98</ele>
        <time>2015-06-07T12:49:21Z</time>
      </trkpt>
      <trkpt lat="45.510558150708675" lon="7.068427009508014">
        <ele>2800.9400000000001</ele>
        <time>2015-06-07T12:49:41Z</time>
      </trkpt>
      <trkpt lat="45.510550104081631" lon="7.068434553220868">
        <ele>2800.9400000000001</ele>
        <time>2015-06-07T12:49:42Z</time>
      </trkpt>
      <trkpt lat="45.510541889816523" lon="7.068453999236226">
        <ele>2801.4200000000001</ele>
        <time>2015-06-07T12:49:44Z</time>
      </trkpt>
      <trkpt lat="45.510553792119026" lon="7.068589869886637">
        <ele>2802.3800000000001</ele>
        <time>2015-06-07T12:49:56Z</time>
      </trkpt>
      <trkpt lat="45.510605089366436" lon="7.06868190318346">
        <ele>2803.3400000000001</ele>
        <time>2015-06-07T12:50:08Z</time>
      </trkpt>
      <trkpt lat="45.510673066601157" lon="7.068814840167761">
        <ele>2804.3000000000002</ele>
        <time>2015-06-07T12:50:21Z</time>
      </trkpt>
      <trkpt lat="45.510737439617515" lon="7.068923134356737">
        <ele>2804.3000000000002</ele>
        <time>2015-06-07T12:50:31Z</time>
      </trkpt>
      <trkpt lat="45.51078706048429" lon="7.068956242874265">
        <ele>2802.8600000000001</ele>
        <time>2015-06-07T12:50:36Z</time>
      </trkpt>
      <trkpt lat="45.510950842872262" lon="7.069068057462573">
        <ele>2800.46</ele>
        <time>2015-06-07T12:50:51Z</time>
      </trkpt>
      <trkpt lat="45.511022172868252" lon="7.069187499582768">
        <ele>2801.4200000000001</ele>
        <time>2015-06-07T12:51:02Z</time>
      </trkpt>
      <trkpt lat="45.511109009385109" lon="7.069317251443863">
        <ele>2802.3800000000001</ele>
        <time>2015-06-07T12:51:14Z</time>
      </trkpt>
      <trkpt lat="45.511175477877259" lon="7.069407608360052">
        <ele>2804.3000000000002</ele>
        <time>2015-06-07T12:51:25Z</time>
      </trkpt>
      <trkpt lat="45.511223170906305" lon="7.069468041881919">
        <ele>2806.23</ele>
        <time>2015-06-07T12:51:36Z</time>
      </trkpt>
      <trkpt lat="45.511261560022831" lon="7.069543311372399">
        <ele>2808.1500000000001</ele>
        <time>2015-06-07T12:51:48Z</time>
      </trkpt>
      <trkpt lat="45.511289052665234" lon="7.069606594741345">
        <ele>2810.5500000000002</ele>
        <time>2015-06-07T12:51:58Z</time>
      </trkpt>
      <trkpt lat="45.511326687410474" lon="7.069654790684581">
        <ele>2810.5500000000002</ele>
        <time>2015-06-07T12:52:07Z</time>
      </trkpt>
      <trkpt lat="45.511387456208467" lon="7.069669626653194">
        <ele>2811.0300000000002</ele>
        <time>2015-06-07T12:52:15Z</time>
      </trkpt>
      <trkpt lat="45.511464485898614" lon="7.069692928344011">
        <ele>2811.9899999999998</ele>
        <time>2015-06-07T12:52:26Z</time>
      </trkpt>
      <trkpt lat="45.511504467576742" lon="7.069716900587082">
        <ele>2811.9899999999998</ele>
        <time>2015-06-07T12:52:32Z</time>
      </trkpt>
      <trkpt lat="45.511553417891264" lon="7.069747997447848">
        <ele>2812.96</ele>
        <time>2015-06-07T12:52:38Z</time>
      </trkpt>
      <trkpt lat="45.511642517521977" lon="7.06979057751596">
        <ele>2812.4699999999998</ele>
        <time>2015-06-07T12:52:47Z</time>
      </trkpt>
      <trkpt lat="45.51165777258575" lon="7.069800719618797">
        <ele>2811.9899999999998</ele>
        <time>2015-06-07T12:52:49Z</time>
      </trkpt>
      <trkpt lat="45.511758020147681" lon="7.069894010201097">
        <ele>2808.6300000000001</ele>
        <time>2015-06-07T12:53:00Z</time>
      </trkpt>
      <trkpt lat="45.511796828359365" lon="7.069943211972714">
        <ele>2806.71</ele>
        <time>2015-06-07T12:53:04Z</time>
      </trkpt>
      <trkpt lat="45.511823063716292" lon="7.069960897788405">
        <ele>2806.23</ele>
        <time>2015-06-07T12:53:07Z</time>
      </trkpt>
      <trkpt lat="45.511837229132652" lon="7.070031641051173">
        <ele>2805.2600000000002</ele>
        <time>2015-06-07T12:53:11Z</time>
      </trkpt>
      <trkpt lat="45.511844269931316" lon="7.070125686004758">
        <ele>2803.8200000000002</ele>
        <time>2015-06-07T12:53:17Z</time>
      </trkpt>
      <trkpt lat="45.511857178062201" lon="7.070196093991399">
        <ele>2801.9000000000001</ele>
        <time>2015-06-07T12:53:22Z</time>
      </trkpt>
      <trkpt lat="45.511865727603436" lon="7.070223167538643">
        <ele>2801.4200000000001</ele>
        <time>2015-06-07T12:53:24Z</time>
      </trkpt>
      <trkpt lat="45.511934962123632" lon="7.070345459505916">
        <ele>2797.5700000000002</ele>
        <time>2015-06-07T12:53:34Z</time>
      </trkpt>
      <trkpt lat="45.512001514434814" lon="7.070429865270853">
        <ele>2794.6900000000001</ele>
        <time>2015-06-07T12:53:42Z</time>
      </trkpt>
      <trkpt lat="45.512106874957681" lon="7.07043657079339">
        <ele>2793.73</ele>
        <time>2015-06-07T12:53:51Z</time>
      </trkpt>
      <trkpt lat="45.512205027043819" lon="7.07051276229322">
        <ele>2792.29</ele>
        <time>2015-06-07T12:54:01Z</time>
      </trkpt>
      <trkpt lat="45.512293791398406" lon="7.070598006248474">
        <ele>2790.3600000000001</ele>
        <time>2015-06-07T12:54:11Z</time>
      </trkpt>
      <trkpt lat="45.512341484427452" lon="7.070631952956319">
        <ele>2788.4400000000001</ele>
        <time>2015-06-07T12:54:17Z</time>
      </trkpt>
      <trkpt lat="45.512343915179372" lon="7.070660954341292">
        <ele>2787.96</ele>
        <time>2015-06-07T12:54:19Z</time>
      </trkpt>
      <trkpt lat="45.512350453063846" lon="7.070687860250473">
        <ele>2787.48</ele>
        <time>2015-06-07T12:54:21Z</time>
      </trkpt>
      <trkpt lat="45.512430584058166" lon="7.070858096703887">
        <ele>2784.1199999999999</ele>
        <time>2015-06-07T12:54:33Z</time>
      </trkpt>
      <trkpt lat="45.512438965961337" lon="7.070889612659812">
        <ele>2783.6300000000001</ele>
        <time>2015-06-07T12:54:35Z</time>
      </trkpt>
      <trkpt lat="45.512513061985373" lon="7.071014167740941">
        <ele>2781.71</ele>
        <time>2015-06-07T12:54:45Z</time>
      </trkpt>
      <trkpt lat="45.512543572112918" lon="7.071039229631424">
        <ele>2780.75</ele>
        <time>2015-06-07T12:54:48Z</time>
      </trkpt>
      <trkpt lat="45.512592941522598" lon="7.071153139695525">
        <ele>2778.8299999999999</ele>
        <time>2015-06-07T12:54:55Z</time>
      </trkpt>
      <trkpt lat="45.512678688392043" lon="7.071329997852445">
        <ele>2777.3899999999999</ele>
        <time>2015-06-07T12:55:07Z</time>
      </trkpt>
      <trkpt lat="45.51270442083478" lon="7.071364363655448">
        <ele>2776.9099999999999</ele>
        <time>2015-06-07T12:55:10Z</time>
      </trkpt>
      <trkpt lat="45.512721855193377" lon="7.071439633145928">
        <ele>2775.9400000000001</ele>
        <time>2015-06-07T12:55:15Z</time>
      </trkpt>
      <trkpt lat="45.512725962325931" lon="7.071562092751265">
        <ele>2775.46</ele>
        <time>2015-06-07T12:55:22Z</time>
      </trkpt>
      <trkpt lat="45.512759909033775" lon="7.071593021973968">
        <ele>2774.98</ele>
        <time>2015-06-07T12:55:26Z</time>
      </trkpt>
      <trkpt lat="45.512798214331269" lon="7.071692850440741">
        <ele>2773.0599999999999</ele>
        <time>2015-06-07T12:55:38Z</time>
      </trkpt>
      <trkpt lat="45.512807182967663" lon="7.071698047220707">
        <ele>2772.0999999999999</ele>
        <time>2015-06-07T12:55:40Z</time>
      </trkpt>
      <trkpt lat="45.512786228209734" lon="7.071796702221036">
        <ele>2769.6999999999998</ele>
        <time>2015-06-07T12:55:49Z</time>
      </trkpt>
      <trkpt lat="45.512815648689866" lon="7.071831319481134">
        <ele>2767.29</ele>
        <time>2015-06-07T12:55:56Z</time>
      </trkpt>
      <trkpt lat="45.512803997844458" lon="7.07187314517796">
        <ele>2765.3699999999999</ele>
        <time>2015-06-07T12:56:04Z</time>
      </trkpt>
      <trkpt lat="45.512815313413739" lon="7.071883538737893">
        <ele>2764.4099999999999</ele>
        <time>2015-06-07T12:56:12Z</time>
      </trkpt>
      <trkpt lat="45.512822521850467" lon="7.071883622556925">
        <ele>2763.9299999999998</ele>
        <time>2015-06-07T12:56:14Z</time>
      </trkpt>
      <trkpt lat="45.512868370860815" lon="7.071905415505171">
        <ele>2762.4899999999998</ele>
        <time>2015-06-07T12:56:18Z</time>
      </trkpt>
      <trkpt lat="45.512888068333268" lon="7.071952354162931">
        <ele>2761.04</ele>
        <time>2015-06-07T12:56:21Z</time>
      </trkpt>
      <trkpt lat="45.512909023091197" lon="7.071998454630375">
        <ele>2760.0799999999999</ele>
        <time>2015-06-07T12:56:24Z</time>
      </trkpt>
      <trkpt lat="45.512968702241778" lon="7.072091577574611">
        <ele>2758.6399999999999</ele>
        <time>2015-06-07T12:56:31Z</time>
      </trkpt>
      <trkpt lat="45.512993345037103" lon="7.072157543152571">
        <ele>2758.6399999999999</ele>
        <time>2015-06-07T12:56:36Z</time>
      </trkpt>
      <trkpt lat="45.513028465211391" lon="7.07218486815691">
        <ele>2757.6799999999998</ele>
        <time>2015-06-07T12:56:39Z</time>
      </trkpt>
      <trkpt lat="45.513073308393359" lon="7.072341693565249">
        <ele>2755.7600000000002</ele>
        <time>2015-06-07T12:56:49Z</time>
      </trkpt>
      <trkpt lat="45.513098873198032" lon="7.072389302775264">
        <ele>2754.8000000000002</ele>
        <time>2015-06-07T12:56:53Z</time>
      </trkpt>
      <trkpt lat="45.513145811855793" lon="7.072432553395629">
        <ele>2754.3099999999999</ele>
        <time>2015-06-07T12:56:58Z</time>
      </trkpt>
      <trkpt lat="45.513175651431084" lon="7.072487203404307">
        <ele>2753.8299999999999</ele>
        <time>2015-06-07T12:57:02Z</time>
      </trkpt>
      <trkpt lat="45.513266175985336" lon="7.072585104033351">
        <ele>2754.3099999999999</ele>
        <time>2015-06-07T12:57:12Z</time>
      </trkpt>
      <trkpt lat="45.513335326686502" lon="7.072646208107472">
        <ele>2755.2800000000002</ele>
        <time>2015-06-07T12:57:20Z</time>
      </trkpt>
      <trkpt lat="45.513370614498854" lon="7.072665151208639">
        <ele>2755.7600000000002</ele>
        <time>2015-06-07T12:57:24Z</time>
      </trkpt>
      <trkpt lat="45.513524422422051" lon="7.072701947763562">
        <ele>2754.8000000000002</ele>
        <time>2015-06-07T12:57:38Z</time>
      </trkpt>
      <trkpt lat="45.513654425740242" lon="7.072728518396616">
        <ele>2754.3099999999999</ele>
        <time>2015-06-07T12:57:49Z</time>
      </trkpt>
      <trkpt lat="45.513750901445746" lon="7.07278492860496">
        <ele>2750.4699999999998</ele>
        <time>2015-06-07T12:57:57Z</time>
      </trkpt>
      <trkpt lat="45.513761211186647" lon="7.072790125384927">
        <ele>2754.3099999999999</ele>
        <time>2015-06-07T12:57:58Z</time>
      </trkpt>
      <trkpt lat="45.513873696327209" lon="7.072878470644355">
        <ele>2751.9099999999999</ele>
        <time>2015-06-07T12:58:09Z</time>
      </trkpt>
      <trkpt lat="45.513965394347906" lon="7.07297352142632">
        <ele>2749.9899999999998</ele>
        <time>2015-06-07T12:58:19Z</time>
      </trkpt>
      <trkpt lat="45.514025073498487" lon="7.072960445657373">
        <ele>2748.0700000000002</ele>
        <time>2015-06-07T12:58:26Z</time>
      </trkpt>
      <trkpt lat="45.514042591676116" lon="7.072970671579242">
        <ele>2747.5900000000001</ele>
        <time>2015-06-07T12:58:29Z</time>
      </trkpt>
      <trkpt lat="45.514117944985628" lon="7.072940832003951">
        <ele>2744.2199999999998</ele>
        <time>2015-06-07T12:58:39Z</time>
      </trkpt>
      <trkpt lat="45.514172846451402" lon="7.072937730699778">
        <ele>2742.3000000000002</ele>
        <time>2015-06-07T12:58:45Z</time>
      </trkpt>
      <trkpt lat="45.514234201982617" lon="7.072889031842351">
        <ele>2739.8899999999999</ele>
        <time>2015-06-07T12:58:52Z</time>
      </trkpt>
      <trkpt lat="45.514293545857072" lon="7.072903364896774">
        <ele>2738.9299999999998</ele>
        <time>2015-06-07T12:58:58Z</time>
      </trkpt>
      <trkpt lat="45.514340652152896" lon="7.07286799326539">
        <ele>2737.0100000000002</ele>
        <time>2015-06-07T12:59:03Z</time>
      </trkpt>
      <trkpt lat="45.514409635215998" lon="7.072884673252702">
        <ele>2735.0900000000001</ele>
        <time>2015-06-07T12:59:10Z</time>
      </trkpt>
      <trkpt lat="45.514425309374928" lon="7.07286992110312">
        <ele>2734.6100000000001</ele>
        <time>2015-06-07T12:59:12Z</time>
      </trkpt>
      <trkpt lat="45.514493873342872" lon="7.072882913053036">
        <ele>2733.1700000000001</ele>
        <time>2015-06-07T12:59:18Z</time>
      </trkpt>
      <trkpt lat="45.514532849192619" lon="7.072831196710467">
        <ele>2731.2399999999998</ele>
        <time>2015-06-07T12:59:23Z</time>
      </trkpt>
      <trkpt lat="45.514653716236353" lon="7.072864389047027">
        <ele>2728.3600000000001</ele>
        <time>2015-06-07T12:59:34Z</time>
      </trkpt>
      <trkpt lat="45.514684896916151" lon="7.072875956073403">
        <ele>2726.9200000000001</ele>
        <time>2015-06-07T12:59:37Z</time>
      </trkpt>
      <trkpt lat="45.514733847230673" lon="7.072969414293766">
        <ele>2724.9899999999998</ele>
        <time>2015-06-07T12:59:46Z</time>
      </trkpt>
      <trkpt lat="45.514782294631004" lon="7.073036218062043">
        <ele>2723.5500000000002</ele>
        <time>2015-06-07T12:59:52Z</time>
      </trkpt>
      <trkpt lat="45.514798723161221" lon="7.073181979358196">
        <ele>2722.1100000000001</ele>
        <time>2015-06-07T13:00:02Z</time>
      </trkpt>
      <trkpt lat="45.514814062044024" lon="7.073225565254688">
        <ele>2721.6300000000001</ele>
        <time>2015-06-07T13:00:05Z</time>
      </trkpt>
      <trkpt lat="45.514907855540514" lon="7.073245430365205">
        <ele>2718.75</ele>
        <time>2015-06-07T13:00:16Z</time>
      </trkpt>
      <trkpt lat="45.514969881623983" lon="7.073265630751848">
        <ele>2716.3400000000001</ele>
        <time>2015-06-07T13:00:26Z</time>
      </trkpt>
      <trkpt lat="45.515006426721811" lon="7.073247274383903">
        <ele>2713.46</ele>
        <time>2015-06-07T13:00:35Z</time>
      </trkpt>
      <trkpt lat="45.51500785164535" lon="7.073216512799263">
        <ele>2712.98</ele>
        <time>2015-06-07T13:00:37Z</time>
      </trkpt>
      <trkpt lat="45.515001816675067" lon="7.073092125356197">
        <ele>2711.54</ele>
        <time>2015-06-07T13:00:48Z</time>
      </trkpt>
      <trkpt lat="45.514999972656369" lon="7.073067231103778">
        <ele>2710.5700000000002</ele>
        <time>2015-06-07T13:00:57Z</time>
      </trkpt>
      <trkpt lat="45.515021095052361" lon="7.073011910542846">
        <ele>2708.6500000000001</ele>
        <time>2015-06-07T13:01:08Z</time>
      </trkpt>
      <trkpt lat="45.515033584088087" lon="7.072978131473064">
        <ele>2706.73</ele>
        <time>2015-06-07T13:01:19Z</time>
      </trkpt>
      <trkpt lat="45.515027632936835" lon="7.072883080691099">
        <ele>2704.8099999999999</ele>
        <time>2015-06-07T13:01:26Z</time>
      </trkpt>
      <trkpt lat="45.5150708835572" lon="7.072791298851371">
        <ele>2702.8800000000001</ele>
        <time>2015-06-07T13:01:36Z</time>
      </trkpt>
      <trkpt lat="45.515091586858034" lon="7.072766572237015">
        <ele>2700.96</ele>
        <time>2015-06-07T13:01:44Z</time>
      </trkpt>
      <trkpt lat="45.515112625434995" lon="7.072724578902125">
        <ele>2698.5599999999999</ele>
        <time>2015-06-07T13:01:54Z</time>
      </trkpt>
      <trkpt lat="45.515121594071388" lon="7.072698175907135">
        <ele>2698.0799999999999</ele>
        <time>2015-06-07T13:01:57Z</time>
      </trkpt>
      <trkpt lat="45.51518521271646" lon="7.072722231969237">
        <ele>2696.6399999999999</ele>
        <time>2015-06-07T13:02:02Z</time>
      </trkpt>
      <trkpt lat="45.515199461951852" lon="7.07270328886807">
        <ele>2695.6700000000001</ele>
        <time>2015-06-07T13:02:04Z</time>
      </trkpt>
      <trkpt lat="45.515247322618961" lon="7.072671940550208">
        <ele>2694.23</ele>
        <time>2015-06-07T13:02:10Z</time>
      </trkpt>
      <trkpt lat="45.515303313732147" lon="7.072700690478087">
        <ele>2693.27</ele>
        <time>2015-06-07T13:02:15Z</time>
      </trkpt>
      <trkpt lat="45.51540314219892" lon="7.072692895308137">
        <ele>2691.8299999999999</ele>
        <time>2015-06-07T13:02:24Z</time>
      </trkpt>
      <trkpt lat="45.515444548800588" lon="7.072713430970907">
        <ele>2691.8299999999999</ele>
        <time>2015-06-07T13:02:28Z</time>
      </trkpt>
      <trkpt lat="45.515464246273041" lon="7.072761543095112">
        <ele>2692.3099999999999</ele>
        <time>2015-06-07T13:02:32Z</time>
      </trkpt>
      <trkpt lat="45.515550496056676" lon="7.072864724323154">
        <ele>2692.3099999999999</ele>
        <time>2015-06-07T13:02:42Z</time>
      </trkpt>
      <trkpt lat="45.515615371987224" lon="7.073009815067053">
        <ele>2692.3099999999999</ele>
        <time>2015-06-07T13:02:53Z</time>
      </trkpt>
      <trkpt lat="45.515615371987224" lon="7.07327451556921">
        <ele>2690.8699999999999</ele>
        <time>2015-06-07T13:03:07Z</time>
      </trkpt>
      <trkpt lat="45.515622580423951" lon="7.073307121172547">
        <ele>2690.8699999999999</ele>
        <time>2015-06-07T13:03:09Z</time>
      </trkpt>
      <trkpt lat="45.515636829659343" lon="7.073414912447333">
        <ele>2687.98</ele>
        <time>2015-06-07T13:03:18Z</time>
      </trkpt>
      <trkpt lat="45.515635069459677" lon="7.073426563292742">
        <ele>2687.02</ele>
        <time>2015-06-07T13:03:19Z</time>
      </trkpt>
      <trkpt lat="45.515656694769859" lon="7.073474423959851">
        <ele>2686.54</ele>
        <time>2015-06-07T13:03:23Z</time>
      </trkpt>
      <trkpt lat="45.51565870642662" lon="7.073555309325457">
        <ele>2684.6199999999999</ele>
        <time>2015-06-07T13:03:28Z</time>
      </trkpt>
      <trkpt lat="45.515689384192228" lon="7.073748847469688">
        <ele>2683.1799999999998</ele>
        <time>2015-06-07T13:03:41Z</time>
      </trkpt>
      <trkpt lat="45.51573489792645" lon="7.073856052011251">
        <ele>2679.8099999999999</ele>
        <time>2015-06-07T13:03:52Z</time>
      </trkpt>
      <trkpt lat="45.515748308971524" lon="7.07394439727068">
        <ele>2677.4099999999999</ele>
        <time>2015-06-07T13:03:57Z</time>
      </trkpt>
      <trkpt lat="45.515807401388884" lon="7.074114549905062">
        <ele>2674.04</ele>
        <time>2015-06-07T13:04:08Z</time>
      </trkpt>
      <trkpt lat="45.515813603997231" lon="7.07414866425097">
        <ele>2673.5599999999999</ele>
        <time>2015-06-07T13:04:10Z</time>
      </trkpt>
      <trkpt lat="45.515929693356156" lon="7.074330803006887">
        <ele>2671.6399999999999</ele>
        <time>2015-06-07T13:04:23Z</time>
      </trkpt>
      <trkpt lat="45.515944613143802" lon="7.074360391125083">
        <ele>2671.1599999999999</ele>
        <time>2015-06-07T13:04:25Z</time>
      </trkpt>
      <trkpt lat="45.515987863764167" lon="7.074510678648949">
        <ele>2669.7199999999998</ele>
        <time>2015-06-07T13:04:35Z</time>
      </trkpt>
      <trkpt lat="45.515989623963833" lon="7.074534483253956">
        <ele>2669.7199999999998</ele>
        <time>2015-06-07T13:04:37Z</time>
      </trkpt>
      <trkpt lat="45.516133876517415" lon="7.074641436338425">
        <ele>2666.8299999999999</ele>
        <time>2015-06-07T13:04:50Z</time>
      </trkpt>
      <trkpt lat="45.516206799075007" lon="7.074713269248605">
        <ele>2665.8699999999999</ele>
        <time>2015-06-07T13:05:02Z</time>
      </trkpt>
      <trkpt lat="45.516201937571168" lon="7.074715783819556">
        <ele>2665.8699999999999</ele>
        <time>2015-06-07T13:05:17Z</time>
      </trkpt>
      <trkpt lat="45.51619766280055" lon="7.074711676687002">
        <ele>2665.3899999999999</ele>
        <time>2015-06-07T13:05:24Z</time>
      </trkpt>
      <trkpt lat="45.516261700540781" lon="7.07469055429101">
        <ele>2663.4699999999998</ele>
        <time>2015-06-07T13:05:34Z</time>
      </trkpt>
      <trkpt lat="45.516307549551129" lon="7.074690470471978">
        <ele>2661.0700000000002</ele>
        <time>2015-06-07T13:05:42Z</time>
      </trkpt>
      <trkpt lat="45.516347279772162" lon="7.074703881517053">
        <ele>2659.1399999999999</ele>
        <time>2015-06-07T13:05:46Z</time>
      </trkpt>
      <trkpt lat="45.51635448820889" lon="7.07471301779151">
        <ele>2659.1399999999999</ele>
        <time>2015-06-07T13:05:47Z</time>
      </trkpt>
      <trkpt lat="45.516406875103712" lon="7.074745623394847">
        <ele>2657.2199999999998</ele>
        <time>2015-06-07T13:05:52Z</time>
      </trkpt>
      <trkpt lat="45.516473427414894" lon="7.07477705553174">
        <ele>2654.3400000000001</ele>
        <time>2015-06-07T13:06:02Z</time>
      </trkpt>
      <trkpt lat="45.516478791832924" lon="7.074785605072975">
        <ele>2654.3400000000001</ele>
        <time>2015-06-07T13:06:03Z</time>
      </trkpt>
      <trkpt lat="45.516516594216228" lon="7.074860790744424">
        <ele>2652.9000000000001</ele>
        <time>2015-06-07T13:06:08Z</time>
      </trkpt>
      <trkpt lat="45.516624553129077" lon="7.074933126568794">
        <ele>2649.5300000000002</ele>
        <time>2015-06-07T13:06:18Z</time>
      </trkpt>
      <trkpt lat="45.516708539798856" lon="7.075109146535397">
        <ele>2647.6100000000001</ele>
        <time>2015-06-07T13:06:30Z</time>
      </trkpt>
      <trkpt lat="45.516741229221225" lon="7.075189193710685">
        <ele>2647.1300000000001</ele>
        <time>2015-06-07T13:06:38Z</time>
      </trkpt>
      <trkpt lat="45.516846086829901" lon="7.075159102678299">
        <ele>2645.21</ele>
        <time>2015-06-07T13:06:47Z</time>
      </trkpt>
      <trkpt lat="45.516935270279646" lon="7.075233450159431">
        <ele>2643.7600000000002</ele>
        <time>2015-06-07T13:06:56Z</time>
      </trkpt>
      <trkpt lat="45.51695890724659" lon="7.075374266132712">
        <ele>2640.8800000000001</ele>
        <time>2015-06-07T13:07:05Z</time>
      </trkpt>
      <trkpt lat="45.517007606104016" lon="7.07543671131134">
        <ele>2638.96</ele>
        <time>2015-06-07T13:07:10Z</time>
      </trkpt>
      <trkpt lat="45.517025627195835" lon="7.075467137619853">
        <ele>2637.9899999999998</ele>
        <time>2015-06-07T13:07:13Z</time>
      </trkpt>
      <trkpt lat="45.517138363793492" lon="7.075528744608164">
        <ele>2636.0700000000002</ele>
        <time>2015-06-07T13:07:21Z</time>
      </trkpt>
      <trkpt lat="45.517275743186474" lon="7.075498569756746">
        <ele>2634.6300000000001</ele>
        <time>2015-06-07T13:07:31Z</time>
      </trkpt>
      <trkpt lat="45.517311450093985" lon="7.075499156489968">
        <ele>2634.1500000000001</ele>
        <time>2015-06-07T13:07:34Z</time>
      </trkpt>
      <trkpt lat="45.517381271347404" lon="7.075546933338046">
        <ele>2633.6700000000001</ele>
        <time>2015-06-07T13:07:41Z</time>
      </trkpt>
      <trkpt lat="45.517454277724028" lon="7.075692024081945">
        <ele>2631.27</ele>
        <time>2015-06-07T13:07:52Z</time>
      </trkpt>
      <trkpt lat="45.517468862235546" lon="7.075779782608151">
        <ele>2629.8200000000002</ele>
        <time>2015-06-07T13:07:59Z</time>
      </trkpt>
      <trkpt lat="45.51745536737144" lon="7.075806688517332">
        <ele>2629.3400000000001</ele>
        <time>2015-06-07T13:08:01Z</time>
      </trkpt>
      <trkpt lat="45.517435166984797" lon="7.075823368504643">
        <ele>2628.3800000000001</ele>
        <time>2015-06-07T13:08:03Z</time>
      </trkpt>
      <trkpt lat="45.517395101487637" lon="7.075960077345371">
        <ele>2624.54</ele>
        <time>2015-06-07T13:08:13Z</time>
      </trkpt>
      <trkpt lat="45.51738353446126" lon="7.075956054031849">
        <ele>2624.0599999999999</ele>
        <time>2015-06-07T13:08:14Z</time>
      </trkpt>
      <trkpt lat="45.517248166725039" lon="7.075957227498293">
        <ele>2621.1700000000001</ele>
        <time>2015-06-07T13:08:25Z</time>
      </trkpt>
      <trkpt lat="45.517179854214191" lon="7.075965357944369">
        <ele>2619.25</ele>
        <time>2015-06-07T13:08:30Z</time>
      </trkpt>
      <trkpt lat="45.51709670573473" lon="7.075981199741364">
        <ele>2617.3299999999999</ele>
        <time>2015-06-07T13:08:37Z</time>
      </trkpt>
      <trkpt lat="45.517073655501008" lon="7.075978349894285">
        <ele>2617.8099999999999</ele>
        <time>2015-06-07T13:08:39Z</time>
      </trkpt>
      <trkpt lat="45.517045073211193" lon="7.075980613008142">
        <ele>2615.8800000000001</ele>
        <time>2015-06-07T13:08:42Z</time>
      </trkpt>
      <trkpt lat="45.51699360832572" lon="7.075991258025169">
        <ele>2613.96</ele>
        <time>2015-06-07T13:08:47Z</time>
      </trkpt>
      <trkpt lat="45.51696578040719" lon="7.076004166156054">
        <ele>2613</ele>
        <time>2015-06-07T13:08:49Z</time>
      </trkpt>
      <trkpt lat="45.516833430156112" lon="7.076054541394115">
        <ele>2610.1199999999999</ele>
        <time>2015-06-07T13:09:00Z</time>
      </trkpt>
      <trkpt lat="45.51671558059752" lon="7.076032496988773">
        <ele>2607.23</ele>
        <time>2015-06-07T13:09:10Z</time>
      </trkpt>
      <trkpt lat="45.516612734645605" lon="7.076001232489944">
        <ele>2604.3499999999999</ele>
        <time>2015-06-07T13:09:19Z</time>
      </trkpt>
      <trkpt lat="45.516606029123068" lon="7.076008357107639">
        <ele>2604.3499999999999</ele>
        <time>2015-06-07T13:09:20Z</time>
      </trkpt>
      <trkpt lat="45.516590690240264" lon="7.076043896377087">
        <ele>2603.8699999999999</ele>
        <time>2015-06-07T13:09:23Z</time>
      </trkpt>
      <trkpt lat="45.516613153740764" lon="7.076106928288937">
        <ele>2601.9499999999998</ele>
        <time>2015-06-07T13:09:27Z</time>
      </trkpt>
      <trkpt lat="45.516584822908044" lon="7.076179767027497">
        <ele>2600.5</ele>
        <time>2015-06-07T13:09:33Z</time>
      </trkpt>
      <trkpt lat="45.516551965847611" lon="7.076173732057214">
        <ele>2599.0599999999999</ele>
        <time>2015-06-07T13:09:36Z</time>
      </trkpt>
      <trkpt lat="45.516404109075665" lon="7.076044147834182">
        <ele>2595.6999999999998</ele>
        <time>2015-06-07T13:09:48Z</time>
      </trkpt>
      <trkpt lat="45.51638625562191" lon="7.076035430654883">
        <ele>2595.2199999999998</ele>
        <time>2015-06-07T13:09:50Z</time>
      </trkpt>
      <trkpt lat="45.516367563977838" lon="7.076043728739023">
        <ele>2594.25</ele>
        <time>2015-06-07T13:09:52Z</time>
      </trkpt>
      <trkpt lat="45.516354823485017" lon="7.075982540845871">
        <ele>2592.8099999999999</ele>
        <time>2015-06-07T13:09:57Z</time>
      </trkpt>
      <trkpt lat="45.516320625320077" lon="7.075950857251883">
        <ele>2591.3699999999999</ele>
        <time>2015-06-07T13:10:01Z</time>
      </trkpt>
      <trkpt lat="45.516287097707391" lon="7.075913138687611">
        <ele>2589.9299999999998</ele>
        <time>2015-06-07T13:10:06Z</time>
      </trkpt>
      <trkpt lat="45.516262790188193" lon="7.075915820896626">
        <ele>2589.4499999999998</ele>
        <time>2015-06-07T13:10:08Z</time>
      </trkpt>
      <trkpt lat="45.51618299447" lon="7.075912300497294">
        <ele>2586.5599999999999</ele>
        <time>2015-06-07T13:10:18Z</time>
      </trkpt>
      <trkpt lat="45.516130523756146" lon="7.07593459635973">
        <ele>2583.6799999999998</ele>
        <time>2015-06-07T13:10:28Z</time>
      </trkpt>
      <trkpt lat="45.516139827668667" lon="7.075966699048877">
        <ele>2582.7199999999998</ele>
        <time>2015-06-07T13:10:31Z</time>
      </trkpt>
      <trkpt lat="45.516110574826598" lon="7.075995281338692">
        <ele>2580.8000000000002</ele>
        <time>2015-06-07T13:10:35Z</time>
      </trkpt>
      <trkpt lat="45.51604226231575" lon="7.076014308258891">
        <ele>2578.3899999999999</ele>
        <time>2015-06-07T13:10:45Z</time>
      </trkpt>
      <trkpt lat="45.516107557341456" lon="7.076076250523329">
        <ele>2575.5100000000002</ele>
        <time>2015-06-07T13:10:54Z</time>
      </trkpt>
      <trkpt lat="45.516031952574849" lon="7.076085973531008">
        <ele>2572.6300000000001</ele>
        <time>2015-06-07T13:11:03Z</time>
      </trkpt>
      <trkpt lat="45.516021475195885" lon="7.076128050684929">
        <ele>2570.6999999999998</ele>
        <time>2015-06-07T13:11:12Z</time>
      </trkpt>
      <trkpt lat="45.516033293679357" lon="7.076142970472574">
        <ele>2570.2199999999998</ele>
        <time>2015-06-07T13:11:14Z</time>
      </trkpt>
      <trkpt lat="45.51602466031909" lon="7.076198542490602">
        <ele>2568.7800000000002</ele>
        <time>2015-06-07T13:11:25Z</time>
      </trkpt>
      <trkpt lat="45.516020553186536" lon="7.076207427307963">
        <ele>2568.7800000000002</ele>
        <time>2015-06-07T13:11:28Z</time>
      </trkpt>
      <trkpt lat="45.515976883471012" lon="7.076185382902622">
        <ele>2566.8600000000001</ele>
        <time>2015-06-07T13:11:35Z</time>
      </trkpt>
      <trkpt lat="45.515948636457324" lon="7.076151017099619">
        <ele>2566.3800000000001</ele>
        <time>2015-06-07T13:11:44Z</time>
      </trkpt>
      <trkpt lat="45.515929944813251" lon="7.076141964644194">
        <ele>2565.9000000000001</ele>
        <time>2015-06-07T13:11:51Z</time>
      </trkpt>
      <trkpt lat="45.515933884307742" lon="7.076189406216145">
        <ele>2563.4899999999998</ele>
        <time>2015-06-07T13:12:00Z</time>
      </trkpt>
      <trkpt lat="45.515942601487041" lon="7.076212372630835">
        <ele>2562.5300000000002</ele>
        <time>2015-06-07T13:12:03Z</time>
      </trkpt>
      <trkpt lat="45.51596799865365" lon="7.076262664049864">
        <ele>2561.5700000000002</ele>
        <time>2015-06-07T13:12:07Z</time>
      </trkpt>
      <trkpt lat="45.51587370224297" lon="7.076254282146692">
        <ele>2557.2399999999998</ele>
        <time>2015-06-07T13:12:13Z</time>
      </trkpt>
      <trkpt lat="45.515860542654991" lon="7.076249253004789">
        <ele>2557.2399999999998</ele>
        <time>2015-06-07T13:12:14Z</time>
      </trkpt>
      <trkpt lat="45.515848975628614" lon="7.076246989890933">
        <ele>2556.7600000000002</ele>
        <time>2015-06-07T13:12:15Z</time>
      </trkpt>
      <trkpt lat="45.515835145488381" lon="7.076248582452536">
        <ele>2556.7600000000002</ele>
        <time>2015-06-07T13:12:16Z</time>
      </trkpt>
      <trkpt lat="45.515822488814592" lon="7.076254701241851">
        <ele>2556.2800000000002</ele>
        <time>2015-06-07T13:12:17Z</time>
      </trkpt>
      <trkpt lat="45.515786362811923" lon="7.076291078701615">
        <ele>2554.8400000000001</ele>
        <time>2015-06-07T13:12:21Z</time>
      </trkpt>
      <trkpt lat="45.515812262892723" lon="7.076345896348357">
        <ele>2554.3600000000001</ele>
        <time>2015-06-07T13:12:24Z</time>
      </trkpt>
      <trkpt lat="45.515804383903742" lon="7.076362576335669">
        <ele>2553.4000000000001</ele>
        <time>2015-06-07T13:12:25Z</time>
      </trkpt>
      <trkpt lat="45.515788123011589" lon="7.07636802457273">
        <ele>2551.96</ele>
        <time>2015-06-07T13:12:26Z</time>
      </trkpt>
      <trkpt lat="45.515772281214595" lon="7.076369198039174">
        <ele>2551.48</ele>
        <time>2015-06-07T13:12:27Z</time>
      </trkpt>
      <trkpt lat="45.515752332285047" lon="7.076369700953364">
        <ele>2551</ele>
        <time>2015-06-07T13:12:28Z</time>
      </trkpt>
      <trkpt lat="45.515736993402243" lon="7.076370790600777">
        <ele>2550.5100000000002</ele>
        <time>2015-06-07T13:12:29Z</time>
      </trkpt>
      <trkpt lat="45.515715116634965" lon="7.076388224959374">
        <ele>2550.5100000000002</ele>
        <time>2015-06-07T13:12:31Z</time>
      </trkpt>
      <trkpt lat="45.515704974532127" lon="7.076398534700275">
        <ele>2551</ele>
        <time>2015-06-07T13:12:32Z</time>
      </trkpt>
      <trkpt lat="45.515693407505751" lon="7.07640859298408">
        <ele>2550.0300000000002</ele>
        <time>2015-06-07T13:12:33Z</time>
      </trkpt>
      <trkpt lat="45.515652419999242" lon="7.076425943523645">
        <ele>2548.5900000000001</ele>
        <time>2015-06-07T13:12:36Z</time>
      </trkpt>
      <trkpt lat="45.515585532411933" lon="7.076463326811791">
        <ele>2547.6300000000001</ele>
        <time>2015-06-07T13:12:41Z</time>
      </trkpt>
      <trkpt lat="45.515555776655674" lon="7.076471289619803">
        <ele>2546.6700000000001</ele>
        <time>2015-06-07T13:12:43Z</time>
      </trkpt>
      <trkpt lat="45.515543036162853" lon="7.076487801969051">
        <ele>2545.71</ele>
        <time>2015-06-07T13:12:44Z</time>
      </trkpt>
      <trkpt lat="45.51552526652813" lon="7.076503895223141">
        <ele>2545.23</ele>
        <time>2015-06-07T13:12:45Z</time>
      </trkpt>
      <trkpt lat="45.515505820512772" lon="7.076513115316629">
        <ele>2544.27</ele>
        <time>2015-06-07T13:12:46Z</time>
      </trkpt>
      <trkpt lat="45.515488302335143" lon="7.076521497219801">
        <ele>2543.79</ele>
        <time>2015-06-07T13:12:47Z</time>
      </trkpt>
      <trkpt lat="45.515470448881388" lon="7.076530214399099">
        <ele>2543.3099999999999</ele>
        <time>2015-06-07T13:12:48Z</time>
      </trkpt>
      <trkpt lat="45.515309013426304" lon="7.076568016782403">
        <ele>2541.3800000000001</ele>
        <time>2015-06-07T13:13:00Z</time>
      </trkpt>
      <trkpt lat="45.515146320685744" lon="7.076564831659198">
        <ele>2541.3800000000001</ele>
        <time>2015-06-07T13:13:13Z</time>
      </trkpt>
      <trkpt lat="45.515137268230319" lon="7.076567597687244">
        <ele>2541.8600000000001</ele>
        <time>2015-06-07T13:13:14Z</time>
      </trkpt>
      <trkpt lat="45.515124276280403" lon="7.076573129743338">
        <ele>2542.3400000000001</ele>
        <time>2015-06-07T13:13:15Z</time>
      </trkpt>
      <trkpt lat="45.515114637091756" lon="7.076581008732319">
        <ele>2542.3400000000001</ele>
        <time>2015-06-07T13:13:16Z</time>
      </trkpt>
      <trkpt lat="45.515103740617633" lon="7.076586624607444">
        <ele>2542.3400000000001</ele>
        <time>2015-06-07T13:13:17Z</time>
      </trkpt>
      <trkpt lat="45.515089659020305" lon="7.076585115864873">
        <ele>2542.8200000000002</ele>
        <time>2015-06-07T13:13:18Z</time>
      </trkpt>
      <trkpt lat="45.515074739232659" lon="7.07658352330327">
        <ele>2542.8200000000002</ele>
        <time>2015-06-07T13:13:19Z</time>
      </trkpt>
      <trkpt lat="45.514973988756537" lon="7.076553935185075">
        <ele>2542.3400000000001</ele>
        <time>2015-06-07T13:13:29Z</time>
      </trkpt>
      <trkpt lat="45.514944652095437" lon="7.076507331803441">
        <ele>2542.3400000000001</ele>
        <time>2015-06-07T13:13:34Z</time>
      </trkpt>
      <trkpt lat="45.51494188606739" lon="7.07649115473032">
        <ele>2542.3400000000001</ele>
        <time>2015-06-07T13:13:35Z</time>
      </trkpt>
      <trkpt lat="45.51493744365871" lon="7.076476067304611">
        <ele>2541.8600000000001</ele>
        <time>2015-06-07T13:13:36Z</time>
      </trkpt>
      <trkpt lat="45.514928726479411" lon="7.076468272134662">
        <ele>2541.8600000000001</ele>
        <time>2015-06-07T13:13:37Z</time>
      </trkpt>
      <trkpt lat="45.514918165281415" lon="7.076466679573059">
        <ele>2541.3800000000001</ele>
        <time>2015-06-07T13:13:38Z</time>
      </trkpt>
      <trkpt lat="45.514906346797943" lon="7.076466763392091">
        <ele>2540.9000000000001</ele>
        <time>2015-06-07T13:13:39Z</time>
      </trkpt>
      <trkpt lat="45.514892265200615" lon="7.076468020677567">
        <ele>2540.4200000000001</ele>
        <time>2015-06-07T13:13:40Z</time>
      </trkpt>
      <trkpt lat="45.514880027621984" lon="7.076465003192425">
        <ele>2540.4200000000001</ele>
        <time>2015-06-07T13:13:41Z</time>
      </trkpt>
      <trkpt lat="45.514867203310132" lon="7.076466009020805">
        <ele>2540.4200000000001</ele>
        <time>2015-06-07T13:13:42Z</time>
      </trkpt>
      <trkpt lat="45.514851277694106" lon="7.076472043991089">
        <ele>2540.4200000000001</ele>
        <time>2015-06-07T13:13:43Z</time>
      </trkpt>
      <trkpt lat="45.514836274087429" lon="7.076472379267216">
        <ele>2539.46</ele>
        <time>2015-06-07T13:13:44Z</time>
      </trkpt>
      <trkpt lat="45.514821270480752" lon="7.076473636552692">
        <ele>2539.46</ele>
        <time>2015-06-07T13:13:45Z</time>
      </trkpt>
      <trkpt lat="45.514810876920819" lon="7.076475312933326">
        <ele>2539.46</ele>
        <time>2015-06-07T13:13:46Z</time>
      </trkpt>
      <trkpt lat="45.514799812808633" lon="7.07647749222815">
        <ele>2539.46</ele>
        <time>2015-06-07T13:13:47Z</time>
      </trkpt>
      <trkpt lat="45.514787239953876" lon="7.076478246599436">
        <ele>2539.46</ele>
        <time>2015-06-07T13:13:48Z</time>
      </trkpt>
      <trkpt lat="45.514775840565562" lon="7.076476318761706">
        <ele>2538.98</ele>
        <time>2015-06-07T13:13:49Z</time>
      </trkpt>
      <trkpt lat="45.514760753139853" lon="7.076472798362374">
        <ele>2538.5</ele>
        <time>2015-06-07T13:13:50Z</time>
      </trkpt>
      <trkpt lat="45.514748096466064" lon="7.076470535248518">
        <ele>2538.98</ele>
        <time>2015-06-07T13:13:51Z</time>
      </trkpt>
      <trkpt lat="45.514733009040356" lon="7.076470116153359">
        <ele>2538.98</ele>
        <time>2015-06-07T13:13:52Z</time>
      </trkpt>
      <trkpt lat="45.514721190556884" lon="7.076465589925647">
        <ele>2538.98</ele>
        <time>2015-06-07T13:13:53Z</time>
      </trkpt>
      <trkpt lat="45.514680370688438" lon="7.076450083404779">
        <ele>2538.5</ele>
        <time>2015-06-07T13:13:57Z</time>
      </trkpt>
      <trkpt lat="45.514669055119157" lon="7.076449664309621">
        <ele>2538.5</ele>
        <time>2015-06-07T13:13:58Z</time>
      </trkpt>
      <trkpt lat="45.514544416218996" lon="7.07644522190094">
        <ele>2538.5</ele>
        <time>2015-06-07T13:14:08Z</time>
      </trkpt>
      <trkpt lat="45.514537543058395" lon="7.076456369832158">
        <ele>2538.02</ele>
        <time>2015-06-07T13:14:09Z</time>
      </trkpt>
      <trkpt lat="45.514512900263071" lon="7.076504314318299">
        <ele>2537.0599999999999</ele>
        <time>2015-06-07T13:14:13Z</time>
      </trkpt>
      <trkpt lat="45.514505272731185" lon="7.076514875516295">
        <ele>2536.5799999999999</ele>
        <time>2015-06-07T13:14:14Z</time>
      </trkpt>
      <trkpt lat="45.514498651027679" lon="7.076522251591086">
        <ele>2536.0999999999999</ele>
        <time>2015-06-07T13:14:15Z</time>
      </trkpt>
      <trkpt lat="45.514493873342872" lon="7.0765336509794">
        <ele>2535.6100000000001</ele>
        <time>2015-06-07T13:14:16Z</time>
      </trkpt>
      <trkpt lat="45.514484653249383" lon="7.076546642929316">
        <ele>2535.6100000000001</ele>
        <time>2015-06-07T13:14:17Z</time>
      </trkpt>
      <trkpt lat="45.514470990747213" lon="7.0765629876405">
        <ele>2535.1300000000001</ele>
        <time>2015-06-07T13:14:18Z</time>
      </trkpt>
      <trkpt lat="45.514458082616329" lon="7.076579667627811">
        <ele>2535.1300000000001</ele>
        <time>2015-06-07T13:14:19Z</time>
      </trkpt>
      <trkpt lat="45.514445258304477" lon="7.076596012338996">
        <ele>2534.6500000000001</ele>
        <time>2015-06-07T13:14:20Z</time>
      </trkpt>
      <trkpt lat="45.514427404850721" lon="7.076636496931315">
        <ele>2531.77</ele>
        <time>2015-06-07T13:14:26Z</time>
      </trkpt>
      <trkpt lat="45.514428578317165" lon="7.076648650690913">
        <ele>2531.77</ele>
        <time>2015-06-07T13:14:27Z</time>
      </trkpt>
      <trkpt lat="45.514423716813326" lon="7.076662397012115">
        <ele>2531.29</ele>
        <time>2015-06-07T13:14:28Z</time>
      </trkpt>
      <trkpt lat="45.51441709510982" lon="7.07668075338006">
        <ele>2530.8099999999999</ele>
        <time>2015-06-07T13:14:29Z</time>
      </trkpt>
      <trkpt lat="45.514373341575265" lon="7.076791226863861">
        <ele>2527.4400000000001</ele>
        <time>2015-06-07T13:14:37Z</time>
      </trkpt>
      <trkpt lat="45.514385076239705" lon="7.07678628154099">
        <ele>2526.96</ele>
        <time>2015-06-07T13:14:38Z</time>
      </trkpt>
      <trkpt lat="45.514399576932192" lon="7.076789047569037">
        <ele>2526.96</ele>
        <time>2015-06-07T13:14:39Z</time>
      </trkpt>
      <trkpt lat="45.514409132301807" lon="7.076800782233477">
        <ele>2526.48</ele>
        <time>2015-06-07T13:14:40Z</time>
      </trkpt>
      <trkpt lat="45.51441365852952" lon="7.076816540211439">
        <ele>2526</ele>
        <time>2015-06-07T13:14:41Z</time>
      </trkpt>
      <trkpt lat="45.514457328245044" lon="7.076830202713609">
        <ele>2524.5599999999999</ele>
        <time>2015-06-07T13:14:46Z</time>
      </trkpt>
      <trkpt lat="45.514469901099801" lon="7.076839338988066">
        <ele>2524.0799999999999</ele>
        <time>2015-06-07T13:14:47Z</time>
      </trkpt>
      <trkpt lat="45.514577692374587" lon="7.07684931345284">
        <ele>2521.1900000000001</ele>
        <time>2015-06-07T13:14:56Z</time>
      </trkpt>
      <trkpt lat="45.514597808942199" lon="7.076846044510603">
        <ele>2520.71</ele>
        <time>2015-06-07T13:14:58Z</time>
      </trkpt>
      <trkpt lat="45.514645082876086" lon="7.076874375343323">
        <ele>2519.27</ele>
        <time>2015-06-07T13:15:03Z</time>
      </trkpt>
      <trkpt lat="45.51470534875989" lon="7.076923325657845">
        <ele>2516.8699999999999</ele>
        <time>2015-06-07T13:15:11Z</time>
      </trkpt>
      <trkpt lat="45.514753544703126" lon="7.076938496902585">
        <ele>2514.9499999999998</ele>
        <time>2015-06-07T13:15:15Z</time>
      </trkpt>
      <trkpt lat="45.51474591717124" lon="7.076981496065855">
        <ele>2512.54</ele>
        <time>2015-06-07T13:15:24Z</time>
      </trkpt>
      <trkpt lat="45.514731584116817" lon="7.076998930424452">
        <ele>2512.54</ele>
        <time>2015-06-07T13:15:26Z</time>
      </trkpt>
      <trkpt lat="45.514721106737852" lon="7.07702080719173">
        <ele>2511.5799999999999</ele>
        <time>2015-06-07T13:15:27Z</time>
      </trkpt>
      <trkpt lat="45.514708533883095" lon="7.077032374218106">
        <ele>2511.5799999999999</ele>
        <time>2015-06-07T13:15:28Z</time>
      </trkpt>
      <trkpt lat="45.514610381796956" lon="7.077091718092561">
        <ele>2508.6999999999998</ele>
        <time>2015-06-07T13:15:36Z</time>
      </trkpt>
      <trkpt lat="45.514599150046706" lon="7.077094484120607">
        <ele>2508.6999999999998</ele>
        <time>2015-06-07T13:15:37Z</time>
      </trkpt>
      <trkpt lat="45.514586493372917" lon="7.077105129137635">
        <ele>2508.2199999999998</ele>
        <time>2015-06-07T13:15:38Z</time>
      </trkpt>
      <trkpt lat="45.514574004337192" lon="7.077118456363678">
        <ele>2507.7399999999998</ele>
        <time>2015-06-07T13:15:39Z</time>
      </trkpt>
      <trkpt lat="45.514566628262401" lon="7.077130358666182">
        <ele>2507.7399999999998</ele>
        <time>2015-06-07T13:15:40Z</time>
      </trkpt>
      <trkpt lat="45.514521701261401" lon="7.077145613729954">
        <ele>2507.2600000000002</ele>
        <time>2015-06-07T13:15:43Z</time>
      </trkpt>
      <trkpt lat="45.514437966048717" lon="7.077277796342969">
        <ele>2504.3699999999999</ele>
        <time>2015-06-07T13:15:52Z</time>
      </trkpt>
      <trkpt lat="45.514460932463408" lon="7.077274611219764">
        <ele>2503.8899999999999</ele>
        <time>2015-06-07T13:15:54Z</time>
      </trkpt>
      <trkpt lat="45.514472415670753" lon="7.077270420268178">
        <ele>2503.4099999999999</ele>
        <time>2015-06-07T13:15:55Z</time>
      </trkpt>
      <trkpt lat="45.514542907476425" lon="7.077272851020098">
        <ele>2500.0500000000002</ele>
        <time>2015-06-07T13:16:04Z</time>
      </trkpt>
      <trkpt lat="45.514553217217326" lon="7.077268743887544">
        <ele>2499.5700000000002</ele>
        <time>2015-06-07T13:16:06Z</time>
      </trkpt>
      <trkpt lat="45.514560760930181" lon="7.077275449410081">
        <ele>2499.0799999999999</ele>
        <time>2015-06-07T13:16:07Z</time>
      </trkpt>
      <trkpt lat="45.514514241367579" lon="7.077334374189377">
        <ele>2498.1199999999999</ele>
        <time>2015-06-07T13:16:12Z</time>
      </trkpt>
      <trkpt lat="45.514434110373259" lon="7.077429089695215">
        <ele>2494.7600000000002</ele>
        <time>2015-06-07T13:16:20Z</time>
      </trkpt>
      <trkpt lat="45.514426901936531" lon="7.077439399436116">
        <ele>2494.7600000000002</ele>
        <time>2015-06-07T13:16:21Z</time>
      </trkpt>
      <trkpt lat="45.514393374323845" lon="7.077515926212072">
        <ele>2491.8699999999999</ele>
        <time>2015-06-07T13:16:28Z</time>
      </trkpt>
      <trkpt lat="45.514424052089453" lon="7.077521961182356">
        <ele>2490.9099999999999</ele>
        <time>2015-06-07T13:16:31Z</time>
      </trkpt>
      <trkpt lat="45.514434864744544" lon="7.077535456046462">
        <ele>2490.4299999999998</ele>
        <time>2015-06-07T13:16:32Z</time>
      </trkpt>
      <trkpt lat="45.514435619115829" lon="7.077550124377012">
        <ele>2490.4299999999998</ele>
        <time>2015-06-07T13:16:33Z</time>
      </trkpt>
      <trkpt lat="45.514428410679102" lon="7.077562278136611">
        <ele>2489.9499999999998</ele>
        <time>2015-06-07T13:16:34Z</time>
      </trkpt>
      <trkpt lat="45.514361942186952" lon="7.077606786042452">
        <ele>2487.5500000000002</ele>
        <time>2015-06-07T13:16:40Z</time>
      </trkpt>
      <trkpt lat="45.514309890568256" lon="7.077653473243117">
        <ele>2484.6599999999999</ele>
        <time>2015-06-07T13:16:48Z</time>
      </trkpt>
      <trkpt lat="45.514320535585284" lon="7.077688006684184">
        <ele>2483.6999999999998</ele>
        <time>2015-06-07T13:16:51Z</time>
      </trkpt>
      <trkpt lat="45.514332689344883" lon="7.077778447419405">
        <ele>2481.3000000000002</ele>
        <time>2015-06-07T13:16:58Z</time>
      </trkpt>
      <trkpt lat="45.514252306893468" lon="7.07781583070755">
        <ele>2478.4200000000001</ele>
        <time>2015-06-07T13:17:06Z</time>
      </trkpt>
      <trkpt lat="45.514159938320518" lon="7.077851872891188">
        <ele>2476.0100000000002</ele>
        <time>2015-06-07T13:17:14Z</time>
      </trkpt>
      <trkpt lat="45.514140743762255" lon="7.077851537615061">
        <ele>2475.5300000000002</ele>
        <time>2015-06-07T13:17:16Z</time>
      </trkpt>
      <trkpt lat="45.514110065996647" lon="7.077876096591353">
        <ele>2473.6100000000001</ele>
        <time>2015-06-07T13:17:19Z</time>
      </trkpt>
      <trkpt lat="45.514101264998317" lon="7.07790425978601">
        <ele>2472.6500000000001</ele>
        <time>2015-06-07T13:17:23Z</time>
      </trkpt>
      <trkpt lat="45.514082154259086" lon="7.077919347211719">
        <ele>2472.1700000000001</ele>
        <time>2015-06-07T13:17:26Z</time>
      </trkpt>
      <trkpt lat="45.514041585847735" lon="7.077932422980666">
        <ele>2470.2399999999998</ele>
        <time>2015-06-07T13:17:30Z</time>
      </trkpt>
      <trkpt lat="45.514012752100825" lon="7.077966956421733">
        <ele>2468.8000000000002</ele>
        <time>2015-06-07T13:17:33Z</time>
      </trkpt>
      <trkpt lat="45.514004286378622" lon="7.077975757420063">
        <ele>2469.2800000000002</ele>
        <time>2015-06-07T13:17:34Z</time>
      </trkpt>
      <trkpt lat="45.513920467346907" lon="7.077979110181332">
        <ele>2465.9200000000001</ele>
        <time>2015-06-07T13:17:42Z</time>
      </trkpt>
      <trkpt lat="45.513886017724872" lon="7.078014649450779">
        <ele>2464</ele>
        <time>2015-06-07T13:17:48Z</time>
      </trkpt>
      <trkpt lat="45.514084165915847" lon="7.077824883162975">
        <ele>2462.0700000000002</ele>
        <time>2015-06-07T13:17:54Z</time>
      </trkpt>
      <trkpt lat="45.514090368524194" lon="7.077831672504544">
        <ele>2461.5900000000001</ele>
        <time>2015-06-07T13:17:55Z</time>
      </trkpt>
      <trkpt lat="45.514109814539552" lon="7.077813316136599">
        <ele>2461.1100000000001</ele>
        <time>2015-06-07T13:17:56Z</time>
      </trkpt>
      <trkpt lat="45.514117274433374" lon="7.077819686383009">
        <ele>2460.6300000000001</ele>
        <time>2015-06-07T13:17:57Z</time>
      </trkpt>
      <trkpt lat="45.514122387394309" lon="7.077836450189352">
        <ele>2460.6300000000001</ele>
        <time>2015-06-07T13:17:58Z</time>
      </trkpt>
      <trkpt lat="45.514128422364593" lon="7.077843239530921">
        <ele>2460.1500000000001</ele>
        <time>2015-06-07T13:17:59Z</time>
      </trkpt>
      <trkpt lat="45.514131775125861" lon="7.077859919518232">
        <ele>2460.1500000000001</ele>
        <time>2015-06-07T13:18:00Z</time>
      </trkpt>
      <trkpt lat="45.514142671599984" lon="7.078000986948609">
        <ele>2456.79</ele>
        <time>2015-06-07T13:18:11Z</time>
      </trkpt>
      <trkpt lat="45.514150802046061" lon="7.078124200925231">
        <ele>2453.4200000000001</ele>
        <time>2015-06-07T13:18:22Z</time>
      </trkpt>
      <trkpt lat="45.514150047674775" lon="7.078140964731574">
        <ele>2453.4200000000001</ele>
        <time>2015-06-07T13:18:23Z</time>
      </trkpt>
      <trkpt lat="45.514143677428365" lon="7.078156638890505">
        <ele>2452.9400000000001</ele>
        <time>2015-06-07T13:18:24Z</time>
      </trkpt>
      <trkpt lat="45.51414149813354" lon="7.078249929472804">
        <ele>2451.02</ele>
        <time>2015-06-07T13:18:30Z</time>
      </trkpt>
      <trkpt lat="45.514159854501486" lon="7.078265938907862">
        <ele>2450.54</ele>
        <time>2015-06-07T13:18:32Z</time>
      </trkpt>
      <trkpt lat="45.514171840623021" lon="7.078275242820382">
        <ele>2450.54</ele>
        <time>2015-06-07T13:18:33Z</time>
      </trkpt>
      <trkpt lat="45.514189526438713" lon="7.078296951949596">
        <ele>2450.0599999999999</ele>
        <time>2015-06-07T13:18:35Z</time>
      </trkpt>
      <trkpt lat="45.514207798987627" lon="7.078354870900512">
        <ele>2449.0999999999999</ele>
        <time>2015-06-07T13:18:39Z</time>
      </trkpt>
      <trkpt lat="45.514222048223019" lon="7.078361324965954">
        <ele>2449.0999999999999</ele>
        <time>2015-06-07T13:18:40Z</time>
      </trkpt>
      <trkpt lat="45.514239398762584" lon="7.078367611393333">
        <ele>2449.0999999999999</ele>
        <time>2015-06-07T13:18:41Z</time>
      </trkpt>
      <trkpt lat="45.514249121770263" lon="7.078368533402681">
        <ele>2448.6199999999999</ele>
        <time>2015-06-07T13:18:42Z</time>
      </trkpt>
      <trkpt lat="45.51425825804472" lon="7.078370964154601">
        <ele>2448.1300000000001</ele>
        <time>2015-06-07T13:18:43Z</time>
      </trkpt>
      <trkpt lat="45.514267310500145" lon="7.078369203954935">
        <ele>2447.6500000000001</ele>
        <time>2015-06-07T13:18:44Z</time>
      </trkpt>
      <trkpt lat="45.514276279136539" lon="7.078364007174969">
        <ele>2447.6500000000001</ele>
        <time>2015-06-07T13:18:45Z</time>
      </trkpt>
      <trkpt lat="45.514289606362581" lon="7.07835964858532">
        <ele>2447.1700000000001</ele>
        <time>2015-06-07T13:18:46Z</time>
      </trkpt>
      <trkpt lat="45.514302514493465" lon="7.078361911699176">
        <ele>2447.1700000000001</ele>
        <time>2015-06-07T13:18:47Z</time>
      </trkpt>
      <trkpt lat="45.514324642717838" lon="7.078404407948256">
        <ele>2445.73</ele>
        <time>2015-06-07T13:18:52Z</time>
      </trkpt>
      <trkpt lat="45.514335371553898" lon="7.078396612778306">
        <ele>2445.25</ele>
        <time>2015-06-07T13:18:53Z</time>
      </trkpt>
      <trkpt lat="45.5143559910357" lon="7.078405162319541">
        <ele>2444.77</ele>
        <time>2015-06-07T13:18:55Z</time>
      </trkpt>
      <trkpt lat="45.514366887509823" lon="7.078412622213364">
        <ele>2444.29</ele>
        <time>2015-06-07T13:18:56Z</time>
      </trkpt>
      <trkpt lat="45.514484569430351" lon="7.078472888097167">
        <ele>2440.4400000000001</ele>
        <time>2015-06-07T13:19:07Z</time>
      </trkpt>
      <trkpt lat="45.514532849192619" lon="7.07849501632154">
        <ele>2439</ele>
        <time>2015-06-07T13:19:11Z</time>
      </trkpt>
      <trkpt lat="45.514563359320164" lon="7.0784867182374">
        <ele>2438.04</ele>
        <time>2015-06-07T13:19:15Z</time>
      </trkpt>
      <trkpt lat="45.514572747051716" lon="7.078494932502508">
        <ele>2437.5599999999999</ele>
        <time>2015-06-07T13:19:16Z</time>
      </trkpt>
      <trkpt lat="45.51458272151649" lon="7.078500045463443">
        <ele>2437.0799999999999</ele>
        <time>2015-06-07T13:19:17Z</time>
      </trkpt>
      <trkpt lat="45.51471951417625" lon="7.078471295535564">
        <ele>2434.1999999999998</ele>
        <time>2015-06-07T13:19:29Z</time>
      </trkpt>
      <trkpt lat="45.514806685969234" lon="7.078471463173628">
        <ele>2432.27</ele>
        <time>2015-06-07T13:19:39Z</time>
      </trkpt>
      <trkpt lat="45.514899557456374" lon="7.078442042693496">
        <ele>2429.8699999999999</ele>
        <time>2015-06-07T13:19:49Z</time>
      </trkpt>
      <trkpt lat="45.514984214678407" lon="7.078460399061441">
        <ele>2427.9499999999998</ele>
        <time>2015-06-07T13:20:00Z</time>
      </trkpt>
      <trkpt lat="45.515016820281744" lon="7.078439109027386">
        <ele>2426.9899999999998</ele>
        <time>2015-06-07T13:20:08Z</time>
      </trkpt>
      <trkpt lat="45.515057975426316" lon="7.078437684103847">
        <ele>2425.54</ele>
        <time>2015-06-07T13:20:12Z</time>
      </trkpt>
      <trkpt lat="45.51506794989109" lon="7.078445479273796">
        <ele>2424.5799999999999</ele>
        <time>2015-06-07T13:20:13Z</time>
      </trkpt>
      <trkpt lat="45.51507524214685" lon="7.078458303585649">
        <ele>2424.0999999999999</ele>
        <time>2015-06-07T13:20:14Z</time>
      </trkpt>
      <trkpt lat="45.515086222440004" lon="7.078471630811691">
        <ele>2423.6199999999999</ele>
        <time>2015-06-07T13:20:15Z</time>
      </trkpt>
      <trkpt lat="45.515092592686415" lon="7.078486802056432">
        <ele>2423.1399999999999</ele>
        <time>2015-06-07T13:20:16Z</time>
      </trkpt>
      <trkpt lat="45.515102315694094" lon="7.078496776521206">
        <ele>2422.6599999999999</ele>
        <time>2015-06-07T13:20:17Z</time>
      </trkpt>
      <trkpt lat="45.515143973752856" lon="7.078525694087148">
        <ele>2421.2199999999998</ele>
        <time>2015-06-07T13:20:22Z</time>
      </trkpt>
      <trkpt lat="45.515159647911787" lon="7.078531226143241">
        <ele>2420.2600000000002</ele>
        <time>2015-06-07T13:20:23Z</time>
      </trkpt>
      <trkpt lat="45.515172053128481" lon="7.078540865331888">
        <ele>2419.7800000000002</ele>
        <time>2015-06-07T13:20:24Z</time>
      </trkpt>
      <trkpt lat="45.515182362869382" lon="7.078550588339567">
        <ele>2419.3000000000002</ele>
        <time>2015-06-07T13:20:25Z</time>
      </trkpt>
      <trkpt lat="45.515191834419966" lon="7.078553773462772">
        <ele>2418.8099999999999</ele>
        <time>2015-06-07T13:20:26Z</time>
      </trkpt>
      <trkpt lat="45.515203904360533" lon="7.078552935272455">
        <ele>2418.8099999999999</ele>
        <time>2015-06-07T13:20:27Z</time>
      </trkpt>
      <trkpt lat="45.515215806663036" lon="7.078554695472121">
        <ele>2418.3299999999999</ele>
        <time>2015-06-07T13:20:28Z</time>
      </trkpt>
      <trkpt lat="45.515231983736157" lon="7.078557796776295">
        <ele>2417.8499999999999</ele>
        <time>2015-06-07T13:20:29Z</time>
      </trkpt>
      <trkpt lat="45.515246987342834" lon="7.078558802604675">
        <ele>2417.3699999999999</ele>
        <time>2015-06-07T13:20:30Z</time>
      </trkpt>
      <trkpt lat="45.515259727835655" lon="7.078555533662438">
        <ele>2417.3699999999999</ele>
        <time>2015-06-07T13:20:31Z</time>
      </trkpt>
      <trkpt lat="45.515272468328476" lon="7.078544804826379">
        <ele>2416.8899999999999</ele>
        <time>2015-06-07T13:20:32Z</time>
      </trkpt>
      <trkpt lat="45.515284622088075" lon="7.078536674380302">
        <ele>2416.8899999999999</ele>
        <time>2015-06-07T13:20:33Z</time>
      </trkpt>
      <trkpt lat="45.515297865495086" lon="7.078533656895161">
        <ele>2416.8899999999999</ele>
        <time>2015-06-07T13:20:34Z</time>
      </trkpt>
      <trkpt lat="45.515465252101421" lon="7.078522089868784">
        <ele>2414.9699999999998</ele>
        <time>2015-06-07T13:20:47Z</time>
      </trkpt>
      <trkpt lat="45.515511771664023" lon="7.078517898917198">
        <ele>2414.4899999999998</ele>
        <time>2015-06-07T13:20:52Z</time>
      </trkpt>
      <trkpt lat="45.515523757785559" lon="7.078525777906179">
        <ele>2414.0100000000002</ele>
        <time>2015-06-07T13:20:53Z</time>
      </trkpt>
      <trkpt lat="45.515552675351501" lon="7.078522844240069">
        <ele>2413.0500000000002</ele>
        <time>2015-06-07T13:20:55Z</time>
      </trkpt>
      <trkpt lat="45.51561520434916" lon="7.078507840633392">
        <ele>2411.1199999999999</ele>
        <time>2015-06-07T13:21:01Z</time>
      </trkpt>
      <trkpt lat="45.515627106651664" lon="7.078506331890822">
        <ele>2410.6399999999999</ele>
        <time>2015-06-07T13:21:02Z</time>
      </trkpt>
      <trkpt lat="45.515639260411263" lon="7.078503482043743">
        <ele>2410.1599999999999</ele>
        <time>2015-06-07T13:21:03Z</time>
      </trkpt>
      <trkpt lat="45.515653174370527" lon="7.078500799834728">
        <ele>2410.1599999999999</ele>
        <time>2015-06-07T13:21:04Z</time>
      </trkpt>
      <trkpt lat="45.515668680891395" lon="7.078500632196665">
        <ele>2409.6799999999998</ele>
        <time>2015-06-07T13:21:05Z</time>
      </trkpt>
      <trkpt lat="45.515784686431289" lon="7.078479258343577">
        <ele>2408.2399999999998</ele>
        <time>2015-06-07T13:21:14Z</time>
      </trkpt>
      <trkpt lat="45.515907062217593" lon="7.078522089868784">
        <ele>2407.2800000000002</ele>
        <time>2015-06-07T13:21:25Z</time>
      </trkpt>
      <trkpt lat="45.515865990892053" lon="7.078562239184976">
        <ele>2405.3600000000001</ele>
        <time>2015-06-07T13:21:29Z</time>
      </trkpt>
      <trkpt lat="45.515852496027946" lon="7.078565172851086">
        <ele>2404.8800000000001</ele>
        <time>2015-06-07T13:21:30Z</time>
      </trkpt>
      <trkpt lat="45.51585073582828" lon="7.078577494248748">
        <ele>2403.9099999999999</ele>
        <time>2015-06-07T13:21:35Z</time>
      </trkpt>
      <trkpt lat="45.515860877931118" lon="7.078605741262436">
        <ele>2402.4699999999998</ele>
        <time>2015-06-07T13:21:40Z</time>
      </trkpt>
      <trkpt lat="45.515835983678699" lon="7.078628875315189">
        <ele>2401.0300000000002</ele>
        <time>2015-06-07T13:21:47Z</time>
      </trkpt>
      <trkpt lat="45.515839587897062" lon="7.078643962740898">
        <ele>2400.5500000000002</ele>
        <time>2015-06-07T13:21:48Z</time>
      </trkpt>
      <trkpt lat="45.515845287591219" lon="7.078659804537892">
        <ele>2400.5500000000002</ele>
        <time>2015-06-07T13:21:49Z</time>
      </trkpt>
      <trkpt lat="45.515864482149482" lon="7.07866407930851">
        <ele>2399.5900000000001</ele>
        <time>2015-06-07T13:21:51Z</time>
      </trkpt>
      <trkpt lat="45.515874791890383" lon="7.078663744032383">
        <ele>2399.1100000000001</ele>
        <time>2015-06-07T13:21:52Z</time>
      </trkpt>
      <trkpt lat="45.515887029469013" lon="7.078666258603334">
        <ele>2398.6300000000001</ele>
        <time>2015-06-07T13:21:53Z</time>
      </trkpt>
      <trkpt lat="45.515992641448975" lon="7.078686458989978">
        <ele>2397.1799999999998</ele>
        <time>2015-06-07T13:22:00Z</time>
      </trkpt>
      <trkpt lat="45.516003202646971" lon="7.078694170340896">
        <ele>2397.1799999999998</ele>
        <time>2015-06-07T13:22:01Z</time>
      </trkpt>
      <trkpt lat="45.516015188768506" lon="7.078703977167606">
        <ele>2396.6999999999998</ele>
        <time>2015-06-07T13:22:02Z</time>
      </trkpt>
      <trkpt lat="45.51603002473712" lon="7.078706240281463">
        <ele>2396.2199999999998</ele>
        <time>2015-06-07T13:22:03Z</time>
      </trkpt>
      <trkpt lat="45.516044273972511" lon="7.078706827014685">
        <ele>2396.2199999999998</ele>
        <time>2015-06-07T13:22:04Z</time>
      </trkpt>
      <trkpt lat="45.516058355569839" lon="7.078704563900828">
        <ele>2395.7399999999998</ele>
        <time>2015-06-07T13:22:05Z</time>
      </trkpt>
      <trkpt lat="45.516094313934445" lon="7.07870808430016">
        <ele>2395.7399999999998</ele>
        <time>2015-06-07T13:22:08Z</time>
      </trkpt>
      <trkpt lat="45.516108144074678" lon="7.078714622184634">
        <ele>2395.2600000000002</ele>
        <time>2015-06-07T13:22:09Z</time>
      </trkpt>
      <trkpt lat="45.516240829601884" lon="7.078743958845735">
        <ele>2392.8600000000001</ele>
        <time>2015-06-07T13:22:21Z</time>
      </trkpt>
      <trkpt lat="45.516333617269993" lon="7.078798860311508">
        <ele>2389.9699999999998</ele>
        <time>2015-06-07T13:22:31Z</time>
      </trkpt>
      <trkpt lat="45.516380472108722" lon="7.078841356560588">
        <ele>2387.0900000000001</ele>
        <time>2015-06-07T13:22:42Z</time>
      </trkpt>
      <trkpt lat="45.516409305855632" lon="7.078846553340554">
        <ele>2386.1300000000001</ele>
        <time>2015-06-07T13:22:47Z</time>
      </trkpt>
      <trkpt lat="45.516420872882009" lon="7.078851414844394">
        <ele>2385.6500000000001</ele>
        <time>2015-06-07T13:22:48Z</time>
      </trkpt>
      <trkpt lat="45.51647518761456" lon="7.078882679343224">
        <ele>2384.6900000000001</ele>
        <time>2015-06-07T13:22:52Z</time>
      </trkpt>
      <trkpt lat="45.516532100737095" lon="7.078967336565256">
        <ele>2382.2800000000002</ele>
        <time>2015-06-07T13:23:00Z</time>
      </trkpt>
      <trkpt lat="45.516584403812885" lon="7.079001367092133">
        <ele>2380.3600000000001</ele>
        <time>2015-06-07T13:23:09Z</time>
      </trkpt>
      <trkpt lat="45.516651878133416" lon="7.079014694318175">
        <ele>2378.4400000000001</ele>
        <time>2015-06-07T13:23:13Z</time>
      </trkpt>
      <trkpt lat="45.516779785975814" lon="7.078994996845722">
        <ele>2377.96</ele>
        <time>2015-06-07T13:23:23Z</time>
      </trkpt>
      <trkpt lat="45.516788084059954" lon="7.079005306586623">
        <ele>2377.48</ele>
        <time>2015-06-07T13:23:24Z</time>
      </trkpt>
      <trkpt lat="45.516898725181818" lon="7.079129023477435">
        <ele>2374.5900000000001</ele>
        <time>2015-06-07T13:23:34Z</time>
      </trkpt>
      <trkpt lat="45.516901323571801" lon="7.079144697636366">
        <ele>2374.1100000000001</ele>
        <time>2015-06-07T13:23:35Z</time>
      </trkpt>
      <trkpt lat="45.516900317743421" lon="7.079162299633026">
        <ele>2374.1100000000001</ele>
        <time>2015-06-07T13:23:36Z</time>
      </trkpt>
      <trkpt lat="45.516905095428228" lon="7.079183254390955">
        <ele>2373.6300000000001</ele>
        <time>2015-06-07T13:23:37Z</time>
      </trkpt>
      <trkpt lat="45.516913058236241" lon="7.079192474484444">
        <ele>2373.1500000000001</ele>
        <time>2015-06-07T13:23:38Z</time>
      </trkpt>
      <trkpt lat="45.516921607777476" lon="7.079197587445378">
        <ele>2372.6700000000001</ele>
        <time>2015-06-07T13:23:39Z</time>
      </trkpt>
      <trkpt lat="45.516933174803853" lon="7.079205131158233">
        <ele>2372.6700000000001</ele>
        <time>2015-06-07T13:23:40Z</time>
      </trkpt>
      <trkpt lat="45.516944238916039" lon="7.079216782003641">
        <ele>2372.6700000000001</ele>
        <time>2015-06-07T13:23:41Z</time>
      </trkpt>
      <trkpt lat="45.516950692981482" lon="7.079233713448048">
        <ele>2372.1900000000001</ele>
        <time>2015-06-07T13:23:42Z</time>
      </trkpt>
      <trkpt lat="45.516956057399511" lon="7.079254416748881">
        <ele>2371.71</ele>
        <time>2015-06-07T13:23:43Z</time>
      </trkpt>
      <trkpt lat="45.516962679103017" lon="7.079273778945208">
        <ele>2371.23</ele>
        <time>2015-06-07T13:23:44Z</time>
      </trkpt>
      <trkpt lat="45.516972066834569" lon="7.079291800037026">
        <ele>2370.75</ele>
        <time>2015-06-07T13:23:45Z</time>
      </trkpt>
      <trkpt lat="45.516979610547423" lon="7.07930420525372">
        <ele>2370.75</ele>
        <time>2015-06-07T13:23:46Z</time>
      </trkpt>
      <trkpt lat="45.517106261104345" lon="7.079432448372245">
        <ele>2367.3800000000001</ele>
        <time>2015-06-07T13:23:59Z</time>
      </trkpt>
      <trkpt lat="45.517106093466282" lon="7.079449463635683">
        <ele>2367.3800000000001</ele>
        <time>2015-06-07T13:24:10Z</time>
      </trkpt>
      <trkpt lat="45.51712897606194" lon="7.079431945458055">
        <ele>2367.3800000000001</ele>
        <time>2015-06-07T13:24:31Z</time>
      </trkpt>
      <trkpt lat="45.517240958288312" lon="7.079523224383593">
        <ele>2364.02</ele>
        <time>2015-06-07T13:24:43Z</time>
      </trkpt>
      <trkpt lat="45.517264259979129" lon="7.079539820551872">
        <ele>2362.5799999999999</ele>
        <time>2015-06-07T13:24:46Z</time>
      </trkpt>
      <trkpt lat="45.51730927079916" lon="7.079634452238679">
        <ele>2359.6900000000001</ele>
        <time>2015-06-07T13:24:54Z</time>
      </trkpt>
      <trkpt lat="45.517382025718689" lon="7.079720115289092">
        <ele>2356.8099999999999</ele>
        <time>2015-06-07T13:25:01Z</time>
      </trkpt>
      <trkpt lat="45.517433742061257" lon="7.079774346202612">
        <ele>2354.8899999999999</ele>
        <time>2015-06-07T13:25:08Z</time>
      </trkpt>
      <trkpt lat="45.517446734011173" lon="7.079783650115132">
        <ele>2354.4099999999999</ele>
        <time>2015-06-07T13:25:09Z</time>
      </trkpt>
      <trkpt lat="45.517458887770772" lon="7.07979328930378">
        <ele>2354.4099999999999</ele>
        <time>2015-06-07T13:25:10Z</time>
      </trkpt>
      <trkpt lat="45.517467018216848" lon="7.079811478033662">
        <ele>2353.9299999999998</ele>
        <time>2015-06-07T13:25:11Z</time>
      </trkpt>
      <trkpt lat="45.517476489767432" lon="7.079823212698102">
        <ele>2353.9299999999998</ele>
        <time>2015-06-07T13:25:12Z</time>
      </trkpt>
      <trkpt lat="45.517469113692641" lon="7.07983436062932">
        <ele>2353.4400000000001</ele>
        <time>2015-06-07T13:25:13Z</time>
      </trkpt>
      <trkpt lat="45.517442962154746" lon="7.079857410863042">
        <ele>2352.96</ele>
        <time>2015-06-07T13:25:15Z</time>
      </trkpt>
      <trkpt lat="45.517418906092644" lon="7.079867385327816">
        <ele>2352.48</ele>
        <time>2015-06-07T13:25:16Z</time>
      </trkpt>
      <trkpt lat="45.517403148114681" lon="7.079882640391588">
        <ele>2352</ele>
        <time>2015-06-07T13:25:17Z</time>
      </trkpt>
      <trkpt lat="45.517386635765433" lon="7.079895213246346">
        <ele>2352</ele>
        <time>2015-06-07T13:25:18Z</time>
      </trkpt>
      <trkpt lat="45.517368279397488" lon="7.079902589321137">
        <ele>2351.52</ele>
        <time>2015-06-07T13:25:19Z</time>
      </trkpt>
      <trkpt lat="45.517351850867271" lon="7.079903343692422">
        <ele>2350.5599999999999</ele>
        <time>2015-06-07T13:25:20Z</time>
      </trkpt>
      <trkpt lat="45.517270881682634" lon="7.079969812184572">
        <ele>2349.1199999999999</ele>
        <time>2015-06-07T13:25:28Z</time>
      </trkpt>
      <trkpt lat="45.517253363505006" lon="7.079981043934822">
        <ele>2348.1599999999999</ele>
        <time>2015-06-07T13:25:30Z</time>
      </trkpt>
      <trkpt lat="45.517159486189485" lon="7.080055642873049">
        <ele>2346.7199999999998</ele>
        <time>2015-06-07T13:25:41Z</time>
      </trkpt>
      <trkpt lat="45.517110954970121" lon="7.080102916806936">
        <ele>2344.79</ele>
        <time>2015-06-07T13:25:47Z</time>
      </trkpt>
      <trkpt lat="45.517106261104345" lon="7.080131666734815">
        <ele>2344.3099999999999</ele>
        <time>2015-06-07T13:25:50Z</time>
      </trkpt>
      <trkpt lat="45.517089832574129" lon="7.08017542026937">
        <ele>2343.8299999999999</ele>
        <time>2015-06-07T13:25:59Z</time>
      </trkpt>
      <trkpt lat="45.51707667298615" lon="7.080171313136816">
        <ele>2343.3499999999999</ele>
        <time>2015-06-07T13:26:00Z</time>
      </trkpt>
      <trkpt lat="45.517065105959773" lon="7.080170977860689">
        <ele>2342.8699999999999</ele>
        <time>2015-06-07T13:26:01Z</time>
      </trkpt>
      <trkpt lat="45.517046079039574" lon="7.08017542026937">
        <ele>2342.3899999999999</ele>
        <time>2015-06-07T13:26:02Z</time>
      </trkpt>
      <trkpt lat="45.517026716843247" lon="7.080181203782558">
        <ele>2342.3899999999999</ele>
        <time>2015-06-07T13:26:03Z</time>
      </trkpt>
      <trkpt lat="45.517011461779475" lon="7.08019008859992">
        <ele>2341.9099999999999</ele>
        <time>2015-06-07T13:26:04Z</time>
      </trkpt>
      <trkpt lat="45.516956727951765" lon="7.080195788294077">
        <ele>2340.9499999999998</ele>
        <time>2015-06-07T13:26:09Z</time>
      </trkpt>
      <trkpt lat="45.516949268057942" lon="7.08019738085568">
        <ele>2340.4699999999998</ele>
        <time>2015-06-07T13:26:10Z</time>
      </trkpt>
      <trkpt lat="45.516935102641582" lon="7.080201404169202">
        <ele>2340.4699999999998</ele>
        <time>2015-06-07T13:26:11Z</time>
      </trkpt>
      <trkpt lat="45.516922110691667" lon="7.080201152712107">
        <ele>2340.4699999999998</ele>
        <time>2015-06-07T13:26:12Z</time>
      </trkpt>
      <trkpt lat="45.516909705474973" lon="7.080203499644995">
        <ele>2339.9899999999998</ele>
        <time>2015-06-07T13:26:13Z</time>
      </trkpt>
      <trkpt lat="45.516905849799514" lon="7.080207858234644">
        <ele>2340.4699999999998</ele>
        <time>2015-06-07T13:26:14Z</time>
      </trkpt>
      <trkpt lat="45.516896964982152" lon="7.080234261229634">
        <ele>2339.5100000000002</ele>
        <time>2015-06-07T13:26:15Z</time>
      </trkpt>
      <trkpt lat="45.516887912526727" lon="7.080320008099079">
        <ele>2337.0999999999999</ele>
        <time>2015-06-07T13:26:19Z</time>
      </trkpt>
      <trkpt lat="45.516872573643923" lon="7.080329982563853">
        <ele>2336.6199999999999</ele>
        <time>2015-06-07T13:26:20Z</time>
      </trkpt>
      <trkpt lat="45.516683226451278" lon="7.080389996990562">
        <ele>2334.2199999999998</ele>
        <time>2015-06-07T13:26:33Z</time>
      </trkpt>
      <trkpt lat="45.51659001968801" lon="7.080447915941477">
        <ele>2333.7399999999998</ele>
        <time>2015-06-07T13:26:40Z</time>
      </trkpt>
      <trkpt lat="45.516580883413553" lon="7.080488568171859">
        <ele>2332.7800000000002</ele>
        <time>2015-06-07T13:26:42Z</time>
      </trkpt>
      <trkpt lat="45.51655875518918" lon="7.080509271472693">
        <ele>2331.3299999999999</ele>
        <time>2015-06-07T13:26:45Z</time>
      </trkpt>
      <trkpt lat="45.516526401042938" lon="7.080508936196566">
        <ele>2329.8899999999999</ele>
        <time>2015-06-07T13:26:47Z</time>
      </trkpt>
      <trkpt lat="45.516505530104041" lon="7.080492340028286">
        <ele>2329.4099999999999</ele>
        <time>2015-06-07T13:26:49Z</time>
      </trkpt>
      <trkpt lat="45.516491029411554" lon="7.080496698617935">
        <ele>2329.8899999999999</ele>
        <time>2015-06-07T13:26:50Z</time>
      </trkpt>
      <trkpt lat="45.516453646123409" lon="7.080537853762507">
        <ele>2329.8899999999999</ele>
        <time>2015-06-07T13:26:54Z</time>
      </trkpt>
      <trkpt lat="45.516413748264313" lon="7.080607004463673">
        <ele>2329.8899999999999</ele>
        <time>2015-06-07T13:26:58Z</time>
      </trkpt>
      <trkpt lat="45.516254492104053" lon="7.080662827938795">
        <ele>2326.5300000000002</ele>
        <time>2015-06-07T13:27:08Z</time>
      </trkpt>
      <trkpt lat="45.516039999201894" lon="7.080697864294052">
        <ele>2324.6100000000001</ele>
        <time>2015-06-07T13:27:21Z</time>
      </trkpt>
      <trkpt lat="45.51590932533145" lon="7.08074270747602">
        <ele>2321.7199999999998</ele>
        <time>2015-06-07T13:27:31Z</time>
      </trkpt>
      <trkpt lat="45.515766246244311" lon="7.080822167918086">
        <ele>2320.7600000000002</ele>
        <time>2015-06-07T13:27:42Z</time>
      </trkpt>
      <trkpt lat="45.515682678669691" lon="7.080894000828266">
        <ele>2318.3600000000001</ele>
        <time>2015-06-07T13:27:48Z</time>
      </trkpt>
      <trkpt lat="45.515544628724456" lon="7.080959128215909">
        <ele>2314.9899999999998</ele>
        <time>2015-06-07T13:27:58Z</time>
      </trkpt>
      <trkpt lat="45.515394089743495" lon="7.081000953912735">
        <ele>2313.0700000000002</ele>
        <time>2015-06-07T13:28:08Z</time>
      </trkpt>
      <trkpt lat="45.515362657606602" lon="7.080996260046959">
        <ele>2312.5900000000001</ele>
        <time>2015-06-07T13:28:11Z</time>
      </trkpt>
      <trkpt lat="45.515356790274382" lon="7.081017214804888">
        <ele>2312.5900000000001</ele>
        <time>2015-06-07T13:28:12Z</time>
      </trkpt>
      <trkpt lat="45.515349330380559" lon="7.081063566729426">
        <ele>2311.6300000000001</ele>
        <time>2015-06-07T13:28:14Z</time>
      </trkpt>
      <trkpt lat="45.515279425308108" lon="7.081107906997204">
        <ele>2310.6700000000001</ele>
        <time>2015-06-07T13:28:20Z</time>
      </trkpt>
      <trkpt lat="45.515271546319127" lon="7.081163814291358">
        <ele>2309.6999999999998</ele>
        <time>2015-06-07T13:28:23Z</time>
      </trkpt>
      <trkpt lat="45.515256207436323" lon="7.081179236993194">
        <ele>2309.6999999999998</ele>
        <time>2015-06-07T13:28:24Z</time>
      </trkpt>
      <trkpt lat="45.515115475282073" lon="7.081287447363138">
        <ele>2307.7800000000002</ele>
        <time>2015-06-07T13:28:35Z</time>
      </trkpt>
      <trkpt lat="45.515214884653687" lon="7.081100363284349">
        <ele>2307.3000000000002</ele>
        <time>2015-06-07T13:28:38Z</time>
      </trkpt>
      <trkpt lat="45.515126371756196" lon="7.081161299720407">
        <ele>2305.3800000000001</ele>
        <time>2015-06-07T13:28:47Z</time>
      </trkpt>
      <trkpt lat="45.515123018994927" lon="7.081159455701709">
        <ele>2304.4200000000001</ele>
        <time>2015-06-07T13:28:59Z</time>
      </trkpt>
      <trkpt lat="45.515110194683075" lon="7.081178901717067">
        <ele>2304.4200000000001</ele>
        <time>2015-06-07T13:29:05Z</time>
      </trkpt>
      <trkpt lat="45.515006678178906" lon="7.081309407949448">
        <ele>2302.98</ele>
        <time>2015-06-07T13:29:16Z</time>
      </trkpt>
      <trkpt lat="45.515010030940175" lon="7.081347042694688">
        <ele>2302.4899999999998</ele>
        <time>2015-06-07T13:29:18Z</time>
      </trkpt>
      <trkpt lat="45.514997122809291" lon="7.081416277214885">
        <ele>2302.0100000000002</ele>
        <time>2015-06-07T13:29:22Z</time>
      </trkpt>
      <trkpt lat="45.515042217448354" lon="7.081472687423229">
        <ele>2301.5300000000002</ele>
        <time>2015-06-07T13:29:26Z</time>
      </trkpt>
      <trkpt lat="45.51500391215086" lon="7.081577209755778">
        <ele>2300.5700000000002</ele>
        <time>2015-06-07T13:29:32Z</time>
      </trkpt>
      <trkpt lat="45.514967534691095" lon="7.081610653549433">
        <ele>2300.0900000000001</ele>
        <time>2015-06-07T13:29:35Z</time>
      </trkpt>
      <trkpt lat="45.514918500557542" lon="7.081700339913368">
        <ele>2299.6100000000001</ele>
        <time>2015-06-07T13:29:40Z</time>
      </trkpt>
      <trkpt lat="45.514916572719812" lon="7.081735460087657">
        <ele>2298.6500000000001</ele>
        <time>2015-06-07T13:29:42Z</time>
      </trkpt>
      <trkpt lat="45.514933420345187" lon="7.081793798133731">
        <ele>2297.6900000000001</ele>
        <time>2015-06-07T13:29:46Z</time>
      </trkpt>
      <trkpt lat="45.51497214473784" lon="7.08188021555543">
        <ele>2297.21</ele>
        <time>2015-06-07T13:29:51Z</time>
      </trkpt>
      <trkpt lat="45.514981364831328" lon="7.081915838643909">
        <ele>2297.6900000000001</ele>
        <time>2015-06-07T13:29:53Z</time>
      </trkpt>
      <trkpt lat="45.514954375103116" lon="7.081945007666946">
        <ele>2297.6900000000001</ele>
        <time>2015-06-07T13:30:04Z</time>
      </trkpt>
      <trkpt lat="45.514915147796273" lon="7.082017175853252">
        <ele>2299.6100000000001</ele>
        <time>2015-06-07T13:30:12Z</time>
      </trkpt>
      <trkpt lat="45.514847841113806" lon="7.08217391744256">
        <ele>2301.0500000000002</ele>
        <time>2015-06-07T13:30:25Z</time>
      </trkpt>
      <trkpt lat="45.51480358466506" lon="7.082368629053235">
        <ele>2300.5700000000002</ele>
        <time>2015-06-07T13:30:37Z</time>
      </trkpt>
      <trkpt lat="45.514806434512138" lon="7.082428727298975">
        <ele>2301.5300000000002</ele>
        <time>2015-06-07T13:30:42Z</time>
      </trkpt>
      <trkpt lat="45.514928139746189" lon="7.082495195791125">
        <ele>2301.0500000000002</ele>
        <time>2015-06-07T13:30:53Z</time>
      </trkpt>
      <trkpt lat="45.51501807756722" lon="7.082595191895962">
        <ele>2302.4899999999998</ele>
        <time>2015-06-07T13:31:04Z</time>
      </trkpt>
      <trkpt lat="45.515046995133162" lon="7.082794429734349">
        <ele>2303.9400000000001</ele>
        <time>2015-06-07T13:31:16Z</time>
      </trkpt>
      <trkpt lat="45.51502151414752" lon="7.082975143566728">
        <ele>2303.9400000000001</ele>
        <time>2015-06-07T13:31:27Z</time>
      </trkpt>
      <trkpt lat="45.51502637565136" lon="7.083136914297938">
        <ele>2304.9000000000001</ele>
        <time>2015-06-07T13:31:38Z</time>
      </trkpt>
      <trkpt lat="45.515045067295432" lon="7.083265241235495">
        <ele>2306.8200000000002</ele>
        <time>2015-06-07T13:31:48Z</time>
      </trkpt>
      <trkpt lat="45.515076331794262" lon="7.083370182663202">
        <ele>2308.2600000000002</ele>
        <time>2015-06-07T13:31:58Z</time>
      </trkpt>
      <trkpt lat="45.515082785859704" lon="7.083478225395083">
        <ele>2310.6700000000001</ele>
        <time>2015-06-07T13:32:10Z</time>
      </trkpt>
      <trkpt lat="45.515112625434995" lon="7.083524242043495">
        <ele>2311.1500000000001</ele>
        <time>2015-06-07T13:32:15Z</time>
      </trkpt>
      <trkpt lat="45.515153529122472" lon="7.083665812388063">
        <ele>2312.5900000000001</ele>
        <time>2015-06-07T13:32:27Z</time>
      </trkpt>
      <trkpt lat="45.51521698012948" lon="7.083694646134973">
        <ele>2314.5100000000002</ele>
        <time>2015-06-07T13:32:36Z</time>
      </trkpt>
      <trkpt lat="45.515295267105103" lon="7.083782656118274">
        <ele>2316.4299999999998</ele>
        <time>2015-06-07T13:32:49Z</time>
      </trkpt>
      <trkpt lat="45.515430048108101" lon="7.083921125158668">
        <ele>2314.5100000000002</ele>
        <time>2015-06-07T13:33:02Z</time>
      </trkpt>
      <trkpt lat="45.515541695058346" lon="7.084133103489876">
        <ele>2313.5500000000002</ele>
        <time>2015-06-07T13:33:18Z</time>
      </trkpt>
      <trkpt lat="45.515561895444989" lon="7.084305183961988">
        <ele>2314.5100000000002</ele>
        <time>2015-06-07T13:33:29Z</time>
      </trkpt>
      <trkpt lat="45.515563739463687" lon="7.084506684914231">
        <ele>2311.6300000000001</ele>
        <time>2015-06-07T13:33:42Z</time>
      </trkpt>
      <trkpt lat="45.515541192144156" lon="7.084559239447117">
        <ele>2310.1900000000001</ele>
        <time>2015-06-07T13:33:48Z</time>
      </trkpt>
      <trkpt lat="45.515537671744823" lon="7.084553120657802">
        <ele>2310.1900000000001</ele>
        <time>2015-06-07T13:34:07Z</time>
      </trkpt>
      <trkpt lat="45.515548652037978" lon="7.084569968283176">
        <ele>2310.1900000000001</ele>
        <time>2015-06-07T13:34:38Z</time>
      </trkpt>
      <trkpt lat="45.515554687008262" lon="7.084541218355298">
        <ele>2309.6999999999998</ele>
        <time>2015-06-07T13:35:09Z</time>
      </trkpt>
      <trkpt lat="45.515547478571534" lon="7.084547756239772">
        <ele>2309.2199999999998</ele>
        <time>2015-06-07T13:35:29Z</time>
      </trkpt>
      <trkpt lat="45.515558710321784" lon="7.084547420963645">
        <ele>2309.6999999999998</ele>
        <time>2015-06-07T13:35:44Z</time>
      </trkpt>
      <trkpt lat="45.515552423894405" lon="7.084550019353628">
        <ele>2310.1900000000001</ele>
        <time>2015-06-07T13:35:56Z</time>
      </trkpt>
      <trkpt lat="45.515548652037978" lon="7.084533339366317">
        <ele>2309.2199999999998</ele>
        <time>2015-06-07T13:36:14Z</time>
      </trkpt>
      <trkpt lat="45.515549322590232" lon="7.084516659379005">
        <ele>2308.7399999999998</ele>
        <time>2015-06-07T13:36:28Z</time>
      </trkpt>
      <trkpt lat="45.515513028949499" lon="7.084537362679839">
        <ele>2309.2199999999998</ele>
        <time>2015-06-07T13:36:31Z</time>
      </trkpt>
      <trkpt lat="45.515483859926462" lon="7.084552617743611">
        <ele>2309.6999999999998</ele>
        <time>2015-06-07T13:36:40Z</time>
      </trkpt>
      <trkpt lat="45.515513531863689" lon="7.084549684077501">
        <ele>2309.2199999999998</ele>
        <time>2015-06-07T13:36:58Z</time>
      </trkpt>
      <trkpt lat="45.515495175495744" lon="7.084579272195697">
        <ele>2308.2600000000002</ele>
        <time>2015-06-07T13:37:09Z</time>
      </trkpt>
      <trkpt lat="45.515507748350501" lon="7.084556138142943">
        <ele>2309.2199999999998</ele>
        <time>2015-06-07T13:37:22Z</time>
      </trkpt>
      <trkpt lat="45.515479417517781" lon="7.084561502560973">
        <ele>2309.2199999999998</ele>
        <time>2015-06-07T13:37:39Z</time>
      </trkpt>
      <trkpt lat="45.515478998422623" lon="7.084561586380005">
        <ele>2309.2199999999998</ele>
        <time>2015-06-07T13:37:40Z</time>
      </trkpt>
      <trkpt lat="45.515475226566195" lon="7.084566615521908">
        <ele>2310.1900000000001</ele>
        <time>2015-06-07T13:37:49Z</time>
      </trkpt>
      <trkpt lat="45.515473885461688" lon="7.084568375721574">
        <ele>2309.2199999999998</ele>
        <time>2015-06-07T13:38:04Z</time>
      </trkpt>
      <trkpt lat="45.515471203252673" lon="7.084601735696197">
        <ele>2309.6999999999998</ele>
        <time>2015-06-07T13:38:19Z</time>
      </trkpt>
      <trkpt lat="45.515470616519451" lon="7.084622774273157">
        <ele>2309.2199999999998</ele>
        <time>2015-06-07T13:38:21Z</time>
      </trkpt>
      <trkpt lat="45.515424851328135" lon="7.084764176979661">
        <ele>2307.3000000000002</ele>
        <time>2015-06-07T13:38:31Z</time>
      </trkpt>
      <trkpt lat="45.515429377555847" lon="7.084847493097186">
        <ele>2306.3400000000001</ele>
        <time>2015-06-07T13:38:36Z</time>
      </trkpt>
      <trkpt lat="45.51541093736887" lon="7.084950506687164">
        <ele>2304.9000000000001</ele>
        <time>2015-06-07T13:38:44Z</time>
      </trkpt>
      <trkpt lat="45.515397358685732" lon="7.085051843896508">
        <ele>2302.98</ele>
        <time>2015-06-07T13:38:56Z</time>
      </trkpt>
      <trkpt lat="45.515428455546498" lon="7.085094507783651">
        <ele>2301.5300000000002</ele>
        <time>2015-06-07T13:39:00Z</time>
      </trkpt>
      <trkpt lat="45.515461480244994" lon="7.08510959520936">
        <ele>2301.0500000000002</ele>
        <time>2015-06-07T13:39:03Z</time>
      </trkpt>
      <trkpt lat="45.51550230011344" lon="7.085165586322546">
        <ele>2300.5700000000002</ele>
        <time>2015-06-07T13:39:12Z</time>
      </trkpt>
      <trkpt lat="45.515508921816945" lon="7.085172878578305">
        <ele>2299.6100000000001</ele>
        <time>2015-06-07T13:39:23Z</time>
      </trkpt>
      <trkpt lat="45.515603721141815" lon="7.08514966070652">
        <ele>2297.6900000000001</ele>
        <time>2015-06-07T13:39:32Z</time>
      </trkpt>
      <trkpt lat="45.515690892934799" lon="7.085138345137239">
        <ele>2295.2800000000002</ele>
        <time>2015-06-07T13:39:39Z</time>
      </trkpt>
      <trkpt lat="45.515853501856327" lon="7.08508369512856">
        <ele>2293.8400000000001</ele>
        <time>2015-06-07T13:39:53Z</time>
      </trkpt>
      <trkpt lat="45.515945870429277" lon="7.084963330999017">
        <ele>2294.3200000000002</ele>
        <time>2015-06-07T13:40:05Z</time>
      </trkpt>
      <trkpt lat="45.516074448823929" lon="7.084939861670137">
        <ele>2293.3600000000001</ele>
        <time>2015-06-07T13:40:16Z</time>
      </trkpt>
      <trkpt lat="45.516138067469001" lon="7.084922511130571">
        <ele>2292.8800000000001</ele>
        <time>2015-06-07T13:40:22Z</time>
      </trkpt>
      <trkpt lat="45.516232112422585" lon="7.084907172247767">
        <ele>2291.9200000000001</ele>
        <time>2015-06-07T13:40:31Z</time>
      </trkpt>
      <trkpt lat="45.516279805451632" lon="7.084935922175646">
        <ele>2290.48</ele>
        <time>2015-06-07T13:40:35Z</time>
      </trkpt>
      <trkpt lat="45.516355158761144" lon="7.08494832739234">
        <ele>2289.04</ele>
        <time>2015-06-07T13:40:42Z</time>
      </trkpt>
      <trkpt lat="45.516435457393527" lon="7.084831902757287">
        <ele>2285.6700000000001</ele>
        <time>2015-06-07T13:40:53Z</time>
      </trkpt>
      <trkpt lat="45.516442330554128" lon="7.084820587188005">
        <ele>2285.1900000000001</ele>
        <time>2015-06-07T13:40:54Z</time>
      </trkpt>
      <trkpt lat="45.516519863158464" lon="7.084767278283835">
        <ele>2283.27</ele>
        <time>2015-06-07T13:41:06Z</time>
      </trkpt>
      <trkpt lat="45.516533609479666" lon="7.084747916087508">
        <ele>2282.3099999999999</ele>
        <time>2015-06-07T13:41:18Z</time>
      </trkpt>
      <trkpt lat="45.516553642228246" lon="7.084711287170649">
        <ele>2280.8699999999999</ele>
        <time>2015-06-07T13:41:28Z</time>
      </trkpt>
      <trkpt lat="45.516605945304036" lon="7.084729978814721">
        <ele>2278.9400000000001</ele>
        <time>2015-06-07T13:41:38Z</time>
      </trkpt>
      <trkpt lat="45.516624636948109" lon="7.084711622446775">
        <ele>2277.98</ele>
        <time>2015-06-07T13:41:43Z</time>
      </trkpt>
      <trkpt lat="45.516678616404533" lon="7.084750514477491">
        <ele>2276.0599999999999</ele>
        <time>2015-06-07T13:41:52Z</time>
      </trkpt>
      <trkpt lat="45.516686998307705" lon="7.084758393466473">
        <ele>2275.0999999999999</ele>
        <time>2015-06-07T13:41:54Z</time>
      </trkpt>
      <trkpt lat="45.516699738800526" lon="7.084801057353616">
        <ele>2272.6900000000001</ele>
        <time>2015-06-07T13:42:03Z</time>
      </trkpt>
      <trkpt lat="45.516686495393515" lon="7.084796028211713">
        <ele>2271.73</ele>
        <time>2015-06-07T13:42:15Z</time>
      </trkpt>
      <trkpt lat="45.51672195084393" lon="7.084785550832748">
        <ele>2272.21</ele>
        <time>2015-06-07T13:42:18Z</time>
      </trkpt>
      <trkpt lat="45.51675908267498" lon="7.084793178364635">
        <ele>2270.29</ele>
        <time>2015-06-07T13:42:21Z</time>
      </trkpt>
      <trkpt lat="45.516792023554444" lon="7.084768284112215">
        <ele>2268.8499999999999</ele>
        <time>2015-06-07T13:42:26Z</time>
      </trkpt>
      <trkpt lat="45.516865868121386" lon="7.084732744842768">
        <ele>2266.4499999999998</ele>
        <time>2015-06-07T13:42:34Z</time>
      </trkpt>
      <trkpt lat="45.516915488988161" lon="7.084728050976992">
        <ele>2264.52</ele>
        <time>2015-06-07T13:42:38Z</time>
      </trkpt>
      <trkpt lat="45.516952453181148" lon="7.084721764549613">
        <ele>2264.04</ele>
        <time>2015-06-07T13:42:41Z</time>
      </trkpt>
      <trkpt lat="45.51706301048398" lon="7.084850007668138">
        <ele>2260.6799999999998</ele>
        <time>2015-06-07T13:42:52Z</time>
      </trkpt>
      <trkpt lat="45.517102908343077" lon="7.084972131997347">
        <ele>2258.27</ele>
        <time>2015-06-07T13:43:00Z</time>
      </trkpt>
      <trkpt lat="45.517124952748418" lon="7.084980513900518">
        <ele>2257.79</ele>
        <time>2015-06-07T13:43:02Z</time>
      </trkpt>
      <trkpt lat="45.517234588041902" lon="7.0850142929703">
        <ele>2256.8299999999999</ele>
        <time>2015-06-07T13:43:11Z</time>
      </trkpt>
      <trkpt lat="45.517254453152418" lon="7.085020998492837">
        <ele>2256.3499999999999</ele>
        <time>2015-06-07T13:43:13Z</time>
      </trkpt>
      <trkpt lat="45.517300218343735" lon="7.084993505850434">
        <ele>2255.3899999999999</ele>
        <time>2015-06-07T13:43:18Z</time>
      </trkpt>
      <trkpt lat="45.517388815060258" lon="7.084983699023724">
        <ele>2253.4699999999998</ele>
        <time>2015-06-07T13:43:27Z</time>
      </trkpt>
      <trkpt lat="45.517412032932043" lon="7.085017058998346">
        <ele>2252.5100000000002</ele>
        <time>2015-06-07T13:43:30Z</time>
      </trkpt>
      <trkpt lat="45.51743240095675" lon="7.085192827507854">
        <ele>2250.0999999999999</ele>
        <time>2015-06-07T13:43:40Z</time>
      </trkpt>
      <trkpt lat="45.517458468675613" lon="7.085241777822375">
        <ele>2249.1399999999999</ele>
        <time>2015-06-07T13:43:44Z</time>
      </trkpt>
      <trkpt lat="45.517504485324025" lon="7.085216213017702">
        <ele>2248.1799999999998</ele>
        <time>2015-06-07T13:43:48Z</time>
      </trkpt>
      <trkpt lat="45.517650749534369" lon="7.085139770060778">
        <ele>2246.2600000000002</ele>
        <time>2015-06-07T13:44:00Z</time>
      </trkpt>
      <trkpt lat="45.517792822793126" lon="7.085232976824045">
        <ele>2244.3299999999999</ele>
        <time>2015-06-07T13:44:11Z</time>
      </trkpt>
      <trkpt lat="45.517884688451886" lon="7.085381168872118">
        <ele>2243.3699999999999</ele>
        <time>2015-06-07T13:44:22Z</time>
      </trkpt>
      <trkpt lat="45.518003376200795" lon="7.085473705083132">
        <ele>2241.4499999999998</ele>
        <time>2015-06-07T13:44:32Z</time>
      </trkpt>
      <trkpt lat="45.518171600997448" lon="7.085538748651743">
        <ele>2240.0100000000002</ele>
        <time>2015-06-07T13:44:45Z</time>
      </trkpt>
      <trkpt lat="45.51835591904819" lon="7.085643270984292">
        <ele>2237.1300000000001</ele>
        <time>2015-06-07T13:45:00Z</time>
      </trkpt>
      <trkpt lat="45.518488185480237" lon="7.085845526307821">
        <ele>2233.7600000000002</ele>
        <time>2015-06-07T13:45:15Z</time>
      </trkpt>
      <trkpt lat="45.518645010888577" lon="7.085895482450724">
        <ele>2231.8400000000001</ele>
        <time>2015-06-07T13:45:27Z</time>
      </trkpt>
      <trkpt lat="45.518805691972375" lon="7.085979720577598">
        <ele>2229.4299999999998</ele>
        <time>2015-06-07T13:45:40Z</time>
      </trkpt>
      <trkpt lat="45.518966624513268" lon="7.08606144413352">
        <ele>2227.9899999999998</ele>
        <time>2015-06-07T13:45:52Z</time>
      </trkpt>
      <trkpt lat="45.519049186259508" lon="7.086105868220329">
        <ele>2227.0300000000002</ele>
        <time>2015-06-07T13:45:58Z</time>
      </trkpt>
      <trkpt lat="45.519208861514926" lon="7.086159931495786">
        <ele>2224.6300000000001</ele>
        <time>2015-06-07T13:46:11Z</time>
      </trkpt>
      <trkpt lat="45.51934246905148" lon="7.086168648675084">
        <ele>2221.7399999999998</ele>
        <time>2015-06-07T13:46:22Z</time>
      </trkpt>
      <trkpt lat="45.519362920895219" lon="7.086148867383599">
        <ele>2220.7800000000002</ele>
        <time>2015-06-07T13:46:24Z</time>
      </trkpt>
      <trkpt lat="45.519432909786701" lon="7.086130427196622">
        <ele>2219.3400000000001</ele>
        <time>2015-06-07T13:46:28Z</time>
      </trkpt>
      <trkpt lat="45.519462330266833" lon="7.086143754422665">
        <ele>2218.8600000000001</ele>
        <time>2015-06-07T13:46:30Z</time>
      </trkpt>
      <trkpt lat="45.519546652212739" lon="7.086262106895447">
        <ele>2215.98</ele>
        <time>2015-06-07T13:46:39Z</time>
      </trkpt>
      <trkpt lat="45.519665507599711" lon="7.086347853764892">
        <ele>2212.6100000000001</ele>
        <time>2015-06-07T13:46:49Z</time>
      </trkpt>
      <trkpt lat="45.519815711304545" lon="7.086363108828664">
        <ele>2209.25</ele>
        <time>2015-06-07T13:47:00Z</time>
      </trkpt>
      <trkpt lat="45.519977565854788" lon="7.086318014189601">
        <ele>2207.3200000000002</ele>
        <time>2015-06-07T13:47:13Z</time>
      </trkpt>
      <trkpt lat="45.520129110664129" lon="7.086251378059387">
        <ele>2205.8800000000001</ele>
        <time>2015-06-07T13:47:26Z</time>
      </trkpt>
      <trkpt lat="45.520144365727901" lon="7.086220197379589">
        <ele>2205.8800000000001</ele>
        <time>2015-06-07T13:47:28Z</time>
      </trkpt>
      <trkpt lat="45.520137492567301" lon="7.08619873970747">
        <ele>2204.9200000000001</ele>
        <time>2015-06-07T13:47:32Z</time>
      </trkpt>
      <trkpt lat="45.520090218633413" lon="7.086247773841023">
        <ele>2203.96</ele>
        <time>2015-06-07T13:47:37Z</time>
      </trkpt>
      <trkpt lat="45.520080076530576" lon="7.086253808811307">
        <ele>2203.96</ele>
        <time>2015-06-07T13:47:38Z</time>
      </trkpt>
      <trkpt lat="45.520063899457455" lon="7.086225058883429">
        <ele>2203</ele>
        <time>2015-06-07T13:47:41Z</time>
      </trkpt>
      <trkpt lat="45.52008812315762" lon="7.086141910403967">
        <ele>2201.0799999999999</ele>
        <time>2015-06-07T13:47:47Z</time>
      </trkpt>
      <trkpt lat="45.520163727924228" lon="7.086023055016995">
        <ele>2200.1100000000001</ele>
        <time>2015-06-07T13:47:56Z</time>
      </trkpt>
      <trkpt lat="45.520325917750597" lon="7.085955329239368">
        <ele>2199.6300000000001</ele>
        <time>2015-06-07T13:48:09Z</time>
      </trkpt>
      <trkpt lat="45.520341675728559" lon="7.085904199630022">
        <ele>2198.6700000000001</ele>
        <time>2015-06-07T13:48:13Z</time>
      </trkpt>
      <trkpt lat="45.520432703197002" lon="7.085777381435037">
        <ele>2195.3099999999999</ele>
        <time>2015-06-07T13:48:24Z</time>
      </trkpt>
      <trkpt lat="45.520437899976969" lon="7.085742931813002">
        <ele>2193.3899999999999</ele>
        <time>2015-06-07T13:48:29Z</time>
      </trkpt>
      <trkpt lat="45.520432032644749" lon="7.085700938478112">
        <ele>2192.4200000000001</ele>
        <time>2015-06-07T13:48:32Z</time>
      </trkpt>
      <trkpt lat="45.520556084811687" lon="7.085670931264758">
        <ele>2189.54</ele>
        <time>2015-06-07T13:48:44Z</time>
      </trkpt>
      <trkpt lat="45.52055960521102" lon="7.085663052275777">
        <ele>2189.0599999999999</ele>
        <time>2015-06-07T13:48:45Z</time>
      </trkpt>
      <trkpt lat="45.520602520555258" lon="7.085543358698487">
        <ele>2186.6599999999999</ele>
        <time>2015-06-07T13:48:53Z</time>
      </trkpt>
      <trkpt lat="45.520701259374619" lon="7.085484266281128">
        <ele>2184.73</ele>
        <time>2015-06-07T13:49:01Z</time>
      </trkpt>
      <trkpt lat="45.520713916048408" lon="7.085449984297156">
        <ele>2183.77</ele>
        <time>2015-06-07T13:49:04Z</time>
      </trkpt>
      <trkpt lat="45.520707881078124" lon="7.085409499704838">
        <ele>2183.77</ele>
        <time>2015-06-07T13:49:07Z</time>
      </trkpt>
      <trkpt lat="45.520737133920193" lon="7.08539298735559">
        <ele>2182.8099999999999</ele>
        <time>2015-06-07T13:49:10Z</time>
      </trkpt>
      <trkpt lat="45.520784324035048" lon="7.085354598239064">
        <ele>2180.4099999999999</ele>
        <time>2015-06-07T13:49:19Z</time>
      </trkpt>
      <trkpt lat="45.520758591592312" lon="7.085298271849752">
        <ele>2178.48</ele>
        <time>2015-06-07T13:49:24Z</time>
      </trkpt>
      <trkpt lat="45.520752975717187" lon="7.085235491394997">
        <ele>2176.5599999999999</ele>
        <time>2015-06-07T13:49:33Z</time>
      </trkpt>
      <trkpt lat="45.520744258537889" lon="7.085179667919874">
        <ele>2175.1199999999999</ele>
        <time>2015-06-07T13:49:37Z</time>
      </trkpt>
      <trkpt lat="45.520819444209337" lon="7.085165921598673">
        <ele>2172.2399999999998</ele>
        <time>2015-06-07T13:49:46Z</time>
      </trkpt>
      <trkpt lat="45.520807038992643" lon="7.08514572121203">
        <ele>2171.7600000000002</ele>
        <time>2015-06-07T13:49:48Z</time>
      </trkpt>
      <trkpt lat="45.520842578262091" lon="7.085109176114202">
        <ele>2170.3099999999999</ele>
        <time>2015-06-07T13:49:54Z</time>
      </trkpt>
      <trkpt lat="45.520856324583292" lon="7.085097189992666">
        <ele>2169.3499999999999</ele>
        <time>2015-06-07T13:49:56Z</time>
      </trkpt>
      <trkpt lat="45.520868813619018" lon="7.085093166679144">
        <ele>2169.3499999999999</ele>
        <time>2015-06-07T13:49:57Z</time>
      </trkpt>
      <trkpt lat="45.520914578810334" lon="7.085093837231398">
        <ele>2166.9499999999998</ele>
        <time>2015-06-07T13:50:03Z</time>
      </trkpt>
      <trkpt lat="45.520962439477444" lon="7.085055196657777">
        <ele>2166.4699999999998</ele>
        <time>2015-06-07T13:50:11Z</time>
      </trkpt>
      <trkpt lat="45.520980879664421" lon="7.085022507235408">
        <ele>2164.0599999999999</ele>
        <time>2015-06-07T13:50:15Z</time>
      </trkpt>
      <trkpt lat="45.521032093092799" lon="7.084999540820718">
        <ele>2162.6199999999999</ele>
        <time>2015-06-07T13:50:20Z</time>
      </trkpt>
      <trkpt lat="45.521049359813333" lon="7.084980178624392">
        <ele>2161.6599999999999</ele>
        <time>2015-06-07T13:50:22Z</time>
      </trkpt>
      <trkpt lat="45.521057406440377" lon="7.084961738437414">
        <ele>2161.1799999999998</ele>
        <time>2015-06-07T13:50:24Z</time>
      </trkpt>
      <trkpt lat="45.52105363458395" lon="7.084933826699853">
        <ele>2160.6999999999998</ele>
        <time>2015-06-07T13:50:26Z</time>
      </trkpt>
      <trkpt lat="45.521063441410661" lon="7.084890324622393">
        <ele>2159.2600000000002</ele>
        <time>2015-06-07T13:50:29Z</time>
      </trkpt>
      <trkpt lat="45.521061681210995" lon="7.084877667948604">
        <ele>2158.7800000000002</ele>
        <time>2015-06-07T13:50:30Z</time>
      </trkpt>
      <trkpt lat="45.52108146250248" lon="7.084828801453114">
        <ele>2157.3400000000001</ele>
        <time>2015-06-07T13:50:37Z</time>
      </trkpt>
      <trkpt lat="45.521123958751559" lon="7.084825281053782">
        <ele>2156.3699999999999</ele>
        <time>2015-06-07T13:50:41Z</time>
      </trkpt>
      <trkpt lat="45.521154049783945" lon="7.084837350994349">
        <ele>2154.9299999999998</ele>
        <time>2015-06-07T13:50:45Z</time>
      </trkpt>
      <trkpt lat="45.521227894350886" lon="7.084825113415718">
        <ele>2153.0100000000002</ele>
        <time>2015-06-07T13:50:52Z</time>
      </trkpt>
      <trkpt lat="45.521332500502467" lon="7.084780018776655">
        <ele>2150.1300000000001</ele>
        <time>2015-06-07T13:51:03Z</time>
      </trkpt>
      <trkpt lat="45.521381786093116" lon="7.08475386723876">
        <ele>2148.1999999999998</ele>
        <time>2015-06-07T13:51:09Z</time>
      </trkpt>
      <trkpt lat="45.521423108875751" lon="7.084724111482501">
        <ele>2146.7600000000002</ele>
        <time>2015-06-07T13:51:14Z</time>
      </trkpt>
      <trkpt lat="45.521509358659387" lon="7.084727883338928">
        <ele>2144.3600000000001</ele>
        <time>2015-06-07T13:51:22Z</time>
      </trkpt>
      <trkpt lat="45.521527966484427" lon="7.084704581648111">
        <ele>2143.8800000000001</ele>
        <time>2015-06-07T13:51:25Z</time>
      </trkpt>
      <trkpt lat="45.521547999233007" lon="7.084657642990351">
        <ele>2142.4400000000001</ele>
        <time>2015-06-07T13:51:29Z</time>
      </trkpt>
      <trkpt lat="45.521567277610302" lon="7.084668455645442">
        <ele>2142.4400000000001</ele>
        <time>2015-06-07T13:51:31Z</time>
      </trkpt>
      <trkpt lat="45.521589741110802" lon="7.084688320755959">
        <ele>2141.4699999999998</ele>
        <time>2015-06-07T13:51:36Z</time>
      </trkpt>
      <trkpt lat="45.521613797172904" lon="7.084692846983671">
        <ele>2140.5100000000002</ele>
        <time>2015-06-07T13:51:38Z</time>
      </trkpt>
      <trkpt lat="45.521650342270732" lon="7.084658816456795">
        <ele>2138.5900000000001</ele>
        <time>2015-06-07T13:51:42Z</time>
      </trkpt>
      <trkpt lat="45.521613378077745" lon="7.08448220975697">
        <ele>2137.6300000000001</ele>
        <time>2015-06-07T13:51:51Z</time>
      </trkpt>
      <trkpt lat="45.521686971187592" lon="7.084294455125928">
        <ele>2138.1100000000001</ele>
        <time>2015-06-07T13:52:03Z</time>
      </trkpt>
      <trkpt lat="45.521837510168552" lon="7.084232680499554">
        <ele>2138.1100000000001</ele>
        <time>2015-06-07T13:52:14Z</time>
      </trkpt>
      <trkpt lat="45.521988049149513" lon="7.084167804569006">
        <ele>2138.1100000000001</ele>
        <time>2015-06-07T13:52:26Z</time>
      </trkpt>
      <trkpt lat="45.522130457684398" lon="7.084083817899227">
        <ele>2138.1100000000001</ele>
        <time>2015-06-07T13:52:38Z</time>
      </trkpt>
      <trkpt lat="45.522247804328799" lon="7.084010560065508">
        <ele>2137.6300000000001</ele>
        <time>2015-06-07T13:52:49Z</time>
      </trkpt>
      <trkpt lat="45.522320559248328" lon="7.083978457376361">
        <ele>2138.1100000000001</ele>
        <time>2015-06-07T13:52:55Z</time>
      </trkpt>
      <trkpt lat="45.522462632507086" lon="7.083916096016765">
        <ele>2138.1100000000001</ele>
        <time>2015-06-07T13:53:07Z</time>
      </trkpt>
      <trkpt lat="45.522630019113421" lon="7.083874521777034">
        <ele>2138.5900000000001</ele>
        <time>2015-06-07T13:53:20Z</time>
      </trkpt>
      <trkpt lat="45.522769913077354" lon="7.083824314177036">
        <ele>2139.0700000000002</ele>
        <time>2015-06-07T13:53:32Z</time>
      </trkpt>
      <trkpt lat="45.522876279428601" lon="7.083735633641481">
        <ele>2139.5500000000002</ele>
        <time>2015-06-07T13:53:43Z</time>
      </trkpt>
      <trkpt lat="45.523020196706057" lon="7.083635805174708">
        <ele>2139.0700000000002</ele>
        <time>2015-06-07T13:53:58Z</time>
      </trkpt>
      <trkpt lat="45.523035200312734" lon="7.083598589524627">
        <ele>2139.0700000000002</ele>
        <time>2015-06-07T13:54:10Z</time>
      </trkpt>
      <trkpt lat="45.523037379607558" lon="7.083648880943656">
        <ele>2139.5500000000002</ele>
        <time>2015-06-07T13:54:13Z</time>
      </trkpt>
      <trkpt lat="45.523092532530427" lon="7.083724904805422">
        <ele>2140.5100000000002</ele>
        <time>2015-06-07T13:54:18Z</time>
      </trkpt>
      <trkpt lat="45.523132095113397" lon="7.083781566470861">
        <ele>2140.5100000000002</ele>
        <time>2015-06-07T13:54:23Z</time>
      </trkpt>
      <trkpt lat="45.523173501715064" lon="7.083926321938634">
        <ele>2137.1500000000001</ele>
        <time>2015-06-07T13:54:31Z</time>
      </trkpt>
      <trkpt lat="45.523194121196866" lon="7.083977619186044">
        <ele>2136.1900000000001</ele>
        <time>2015-06-07T13:54:35Z</time>
      </trkpt>
      <trkpt lat="45.523223038762808" lon="7.083987258374691">
        <ele>2136.1900000000001</ele>
        <time>2015-06-07T13:54:38Z</time>
      </trkpt>
      <trkpt lat="45.523267714306712" lon="7.084028832614422">
        <ele>2134.2600000000002</ele>
        <time>2015-06-07T13:54:43Z</time>
      </trkpt>
      <trkpt lat="45.523275844752789" lon="7.084093792364001">
        <ele>2132.8200000000002</ele>
        <time>2015-06-07T13:54:47Z</time>
      </trkpt>
      <trkpt lat="45.52329353056848" lon="7.084130086004734">
        <ele>2131.3800000000001</ele>
        <time>2015-06-07T13:54:50Z</time>
      </trkpt>
      <trkpt lat="45.523360501974821" lon="7.084250701591373">
        <ele>2128.02</ele>
        <time>2015-06-07T13:55:00Z</time>
      </trkpt>
      <trkpt lat="45.523369470611215" lon="7.084267884492874">
        <ele>2127.5300000000002</ele>
        <time>2015-06-07T13:55:01Z</time>
      </trkpt>
      <trkpt lat="45.523371985182166" lon="7.084343824535608">
        <ele>2126.0900000000001</ele>
        <time>2015-06-07T13:55:05Z</time>
      </trkpt>
      <trkpt lat="45.523359412327409" lon="7.084454130381346">
        <ele>2123.6900000000001</ele>
        <time>2015-06-07T13:55:11Z</time>
      </trkpt>
      <trkpt lat="45.523365028202534" lon="7.084509031847119">
        <ele>2123.6900000000001</ele>
        <time>2015-06-07T13:55:19Z</time>
      </trkpt>
      <trkpt lat="45.523376176133752" lon="7.08452126942575">
        <ele>2123.21</ele>
        <time>2015-06-07T13:55:23Z</time>
      </trkpt>
      <trkpt lat="45.523476842790842" lon="7.084640963003039">
        <ele>2122.25</ele>
        <time>2015-06-07T13:55:34Z</time>
      </trkpt>
      <trkpt lat="45.523526882752776" lon="7.0847138017416">
        <ele>2121.29</ele>
        <time>2015-06-07T13:55:41Z</time>
      </trkpt>
      <trkpt lat="45.523626878857613" lon="7.084707347676158">
        <ele>2119.8400000000001</ele>
        <time>2015-06-07T13:55:49Z</time>
      </trkpt>
      <trkpt lat="45.523780854418874" lon="7.084728050976992">
        <ele>2117.9200000000001</ele>
        <time>2015-06-07T13:56:01Z</time>
      </trkpt>
      <trkpt lat="45.523793259635568" lon="7.084727799519897">
        <ele>2117.9200000000001</ele>
        <time>2015-06-07T13:56:02Z</time>
      </trkpt>
      <trkpt lat="45.523816477507353" lon="7.084715981036425">
        <ele>2118.4000000000001</ele>
        <time>2015-06-07T13:56:04Z</time>
      </trkpt>
      <trkpt lat="45.52385687828064" lon="7.084738528355956">
        <ele>2118.4000000000001</ele>
        <time>2015-06-07T13:56:08Z</time>
      </trkpt>
      <trkpt lat="45.523923765867949" lon="7.08480273373425">
        <ele>2117.9200000000001</ele>
        <time>2015-06-07T13:56:14Z</time>
      </trkpt>
      <trkpt lat="45.524102300405502" lon="7.084926702082157">
        <ele>2117.4400000000001</ele>
        <time>2015-06-07T13:56:29Z</time>
      </trkpt>
      <trkpt lat="45.524234985932708" lon="7.085005408152938">
        <ele>2118.4000000000001</ele>
        <time>2015-06-07T13:56:43Z</time>
      </trkpt>
      <trkpt lat="45.524345878511667" lon="7.085109679028392">
        <ele>2117.9200000000001</ele>
        <time>2015-06-07T13:56:53Z</time>
      </trkpt>
      <trkpt lat="45.52447940222919" lon="7.085173046216369">
        <ele>2118.4000000000001</ele>
        <time>2015-06-07T13:57:04Z</time>
      </trkpt>
      <trkpt lat="45.524547630921006" lon="7.085210848599672">
        <ele>2119.3600000000001</ele>
        <time>2015-06-07T13:57:11Z</time>
      </trkpt>
      <trkpt lat="45.524659194052219" lon="7.085298355668783">
        <ele>2120.3200000000002</ele>
        <time>2015-06-07T13:57:23Z</time>
      </trkpt>
      <trkpt lat="45.524687357246876" lon="7.085318136960268">
        <ele>2120.8099999999999</ele>
        <time>2015-06-07T13:57:26Z</time>
      </trkpt>
      <trkpt lat="45.524706048890948" lon="7.085380917415023">
        <ele>2120.8099999999999</ele>
        <time>2015-06-07T13:57:30Z</time>
      </trkpt>
      <trkpt lat="45.524807972833514" lon="7.085530366748571">
        <ele>2120.3200000000002</ele>
        <time>2015-06-07T13:57:42Z</time>
      </trkpt>
      <trkpt lat="45.52486689761281" lon="7.085597421973944">
        <ele>2121.29</ele>
        <time>2015-06-07T13:57:50Z</time>
      </trkpt>
      <trkpt lat="45.524941077455878" lon="7.085682330653071">
        <ele>2122.73</ele>
        <time>2015-06-07T13:58:00Z</time>
      </trkpt>
      <trkpt lat="45.525014754384756" lon="7.085826918482781">
        <ele>2122.25</ele>
        <time>2015-06-07T13:58:10Z</time>
      </trkpt>
      <trkpt lat="45.525016682222486" lon="7.085840329527855">
        <ele>2122.73</ele>
        <time>2015-06-07T13:58:11Z</time>
      </trkpt>
      <trkpt lat="45.525070577859879" lon="7.085925741121173">
        <ele>2123.6900000000001</ele>
        <time>2015-06-07T13:58:19Z</time>
      </trkpt>
      <trkpt lat="45.525092119351029" lon="7.085936134681106">
        <ele>2123.6900000000001</ele>
        <time>2015-06-07T13:58:21Z</time>
      </trkpt>
      <trkpt lat="45.525139393284917" lon="7.086073346436024">
        <ele>2121.29</ele>
        <time>2015-06-07T13:58:30Z</time>
      </trkpt>
      <trkpt lat="45.525178452953696" lon="7.086186166852713">
        <ele>2121.29</ele>
        <time>2015-06-07T13:58:37Z</time>
      </trkpt>
      <trkpt lat="45.525210471823812" lon="7.086222711950541">
        <ele>2121.29</ele>
        <time>2015-06-07T13:58:41Z</time>
      </trkpt>
      <trkpt lat="45.525358915328979" lon="7.086304435506463">
        <ele>2121.29</ele>
        <time>2015-06-07T13:58:53Z</time>
      </trkpt>
      <trkpt lat="45.525466287508607" lon="7.086447263136506">
        <ele>2121.77</ele>
        <time>2015-06-07T13:59:05Z</time>
      </trkpt>
      <trkpt lat="45.525516076013446" lon="7.086468720808625">
        <ele>2121.77</ele>
        <time>2015-06-07T13:59:09Z</time>
      </trkpt>
      <trkpt lat="45.525599392130971" lon="7.086616158485413">
        <ele>2121.29</ele>
        <time>2015-06-07T13:59:20Z</time>
      </trkpt>
      <trkpt lat="45.525639541447163" lon="7.086690925061703">
        <ele>2119.8400000000001</ele>
        <time>2015-06-07T13:59:24Z</time>
      </trkpt>
      <trkpt lat="45.525748590007424" lon="7.086833165958524">
        <ele>2119.3600000000001</ele>
        <time>2015-06-07T13:59:36Z</time>
      </trkpt>
      <trkpt lat="45.525821847841144" lon="7.086928887292743">
        <ele>2117.4400000000001</ele>
        <time>2015-06-07T13:59:46Z</time>
      </trkpt>
      <trkpt lat="45.52586073987186" lon="7.08692729473114">
        <ele>2116.96</ele>
        <time>2015-06-07T13:59:50Z</time>
      </trkpt>
      <trkpt lat="45.525878425687551" lon="7.086988650262356">
        <ele>2115.52</ele>
        <time>2015-06-07T13:59:54Z</time>
      </trkpt>
      <trkpt lat="45.526020247489214" lon="7.087123598903418">
        <ele>2114.0799999999999</ele>
        <time>2015-06-07T14:00:07Z</time>
      </trkpt>
      <trkpt lat="45.526094846427441" lon="7.087144805118442">
        <ele>2113.5999999999999</ele>
        <time>2015-06-07T14:00:14Z</time>
      </trkpt>
      <trkpt lat="45.526225436478853" lon="7.087182020768523">
        <ele>2112.6300000000001</ele>
        <time>2015-06-07T14:00:25Z</time>
      </trkpt>
      <trkpt lat="45.526368264108896" lon="7.087146900594235">
        <ele>2111.6700000000001</ele>
        <time>2015-06-07T14:00:37Z</time>
      </trkpt>
      <trkpt lat="45.526462057605386" lon="7.087133908644319">
        <ele>2112.1500000000001</ele>
        <time>2015-06-07T14:00:46Z</time>
      </trkpt>
      <trkpt lat="45.526530873030424" lon="7.087086383253336">
        <ele>2112.1500000000001</ele>
        <time>2015-06-07T14:00:53Z</time>
      </trkpt>
      <trkpt lat="45.526553001254797" lon="7.087103147059679">
        <ele>2113.1199999999999</ele>
        <time>2015-06-07T14:00:56Z</time>
      </trkpt>
      <trkpt lat="45.526647716760635" lon="7.087160227820277">
        <ele>2113.1199999999999</ele>
        <time>2015-06-07T14:01:05Z</time>
      </trkpt>
      <trkpt lat="45.526771936565638" lon="7.087160144001246">
        <ele>2113.5999999999999</ele>
        <time>2015-06-07T14:01:16Z</time>
      </trkpt>
      <trkpt lat="45.526822647079825" lon="7.087161568924785">
        <ele>2113.5999999999999</ele>
        <time>2015-06-07T14:01:20Z</time>
      </trkpt>
      <trkpt lat="45.526919458061457" lon="7.087191911414266">
        <ele>2113.5999999999999</ele>
        <time>2015-06-07T14:01:28Z</time>
      </trkpt>
      <trkpt lat="45.527027919888496" lon="7.087100045755506">
        <ele>2113.5999999999999</ele>
        <time>2015-06-07T14:01:39Z</time>
      </trkpt>
      <trkpt lat="45.5270916223526" lon="7.08710465580225">
        <ele>2114.5599999999999</ele>
        <time>2015-06-07T14:01:45Z</time>
      </trkpt>
      <trkpt lat="45.52719228900969" lon="7.087259972468019">
        <ele>2114.0799999999999</ele>
        <time>2015-06-07T14:01:56Z</time>
      </trkpt>
      <trkpt lat="45.527245430275798" lon="7.087319316342473">
        <ele>2113.5999999999999</ele>
        <time>2015-06-07T14:02:01Z</time>
      </trkpt>
      <trkpt lat="45.527358166873455" lon="7.087522661313415">
        <ele>2112.6300000000001</ele>
        <time>2015-06-07T14:02:16Z</time>
      </trkpt>
      <trkpt lat="45.527440896257758" lon="7.087666327133775">
        <ele>2113.1199999999999</ele>
        <time>2015-06-07T14:02:27Z</time>
      </trkpt>
      <trkpt lat="45.527494288980961" lon="7.087824745103717">
        <ele>2112.6300000000001</ele>
        <time>2015-06-07T14:02:38Z</time>
      </trkpt>
      <trkpt lat="45.527554387226701" lon="7.087982157245278">
        <ele>2112.1500000000001</ele>
        <time>2015-06-07T14:02:48Z</time>
      </trkpt>
      <trkpt lat="45.527551118284464" lon="7.088008895516396">
        <ele>2112.1500000000001</ele>
        <time>2015-06-07T14:02:50Z</time>
      </trkpt>
      <trkpt lat="45.527612138539553" lon="7.088110484182835">
        <ele>2110.23</ele>
        <time>2015-06-07T14:02:58Z</time>
      </trkpt>
      <trkpt lat="45.527631668373942" lon="7.088141413405538">
        <ele>2109.27</ele>
        <time>2015-06-07T14:03:00Z</time>
      </trkpt>
      <trkpt lat="45.527686821296811" lon="7.088300501927733">
        <ele>2109.75</ele>
        <time>2015-06-07T14:03:11Z</time>
      </trkpt>
      <trkpt lat="45.527706183493137" lon="7.088340818881989">
        <ele>2109.75</ele>
        <time>2015-06-07T14:03:14Z</time>
      </trkpt>
      <trkpt lat="45.527740214020014" lon="7.088511055335403">
        <ele>2110.23</ele>
        <time>2015-06-07T14:03:24Z</time>
      </trkpt>
      <trkpt lat="45.527746500447392" lon="7.088519269600511">
        <ele>2110.23</ele>
        <time>2015-06-07T14:03:25Z</time>
      </trkpt>
      <trkpt lat="45.527799306437373" lon="7.088670898228884">
        <ele>2107.8299999999999</ele>
        <time>2015-06-07T14:03:34Z</time>
      </trkpt>
      <trkpt lat="45.527861500158906" lon="7.088814480230212">
        <ele>2107.8299999999999</ele>
        <time>2015-06-07T14:03:44Z</time>
      </trkpt>
      <trkpt lat="45.527933249250054" lon="7.08893065340817">
        <ele>2106.3899999999999</ele>
        <time>2015-06-07T14:03:53Z</time>
      </trkpt>
      <trkpt lat="45.528018744662404" lon="7.088998379185796">
        <ele>2104.9400000000001</ele>
        <time>2015-06-07T14:04:02Z</time>
      </trkpt>
      <trkpt lat="45.528111448511481" lon="7.088890336453915">
        <ele>2101.5799999999999</ele>
        <time>2015-06-07T14:04:12Z</time>
      </trkpt>
      <trkpt lat="45.52816316485405" lon="7.0888686273247">
        <ele>2100.6199999999999</ele>
        <time>2015-06-07T14:04:23Z</time>
      </trkpt>
      <trkpt lat="45.528219072148204" lon="7.088961582630873">
        <ele>2099.6599999999999</ele>
        <time>2015-06-07T14:04:31Z</time>
      </trkpt>
      <trkpt lat="45.528257209807634" lon="7.089028973132372">
        <ele>2096.77</ele>
        <time>2015-06-07T14:04:38Z</time>
      </trkpt>
      <trkpt lat="45.52827020175755" lon="7.089065853506327">
        <ele>2096.29</ele>
        <time>2015-06-07T14:04:40Z</time>
      </trkpt>
      <trkpt lat="45.528335748240352" lon="7.089205328375101">
        <ele>2092.4499999999998</ele>
        <time>2015-06-07T14:04:52Z</time>
      </trkpt>
      <trkpt lat="45.528347482904792" lon="7.089232821017504">
        <ele>2091.4899999999998</ele>
        <time>2015-06-07T14:04:54Z</time>
      </trkpt>
      <trkpt lat="45.528351925313473" lon="7.089267270639539">
        <ele>2091</ele>
        <time>2015-06-07T14:04:56Z</time>
      </trkpt>
      <trkpt lat="45.528370700776577" lon="7.089314293116331">
        <ele>2089.5599999999999</ele>
        <time>2015-06-07T14:04:59Z</time>
      </trkpt>
      <trkpt lat="45.528372880071402" lon="7.089331056922674">
        <ele>2089.5599999999999</ele>
        <time>2015-06-07T14:05:00Z</time>
      </trkpt>
      <trkpt lat="45.528395511209965" lon="7.089400459080935">
        <ele>2088.1199999999999</ele>
        <time>2015-06-07T14:05:05Z</time>
      </trkpt>
      <trkpt lat="45.528427278622985" lon="7.08955267444253">
        <ele>2084.2800000000002</ele>
        <time>2015-06-07T14:05:17Z</time>
      </trkpt>
      <trkpt lat="45.528496596962214" lon="7.089678654447198">
        <ele>2080.9099999999999</ele>
        <time>2015-06-07T14:05:27Z</time>
      </trkpt>
      <trkpt lat="45.528533477336168" lon="7.089707991108298">
        <ele>2078.5100000000002</ele>
        <time>2015-06-07T14:05:31Z</time>
      </trkpt>
      <trkpt lat="45.528585109859705" lon="7.089744368568063">
        <ele>2075.6199999999999</ele>
        <time>2015-06-07T14:05:37Z</time>
      </trkpt>
      <trkpt lat="45.528595587238669" lon="7.089742692187429">
        <ele>2075.1399999999999</ele>
        <time>2015-06-07T14:05:38Z</time>
      </trkpt>
      <trkpt lat="45.528695080429316" lon="7.089811926707625">
        <ele>2073.2199999999998</ele>
        <time>2015-06-07T14:05:47Z</time>
      </trkpt>
      <trkpt lat="45.528744449838996" lon="7.089840760454536">
        <ele>2073.2199999999998</ele>
        <time>2015-06-07T14:05:52Z</time>
      </trkpt>
      <trkpt lat="45.528757022693753" lon="7.08985710516572">
        <ele>2072.7399999999998</ele>
        <time>2015-06-07T14:05:59Z</time>
      </trkpt>
      <trkpt lat="45.528753083199263" lon="7.089889710769057">
        <ele>2072.7399999999998</ele>
        <time>2015-06-07T14:06:20Z</time>
      </trkpt>
      <trkpt lat="45.52872265689075" lon="7.089934553951025">
        <ele>2072.2600000000002</ele>
        <time>2015-06-07T14:06:37Z</time>
      </trkpt>
      <trkpt lat="45.5287632253021" lon="7.089901193976402">
        <ele>2073.2199999999998</ele>
        <time>2015-06-07T14:06:47Z</time>
      </trkpt>
      <trkpt lat="45.528824329376221" lon="7.089940337464213">
        <ele>2073.6999999999998</ele>
        <time>2015-06-07T14:06:52Z</time>
      </trkpt>
      <trkpt lat="45.528941759839654" lon="7.090050978586078">
        <ele>2073.6999999999998</ele>
        <time>2015-06-07T14:07:02Z</time>
      </trkpt>
      <trkpt lat="45.528997499495745" lon="7.090142676606774">
        <ele>2074.1799999999998</ele>
        <time>2015-06-07T14:07:10Z</time>
      </trkpt>
      <trkpt lat="45.529003953561187" lon="7.090176707133651">
        <ele>2073.2199999999998</ele>
        <time>2015-06-07T14:07:12Z</time>
      </trkpt>
      <trkpt lat="45.529017951339483" lon="7.090274943038821">
        <ele>2072.7399999999998</ele>
        <time>2015-06-07T14:07:17Z</time>
      </trkpt>
      <trkpt lat="45.529047371819615" lon="7.090397654101253">
        <ele>2073.6999999999998</ele>
        <time>2015-06-07T14:07:30Z</time>
      </trkpt>
      <trkpt lat="45.529111493378878" lon="7.090499913319945">
        <ele>2074.1799999999998</ele>
        <time>2015-06-07T14:07:39Z</time>
      </trkpt>
      <trkpt lat="45.529214255511761" lon="7.090683309361339">
        <ele>2073.2199999999998</ele>
        <time>2015-06-07T14:07:52Z</time>
      </trkpt>
      <trkpt lat="45.529346857219934" lon="7.090839631855488">
        <ele>2072.7399999999998</ele>
        <time>2015-06-07T14:08:04Z</time>
      </trkpt>
      <trkpt lat="45.52943947724998" lon="7.091065272688866">
        <ele>2072.2600000000002</ele>
        <time>2015-06-07T14:08:17Z</time>
      </trkpt>
      <trkpt lat="45.529446266591549" lon="7.091091591864824">
        <ele>2072.7399999999998</ele>
        <time>2015-06-07T14:08:19Z</time>
      </trkpt>
      <trkpt lat="45.529501838609576" lon="7.091234503313899">
        <ele>2070.3400000000001</ele>
        <time>2015-06-07T14:08:31Z</time>
      </trkpt>
      <trkpt lat="45.529531510546803" lon="7.091265683993697">
        <ele>2068.8899999999999</ele>
        <time>2015-06-07T14:08:34Z</time>
      </trkpt>
      <trkpt lat="45.529542909935117" lon="7.091279597952962">
        <ele>2068.4099999999999</ele>
        <time>2015-06-07T14:08:35Z</time>
      </trkpt>
      <trkpt lat="45.529706440865993" lon="7.091412534937263">
        <ele>2067.4499999999998</ele>
        <time>2015-06-07T14:08:49Z</time>
      </trkpt>
      <trkpt lat="45.529834851622581" lon="7.091610599309206">
        <ele>2066.4899999999998</ele>
        <time>2015-06-07T14:09:03Z</time>
      </trkpt>
      <trkpt lat="45.529905343428254" lon="7.091787876561284">
        <ele>2067.4499999999998</ele>
        <time>2015-06-07T14:09:14Z</time>
      </trkpt>
      <trkpt lat="45.529947085306048" lon="7.092004464939237">
        <ele>2068.8899999999999</ele>
        <time>2015-06-07T14:09:27Z</time>
      </trkpt>
      <trkpt lat="45.529973236843944" lon="7.092042099684477">
        <ele>2069.8600000000001</ele>
        <time>2015-06-07T14:09:31Z</time>
      </trkpt>
      <trkpt lat="45.530039370059967" lon="7.092098174616695">
        <ele>2067.9299999999998</ele>
        <time>2015-06-07T14:09:41Z</time>
      </trkpt>
      <trkpt lat="45.530051272362471" lon="7.09211016073823">
        <ele>2067.9299999999998</ele>
        <time>2015-06-07T14:09:57Z</time>
      </trkpt>
      <trkpt lat="45.530059654265642" lon="7.092105802148581">
        <ele>2066.9699999999998</ele>
        <time>2015-06-07T14:10:07Z</time>
      </trkpt>
      <trkpt lat="45.530160320922732" lon="7.092152824625373">
        <ele>2066.4899999999998</ele>
        <time>2015-06-07T14:10:18Z</time>
      </trkpt>
      <trkpt lat="45.53016216494143" lon="7.092171180993319">
        <ele>2066.4899999999998</ele>
        <time>2015-06-07T14:10:19Z</time>
      </trkpt>
      <trkpt lat="45.530146909877658" lon="7.092236056923866">
        <ele>2066.0100000000002</ele>
        <time>2015-06-07T14:10:23Z</time>
      </trkpt>
      <trkpt lat="45.530147831887007" lon="7.092294814065099">
        <ele>2066.4899999999998</ele>
        <time>2015-06-07T14:10:27Z</time>
      </trkpt>
      <trkpt lat="45.530230728909373" lon="7.09250696003437">
        <ele>2069.8600000000001</ele>
        <time>2015-06-07T14:10:42Z</time>
      </trkpt>
      <trkpt lat="45.530349835753441" lon="7.092662611976266">
        <ele>2069.8600000000001</ele>
        <time>2015-06-07T14:10:55Z</time>
      </trkpt>
      <trkpt lat="45.530490064993501" lon="7.092798063531518">
        <ele>2067.4499999999998</ele>
        <time>2015-06-07T14:11:07Z</time>
      </trkpt>
      <trkpt lat="45.530630461871624" lon="7.093005431815982">
        <ele>2067.4499999999998</ele>
        <time>2015-06-07T14:11:21Z</time>
      </trkpt>
      <trkpt lat="45.530722495168447" lon="7.093179523944855">
        <ele>2068.8899999999999</ele>
        <time>2015-06-07T14:11:33Z</time>
      </trkpt>
      <trkpt lat="45.530762560665607" lon="7.093213386833668">
        <ele>2069.8600000000001</ele>
        <time>2015-06-07T14:11:38Z</time>
      </trkpt>
      <trkpt lat="45.530797513201833" lon="7.093260157853365">
        <ele>2070.3400000000001</ele>
        <time>2015-06-07T14:11:43Z</time>
      </trkpt>
      <trkpt lat="45.530897509306669" lon="7.09331807680428">
        <ele>2069.8600000000001</ele>
        <time>2015-06-07T14:11:52Z</time>
      </trkpt>
      <trkpt lat="45.530957775190473" lon="7.093386054039002">
        <ele>2068.4099999999999</ele>
        <time>2015-06-07T14:11:58Z</time>
      </trkpt>
      <trkpt lat="45.530976550653577" lon="7.093545561656356">
        <ele>2066.4899999999998</ele>
        <time>2015-06-07T14:12:07Z</time>
      </trkpt>
      <trkpt lat="45.530996080487967" lon="7.093588644638658">
        <ele>2065.5300000000002</ele>
        <time>2015-06-07T14:12:11Z</time>
      </trkpt>
      <trkpt lat="45.531006641685963" lon="7.093643881380558">
        <ele>2065.0500000000002</ele>
        <time>2015-06-07T14:12:15Z</time>
      </trkpt>
      <trkpt lat="45.531057519838214" lon="7.093729879707098">
        <ele>2063.6100000000001</ele>
        <time>2015-06-07T14:12:21Z</time>
      </trkpt>
      <trkpt lat="45.531097250059247" lon="7.093790229409933">
        <ele>2062.1700000000001</ele>
        <time>2015-06-07T14:12:25Z</time>
      </trkpt>
      <trkpt lat="45.531204119324684" lon="7.093995250761509">
        <ele>2060.7199999999998</ele>
        <time>2015-06-07T14:12:38Z</time>
      </trkpt>
      <trkpt lat="45.531284250319004" lon="7.094179317355156">
        <ele>2060.2399999999998</ele>
        <time>2015-06-07T14:12:49Z</time>
      </trkpt>
      <trkpt lat="45.53135490976274" lon="7.094321809709072">
        <ele>2057.8400000000001</ele>
        <time>2015-06-07T14:12:58Z</time>
      </trkpt>
      <trkpt lat="45.531363291665912" lon="7.094329185783863">
        <ele>2057.8400000000001</ele>
        <time>2015-06-07T14:12:59Z</time>
      </trkpt>
      <trkpt lat="45.531424563378096" lon="7.094516353681684">
        <ele>2055.4400000000001</ele>
        <time>2015-06-07T14:13:11Z</time>
      </trkpt>
      <trkpt lat="45.531450295820832" lon="7.094613835215569">
        <ele>2054.96</ele>
        <time>2015-06-07T14:13:17Z</time>
      </trkpt>
      <trkpt lat="45.531469909474254" lon="7.094803182408214">
        <ele>2053.5100000000002</ele>
        <time>2015-06-07T14:13:27Z</time>
      </trkpt>
      <trkpt lat="45.531516345217824" lon="7.095000073313713">
        <ele>2053.0300000000002</ele>
        <time>2015-06-07T14:13:38Z</time>
      </trkpt>
      <trkpt lat="45.531552052125335" lon="7.095127645879984">
        <ele>2051.1100000000001</ele>
        <time>2015-06-07T14:13:45Z</time>
      </trkpt>
      <trkpt lat="45.531647019088268" lon="7.095295367762446">
        <ele>2048.23</ele>
        <time>2015-06-07T14:13:57Z</time>
      </trkpt>
      <trkpt lat="45.531650623306632" lon="7.095309449359775">
        <ele>2047.75</ele>
        <time>2015-06-07T14:13:58Z</time>
      </trkpt>
      <trkpt lat="45.531671745702624" lon="7.095573311671615">
        <ele>2045.3399999999999</ele>
        <time>2015-06-07T14:14:12Z</time>
      </trkpt>
      <trkpt lat="45.53168079815805" lon="7.095584962517023">
        <ele>2045.3399999999999</ele>
        <time>2015-06-07T14:14:13Z</time>
      </trkpt>
      <trkpt lat="45.531705692410469" lon="7.095656376332045">
        <ele>2044.8599999999999</ele>
        <time>2015-06-07T14:14:17Z</time>
      </trkpt>
      <trkpt lat="45.5317956302315" lon="7.095785709097982">
        <ele>2042.46</ele>
        <time>2015-06-07T14:14:27Z</time>
      </trkpt>
      <trkpt lat="45.531853381544352" lon="7.095847064629197">
        <ele>2041.5</ele>
        <time>2015-06-07T14:14:33Z</time>
      </trkpt>
      <trkpt lat="45.531912976875901" lon="7.095957705751061">
        <ele>2040.05</ele>
        <time>2015-06-07T14:14:41Z</time>
      </trkpt>
      <trkpt lat="45.531951114535332" lon="7.09612769074738">
        <ele>2037.1700000000001</ele>
        <time>2015-06-07T14:14:51Z</time>
      </trkpt>
      <trkpt lat="45.531966537237167" lon="7.096180161461234">
        <ele>2036.6900000000001</ele>
        <time>2015-06-07T14:14:55Z</time>
      </trkpt>
      <trkpt lat="45.531973913311958" lon="7.096379734575748">
        <ele>2032.8399999999999</ele>
        <time>2015-06-07T14:15:07Z</time>
      </trkpt>
      <trkpt lat="45.531989755108953" lon="7.096478138118982">
        <ele>2030.9200000000001</ele>
        <time>2015-06-07T14:15:13Z</time>
      </trkpt>
      <trkpt lat="45.531940972432494" lon="7.096659522503614">
        <ele>2027.5599999999999</ele>
        <time>2015-06-07T14:15:22Z</time>
      </trkpt>
      <trkpt lat="45.531891686841846" lon="7.096882397308946">
        <ele>2024.1900000000001</ele>
        <time>2015-06-07T14:15:34Z</time>
      </trkpt>
      <trkpt lat="45.531871067360044" lon="7.097115749493241">
        <ele>2024.6700000000001</ele>
        <time>2015-06-07T14:15:47Z</time>
      </trkpt>
      <trkpt lat="45.531889004632831" lon="7.097240136936307">
        <ele>2023.23</ele>
        <time>2015-06-07T14:15:54Z</time>
      </trkpt>
      <trkpt lat="45.53190166130662" lon="7.097261594608426">
        <ele>2022.75</ele>
        <time>2015-06-07T14:15:56Z</time>
      </trkpt>
      <trkpt lat="45.531946001574397" lon="7.097280537709594">
        <ele>2022.27</ele>
        <time>2015-06-07T14:15:59Z</time>
      </trkpt>
      <trkpt lat="45.532073825597763" lon="7.097360584884882">
        <ele>2021.3099999999999</ele>
        <time>2015-06-07T14:16:11Z</time>
      </trkpt>
      <trkpt lat="45.532173570245504" lon="7.09744893014431">
        <ele>2019.8699999999999</ele>
        <time>2015-06-07T14:16:20Z</time>
      </trkpt>
      <trkpt lat="45.532189076766372" lon="7.097467537969351">
        <ele>2019.3900000000001</ele>
        <time>2015-06-07T14:16:22Z</time>
      </trkpt>
      <trkpt lat="45.532222604379058" lon="7.097490336745977">
        <ele>2018.9100000000001</ele>
        <time>2015-06-07T14:16:25Z</time>
      </trkpt>
      <trkpt lat="45.532323187217116" lon="7.097648670896888">
        <ele>2016.5</ele>
        <time>2015-06-07T14:16:37Z</time>
      </trkpt>
      <trkpt lat="45.532365348190069" lon="7.097758473828435">
        <ele>2014.5799999999999</ele>
        <time>2015-06-07T14:16:47Z</time>
      </trkpt>
      <trkpt lat="45.532393930479884" lon="7.097837431356311">
        <ele>2012.6600000000001</ele>
        <time>2015-06-07T14:16:53Z</time>
      </trkpt>
      <trkpt lat="45.532476659864187" lon="7.09796148352325">
        <ele>2009.77</ele>
        <time>2015-06-07T14:17:03Z</time>
      </trkpt>
      <trkpt lat="45.532540362328291" lon="7.098071873188019">
        <ele>2006.8900000000001</ele>
        <time>2015-06-07T14:17:12Z</time>
      </trkpt>
      <trkpt lat="45.532545978203416" lon="7.098077069967985">
        <ele>2006.8900000000001</ele>
        <time>2015-06-07T14:17:13Z</time>
      </trkpt>
      <trkpt lat="45.532540865242481" lon="7.09810464642942">
        <ele>2005.9300000000001</ele>
        <time>2015-06-07T14:17:15Z</time>
      </trkpt>
      <trkpt lat="45.532575733959675" lon="7.098146388307214">
        <ele>2005.45</ele>
        <time>2015-06-07T14:17:19Z</time>
      </trkpt>
      <trkpt lat="45.532620325684547" lon="7.098196176812053">
        <ele>2004.49</ele>
        <time>2015-06-07T14:17:24Z</time>
      </trkpt>
      <trkpt lat="45.532690482214093" lon="7.098360797390342">
        <ele>2002.0799999999999</ele>
        <time>2015-06-07T14:17:35Z</time>
      </trkpt>
      <trkpt lat="45.532707329839468" lon="7.098446460440755">
        <ele>2001.1199999999999</ele>
        <time>2015-06-07T14:17:40Z</time>
      </trkpt>
      <trkpt lat="45.532741947099566" lon="7.098536398261786">
        <ele>1999.6800000000001</ele>
        <time>2015-06-07T14:17:46Z</time>
      </trkpt>
      <trkpt lat="45.532781425863504" lon="7.098605129867792">
        <ele>1998.72</ele>
        <time>2015-06-07T14:17:51Z</time>
      </trkpt>
      <trkpt lat="45.532795591279864" lon="7.098661120980978">
        <ele>1998.72</ele>
        <time>2015-06-07T14:17:54Z</time>
      </trkpt>
      <trkpt lat="45.532817216590047" lon="7.098749801516533">
        <ele>1997.76</ele>
        <time>2015-06-07T14:18:00Z</time>
      </trkpt>
      <trkpt lat="45.532831214368343" lon="7.098883744329214">
        <ele>1995.3499999999999</ele>
        <time>2015-06-07T14:18:09Z</time>
      </trkpt>
      <trkpt lat="45.532831298187375" lon="7.098900424316526">
        <ele>1994.8699999999999</ele>
        <time>2015-06-07T14:18:10Z</time>
      </trkpt>
      <trkpt lat="45.532843954861164" lon="7.098922217264772">
        <ele>1994.3900000000001</ele>
        <time>2015-06-07T14:18:12Z</time>
      </trkpt>
      <trkpt lat="45.532888798043132" lon="7.098951721563935">
        <ele>1992.47</ele>
        <time>2015-06-07T14:18:17Z</time>
      </trkpt>
      <trkpt lat="45.532896090298891" lon="7.098952978849411">
        <ele>1991.51</ele>
        <time>2015-06-07T14:18:19Z</time>
      </trkpt>
      <trkpt lat="45.53290287964046" lon="7.098948452621698">
        <ele>1991.03</ele>
        <time>2015-06-07T14:18:20Z</time>
      </trkpt>
      <trkpt lat="45.532918637618423" lon="7.098932778462768">
        <ele>1990.55</ele>
        <time>2015-06-07T14:18:22Z</time>
      </trkpt>
      <trkpt lat="45.532944286242127" lon="7.098959600552917">
        <ele>1989.5899999999999</ele>
        <time>2015-06-07T14:18:25Z</time>
      </trkpt>
      <trkpt lat="45.532914362847805" lon="7.099067643284798">
        <ele>1990.0699999999999</ele>
        <time>2015-06-07T14:18:34Z</time>
      </trkpt>
      <trkpt lat="45.532923750579357" lon="7.099147019907832">
        <ele>1990.55</ele>
        <time>2015-06-07T14:18:43Z</time>
      </trkpt>
      <trkpt lat="45.532927857711911" lon="7.09917476400733">
        <ele>1990.55</ele>
        <time>2015-06-07T14:18:45Z</time>
      </trkpt>
      <trkpt lat="45.532985106110573" lon="7.099376767873764">
        <ele>1988.6199999999999</ele>
        <time>2015-06-07T14:18:56Z</time>
      </trkpt>
      <trkpt lat="45.532997595146298" lon="7.099504172801971">
        <ele>1988.6199999999999</ele>
        <time>2015-06-07T14:19:03Z</time>
      </trkpt>
      <trkpt lat="45.532987872138619" lon="7.099535269662738">
        <ele>1989.5899999999999</ele>
        <time>2015-06-07T14:19:05Z</time>
      </trkpt>
      <trkpt lat="45.533038415014744" lon="7.099686143919826">
        <ele>1990.55</ele>
        <time>2015-06-07T14:19:16Z</time>
      </trkpt>
      <trkpt lat="45.533142853528261" lon="7.099805921316147">
        <ele>1990.0699999999999</ele>
        <time>2015-06-07T14:19:26Z</time>
      </trkpt>
      <trkpt lat="45.53311787545681" lon="7.099915221333504">
        <ele>1990.55</ele>
        <time>2015-06-07T14:19:32Z</time>
      </trkpt>
      <trkpt lat="45.533026847988367" lon="7.100080763921142">
        <ele>1991.99</ele>
        <time>2015-06-07T14:19:44Z</time>
      </trkpt>
      <trkpt lat="45.533010670915246" lon="7.100291233509779">
        <ele>1994.8699999999999</ele>
        <time>2015-06-07T14:19:57Z</time>
      </trkpt>
      <trkpt lat="45.533075127750635" lon="7.100490303710103">
        <ele>1994.3900000000001</ele>
        <time>2015-06-07T14:20:09Z</time>
      </trkpt>
      <trkpt lat="45.533171268180013" lon="7.100628521293402">
        <ele>1994.8699999999999</ele>
        <time>2015-06-07T14:20:21Z</time>
      </trkpt>
      <trkpt lat="45.533235389739275" lon="7.100711837410927">
        <ele>1993.9100000000001</ele>
        <time>2015-06-07T14:20:28Z</time>
      </trkpt>
      <trkpt lat="45.533350389450788" lon="7.100832536816597">
        <ele>1991.03</ele>
        <time>2015-06-07T14:20:40Z</time>
      </trkpt>
      <trkpt lat="45.533391879871488" lon="7.100832872092724">
        <ele>1990.0699999999999</ele>
        <time>2015-06-07T14:20:44Z</time>
      </trkpt>
      <trkpt lat="45.533428005874157" lon="7.100853072479367">
        <ele>1990.0699999999999</ele>
        <time>2015-06-07T14:20:48Z</time>
      </trkpt>
      <trkpt lat="45.533560020849109" lon="7.10076087154448">
        <ele>1986.7</ele>
        <time>2015-06-07T14:20:58Z</time>
      </trkpt>
      <trkpt lat="45.533582484349608" lon="7.100736647844315">
        <ele>1985.74</ele>
        <time>2015-06-07T14:21:00Z</time>
      </trkpt>
      <trkpt lat="45.53363973274827" lon="7.100732792168856">
        <ele>1983.8199999999999</ele>
        <time>2015-06-07T14:21:05Z</time>
      </trkpt>
      <trkpt lat="45.53381172940135" lon="7.100872099399567">
        <ele>1982.3800000000001</ele>
        <time>2015-06-07T14:21:19Z</time>
      </trkpt>
      <trkpt lat="45.533945504575968" lon="7.100916858762503">
        <ele>1981.4100000000001</ele>
        <time>2015-06-07T14:21:29Z</time>
      </trkpt>
      <trkpt lat="45.533975176513195" lon="7.100933538749814">
        <ele>1981.4100000000001</ele>
        <time>2015-06-07T14:21:32Z</time>
      </trkpt>
      <trkpt lat="45.534001830965281" lon="7.100927336141467">
        <ele>1980.9300000000001</ele>
        <time>2015-06-07T14:21:34Z</time>
      </trkpt>
      <trkpt lat="45.534028988331556" lon="7.100931778550148">
        <ele>1979.97</ele>
        <time>2015-06-07T14:21:37Z</time>
      </trkpt>
      <trkpt lat="45.534157231450081" lon="7.100900178775191">
        <ele>1976.1300000000001</ele>
        <time>2015-06-07T14:21:47Z</time>
      </trkpt>
      <trkpt lat="45.534217413514853" lon="7.10092063061893">
        <ele>1975.1700000000001</ele>
        <time>2015-06-07T14:21:51Z</time>
      </trkpt>
      <trkpt lat="45.534277930855751" lon="7.100983494892716">
        <ele>1973.72</ele>
        <time>2015-06-07T14:22:00Z</time>
      </trkpt>
      <trkpt lat="45.534349428489804" lon="7.101003862917423">
        <ele>1972.76</ele>
        <time>2015-06-07T14:22:05Z</time>
      </trkpt>
      <trkpt lat="45.534483706578612" lon="7.101032277569175">
        <ele>1970.8399999999999</ele>
        <time>2015-06-07T14:22:17Z</time>
      </trkpt>
      <trkpt lat="45.534524107351899" lon="7.101038312539458">
        <ele>1969.8800000000001</ele>
        <time>2015-06-07T14:22:20Z</time>
      </trkpt>
      <trkpt lat="45.534618571400642" lon="7.101117689162493">
        <ele>1967.96</ele>
        <time>2015-06-07T14:22:29Z</time>
      </trkpt>
      <trkpt lat="45.534644890576601" lon="7.10115079768002">
        <ele>1966.51</ele>
        <time>2015-06-07T14:22:32Z</time>
      </trkpt>
      <trkpt lat="45.534741953015327" lon="7.101202262565494">
        <ele>1964.5899999999999</ele>
        <time>2015-06-07T14:22:42Z</time>
      </trkpt>
      <trkpt lat="45.534871788695455" lon="7.101334528997541">
        <ele>1962.6700000000001</ele>
        <time>2015-06-07T14:22:55Z</time>
      </trkpt>
      <trkpt lat="45.534974802285433" lon="7.101425472646952">
        <ele>1962.6700000000001</ele>
        <time>2015-06-07T14:23:05Z</time>
      </trkpt>
      <trkpt lat="45.535024674609303" lon="7.101429244503379">
        <ele>1962.6700000000001</ele>
        <time>2015-06-07T14:23:09Z</time>
      </trkpt>
      <trkpt lat="45.535059710964561" lon="7.101444164291024">
        <ele>1960.75</ele>
        <time>2015-06-07T14:23:12Z</time>
      </trkpt>
      <trkpt lat="45.535186361521482" lon="7.101501915603876">
        <ele>1958.3399999999999</ele>
        <time>2015-06-07T14:23:21Z</time>
      </trkpt>
      <trkpt lat="45.535299181938171" lon="7.101495545357466">
        <ele>1958.3399999999999</ele>
        <time>2015-06-07T14:23:29Z</time>
      </trkpt>
      <trkpt lat="45.535380905494094" lon="7.101536029949784">
        <ele>1957.8599999999999</ele>
        <time>2015-06-07T14:23:35Z</time>
      </trkpt>
      <trkpt lat="45.53553513251245" lon="7.10156561806798">
        <ele>1957.8599999999999</ele>
        <time>2015-06-07T14:23:46Z</time>
      </trkpt>
      <trkpt lat="45.535660022869706" lon="7.101610042154789">
        <ele>1958.3399999999999</ele>
        <time>2015-06-07T14:23:56Z</time>
      </trkpt>
      <trkpt lat="45.535823805257678" lon="7.101698890328407">
        <ele>1959.78</ele>
        <time>2015-06-07T14:24:10Z</time>
      </trkpt>
      <trkpt lat="45.535922292619944" lon="7.101812800392509">
        <ele>1960.75</ele>
        <time>2015-06-07T14:24:22Z</time>
      </trkpt>
      <trkpt lat="45.536039723083377" lon="7.101902738213539">
        <ele>1962.1900000000001</ele>
        <time>2015-06-07T14:24:34Z</time>
      </trkpt>
      <trkpt lat="45.53605112247169" lon="7.101907264441252">
        <ele>1962.1900000000001</ele>
        <time>2015-06-07T14:24:35Z</time>
      </trkpt>
      <trkpt lat="45.536252288147807" lon="7.101862924173474">
        <ele>1959.78</ele>
        <time>2015-06-07T14:24:49Z</time>
      </trkpt>
      <trkpt lat="45.536414561793208" lon="7.101818500086665">
        <ele>1958.8199999999999</ele>
        <time>2015-06-07T14:24:59Z</time>
      </trkpt>
      <trkpt lat="45.536548169329762" lon="7.101772986352444">
        <ele>1957.3800000000001</ele>
        <time>2015-06-07T14:25:08Z</time>
      </trkpt>
      <trkpt lat="45.536726368591189" lon="7.101761251688004">
        <ele>1955.46</ele>
        <time>2015-06-07T14:25:20Z</time>
      </trkpt>
      <trkpt lat="45.5368656758219" lon="7.101682042703033">
        <ele>1953.54</ele>
        <time>2015-06-07T14:25:29Z</time>
      </trkpt>
      <trkpt lat="45.537015208974481" lon="7.101600905880332">
        <ele>1951.1300000000001</ele>
        <time>2015-06-07T14:25:39Z</time>
      </trkpt>
      <trkpt lat="45.537118474021554" lon="7.101515829563141">
        <ele>1949.21</ele>
        <time>2015-06-07T14:25:47Z</time>
      </trkpt>
      <trkpt lat="45.537127945572138" lon="7.10150208324194">
        <ele>1948.73</ele>
        <time>2015-06-07T14:25:48Z</time>
      </trkpt>
      <trkpt lat="45.537248309701681" lon="7.101391358301044">
        <ele>1945.8499999999999</ele>
        <time>2015-06-07T14:25:58Z</time>
      </trkpt>
      <trkpt lat="45.537430280819535" lon="7.101266132667661">
        <ele>1944.4000000000001</ele>
        <time>2015-06-07T14:26:10Z</time>
      </trkpt>
      <trkpt lat="45.53756539709866" lon="7.101182732731104">
        <ele>1941.52</ele>
        <time>2015-06-07T14:26:20Z</time>
      </trkpt>
      <trkpt lat="45.537706464529037" lon="7.101147444918752">
        <ele>1938.1600000000001</ele>
        <time>2015-06-07T14:26:29Z</time>
      </trkpt>
      <trkpt lat="45.537863122299314" lon="7.10113856010139">
        <ele>1935.75</ele>
        <time>2015-06-07T14:26:38Z</time>
      </trkpt>
      <trkpt lat="45.538002261891961" lon="7.101128669455648">
        <ele>1932.3900000000001</ele>
        <time>2015-06-07T14:26:48Z</time>
      </trkpt>
      <trkpt lat="45.538174929097295" lon="7.101076701655984">
        <ele>1930.46</ele>
        <time>2015-06-07T14:26:59Z</time>
      </trkpt>
      <trkpt lat="45.53832471370697" lon="7.101048119366169">
        <ele>1930.46</ele>
        <time>2015-06-07T14:27:09Z</time>
      </trkpt>
      <trkpt lat="45.538413980975747" lon="7.101015513762832">
        <ele>1930.46</ele>
        <time>2015-06-07T14:27:18Z</time>
      </trkpt>
      <trkpt lat="45.538594610989094" lon="7.101073013618588">
        <ele>1928.54</ele>
        <time>2015-06-07T14:27:29Z</time>
      </trkpt>
      <trkpt lat="45.538742635399103" lon="7.101149875670672">
        <ele>1927.0999999999999</ele>
        <time>2015-06-07T14:27:39Z</time>
      </trkpt>
      <trkpt lat="45.538914548233151" lon="7.101267473772168">
        <ele>1925.6600000000001</ele>
        <time>2015-06-07T14:27:51Z</time>
      </trkpt>
      <trkpt lat="45.539082940667868" lon="7.101402338594198">
        <ele>1923.25</ele>
        <time>2015-06-07T14:28:03Z</time>
      </trkpt>
      <trkpt lat="45.538742635399103" lon="7.101548351347446">
        <ele>1921.8099999999999</ele>
        <time>2015-06-07T14:28:14Z</time>
      </trkpt>
      <trkpt lat="45.538696451112628" lon="7.101756138727069">
        <ele>1919.8900000000001</ele>
        <time>2015-06-07T14:28:26Z</time>
      </trkpt>
      <trkpt lat="45.538658313453197" lon="7.101979264989495">
        <ele>1917.97</ele>
        <time>2015-06-07T14:28:38Z</time>
      </trkpt>
      <trkpt lat="45.538520598784089" lon="7.102126702666283">
        <ele>1916.04</ele>
        <time>2015-06-07T14:28:50Z</time>
      </trkpt>
      <trkpt lat="45.538351535797119" lon="7.102191243320704">
        <ele>1915.0799999999999</ele>
        <time>2015-06-07T14:29:02Z</time>
      </trkpt>
      <trkpt lat="45.538195548579097" lon="7.102235918864608">
        <ele>1914.1199999999999</ele>
        <time>2015-06-07T14:29:14Z</time>
      </trkpt>
      <trkpt lat="45.53806621581316" lon="7.102165846154094">
        <ele>1912.6800000000001</ele>
        <time>2015-06-07T14:29:24Z</time>
      </trkpt>
      <trkpt lat="45.538012152537704" lon="7.102121002972126">
        <ele>1910.76</ele>
        <time>2015-06-07T14:29:34Z</time>
      </trkpt>
      <trkpt lat="45.538013745099306" lon="7.102098539471626">
        <ele>1911.24</ele>
        <time>2015-06-07T14:29:50Z</time>
      </trkpt>
      <trkpt lat="45.537987090647221" lon="7.102099042385817">
        <ele>1910.76</ele>
        <time>2015-06-07T14:30:14Z</time>
      </trkpt>
      <trkpt lat="45.538009218871593" lon="7.102063084021211">
        <ele>1911.72</ele>
        <time>2015-06-07T14:30:28Z</time>
      </trkpt>
      <trkpt lat="45.538012236356735" lon="7.10206450894475">
        <ele>1911.72</ele>
        <time>2015-06-07T14:30:43Z</time>
      </trkpt>
    </trkseg>
  </trk>

  <trk>
    <name>rifugio-benevolo-col-rosset-thumel</name>
    <desc>Percorso personalizzato</desc>
    <extensions>
      <gpxx:TrackExtension>
        <gpxx:DisplayColor>Yellow</gpxx:DisplayColor>
      </gpxx:TrackExtension>
    </extensions>
    <trkseg>
      <trkpt lat="45.515629621222615" lon="7.084402246400714">
        <ele>2286</ele>
      </trkpt>
      <trkpt lat="45.515148416161537" lon="7.084683962166309">
        <ele>2283.1900000000001</ele>
      </trkpt>
      <trkpt lat="45.514809200540185" lon="7.084769709035754">
        <ele>2281.3699999999999</ele>
      </trkpt>
      <trkpt lat="45.514809200540185" lon="7.084769709035754">
        <ele>2281.3699999999999</ele>
      </trkpt>
      <trkpt lat="45.515109188854694" lon="7.085159802809358">
        <ele>2274.8800000000001</ele>
      </trkpt>
      <trkpt lat="45.515089072287083" lon="7.085499772801995">
        <ele>2276.1399999999999</ele>
      </trkpt>
      <trkpt lat="45.515219159424305" lon="7.085879808291793">
        <ele>2272.3699999999999</ele>
      </trkpt>
      <trkpt lat="45.515329129993916" lon="7.085969829931855">
        <ele>2273.52</ele>
      </trkpt>
      <trkpt lat="45.515459217131138" lon="7.086409796029329">
        <ele>2272</ele>
      </trkpt>
      <trkpt lat="45.515579162165523" lon="7.086559748277068">
        <ele>2270</ele>
      </trkpt>
      <trkpt lat="45.516189197078347" lon="7.087129801511765">
        <ele>2260.9000000000001</ele>
      </trkpt>
      <trkpt lat="45.516309142112732" lon="7.087189815938473">
        <ele>2260.2199999999998</ele>
      </trkpt>
      <trkpt lat="45.516688255593181" lon="7.087189899757505">
        <ele>2257.4099999999999</ele>
      </trkpt>
      <trkpt lat="45.51694717258215" lon="7.087302803993225">
        <ele>2252</ele>
      </trkpt>
      <trkpt lat="45.517138196155429" lon="7.087339768186212">
        <ele>2255.1599999999999</ele>
      </trkpt>
      <trkpt lat="45.517308181151748" lon="7.087559709325433">
        <ele>2254.8699999999999</ele>
      </trkpt>
      <trkpt lat="45.517528206110001" lon="7.087599774822593">
        <ele>2254.5900000000001</ele>
      </trkpt>
      <trkpt lat="45.517598278820515" lon="7.087679738178849">
        <ele>2255.0500000000002</ele>
      </trkpt>
      <trkpt lat="45.517848310992122" lon="7.087769759818912">
        <ele>2257.8899999999999</ele>
      </trkpt>
      <trkpt lat="45.518078226596117" lon="7.088089864701033">
        <ele>2262.5700000000002</ele>
      </trkpt>
      <trkpt lat="45.518468236550689" lon="7.0882797986269">
        <ele>2263.75</ele>
      </trkpt>
      <trkpt lat="45.51874827593565" lon="7.088549695909023">
        <ele>2267.54</ele>
      </trkpt>
      <trkpt lat="45.519068296998739" lon="7.088649775832892">
        <ele>2271.8699999999999</ele>
      </trkpt>
      <trkpt lat="45.519468281418085" lon="7.088859742507339">
        <ele>2272.71</ele>
      </trkpt>
      <trkpt lat="45.519838342443109" lon="7.08883979357779">
        <ele>2269.3099999999999</ele>
      </trkpt>
      <trkpt lat="45.519988294690847" lon="7.088889833539724">
        <ele>2273.5799999999999</ele>
      </trkpt>
      <trkpt lat="45.520128272473812" lon="7.089029727503657">
        <ele>2277.2199999999998</ele>
      </trkpt>
      <trkpt lat="45.520648285746574" lon="7.089239777997136">
        <ele>2283</ele>
      </trkpt>
      <trkpt lat="45.521498378366232" lon="7.089949725195766">
        <ele>2297.8499999999999</ele>
      </trkpt>
      <trkpt lat="45.521908421069384" lon="7.090059779584408">
        <ele>2304.7800000000002</ele>
      </trkpt>
      <trkpt lat="45.522048398852348" lon="7.090169750154018">
        <ele>2309.1599999999999</ele>
      </trkpt>
      <trkpt lat="45.522338328883052" lon="7.090719770640135">
        <ele>2320.4299999999998</ele>
      </trkpt>
      <trkpt lat="45.522448383271694" lon="7.090729745104909">
        <ele>2322.8600000000001</ele>
      </trkpt>
      <trkpt lat="45.522598335519433" lon="7.091089747846127">
        <ele>2335.2600000000002</ele>
      </trkpt>
      <trkpt lat="45.522628426551819" lon="7.091519739478827">
        <ele>2340</ele>
      </trkpt>
      <trkpt lat="45.522788437083364" lon="7.091749822720885">
        <ele>2346.8400000000001</ele>
      </trkpt>
      <trkpt lat="45.522778378799558" lon="7.091929782181978">
        <ele>2353.7199999999998</ele>
      </trkpt>
      <trkpt lat="45.522928414866328" lon="7.092179814353585">
        <ele>2360</ele>
      </trkpt>
      <trkpt lat="45.522938389331102" lon="7.092369748279452">
        <ele>2365.8600000000001</ele>
      </trkpt>
      <trkpt lat="45.523128407076001" lon="7.093049772083759">
        <ele>2376.71</ele>
      </trkpt>
      <trkpt lat="45.522918440401554" lon="7.093789894133806">
        <ele>2392.6700000000001</ele>
      </trkpt>
      <trkpt lat="45.522877452895045" lon="7.094282833859325">
        <ele>2401.8699999999999</ele>
      </trkpt>
      <trkpt lat="45.523257404565811" lon="7.09451274946332">
        <ele>2411.3499999999999</ele>
      </trkpt>
      <trkpt lat="45.523257404565811" lon="7.09451274946332">
        <ele>2411.3499999999999</ele>
      </trkpt>
      <trkpt lat="45.523738441988826" lon="7.094669742509723">
        <ele>2415.1100000000001</ele>
      </trkpt>
      <trkpt lat="45.524108503013849" lon="7.09493980742991">
        <ele>2415.1399999999999</ele>
      </trkpt>
      <trkpt lat="45.524268513545394" lon="7.09538983181119">
        <ele>2421</ele>
      </trkpt>
      <trkpt lat="45.52421847358346" lon="7.096329862251878">
        <ele>2418.0799999999999</ele>
      </trkpt>
      <trkpt lat="45.524338502436876" lon="7.0968899410218">
        <ele>2417.4299999999998</ele>
      </trkpt>
      <trkpt lat="45.524258455261588" lon="7.097569881007075">
        <ele>2405.1700000000001</ele>
      </trkpt>
      <trkpt lat="45.523888478055596" lon="7.098489878699184">
        <ele>2393.54</ele>
      </trkpt>
      <trkpt lat="45.52391848526895" lon="7.098909895867109">
        <ele>2378.7600000000002</ele>
      </trkpt>
      <trkpt lat="45.523618496954441" lon="7.099629901349545">
        <ele>2359.9299999999998</ele>
      </trkpt>
      <trkpt lat="45.523408530279994" lon="7.100609913468361">
        <ele>2355.2600000000002</ele>
      </trkpt>
      <trkpt lat="45.523388497531414" lon="7.101810034364462">
        <ele>2349.3499999999999</ele>
      </trkpt>
      <trkpt lat="45.523018436506391" lon="7.102529956027865">
        <ele>2348.9200000000001</ele>
      </trkpt>
      <trkpt lat="45.522788520902395" lon="7.102659959346056">
        <ele>2350.6799999999998</ele>
      </trkpt>
      <trkpt lat="45.522268507629633" lon="7.104160152375698">
        <ele>2348.9899999999998</ele>
      </trkpt>
      <trkpt lat="45.522078573703766" lon="7.10539011284709">
        <ele>2335.6900000000001</ele>
      </trkpt>
      <trkpt lat="45.522038508206606" lon="7.106070136651397">
        <ele>2333</ele>
      </trkpt>
      <trkpt lat="45.522218551486731" lon="7.106800116598606">
        <ele>2332.71</ele>
      </trkpt>
      <trkpt lat="45.522338580340147" lon="7.106860131025314">
        <ele>2332</ele>
      </trkpt>
      <trkpt lat="45.522558521479368" lon="7.108630137518048">
        <ele>2335.2600000000002</ele>
      </trkpt>
      <trkpt lat="45.523028578609228" lon="7.1081801969558">
        <ele>2336.9400000000001</ele>
      </trkpt>
      <trkpt lat="45.523377601057291" lon="7.107643084600568">
        <ele>2340.6599999999999</ele>
      </trkpt>
      <trkpt lat="45.523377601057291" lon="7.107643084600568">
        <ele>2340.6599999999999</ele>
      </trkpt>
      <trkpt lat="45.523238545283675" lon="7.108660144731402">
        <ele>2353.7399999999998</ele>
      </trkpt>
      <trkpt lat="45.522838560864329" lon="7.109060129150748">
        <ele>2359.8299999999999</ele>
      </trkpt>
      <trkpt lat="45.522528514266014" lon="7.109890105202794">
        <ele>2359.4400000000001</ele>
      </trkpt>
      <trkpt lat="45.522288540378213" lon="7.109990268945694">
        <ele>2360.4299999999998</ele>
      </trkpt>
      <trkpt lat="45.522018559277058" lon="7.110830135643482">
        <ele>2373</ele>
      </trkpt>
      <trkpt lat="45.521468622609973" lon="7.11125023663044">
        <ele>2383.8299999999999</ele>
      </trkpt>
      <trkpt lat="45.520858587697148" lon="7.111330199986696">
        <ele>2394.5799999999999</ele>
      </trkpt>
      <trkpt lat="45.520468493923545" lon="7.111600264906883">
        <ele>2402.5700000000002</ele>
      </trkpt>
      <trkpt lat="45.519928531721234" lon="7.111520217731595">
        <ele>2412.4899999999998</ele>
      </trkpt>
      <trkpt lat="45.518628498539329" lon="7.11170026101172">
        <ele>2426.4200000000001</ele>
      </trkpt>
      <trkpt lat="45.517218410968781" lon="7.111070360988379">
        <ele>2443.5999999999999</ele>
      </trkpt>
      <trkpt lat="45.516238398849964" lon="7.111300360411406">
        <ele>2453.6799999999998</ele>
      </trkpt>
      <trkpt lat="45.515288393944502" lon="7.111860439181328">
        <ele>2468</ele>
      </trkpt>
      <trkpt lat="45.514968372881413" lon="7.112500397488475">
        <ele>2483.8899999999999</ele>
      </trkpt>
      <trkpt lat="45.514658410102129" lon="7.112850425764918">
        <ele>2497.7600000000002</ele>
      </trkpt>
      <trkpt lat="45.514028426259756" lon="7.114000422880054">
        <ele>2538.2399999999998</ele>
      </trkpt>
      <trkpt lat="45.513988360762596" lon="7.114660497754812">
        <ele>2555.96</ele>
      </trkpt>
      <trkpt lat="45.514308465644717" lon="7.114850431680679">
        <ele>2569.21</ele>
      </trkpt>
      <trkpt lat="45.513548394665122" lon="7.115940498188138">
        <ele>2603.3800000000001</ele>
      </trkpt>
      <trkpt lat="45.513108428567648" lon="7.116280468180776">
        <ele>2619.0599999999999</ele>
      </trkpt>
      <trkpt lat="45.513108428567648" lon="7.116580456495285">
        <ele>2622.8000000000002</ele>
      </trkpt>
      <trkpt lat="45.512948418036103" lon="7.116710459813476">
        <ele>2626.6599999999999</ele>
      </trkpt>
      <trkpt lat="45.512848421931267" lon="7.117270454764366">
        <ele>2640.4099999999999</ele>
      </trkpt>
      <trkpt lat="45.512558408081532" lon="7.117929523810744">
        <ele>2665</ele>
      </trkpt>
      <trkpt lat="45.512558408081532" lon="7.118379548192024">
        <ele>2680.1700000000001</ele>
      </trkpt>
      <trkpt lat="45.511998413130641" lon="7.119869599118829">
        <ele>2729.1599999999999</ele>
      </trkpt>
      <trkpt lat="45.512048453092575" lon="7.120069675147533">
        <ele>2735.98</ele>
      </trkpt>
      <trkpt lat="45.511898417025805" lon="7.120549622923136">
        <ele>2744.3699999999999</ele>
      </trkpt>
      <trkpt lat="45.511208418756723" lon="7.121159574016929">
        <ele>2774.1700000000001</ele>
      </trkpt>
      <trkpt lat="45.5112683493644" lon="7.121309693902731">
        <ele>2780.0999999999999</ele>
      </trkpt>
      <trkpt lat="45.511098448187113" lon="7.121659722179174">
        <ele>2798.1100000000001</ele>
      </trkpt>
      <trkpt lat="45.511388378217816" lon="7.121859630569816">
        <ele>2814.7399999999998</ele>
      </trkpt>
      <trkpt lat="45.511028375476599" lon="7.122369669377804">
        <ele>2832.23</ele>
      </trkpt>
      <trkpt lat="45.510688405483961" lon="7.122539654374123">
        <ele>2849.25</ele>
      </trkpt>
      <trkpt lat="45.510808434337378" lon="7.122809635475278">
        <ele>2859.0900000000001</ele>
      </trkpt>
      <trkpt lat="45.510558402165771" lon="7.123419670388103">
        <ele>2894.52</ele>
      </trkpt>
      <trkpt lat="45.510068396106362" lon="7.123369798064232">
        <ele>2921.0100000000002</ele>
      </trkpt>
      <trkpt lat="45.510118352249265" lon="7.123699709773064">
        <ele>2934.5799999999999</ele>
      </trkpt>
      <trkpt lat="45.509948451071978" lon="7.124049738049507">
        <ele>2957.96</ele>
      </trkpt>
      <trkpt lat="45.510028414428234" lon="7.124509736895561">
        <ele>2978</ele>
      </trkpt>
      <trkpt lat="45.510608442127705" lon="7.124909721314907">
        <ele>2994.4000000000001</ele>
      </trkpt>
      <trkpt lat="45.510718412697315" lon="7.125219684094191">
        <ele>3007</ele>
      </trkpt>
      <trkpt lat="45.510698463767767" lon="7.125369803979993">
        <ele>3021.4099999999999</ele>
      </trkpt>
      <trkpt lat="45.510718412697315" lon="7.12555973790586">
        <ele>3022.0999999999999</ele>
      </trkpt>
      <trkpt lat="45.510688405483961" lon="7.125669792294502">
        <ele>3022</ele>
      </trkpt>
      <trkpt lat="45.510668456554413" lon="7.125669708475471">
        <ele>3022</ele>
      </trkpt>
      <trkpt lat="45.510668456554413" lon="7.125669708475471">
        <ele>3022</ele>
      </trkpt>
      <trkpt lat="45.510688405483961" lon="7.125669792294502">
        <ele>3022</ele>
      </trkpt>
      <trkpt lat="45.510718412697315" lon="7.12555973790586">
        <ele>3022.0999999999999</ele>
      </trkpt>
      <trkpt lat="45.510698463767767" lon="7.125369803979993">
        <ele>3021.4099999999999</ele>
      </trkpt>
      <trkpt lat="45.510718412697315" lon="7.125219684094191">
        <ele>3007</ele>
      </trkpt>
      <trkpt lat="45.510608442127705" lon="7.124909721314907">
        <ele>2994.4000000000001</ele>
      </trkpt>
      <trkpt lat="45.510028414428234" lon="7.124509736895561">
        <ele>2978</ele>
      </trkpt>
      <trkpt lat="45.509948451071978" lon="7.124049738049507">
        <ele>2957.96</ele>
      </trkpt>
      <trkpt lat="45.510118352249265" lon="7.123699709773064">
        <ele>2934.5799999999999</ele>
      </trkpt>
      <trkpt lat="45.510068396106362" lon="7.123369798064232">
        <ele>2921.0100000000002</ele>
      </trkpt>
      <trkpt lat="45.510558402165771" lon="7.123419670388103">
        <ele>2894.52</ele>
      </trkpt>
      <trkpt lat="45.510808434337378" lon="7.122809635475278">
        <ele>2859.0900000000001</ele>
      </trkpt>
      <trkpt lat="45.510688405483961" lon="7.122539654374123">
        <ele>2849.25</ele>
      </trkpt>
      <trkpt lat="45.511028375476599" lon="7.122369669377804">
        <ele>2832.23</ele>
      </trkpt>
      <trkpt lat="45.511388378217816" lon="7.121859630569816">
        <ele>2814.7399999999998</ele>
      </trkpt>
      <trkpt lat="45.511098448187113" lon="7.121659722179174">
        <ele>2798.1100000000001</ele>
      </trkpt>
      <trkpt lat="45.5112683493644" lon="7.121309693902731">
        <ele>2780.0999999999999</ele>
      </trkpt>
      <trkpt lat="45.511208418756723" lon="7.121159574016929">
        <ele>2774.1700000000001</ele>
      </trkpt>
      <trkpt lat="45.511898417025805" lon="7.120549622923136">
        <ele>2744.3699999999999</ele>
      </trkpt>
      <trkpt lat="45.512048453092575" lon="7.120069675147533">
        <ele>2735.98</ele>
      </trkpt>
      <trkpt lat="45.511998413130641" lon="7.119869599118829">
        <ele>2729.1599999999999</ele>
      </trkpt>
      <trkpt lat="45.512558408081532" lon="7.118379548192024">
        <ele>2680.1700000000001</ele>
      </trkpt>
      <trkpt lat="45.512558408081532" lon="7.117929523810744">
        <ele>2665</ele>
      </trkpt>
      <trkpt lat="45.512848421931267" lon="7.117270454764366">
        <ele>2640.4099999999999</ele>
      </trkpt>
      <trkpt lat="45.512948418036103" lon="7.116710459813476">
        <ele>2626.6599999999999</ele>
      </trkpt>
      <trkpt lat="45.513108428567648" lon="7.116580456495285">
        <ele>2622.8000000000002</ele>
      </trkpt>
      <trkpt lat="45.513108428567648" lon="7.116280468180776">
        <ele>2619.0599999999999</ele>
      </trkpt>
      <trkpt lat="45.513548394665122" lon="7.115940498188138">
        <ele>2603.3800000000001</ele>
      </trkpt>
      <trkpt lat="45.514308465644717" lon="7.114850431680679">
        <ele>2569.21</ele>
      </trkpt>
      <trkpt lat="45.513988360762596" lon="7.114660497754812">
        <ele>2555.96</ele>
      </trkpt>
      <trkpt lat="45.514028426259756" lon="7.114000422880054">
        <ele>2538.2399999999998</ele>
      </trkpt>
      <trkpt lat="45.514658410102129" lon="7.112850425764918">
        <ele>2497.7600000000002</ele>
      </trkpt>
      <trkpt lat="45.514968372881413" lon="7.112500397488475">
        <ele>2483.8899999999999</ele>
      </trkpt>
      <trkpt lat="45.515288393944502" lon="7.111860439181328">
        <ele>2468</ele>
      </trkpt>
      <trkpt lat="45.516238398849964" lon="7.111300360411406">
        <ele>2453.6799999999998</ele>
      </trkpt>
      <trkpt lat="45.517218410968781" lon="7.111070360988379">
        <ele>2443.5999999999999</ele>
      </trkpt>
      <trkpt lat="45.518628498539329" lon="7.11170026101172">
        <ele>2426.4200000000001</ele>
      </trkpt>
      <trkpt lat="45.519928531721234" lon="7.111520217731595">
        <ele>2412.4899999999998</ele>
      </trkpt>
      <trkpt lat="45.520468493923545" lon="7.111600264906883">
        <ele>2402.5700000000002</ele>
      </trkpt>
      <trkpt lat="45.520858587697148" lon="7.111330199986696">
        <ele>2394.5799999999999</ele>
      </trkpt>
      <trkpt lat="45.521468622609973" lon="7.11125023663044">
        <ele>2383.8299999999999</ele>
      </trkpt>
      <trkpt lat="45.522018559277058" lon="7.110830135643482">
        <ele>2373</ele>
      </trkpt>
      <trkpt lat="45.522288540378213" lon="7.109990268945694">
        <ele>2360.4299999999998</ele>
      </trkpt>
      <trkpt lat="45.522528514266014" lon="7.109890105202794">
        <ele>2359.4400000000001</ele>
      </trkpt>
      <trkpt lat="45.522838560864329" lon="7.109060129150748">
        <ele>2359.8299999999999</ele>
      </trkpt>
      <trkpt lat="45.523238545283675" lon="7.108660144731402">
        <ele>2353.7399999999998</ele>
      </trkpt>
      <trkpt lat="45.523377601057291" lon="7.107643084600568">
        <ele>2340.6599999999999</ele>
      </trkpt>
      <trkpt lat="45.523377601057291" lon="7.107643084600568">
        <ele>2340.6599999999999</ele>
      </trkpt>
      <trkpt lat="45.523488577455282" lon="7.10730018094182">
        <ele>2342.0100000000002</ele>
      </trkpt>
      <trkpt lat="45.52354859188199" lon="7.106470037251711">
        <ele>2334</ele>
      </trkpt>
      <trkpt lat="45.523968525230885" lon="7.105690101161599">
        <ele>2315.0100000000002</ele>
      </trkpt>
      <trkpt lat="45.52393851801753" lon="7.105070007964969">
        <ele>2297.5700000000002</ele>
      </trkpt>
      <trkpt lat="45.524198524653912" lon="7.10444999858737">
        <ele>2289.21</ele>
      </trkpt>
      <trkpt lat="45.524648549035192" lon="7.103980025276542">
        <ele>2284.48</ele>
      </trkpt>
      <trkpt lat="45.526298526674509" lon="7.100909985601902">
        <ele>2244.02</ele>
      </trkpt>
      <trkpt lat="45.526608573272824" lon="7.100639836862683">
        <ele>2233</ele>
      </trkpt>
      <trkpt lat="45.527148535475135" lon="7.100609913468361">
        <ele>2224.54</ele>
      </trkpt>
      <trkpt lat="45.527008641511202" lon="7.100419979542494">
        <ele>2218.9299999999998</ele>
      </trkpt>
      <trkpt lat="45.527018532156944" lon="7.100239936262369">
        <ele>2212.9200000000001</ele>
      </trkpt>
      <trkpt lat="45.527128586545587" lon="7.100219819694758">
        <ele>2210.2800000000002</ele>
      </trkpt>
      <trkpt lat="45.527108637616038" lon="7.099679857492447">
        <ele>2196.1700000000001</ele>
      </trkpt>
      <trkpt lat="45.527228666469455" lon="7.099589919671416">
        <ele>2189.8200000000002</ele>
      </trkpt>
      <trkpt lat="45.527528570964932" lon="7.099759820848703">
        <ele>2187.3299999999999</ele>
      </trkpt>
      <trkpt lat="45.527378618717194" lon="7.099269814789295">
        <ele>2172.8800000000001</ele>
      </trkpt>
      <trkpt lat="45.52749864757061" lon="7.099029840901494">
        <ele>2161.4499999999998</ele>
      </trkpt>
      <trkpt lat="45.527958562597632" lon="7.099279873073101">
        <ele>2146.3899999999999</ele>
      </trkpt>
      <trkpt lat="45.527858650311828" lon="7.098339758813381">
        <ele>2109.8099999999999</ele>
      </trkpt>
      <trkpt lat="45.528028551489115" lon="7.098389798775315">
        <ele>2103.4499999999998</ele>
      </trkpt>
      <trkpt lat="45.528038525953889" lon="7.098259795457125">
        <ele>2097.71</ele>
      </trkpt>
      <trkpt lat="45.52833859808743" lon="7.098509827628732">
        <ele>2088.54</ele>
      </trkpt>
      <trkpt lat="45.528408586978912" lon="7.098389798775315">
        <ele>2079.3299999999999</ele>
      </trkpt>
      <trkpt lat="45.528658619150519" lon="7.098419722169638">
        <ele>2071.4899999999998</ele>
      </trkpt>
      <trkpt lat="45.528448652476072" lon="7.098009847104549">
        <ele>2058.73</ele>
      </trkpt>
      <trkpt lat="45.528668593615294" lon="7.098129875957966">
        <ele>2056.1599999999999</ele>
      </trkpt>
      <trkpt lat="45.528258550912142" lon="7.097179787233472">
        <ele>2035.6500000000001</ele>
      </trkpt>
      <trkpt lat="45.528228627517819" lon="7.096819784492254">
        <ele>2024.8499999999999</ele>
      </trkpt>
      <trkpt lat="45.528578655794263" lon="7.096919780597091">
        <ele>2012.05</ele>
      </trkpt>
      <trkpt lat="45.528538590297103" lon="7.096709813922644">
        <ele>2004.6800000000001</ele>
      </trkpt>
      <trkpt lat="45.528818629682064" lon="7.096349727362394">
        <ele>1995.6700000000001</ele>
      </trkpt>
      <trkpt lat="45.529398657381535" lon="7.096689781174064">
        <ele>1981.8699999999999</ele>
      </trkpt>
      <trkpt lat="45.529498653486371" lon="7.096839817240834">
        <ele>1978.72</ele>
      </trkpt>
      <trkpt lat="45.529498653486371" lon="7.096819700673223">
        <ele>1979</ele>
      </trkpt>
      <trkpt lat="45.52966863848269" lon="7.096859849989414">
        <ele>1975.97</ele>
      </trkpt>
      <trkpt lat="45.530048673972487" lon="7.096609650179744">
        <ele>1971.6500000000001</ele>
      </trkpt>
      <trkpt lat="45.529988659545779" lon="7.096179742366076">
        <ele>1969.6700000000001</ele>
      </trkpt>
      <trkpt lat="45.53009863011539" lon="7.096059713512659">
        <ele>1968.9400000000001</ele>
      </trkpt>
      <trkpt lat="45.530478665605187" lon="7.096859766170383">
        <ele>1969.46</ele>
      </trkpt>
      <trkpt lat="45.531698735430837" lon="7.098149741068482">
        <ele>1962</ele>
      </trkpt>
      <trkpt lat="45.532088661566377" lon="7.098749801516533">
        <ele>1959.0999999999999</ele>
      </trkpt>
      <trkpt lat="45.532408766448498" lon="7.099019782617688">
        <ele>1962</ele>
      </trkpt>
      <trkpt lat="45.532817719504237" lon="7.098752735182643">
        <ele>1972.1300000000001</ele>
      </trkpt>
      <trkpt lat="45.532817719504237" lon="7.098752735182643">
        <ele>1972.1300000000001</ele>
      </trkpt>
      <trkpt lat="45.53290874697268" lon="7.099339719861746">
        <ele>1963</ele>
      </trkpt>
      <trkpt lat="45.532898772507906" lon="7.099409708753228">
        <ele>1962.1500000000001</ele>
      </trkpt>
      <trkpt lat="45.53301771171391" lon="7.100322749465704">
        <ele>1970</ele>
      </trkpt>
      <trkpt lat="45.533298756927252" lon="7.100569764152169">
        <ele>1970</ele>
      </trkpt>
      <trkpt lat="45.533298756927252" lon="7.100569764152169">
        <ele>1970</ele>
      </trkpt>
      <trkpt lat="45.534477755427361" lon="7.10087276995182">
        <ele>1953.4100000000001</ele>
      </trkpt>
      <trkpt lat="45.534937838092446" lon="7.101392783224583">
        <ele>1937.71</ele>
      </trkpt>
      <trkpt lat="45.535547789186239" lon="7.101482804864645">
        <ele>1936</ele>
      </trkpt>
      <trkpt lat="45.53614784963429" lon="7.101762676611543">
        <ele>1936</ele>
      </trkpt>
      <trkpt lat="45.536978915333748" lon="7.101439721882343">
        <ele>1923.0799999999999</ele>
      </trkpt>
      <trkpt lat="45.538036711513996" lon="7.100935885682702">
        <ele>1905</ele>
      </trkpt>
      <trkpt lat="45.538687985390425" lon="7.101402673870325">
        <ele>1896</ele>
      </trkpt>
    </trkseg>
  </trk>

  <trk>
    <name>rifugio-benevolo2014-08-03</name>
    <extensions>
      <gpxx:TrackExtension>
        <gpxx:DisplayColor>Yellow</gpxx:DisplayColor>
      </gpxx:TrackExtension>
    </extensions>
    <trkseg>
      <trkpt lat="45.543809998780489" lon="7.105059782043099">
        <ele>1874.71</ele>
        <time>2014-08-03T08:02:22Z</time>
      </trkpt>
      <trkpt lat="45.543810417875648" lon="7.105055255815387">
        <ele>1874.71</ele>
        <time>2014-08-03T08:02:23Z</time>
      </trkpt>
      <trkpt lat="45.543790049850941" lon="7.105051819235086">
        <ele>1874.23</ele>
        <time>2014-08-03T08:02:54Z</time>
      </trkpt>
      <trkpt lat="45.54380371235311" lon="7.105081574991345">
        <ele>1873.75</ele>
        <time>2014-08-03T08:03:14Z</time>
      </trkpt>
      <trkpt lat="45.543806729838252" lon="7.105065146461129">
        <ele>1874.23</ele>
        <time>2014-08-03T08:03:33Z</time>
      </trkpt>
      <trkpt lat="45.543800694867969" lon="7.105056177824736">
        <ele>1873.75</ele>
        <time>2014-08-03T08:03:52Z</time>
      </trkpt>
      <trkpt lat="45.543791223317385" lon="7.105058692395687">
        <ele>1873.75</ele>
        <time>2014-08-03T08:04:09Z</time>
      </trkpt>
      <trkpt lat="45.543796168640256" lon="7.105088783428073">
        <ele>1873.75</ele>
        <time>2014-08-03T08:04:30Z</time>
      </trkpt>
      <trkpt lat="45.54380614310503" lon="7.105100518092513">
        <ele>1873.27</ele>
        <time>2014-08-03T08:04:51Z</time>
      </trkpt>
      <trkpt lat="45.543792648240924" lon="7.105092974379659">
        <ele>1873.27</ele>
        <time>2014-08-03T08:05:16Z</time>
      </trkpt>
      <trkpt lat="45.543778315186501" lon="7.105057016015053">
        <ele>1873.27</ele>
        <time>2014-08-03T08:05:50Z</time>
      </trkpt>
      <trkpt lat="45.543786277994514" lon="7.105054082348943">
        <ele>1873.75</ele>
        <time>2014-08-03T08:06:22Z</time>
      </trkpt>
      <trkpt lat="45.543770603835583" lon="7.105043521150947">
        <ele>1873.75</ele>
        <time>2014-08-03T08:06:48Z</time>
      </trkpt>
      <trkpt lat="45.543772950768471" lon="7.105061793699861">
        <ele>1873.75</ele>
        <time>2014-08-03T08:07:18Z</time>
      </trkpt>
      <trkpt lat="45.54377437569201" lon="7.10507495328784">
        <ele>1873.75</ele>
        <time>2014-08-03T08:07:52Z</time>
      </trkpt>
      <trkpt lat="45.543779321014881" lon="7.105054836720228">
        <ele>1873.75</ele>
        <time>2014-08-03T08:08:12Z</time>
      </trkpt>
      <trkpt lat="45.543778566643596" lon="7.105071851983666">
        <ele>1874.23</ele>
        <time>2014-08-03T08:08:34Z</time>
      </trkpt>
      <trkpt lat="45.543775297701359" lon="7.10501535795629">
        <ele>1873.75</ele>
        <time>2014-08-03T08:08:55Z</time>
      </trkpt>
      <trkpt lat="45.54374604485929" lon="7.104991218075156">
        <ele>1873.75</ele>
        <time>2014-08-03T08:09:11Z</time>
      </trkpt>
      <trkpt lat="45.543731208890676" lon="7.105005886405706">
        <ele>1874.23</ele>
        <time>2014-08-03T08:09:37Z</time>
      </trkpt>
      <trkpt lat="45.54374654777348" lon="7.104998007416725">
        <ele>1873.75</ele>
        <time>2014-08-03T08:09:51Z</time>
      </trkpt>
      <trkpt lat="45.543735064566135" lon="7.104996079578996">
        <ele>1873.75</ele>
        <time>2014-08-03T08:10:18Z</time>
      </trkpt>
      <trkpt lat="45.543719055131078" lon="7.104992056265473">
        <ele>1873.75</ele>
        <time>2014-08-03T08:10:37Z</time>
      </trkpt>
      <trkpt lat="45.543712517246604" lon="7.104994235560298">
        <ele>1873.75</ele>
        <time>2014-08-03T08:10:55Z</time>
      </trkpt>
      <trkpt lat="45.543678570538759" lon="7.10498359054327">
        <ele>1873.27</ele>
        <time>2014-08-03T08:11:02Z</time>
      </trkpt>
      <trkpt lat="45.543553344905376" lon="7.104861298575997">
        <ele>1873.75</ele>
        <time>2014-08-03T08:11:17Z</time>
      </trkpt>
      <trkpt lat="45.5434640776366" lon="7.104781586676836">
        <ele>1873.75</ele>
        <time>2014-08-03T08:11:31Z</time>
      </trkpt>
      <trkpt lat="45.543278502300382" lon="7.10471042431891">
        <ele>1874.23</ele>
        <time>2014-08-03T08:11:48Z</time>
      </trkpt>
      <trkpt lat="45.543160988017917" lon="7.104654600843787">
        <ele>1874.71</ele>
        <time>2014-08-03T08:11:59Z</time>
      </trkpt>
      <trkpt lat="45.54299209266901" lon="7.104468857869506">
        <ele>1875.1900000000001</ele>
        <time>2014-08-03T08:12:16Z</time>
      </trkpt>
      <trkpt lat="45.542810708284378" lon="7.104369197040796">
        <ele>1875.6700000000001</ele>
        <time>2014-08-03T08:12:32Z</time>
      </trkpt>
      <trkpt lat="45.542627898976207" lon="7.104282947257161">
        <ele>1875.6700000000001</ele>
        <time>2014-08-03T08:12:48Z</time>
      </trkpt>
      <trkpt lat="45.542444419115782" lon="7.104192925617099">
        <ele>1876.6300000000001</ele>
        <time>2014-08-03T08:13:04Z</time>
      </trkpt>
      <trkpt lat="45.542315170168877" lon="7.104116817936301">
        <ele>1876.6300000000001</ele>
        <time>2014-08-03T08:13:17Z</time>
      </trkpt>
      <trkpt lat="45.542144179344177" lon="7.104020677506924">
        <ele>1877.1099999999999</ele>
        <time>2014-08-03T08:13:33Z</time>
      </trkpt>
      <trkpt lat="45.541977547109127" lon="7.103952197358012">
        <ele>1877.1099999999999</ele>
        <time>2014-08-03T08:13:49Z</time>
      </trkpt>
      <trkpt lat="45.541943348944187" lon="7.103941384702921">
        <ele>1877.5899999999999</ele>
        <time>2014-08-03T08:13:53Z</time>
      </trkpt>
      <trkpt lat="45.541899343952537" lon="7.103916574269533">
        <ele>1877.5899999999999</ele>
        <time>2014-08-03T08:13:58Z</time>
      </trkpt>
      <trkpt lat="45.541734052821994" lon="7.103801155462861">
        <ele>1878.0699999999999</ele>
        <time>2014-08-03T08:14:14Z</time>
      </trkpt>
      <trkpt lat="45.541717624291778" lon="7.103786654770374">
        <ele>1878.0699999999999</ele>
        <time>2014-08-03T08:14:16Z</time>
      </trkpt>
      <trkpt lat="45.54154428653419" lon="7.103686491027474">
        <ele>1878.55</ele>
        <time>2014-08-03T08:14:33Z</time>
      </trkpt>
      <trkpt lat="45.541410008445382" lon="7.103612730279565">
        <ele>1878.55</ele>
        <time>2014-08-03T08:14:48Z</time>
      </trkpt>
      <trkpt lat="45.541280172765255" lon="7.103545926511288">
        <ele>1879.51</ele>
        <time>2014-08-03T08:15:01Z</time>
      </trkpt>
      <trkpt lat="45.541219739243388" lon="7.10349814966321">
        <ele>1879.51</ele>
        <time>2014-08-03T08:15:07Z</time>
      </trkpt>
      <trkpt lat="45.541079426184297" lon="7.103416761383414">
        <ele>1880.96</ele>
        <time>2014-08-03T08:15:21Z</time>
      </trkpt>
      <trkpt lat="45.540953446179628" lon="7.103340905159712">
        <ele>1881.9200000000001</ele>
        <time>2014-08-03T08:15:34Z</time>
      </trkpt>
      <trkpt lat="45.540820928290486" lon="7.103272760286927">
        <ele>1883.3599999999999</ele>
        <time>2014-08-03T08:15:48Z</time>
      </trkpt>
      <trkpt lat="45.540709281340241" lon="7.103191707283258">
        <ele>1884.8</ele>
        <time>2014-08-03T08:16:01Z</time>
      </trkpt>
      <trkpt lat="45.540597215294838" lon="7.103094644844532">
        <ele>1885.76</ele>
        <time>2014-08-03T08:16:14Z</time>
      </trkpt>
      <trkpt lat="45.540470816195011" lon="7.102963300421834">
        <ele>1887.21</ele>
        <time>2014-08-03T08:16:29Z</time>
      </trkpt>
      <trkpt lat="45.540366545319557" lon="7.102839834988117">
        <ele>1888.1700000000001</ele>
        <time>2014-08-03T08:16:43Z</time>
      </trkpt>
      <trkpt lat="45.540227070450783" lon="7.102700863033533">
        <ele>1889.6099999999999</ele>
        <time>2014-08-03T08:17:00Z</time>
      </trkpt>
      <trkpt lat="45.54011408239603" lon="7.102593490853906">
        <ele>1891.53</ele>
        <time>2014-08-03T08:17:14Z</time>
      </trkpt>
      <trkpt lat="45.540017019957304" lon="7.102502128109336">
        <ele>1892.97</ele>
        <time>2014-08-03T08:17:27Z</time>
      </trkpt>
      <trkpt lat="45.539916520938277" lon="7.102423254400492">
        <ele>1894.4200000000001</ele>
        <time>2014-08-03T08:17:42Z</time>
      </trkpt>
      <trkpt lat="45.539807807654142" lon="7.102346979081631">
        <ele>1894.9000000000001</ele>
        <time>2014-08-03T08:17:56Z</time>
      </trkpt>
      <trkpt lat="45.539664477109909" lon="7.102274559438229">
        <ele>1896.8199999999999</ele>
        <time>2014-08-03T08:18:11Z</time>
      </trkpt>
      <trkpt lat="45.539533970877528" lon="7.102239858359098">
        <ele>1898.26</ele>
        <time>2014-08-03T08:18:25Z</time>
      </trkpt>
      <trkpt lat="45.539403716102242" lon="7.102159643545747">
        <ele>1899.7</ele>
        <time>2014-08-03T08:18:39Z</time>
      </trkpt>
      <trkpt lat="45.539277233183384" lon="7.102060485631228">
        <ele>1901.1400000000001</ele>
        <time>2014-08-03T08:18:53Z</time>
      </trkpt>
      <trkpt lat="45.539169358089566" lon="7.101967614144087">
        <ele>1903.0699999999999</ele>
        <time>2014-08-03T08:19:08Z</time>
      </trkpt>
      <trkpt lat="45.539102554321289" lon="7.101902822032571">
        <ele>1904.03</ele>
        <time>2014-08-03T08:19:17Z</time>
      </trkpt>
      <trkpt lat="45.53901320323348" lon="7.101749936118722">
        <ele>1906.4300000000001</ele>
        <time>2014-08-03T08:19:33Z</time>
      </trkpt>
      <trkpt lat="45.538926115259528" lon="7.10161104798317">
        <ele>1908.3499999999999</ele>
        <time>2014-08-03T08:19:48Z</time>
      </trkpt>
      <trkpt lat="45.538822431117296" lon="7.101489007472992">
        <ele>1909.8</ele>
        <time>2014-08-03T08:20:03Z</time>
      </trkpt>
      <trkpt lat="45.538704916834831" lon="7.101381132379174">
        <ele>1911.72</ele>
        <time>2014-08-03T08:20:19Z</time>
      </trkpt>
      <trkpt lat="45.538606764748693" lon="7.101300414651632">
        <ele>1913.6400000000001</ele>
        <time>2014-08-03T08:20:32Z</time>
      </trkpt>
      <trkpt lat="45.538490675389767" lon="7.101203603670001">
        <ele>1914.5999999999999</ele>
        <time>2014-08-03T08:20:46Z</time>
      </trkpt>
      <trkpt lat="45.538376430049539" lon="7.101120874285698">
        <ele>1915.5599999999999</ele>
        <time>2014-08-03T08:20:59Z</time>
      </trkpt>
      <trkpt lat="45.538231590762734" lon="7.101059686392546">
        <ele>1917.01</ele>
        <time>2014-08-03T08:21:14Z</time>
      </trkpt>
      <trkpt lat="45.538222454488277" lon="7.101055663079023">
        <ele>1917.49</ele>
        <time>2014-08-03T08:21:15Z</time>
      </trkpt>
      <trkpt lat="45.538126649335027" lon="7.101028589531779">
        <ele>1918.45</ele>
        <time>2014-08-03T08:21:25Z</time>
      </trkpt>
      <trkpt lat="45.538037046790123" lon="7.101021884009242">
        <ele>1919.4100000000001</ele>
        <time>2014-08-03T08:21:38Z</time>
      </trkpt>
      <trkpt lat="45.537905618548393" lon="7.101095309481025">
        <ele>1918.9300000000001</ele>
        <time>2014-08-03T08:21:54Z</time>
      </trkpt>
      <trkpt lat="45.537829007953405" lon="7.101097069680691">
        <ele>1918.9300000000001</ele>
        <time>2014-08-03T08:22:03Z</time>
      </trkpt>
      <trkpt lat="45.5377964861691" lon="7.101111235097051">
        <ele>1919.4100000000001</ele>
        <time>2014-08-03T08:22:07Z</time>
      </trkpt>
      <trkpt lat="45.537690371274948" lon="7.101143170148134">
        <ele>1921.3299999999999</ele>
        <time>2014-08-03T08:22:21Z</time>
      </trkpt>
      <trkpt lat="45.537607222795486" lon="7.101144846528769">
        <ele>1923.25</ele>
        <time>2014-08-03T08:22:35Z</time>
      </trkpt>
      <trkpt lat="45.537490881979465" lon="7.101158509030938">
        <ele>1926.1400000000001</ele>
        <time>2014-08-03T08:22:50Z</time>
      </trkpt>
      <trkpt lat="45.537409912794828" lon="7.101191785186529">
        <ele>1928.54</ele>
        <time>2014-08-03T08:23:03Z</time>
      </trkpt>
      <trkpt lat="45.537318466231227" lon="7.101223384961486">
        <ele>1930.95</ele>
        <time>2014-08-03T08:23:20Z</time>
      </trkpt>
      <trkpt lat="45.537211680784822" lon="7.101341234520078">
        <ele>1933.8299999999999</ele>
        <time>2014-08-03T08:23:38Z</time>
      </trkpt>
      <trkpt lat="45.537090813741088" lon="7.101388089358807">
        <ele>1936.23</ele>
        <time>2014-08-03T08:23:56Z</time>
      </trkpt>
      <trkpt lat="45.536979921162128" lon="7.101474590599537">
        <ele>1938.1600000000001</ele>
        <time>2014-08-03T08:24:12Z</time>
      </trkpt>
      <trkpt lat="45.536900293081999" lon="7.101537873968482">
        <ele>1939.5999999999999</ele>
        <time>2014-08-03T08:24:27Z</time>
      </trkpt>
      <trkpt lat="45.536816222593188" lon="7.101609371602535">
        <ele>1941.52</ele>
        <time>2014-08-03T08:24:42Z</time>
      </trkpt>
      <trkpt lat="45.536661073565483" lon="7.101765107363462">
        <ele>1943.9200000000001</ele>
        <time>2014-08-03T08:24:58Z</time>
      </trkpt>
      <trkpt lat="45.5365289747715" lon="7.101771309971809">
        <ele>1944.8800000000001</ele>
        <time>2014-08-03T08:25:12Z</time>
      </trkpt>
      <trkpt lat="45.536403078585863" lon="7.101824283599854">
        <ele>1946.8099999999999</ele>
        <time>2014-08-03T08:25:27Z</time>
      </trkpt>
      <trkpt lat="45.536276511847973" lon="7.101869378238916">
        <ele>1948.25</ele>
        <time>2014-08-03T08:25:43Z</time>
      </trkpt>
      <trkpt lat="45.536122368648648" lon="7.101889830082655">
        <ele>1949.6900000000001</ele>
        <time>2014-08-03T08:26:00Z</time>
      </trkpt>
      <trkpt lat="45.535968644544482" lon="7.101886980235577">
        <ele>1950.6500000000001</ele>
        <time>2014-08-03T08:26:17Z</time>
      </trkpt>
      <trkpt lat="45.535926651209593" lon="7.101850435137749">
        <ele>1951.1300000000001</ele>
        <time>2014-08-03T08:26:22Z</time>
      </trkpt>
      <trkpt lat="45.53580092266202" lon="7.101719593629241">
        <ele>1949.6900000000001</ele>
        <time>2014-08-03T08:26:38Z</time>
      </trkpt>
      <trkpt lat="45.535658346489072" lon="7.101624123752117">
        <ele>1948.73</ele>
        <time>2014-08-03T08:26:55Z</time>
      </trkpt>
      <trkpt lat="45.53548869676888" lon="7.101598810404539">
        <ele>1947.29</ele>
        <time>2014-08-03T08:27:14Z</time>
      </trkpt>
      <trkpt lat="45.53535919636488" lon="7.101561091840267">
        <ele>1947.29</ele>
        <time>2014-08-03T08:27:30Z</time>
      </trkpt>
      <trkpt lat="45.535245202481747" lon="7.101523708552122">
        <ele>1947.77</ele>
        <time>2014-08-03T08:27:45Z</time>
      </trkpt>
      <trkpt lat="45.535074882209301" lon="7.101469645276666">
        <ele>1949.6900000000001</ele>
        <time>2014-08-03T08:28:04Z</time>
      </trkpt>
      <trkpt lat="45.53492627106607" lon="7.101407451555133">
        <ele>1951.6099999999999</ele>
        <time>2014-08-03T08:28:17Z</time>
      </trkpt>
      <trkpt lat="45.534838261082768" lon="7.101282309740782">
        <ele>1951.6099999999999</ele>
        <time>2014-08-03T08:28:30Z</time>
      </trkpt>
      <trkpt lat="45.534766847267747" lon="7.101230341941118">
        <ele>1952.0899999999999</ele>
        <time>2014-08-03T08:28:48Z</time>
      </trkpt>
      <trkpt lat="45.534705575555563" lon="7.101173931732774">
        <ele>1953.54</ele>
        <time>2014-08-03T08:29:05Z</time>
      </trkpt>
      <trkpt lat="45.534596526995301" lon="7.101081479340792">
        <ele>1955.46</ele>
        <time>2014-08-03T08:29:23Z</time>
      </trkpt>
      <trkpt lat="45.534534752368927" lon="7.100969580933452">
        <ele>1957.8599999999999</ele>
        <time>2014-08-03T08:29:38Z</time>
      </trkpt>
      <trkpt lat="45.534422853961587" lon="7.100964384153485">
        <ele>1959.78</ele>
        <time>2014-08-03T08:29:52Z</time>
      </trkpt>
      <trkpt lat="45.534356217831373" lon="7.100948793813586">
        <ele>1961.71</ele>
        <time>2014-08-03T08:30:05Z</time>
      </trkpt>
      <trkpt lat="45.534255215898156" lon="7.100933371111751">
        <ele>1963.1500000000001</ele>
        <time>2014-08-03T08:30:18Z</time>
      </trkpt>
      <trkpt lat="45.534128146246076" lon="7.100914176553488">
        <ele>1967.48</ele>
        <time>2014-08-03T08:30:36Z</time>
      </trkpt>
      <trkpt lat="45.535687347874045" lon="7.1018754132092">
        <ele>1968.4400000000001</ele>
        <time>2014-08-03T08:30:52Z</time>
      </trkpt>
      <trkpt lat="45.535620544105768" lon="7.101778350770474">
        <ele>1969.4000000000001</ele>
        <time>2014-08-03T08:31:04Z</time>
      </trkpt>
      <trkpt lat="45.535587100312114" lon="7.101761503145099">
        <ele>1969.8800000000001</ele>
        <time>2014-08-03T08:31:08Z</time>
      </trkpt>
      <trkpt lat="45.535389203578234" lon="7.101629069074988">
        <ele>1970.3599999999999</ele>
        <time>2014-08-03T08:31:27Z</time>
      </trkpt>
      <trkpt lat="45.535253416746855" lon="7.101515494287014">
        <ele>1971.8</ele>
        <time>2014-08-03T08:31:41Z</time>
      </trkpt>
      <trkpt lat="45.535171525552869" lon="7.101501831784844">
        <ele>1972.28</ele>
        <time>2014-08-03T08:31:48Z</time>
      </trkpt>
      <trkpt lat="45.534588899463415" lon="7.101303683593869">
        <ele>1975.1700000000001</ele>
        <time>2014-08-03T08:32:02Z</time>
      </trkpt>
      <trkpt lat="45.53451438434422" lon="7.101332768797875">
        <ele>1976.6099999999999</ele>
        <time>2014-08-03T08:32:11Z</time>
      </trkpt>
      <trkpt lat="45.534413382411003" lon="7.10131105966866">
        <ele>1977.5699999999999</ele>
        <time>2014-08-03T08:32:24Z</time>
      </trkpt>
      <trkpt lat="45.534248175099492" lon="7.101200167089701">
        <ele>1980.9300000000001</ele>
        <time>2014-08-03T08:32:35Z</time>
      </trkpt>
      <trkpt lat="45.534150777384639" lon="7.101125232875347">
        <ele>1982.3800000000001</ele>
        <time>2014-08-03T08:32:38Z</time>
      </trkpt>
      <trkpt lat="45.533923208713531" lon="7.100978130474687">
        <ele>1982.3800000000001</ele>
        <time>2014-08-03T08:32:50Z</time>
      </trkpt>
      <trkpt lat="45.533832097426057" lon="7.100889449939132">
        <ele>1982.3800000000001</ele>
        <time>2014-08-03T08:32:57Z</time>
      </trkpt>
      <trkpt lat="45.533580053597689" lon="7.100691301748157">
        <ele>1982.8599999999999</ele>
        <time>2014-08-03T08:33:13Z</time>
      </trkpt>
      <trkpt lat="45.533456671983004" lon="7.100567668676376">
        <ele>1982.3800000000001</ele>
        <time>2014-08-03T08:33:22Z</time>
      </trkpt>
      <trkpt lat="45.533108320087194" lon="7.100221076980233">
        <ele>1981.9000000000001</ele>
        <time>2014-08-03T08:33:27Z</time>
      </trkpt>
      <trkpt lat="45.532999522984028" lon="7.100240439176559">
        <ele>1982.3800000000001</ele>
        <time>2014-08-03T08:33:32Z</time>
      </trkpt>
      <trkpt lat="45.533017795532942" lon="7.100038686767221">
        <ele>1979.97</ele>
        <time>2014-08-03T08:33:47Z</time>
      </trkpt>
      <trkpt lat="45.533077055588365" lon="7.09987498819828">
        <ele>1978.53</ele>
        <time>2014-08-03T08:33:59Z</time>
      </trkpt>
      <trkpt lat="45.533109828829765" lon="7.099832743406296">
        <ele>1978.05</ele>
        <time>2014-08-03T08:34:03Z</time>
      </trkpt>
      <trkpt lat="45.533120473846793" lon="7.099766945466399">
        <ele>1978.05</ele>
        <time>2014-08-03T08:34:08Z</time>
      </trkpt>
      <trkpt lat="45.533004468306899" lon="7.099618250504136">
        <ele>1978.53</ele>
        <time>2014-08-03T08:34:25Z</time>
      </trkpt>
      <trkpt lat="45.532973874360323" lon="7.099559493362904">
        <ele>1979.01</ele>
        <time>2014-08-03T08:34:30Z</time>
      </trkpt>
      <trkpt lat="45.532945459708571" lon="7.099280627444387">
        <ele>1976.6099999999999</ele>
        <time>2014-08-03T08:34:49Z</time>
      </trkpt>
      <trkpt lat="45.53290531039238" lon="7.099111983552575">
        <ele>1978.05</ele>
        <time>2014-08-03T08:35:02Z</time>
      </trkpt>
      <trkpt lat="45.532919811084867" lon="7.098931604996324">
        <ele>1976.6099999999999</ele>
        <time>2014-08-03T08:35:20Z</time>
      </trkpt>
      <trkpt lat="45.532890977337956" lon="7.098961276933551">
        <ele>1979.01</ele>
        <time>2014-08-03T08:35:35Z</time>
      </trkpt>
      <trkpt lat="45.532815624028444" lon="7.09886446595192">
        <ele>1981.9000000000001</ele>
        <time>2014-08-03T08:35:50Z</time>
      </trkpt>
      <trkpt lat="45.532815288752317" lon="7.098739910870791">
        <ele>1983.8199999999999</ele>
        <time>2014-08-03T08:36:04Z</time>
      </trkpt>
      <trkpt lat="45.532747646793723" lon="7.098584175109863">
        <ele>1985.26</ele>
        <time>2014-08-03T08:36:21Z</time>
      </trkpt>
      <trkpt lat="45.532699367031455" lon="7.098472025245428">
        <ele>1986.7</ele>
        <time>2014-08-03T08:36:35Z</time>
      </trkpt>
      <trkpt lat="45.532660307362676" lon="7.098364569246769">
        <ele>1988.1400000000001</ele>
        <time>2014-08-03T08:36:48Z</time>
      </trkpt>
      <trkpt lat="45.532630048692226" lon="7.098264573141933">
        <ele>1990.0699999999999</ele>
        <time>2014-08-03T08:37:00Z</time>
      </trkpt>
      <trkpt lat="45.532560143619776" lon="7.09816281683743">
        <ele>1991.03</ele>
        <time>2014-08-03T08:37:14Z</time>
      </trkpt>
      <trkpt lat="45.532525107264519" lon="7.098106574267149">
        <ele>1991.99</ele>
        <time>2014-08-03T08:37:21Z</time>
      </trkpt>
      <trkpt lat="45.532502140849829" lon="7.098063072189689">
        <ele>1993.4300000000001</ele>
        <time>2014-08-03T08:37:32Z</time>
      </trkpt>
      <trkpt lat="45.532492836937308" lon="7.09805678576231">
        <ele>1991.99</ele>
        <time>2014-08-03T08:37:45Z</time>
      </trkpt>
      <trkpt lat="45.532501637935638" lon="7.098046056926251">
        <ele>1991.99</ele>
        <time>2014-08-03T08:38:08Z</time>
      </trkpt>
      <trkpt lat="45.532512366771698" lon="7.098087295889854">
        <ele>1992.95</ele>
        <time>2014-08-03T08:38:38Z</time>
      </trkpt>
      <trkpt lat="45.532486634328961" lon="7.098043458536267">
        <ele>1992.95</ele>
        <time>2014-08-03T08:38:49Z</time>
      </trkpt>
      <trkpt lat="45.532421506941319" lon="7.097952766343951">
        <ele>1995.8299999999999</ele>
        <time>2014-08-03T08:39:05Z</time>
      </trkpt>
      <trkpt lat="45.532348584383726" lon="7.097817985340953">
        <ele>1998.72</ele>
        <time>2014-08-03T08:39:20Z</time>
      </trkpt>
      <trkpt lat="45.532336933538318" lon="7.097798539325595">
        <ele>1999.2</ele>
        <time>2014-08-03T08:39:22Z</time>
      </trkpt>
      <trkpt lat="45.532345566898584" lon="7.097705248743296">
        <ele>2001.5999999999999</ele>
        <time>2014-08-03T08:39:34Z</time>
      </trkpt>
      <trkpt lat="45.532313715666533" lon="7.097657471895218">
        <ele>2003.04</ele>
        <time>2014-08-03T08:39:40Z</time>
      </trkpt>
      <trkpt lat="45.532228723168373" lon="7.097540376707912">
        <ele>2004.49</ele>
        <time>2014-08-03T08:39:53Z</time>
      </trkpt>
      <trkpt lat="45.532225789502263" lon="7.097537443041802">
        <ele>2004.97</ele>
        <time>2014-08-03T08:39:54Z</time>
      </trkpt>
      <trkpt lat="45.532144904136658" lon="7.097461083903909">
        <ele>2007.3699999999999</ele>
        <time>2014-08-03T08:40:08Z</time>
      </trkpt>
      <trkpt lat="45.532105844467878" lon="7.097411379218102">
        <ele>2007.3699999999999</ele>
        <time>2014-08-03T08:40:18Z</time>
      </trkpt>
      <trkpt lat="45.532048009335995" lon="7.09734776057303">
        <ele>2008.3299999999999</ele>
        <time>2014-08-03T08:40:32Z</time>
      </trkpt>
      <trkpt lat="45.53202043287456" lon="7.097352705895901">
        <ele>2008.8099999999999</ele>
        <time>2014-08-03T08:40:46Z</time>
      </trkpt>
      <trkpt lat="45.53201992996037" lon="7.097350358963013">
        <ele>2008.3299999999999</ele>
        <time>2014-08-03T08:41:05Z</time>
      </trkpt>
      <trkpt lat="45.53205949254334" lon="7.097352286800742">
        <ele>2008.3299999999999</ele>
        <time>2014-08-03T08:41:26Z</time>
      </trkpt>
      <trkpt lat="45.532072149217129" lon="7.097343234345317">
        <ele>2008.3299999999999</ele>
        <time>2014-08-03T08:41:49Z</time>
      </trkpt>
      <trkpt lat="45.532034430652857" lon="7.09733703173697">
        <ele>2008.3299999999999</ele>
        <time>2014-08-03T08:42:05Z</time>
      </trkpt>
      <trkpt lat="45.532029988244176" lon="7.097314903512597">
        <ele>2008.3299999999999</ele>
        <time>2014-08-03T08:42:21Z</time>
      </trkpt>
      <trkpt lat="45.531985145062208" lon="7.09730333648622">
        <ele>2008.3299999999999</ele>
        <time>2014-08-03T08:42:33Z</time>
      </trkpt>
      <trkpt lat="45.531999310478568" lon="7.097310461103916">
        <ele>2007.8499999999999</ele>
        <time>2014-08-03T08:42:52Z</time>
      </trkpt>
      <trkpt lat="45.531994868069887" lon="7.097304426133633">
        <ele>2008.3299999999999</ele>
        <time>2014-08-03T08:43:17Z</time>
      </trkpt>
      <trkpt lat="45.531988749280572" lon="7.097307862713933">
        <ele>2007.8499999999999</ele>
        <time>2014-08-03T08:43:35Z</time>
      </trkpt>
      <trkpt lat="45.532020768150687" lon="7.09734289906919">
        <ele>2007.8499999999999</ele>
        <time>2014-08-03T08:43:55Z</time>
      </trkpt>
      <trkpt lat="45.532023534178734" lon="7.097348598763347">
        <ele>2007.8499999999999</ele>
        <time>2014-08-03T08:44:17Z</time>
      </trkpt>
      <trkpt lat="45.532009536400437" lon="7.097330326214433">
        <ele>2007.8499999999999</ele>
        <time>2014-08-03T08:44:30Z</time>
      </trkpt>
      <trkpt lat="45.531986486166716" lon="7.097305599600077">
        <ele>2007.8499999999999</ele>
        <time>2014-08-03T08:44:36Z</time>
      </trkpt>
      <trkpt lat="45.531935524195433" lon="7.097265534102917">
        <ele>2008.3299999999999</ele>
        <time>2014-08-03T08:44:42Z</time>
      </trkpt>
      <trkpt lat="45.531871654093266" lon="7.097208369523287">
        <ele>2009.77</ele>
        <time>2014-08-03T08:44:50Z</time>
      </trkpt>
      <trkpt lat="45.531875174492598" lon="7.097005192190409">
        <ele>2010.25</ele>
        <time>2014-08-03T08:45:05Z</time>
      </trkpt>
      <trkpt lat="45.531884981319308" lon="7.096840906888247">
        <ele>2011.22</ele>
        <time>2014-08-03T08:45:17Z</time>
      </trkpt>
      <trkpt lat="45.531897554174066" lon="7.096760859712958">
        <ele>2011.7</ele>
        <time>2014-08-03T08:45:25Z</time>
      </trkpt>
      <trkpt lat="45.531934350728989" lon="7.09656790830195">
        <ele>2014.0999999999999</ele>
        <time>2014-08-03T08:45:40Z</time>
      </trkpt>
      <trkpt lat="45.531945833936334" lon="7.096435474231839">
        <ele>2016.02</ele>
        <time>2014-08-03T08:45:53Z</time>
      </trkpt>
      <trkpt lat="45.531917670741677" lon="7.096301196143031">
        <ele>2018.9100000000001</ele>
        <time>2014-08-03T08:46:08Z</time>
      </trkpt>
      <trkpt lat="45.531928651034832" lon="7.096156775951386">
        <ele>2021.3099999999999</ele>
        <time>2014-08-03T08:46:23Z</time>
      </trkpt>
      <trkpt lat="45.531922951340675" lon="7.096152165904641">
        <ele>2021.79</ele>
        <time>2014-08-03T08:46:25Z</time>
      </trkpt>
      <trkpt lat="45.53188749589026" lon="7.096023419871926">
        <ele>2024.1900000000001</ele>
        <time>2014-08-03T08:46:42Z</time>
      </trkpt>
      <trkpt lat="45.531869726255536" lon="7.095910599455237">
        <ele>2026.1199999999999</ele>
        <time>2014-08-03T08:46:56Z</time>
      </trkpt>
      <trkpt lat="45.531794205307961" lon="7.09583449177444">
        <ele>2027.0799999999999</ele>
        <time>2014-08-03T08:47:09Z</time>
      </trkpt>
      <trkpt lat="45.531722707673907" lon="7.095751510933042">
        <ele>2029</ele>
        <time>2014-08-03T08:47:22Z</time>
      </trkpt>
      <trkpt lat="45.531661435961723" lon="7.095588566735387">
        <ele>2030.4400000000001</ele>
        <time>2014-08-03T08:47:37Z</time>
      </trkpt>
      <trkpt lat="45.531621621921659" lon="7.095483792945743">
        <ele>2031.4000000000001</ele>
        <time>2014-08-03T08:47:47Z</time>
      </trkpt>
      <trkpt lat="45.53160997107625" lon="7.095287404954433">
        <ele>2032.8399999999999</ele>
        <time>2014-08-03T08:48:04Z</time>
      </trkpt>
      <trkpt lat="45.531563870608807" lon="7.095159161835909">
        <ele>2034.29</ele>
        <time>2014-08-03T08:48:18Z</time>
      </trkpt>
      <trkpt lat="45.53156110458076" lon="7.095150193199515">
        <ele>2034.77</ele>
        <time>2014-08-03T08:48:19Z</time>
      </trkpt>
      <trkpt lat="45.531503353267908" lon="7.095022788271308">
        <ele>2037.1700000000001</ele>
        <time>2014-08-03T08:48:35Z</time>
      </trkpt>
      <trkpt lat="45.531455157324672" lon="7.094879457727075">
        <ele>2038.6099999999999</ele>
        <time>2014-08-03T08:48:48Z</time>
      </trkpt>
      <trkpt lat="45.531425401568413" lon="7.094725733622909">
        <ele>2039.0899999999999</ele>
        <time>2014-08-03T08:49:02Z</time>
      </trkpt>
      <trkpt lat="45.531413918361068" lon="7.094588354229927">
        <ele>2040.05</ele>
        <time>2014-08-03T08:49:14Z</time>
      </trkpt>
      <trkpt lat="45.531398998573422" lon="7.094554658979178">
        <ele>2040.05</ele>
        <time>2014-08-03T08:49:17Z</time>
      </trkpt>
      <trkpt lat="45.531352981925011" lon="7.094400264322758">
        <ele>2040.54</ele>
        <time>2014-08-03T08:49:30Z</time>
      </trkpt>
      <trkpt lat="45.531338229775429" lon="7.094291131943464">
        <ele>2042.46</ele>
        <time>2014-08-03T08:49:43Z</time>
      </trkpt>
      <trkpt lat="45.531288608908653" lon="7.094180909916759">
        <ele>2044.3800000000001</ele>
        <time>2014-08-03T08:50:01Z</time>
      </trkpt>
      <trkpt lat="45.531237898394465" lon="7.094042943790555">
        <ele>2046.3</ele>
        <time>2014-08-03T08:50:20Z</time>
      </trkpt>
      <trkpt lat="45.531191881746054" lon="7.093929452821612">
        <ele>2047.75</ele>
        <time>2014-08-03T08:50:39Z</time>
      </trkpt>
      <trkpt lat="45.531034553423524" lon="7.093696519732475">
        <ele>2050.1500000000001</ele>
        <time>2014-08-03T08:50:48Z</time>
      </trkpt>
      <trkpt lat="45.53097965195775" lon="7.093568276613951">
        <ele>2050.6300000000001</ele>
        <time>2014-08-03T08:51:03Z</time>
      </trkpt>
      <trkpt lat="45.530933886766434" lon="7.0934431347996">
        <ele>2052.0700000000002</ele>
        <time>2014-08-03T08:51:17Z</time>
      </trkpt>
      <trkpt lat="45.530906645581126" lon="7.093354035168886">
        <ele>2053.9899999999998</ele>
        <time>2014-08-03T08:51:30Z</time>
      </trkpt>
      <trkpt lat="45.530814277008176" lon="7.093301480636001">
        <ele>2055.4400000000001</ele>
        <time>2014-08-03T08:51:44Z</time>
      </trkpt>
      <trkpt lat="45.530806733295321" lon="7.093299636617303">
        <ele>2055.4400000000001</ele>
        <time>2014-08-03T08:51:45Z</time>
      </trkpt>
      <trkpt lat="45.530789718031883" lon="7.093284633010626">
        <ele>2055.4400000000001</ele>
        <time>2014-08-03T08:51:47Z</time>
      </trkpt>
      <trkpt lat="45.530760884284973" lon="7.09324037656188">
        <ele>2055.9200000000001</ele>
        <time>2014-08-03T08:51:51Z</time>
      </trkpt>
      <trkpt lat="45.530747305601835" lon="7.093202993273735">
        <ele>2055.4400000000001</ele>
        <time>2014-08-03T08:51:55Z</time>
      </trkpt>
      <trkpt lat="45.530633311718702" lon="7.093047173693776">
        <ele>2053.0300000000002</ele>
        <time>2014-08-03T08:52:11Z</time>
      </trkpt>
      <trkpt lat="45.530529795214534" lon="7.092876182869077">
        <ele>2052.0700000000002</ele>
        <time>2014-08-03T08:52:26Z</time>
      </trkpt>
      <trkpt lat="45.530414879322052" lon="7.092741904780269">
        <ele>2053.5100000000002</ele>
        <time>2014-08-03T08:52:42Z</time>
      </trkpt>
      <trkpt lat="45.530307926237583" lon="7.092619109898806">
        <ele>2054.4699999999998</ele>
        <time>2014-08-03T08:52:56Z</time>
      </trkpt>
      <trkpt lat="45.530225280672312" lon="7.092499500140548">
        <ele>2054.4699999999998</ele>
        <time>2014-08-03T08:53:10Z</time>
      </trkpt>
      <trkpt lat="45.5301533639431" lon="7.092363964766264">
        <ele>2052.5500000000002</ele>
        <time>2014-08-03T08:53:26Z</time>
      </trkpt>
      <trkpt lat="45.530137522146106" lon="7.092245612293482">
        <ele>2052.0700000000002</ele>
        <time>2014-08-03T08:53:35Z</time>
      </trkpt>
      <trkpt lat="45.530124446377158" lon="7.092136815190315">
        <ele>2051.1100000000001</ele>
        <time>2014-08-03T08:53:44Z</time>
      </trkpt>
      <trkpt lat="45.530015146359801" lon="7.092108903452754">
        <ele>2052.0700000000002</ele>
        <time>2014-08-03T08:53:57Z</time>
      </trkpt>
      <trkpt lat="45.529939038679004" lon="7.092010332271457">
        <ele>2053.5100000000002</ele>
        <time>2014-08-03T08:54:08Z</time>
      </trkpt>
      <trkpt lat="45.529896123334765" lon="7.091805897653103">
        <ele>2052.5500000000002</ele>
        <time>2014-08-03T08:54:22Z</time>
      </trkpt>
      <trkpt lat="45.529811214655638" lon="7.091564834117889">
        <ele>2051.1100000000001</ele>
        <time>2014-08-03T08:54:39Z</time>
      </trkpt>
      <trkpt lat="45.529764443635941" lon="7.091453354805708">
        <ele>2051.1100000000001</ele>
        <time>2014-08-03T08:54:48Z</time>
      </trkpt>
      <trkpt lat="45.529611390084028" lon="7.09131320938468">
        <ele>2051.5900000000001</ele>
        <time>2014-08-03T08:55:06Z</time>
      </trkpt>
      <trkpt lat="45.529497396200895" lon="7.091224445030093">
        <ele>2053.0300000000002</ele>
        <time>2014-08-03T08:55:21Z</time>
      </trkpt>
      <trkpt lat="45.529462611302733" lon="7.091114306822419">
        <ele>2055.9200000000001</ele>
        <time>2014-08-03T08:55:34Z</time>
      </trkpt>
      <trkpt lat="45.529460515826941" lon="7.091071726754308">
        <ele>2057.3600000000001</ele>
        <time>2014-08-03T08:55:46Z</time>
      </trkpt>
      <trkpt lat="45.529449535533786" lon="7.091070553287864">
        <ele>2056.8800000000001</ele>
        <time>2014-08-03T08:55:51Z</time>
      </trkpt>
      <trkpt lat="45.529333529993892" lon="7.090848935768008">
        <ele>2057.3600000000001</ele>
        <time>2014-08-03T08:56:08Z</time>
      </trkpt>
      <trkpt lat="45.529206627979875" lon="7.090704515576363">
        <ele>2057.3600000000001</ele>
        <time>2014-08-03T08:56:22Z</time>
      </trkpt>
      <trkpt lat="45.529200257733464" lon="7.090692613273859">
        <ele>2057.3600000000001</ele>
        <time>2014-08-03T08:56:23Z</time>
      </trkpt>
      <trkpt lat="45.529105206951499" lon="7.09053285419941">
        <ele>2057.8400000000001</ele>
        <time>2014-08-03T08:56:39Z</time>
      </trkpt>
      <trkpt lat="45.529037145897746" lon="7.090403605252504">
        <ele>2059.2800000000002</ele>
        <time>2014-08-03T08:56:52Z</time>
      </trkpt>
      <trkpt lat="45.528972018510103" lon="7.090144855901599">
        <ele>2056.8800000000001</ele>
        <time>2014-08-03T08:57:09Z</time>
      </trkpt>
      <trkpt lat="45.52892935462296" lon="7.089999681338668">
        <ele>2057.8400000000001</ele>
        <time>2014-08-03T08:57:23Z</time>
      </trkpt>
      <trkpt lat="45.528924074023962" lon="7.089992137625814">
        <ele>2057.8400000000001</ele>
        <time>2014-08-03T08:57:24Z</time>
      </trkpt>
      <trkpt lat="45.528825502842665" lon="7.089884513989091">
        <ele>2058.3200000000002</ele>
        <time>2014-08-03T08:57:39Z</time>
      </trkpt>
      <trkpt lat="45.528784515336156" lon="7.089846627786756">
        <ele>2057.3600000000001</ele>
        <time>2014-08-03T08:57:46Z</time>
      </trkpt>
      <trkpt lat="45.528672281652689" lon="7.089790552854538">
        <ele>2056.4000000000001</ele>
        <time>2014-08-03T08:58:00Z</time>
      </trkpt>
      <trkpt lat="45.528651578351855" lon="7.089770352467895">
        <ele>2056.8800000000001</ele>
        <time>2014-08-03T08:58:04Z</time>
      </trkpt>
      <trkpt lat="45.528606651350856" lon="7.089732466265559">
        <ele>2056.8800000000001</ele>
        <time>2014-08-03T08:58:10Z</time>
      </trkpt>
      <trkpt lat="45.528519563376904" lon="7.089684102684259">
        <ele>2059.7600000000002</ele>
        <time>2014-08-03T08:58:25Z</time>
      </trkpt>
      <trkpt lat="45.528436498716474" lon="7.089633056893945">
        <ele>2062.1700000000001</ele>
        <time>2014-08-03T08:58:36Z</time>
      </trkpt>
      <trkpt lat="45.528368689119816" lon="7.089525600895286">
        <ele>2064.5700000000002</ele>
        <time>2014-08-03T08:58:49Z</time>
      </trkpt>
      <trkpt lat="45.528368018567562" lon="7.089444044977427">
        <ele>2066.9699999999998</ele>
        <time>2014-08-03T08:59:01Z</time>
      </trkpt>
      <trkpt lat="45.528354607522488" lon="7.089339019730687">
        <ele>2069.8600000000001</ele>
        <time>2014-08-03T08:59:15Z</time>
      </trkpt>
      <trkpt lat="45.528329042717814" lon="7.089241705834866">
        <ele>2072.7399999999998</ele>
        <time>2014-08-03T08:59:28Z</time>
      </trkpt>
      <trkpt lat="45.528302974998951" lon="7.08915101364255">
        <ele>2074.6599999999999</ele>
        <time>2014-08-03T08:59:40Z</time>
      </trkpt>
      <trkpt lat="45.528270034119487" lon="7.089054118841887">
        <ele>2077.0700000000002</ele>
        <time>2014-08-03T08:59:52Z</time>
      </trkpt>
      <trkpt lat="45.528246816247702" lon="7.088989075273275">
        <ele>2078.5100000000002</ele>
        <time>2014-08-03T09:00:02Z</time>
      </trkpt>
      <trkpt lat="45.528215048834682" lon="7.088925875723362">
        <ele>2081.3899999999999</ele>
        <time>2014-08-03T09:00:14Z</time>
      </trkpt>
      <trkpt lat="45.528172133490443" lon="7.08888228982687">
        <ele>2083.79</ele>
        <time>2014-08-03T09:00:24Z</time>
      </trkpt>
      <trkpt lat="45.52812309935689" lon="7.088853372260928">
        <ele>2085.2399999999998</ele>
        <time>2014-08-03T09:00:35Z</time>
      </trkpt>
      <trkpt lat="45.528084710240364" lon="7.088865861296654">
        <ele>2085.2399999999998</ele>
        <time>2014-08-03T09:00:48Z</time>
      </trkpt>
      <trkpt lat="45.528069203719497" lon="7.088884636759758">
        <ele>2086.1999999999998</ele>
        <time>2014-08-03T09:00:58Z</time>
      </trkpt>
      <trkpt lat="45.528037268668413" lon="7.088911039754748">
        <ele>2086.1999999999998</ele>
        <time>2014-08-03T09:01:22Z</time>
      </trkpt>
      <trkpt lat="45.528039783239365" lon="7.08893015049398">
        <ele>2086.1999999999998</ele>
        <time>2014-08-03T09:01:36Z</time>
      </trkpt>
      <trkpt lat="45.528046656399965" lon="7.088952865451574">
        <ele>2086.1999999999998</ele>
        <time>2014-08-03T09:01:47Z</time>
      </trkpt>
      <trkpt lat="45.527958730235696" lon="7.088997457176447">
        <ele>2089.0799999999999</ele>
        <time>2014-08-03T09:02:04Z</time>
      </trkpt>
      <trkpt lat="45.52791983820498" lon="7.088955044746399">
        <ele>2090.04</ele>
        <time>2014-08-03T09:02:10Z</time>
      </trkpt>
      <trkpt lat="45.52782847546041" lon="7.088806098327041">
        <ele>2091.4899999999998</ele>
        <time>2014-08-03T09:02:24Z</time>
      </trkpt>
      <trkpt lat="45.527767036110163" lon="7.088627899065614">
        <ele>2091.9699999999998</ele>
        <time>2014-08-03T09:02:39Z</time>
      </trkpt>
      <trkpt lat="45.527725042775273" lon="7.088501499965787">
        <ele>2093.8899999999999</ele>
        <time>2014-08-03T09:02:51Z</time>
      </trkpt>
      <trkpt lat="45.527716325595975" lon="7.088485658168793">
        <ele>2094.3699999999999</ele>
        <time>2014-08-03T09:02:53Z</time>
      </trkpt>
      <trkpt lat="45.527689671143889" lon="7.088420363143086">
        <ele>2094.3699999999999</ele>
        <time>2014-08-03T09:02:58Z</time>
      </trkpt>
      <trkpt lat="45.527639128267765" lon="7.088227327913046">
        <ele>2094.3699999999999</ele>
        <time>2014-08-03T09:03:13Z</time>
      </trkpt>
      <trkpt lat="45.527623705565929" lon="7.088209558278322">
        <ele>2094.3699999999999</ele>
        <time>2014-08-03T09:03:15Z</time>
      </trkpt>
      <trkpt lat="45.527585735544562" lon="7.088078130036593">
        <ele>2094.3699999999999</ele>
        <time>2014-08-03T09:03:26Z</time>
      </trkpt>
      <trkpt lat="45.527525804936886" lon="7.088013924658299">
        <ele>2095.8099999999999</ele>
        <time>2014-08-03T09:03:36Z</time>
      </trkpt>
      <trkpt lat="45.527520943433046" lon="7.08792801015079">
        <ele>2097.25</ele>
        <time>2014-08-03T09:03:43Z</time>
      </trkpt>
      <trkpt lat="45.527427149936557" lon="7.087762383744121">
        <ele>2097.73</ele>
        <time>2014-08-03T09:03:57Z</time>
      </trkpt>
      <trkpt lat="45.527327740564942" lon="7.087582424283028">
        <ele>2097.73</ele>
        <time>2014-08-03T09:04:13Z</time>
      </trkpt>
      <trkpt lat="45.527228750288486" lon="7.087403303012252">
        <ele>2097.73</ele>
        <time>2014-08-03T09:04:28Z</time>
      </trkpt>
      <trkpt lat="45.527185667306185" lon="7.087298613041639">
        <ele>2098.21</ele>
        <time>2014-08-03T09:04:39Z</time>
      </trkpt>
      <trkpt lat="45.527132609859109" lon="7.087254859507084">
        <ele>2098.21</ele>
        <time>2014-08-03T09:04:51Z</time>
      </trkpt>
      <trkpt lat="45.52706035785377" lon="7.087130136787891">
        <ele>2099.6599999999999</ele>
        <time>2014-08-03T09:05:04Z</time>
      </trkpt>
      <trkpt lat="45.5269845854491" lon="7.087083198130131">
        <ele>2098.6999999999998</ele>
        <time>2014-08-03T09:05:15Z</time>
      </trkpt>
      <trkpt lat="45.526949129998684" lon="7.087115133181214">
        <ele>2098.21</ele>
        <time>2014-08-03T09:05:20Z</time>
      </trkpt>
      <trkpt lat="45.526919458061457" lon="7.087132064625621">
        <ele>2097.73</ele>
        <time>2014-08-03T09:05:24Z</time>
      </trkpt>
      <trkpt lat="45.526843182742596" lon="7.087206915020943">
        <ele>2097.73</ele>
        <time>2014-08-03T09:05:34Z</time>
      </trkpt>
      <trkpt lat="45.526780486106873" lon="7.087181769311428">
        <ele>2097.73</ele>
        <time>2014-08-03T09:05:41Z</time>
      </trkpt>
      <trkpt lat="45.526619805023074" lon="7.087169615551829">
        <ele>2097.25</ele>
        <time>2014-08-03T09:05:57Z</time>
      </trkpt>
      <trkpt lat="45.526613350957632" lon="7.087170789018273">
        <ele>2097.25</ele>
        <time>2014-08-03T09:05:58Z</time>
      </trkpt>
      <trkpt lat="45.52657806314528" lon="7.08717992529273">
        <ele>2097.25</ele>
        <time>2014-08-03T09:06:02Z</time>
      </trkpt>
      <trkpt lat="45.526477564126253" lon="7.087115217000246">
        <ele>2097.25</ele>
        <time>2014-08-03T09:06:16Z</time>
      </trkpt>
      <trkpt lat="45.526457615196705" lon="7.087114546447992">
        <ele>2096.29</ele>
        <time>2014-08-03T09:06:18Z</time>
      </trkpt>
      <trkpt lat="45.526421740651131" lon="7.087158635258675">
        <ele>2096.29</ele>
        <time>2014-08-03T09:06:23Z</time>
      </trkpt>
      <trkpt lat="45.526328701525927" lon="7.087160144001246">
        <ele>2095.8099999999999</ele>
        <time>2014-08-03T09:06:33Z</time>
      </trkpt>
      <trkpt lat="45.526212528347969" lon="7.087202975526452">
        <ele>2096.29</ele>
        <time>2014-08-03T09:06:45Z</time>
      </trkpt>
      <trkpt lat="45.52609434351325" lon="7.087188391014934">
        <ele>2096.29</ele>
        <time>2014-08-03T09:06:58Z</time>
      </trkpt>
      <trkpt lat="45.525961238890886" lon="7.087132399901748">
        <ele>2097.73</ele>
        <time>2014-08-03T09:07:12Z</time>
      </trkpt>
      <trkpt lat="45.525839366018772" lon="7.087007593363524">
        <ele>2098.6999999999998</ele>
        <time>2014-08-03T09:07:27Z</time>
      </trkpt>
      <trkpt lat="45.52578404545784" lon="7.086913380771875">
        <ele>2100.1399999999999</ele>
        <time>2014-08-03T09:07:40Z</time>
      </trkpt>
      <trkpt lat="45.525714894756675" lon="7.08688328973949">
        <ele>2101.5799999999999</ele>
        <time>2014-08-03T09:07:52Z</time>
      </trkpt>
      <trkpt lat="45.525695532560349" lon="7.086831489577889">
        <ele>2102.0599999999999</ele>
        <time>2014-08-03T09:07:57Z</time>
      </trkpt>
      <trkpt lat="45.525584639981389" lon="7.086701989173889">
        <ele>2103.02</ele>
        <time>2014-08-03T09:08:12Z</time>
      </trkpt>
      <trkpt lat="45.525571312755346" lon="7.086669718846679">
        <ele>2103.02</ele>
        <time>2014-08-03T09:08:15Z</time>
      </trkpt>
      <trkpt lat="45.525498054921627" lon="7.086524628102779">
        <ele>2104.46</ele>
        <time>2014-08-03T09:08:29Z</time>
      </trkpt>
      <trkpt lat="45.525430832058191" lon="7.086472325026989">
        <ele>2104.46</ele>
        <time>2014-08-03T09:08:39Z</time>
      </trkpt>
      <trkpt lat="45.525397220626473" lon="7.086456902325153">
        <ele>2104.46</ele>
        <time>2014-08-03T09:08:42Z</time>
      </trkpt>
      <trkpt lat="45.525384144857526" lon="7.086410885676742">
        <ele>2104.9400000000001</ele>
        <time>2014-08-03T09:08:45Z</time>
      </trkpt>
      <trkpt lat="45.525383474305272" lon="7.086379872635007">
        <ele>2104.46</ele>
        <time>2014-08-03T09:08:47Z</time>
      </trkpt>
      <trkpt lat="45.525367381051183" lon="7.086341734975576">
        <ele>2104.46</ele>
        <time>2014-08-03T09:08:50Z</time>
      </trkpt>
      <trkpt lat="45.525212483480573" lon="7.086244588717818">
        <ele>2104.9400000000001</ele>
        <time>2014-08-03T09:09:08Z</time>
      </trkpt>
      <trkpt lat="45.5250901915133" lon="7.086117770522833">
        <ele>2103.98</ele>
        <time>2014-08-03T09:09:23Z</time>
      </trkpt>
      <trkpt lat="45.525049706920981" lon="7.085958011448383">
        <ele>2105.9099999999999</ele>
        <time>2014-08-03T09:09:36Z</time>
      </trkpt>
      <trkpt lat="45.52496169693768" lon="7.085864301770926">
        <ele>2106.3899999999999</ele>
        <time>2014-08-03T09:09:50Z</time>
      </trkpt>
      <trkpt lat="45.52490109577775" lon="7.085681408643723">
        <ele>2105.4200000000001</ele>
        <time>2014-08-03T09:10:05Z</time>
      </trkpt>
      <trkpt lat="45.524806128814816" lon="7.085575964301825">
        <ele>2104.9400000000001</ele>
        <time>2014-08-03T09:10:20Z</time>
      </trkpt>
      <trkpt lat="45.524698169901967" lon="7.08546482026577">
        <ele>2103.98</ele>
        <time>2014-08-03T09:10:34Z</time>
      </trkpt>
      <trkpt lat="45.524622229859233" lon="7.085381085053086">
        <ele>2103.5</ele>
        <time>2014-08-03T09:10:47Z</time>
      </trkpt>
      <trkpt lat="45.524556515738368" lon="7.085272036492825">
        <ele>2103.02</ele>
        <time>2014-08-03T09:11:01Z</time>
      </trkpt>
      <trkpt lat="45.524519551545382" lon="7.085259212180972">
        <ele>2102.54</ele>
        <time>2014-08-03T09:11:06Z</time>
      </trkpt>
      <trkpt lat="45.524489209055901" lon="7.085214955732226">
        <ele>2102.54</ele>
        <time>2014-08-03T09:11:12Z</time>
      </trkpt>
      <trkpt lat="45.524420980364084" lon="7.08517606370151">
        <ele>2101.5799999999999</ele>
        <time>2014-08-03T09:11:21Z</time>
      </trkpt>
      <trkpt lat="45.524296592921019" lon="7.085105823352933">
        <ele>2100.6199999999999</ele>
        <time>2014-08-03T09:11:37Z</time>
      </trkpt>
      <trkpt lat="45.524246972054243" lon="7.085043378174305">
        <ele>2100.6199999999999</ele>
        <time>2014-08-03T09:11:50Z</time>
      </trkpt>
      <trkpt lat="45.524148568511009" lon="7.084996523335576">
        <ele>2101.0999999999999</ele>
        <time>2014-08-03T09:12:06Z</time>
      </trkpt>
      <trkpt lat="45.52399861626327" lon="7.084893509745598">
        <ele>2100.1399999999999</ele>
        <time>2014-08-03T09:12:21Z</time>
      </trkpt>
      <trkpt lat="45.523867355659604" lon="7.084771301597357">
        <ele>2100.1399999999999</ele>
        <time>2014-08-03T09:12:37Z</time>
      </trkpt>
      <trkpt lat="45.523784793913364" lon="7.084734672680497">
        <ele>2100.1399999999999</ele>
        <time>2014-08-03T09:12:49Z</time>
      </trkpt>
      <trkpt lat="45.523768030107021" lon="7.084742886945605">
        <ele>2100.1399999999999</ele>
        <time>2014-08-03T09:12:51Z</time>
      </trkpt>
      <trkpt lat="45.523745901882648" lon="7.084745317697525">
        <ele>2100.1399999999999</ele>
        <time>2014-08-03T09:12:53Z</time>
      </trkpt>
      <trkpt lat="45.523619754239917" lon="7.084713131189346">
        <ele>2100.6199999999999</ele>
        <time>2014-08-03T09:13:07Z</time>
      </trkpt>
      <trkpt lat="45.523606510832906" lon="7.084710951894522">
        <ele>2101.0999999999999</ele>
        <time>2014-08-03T09:13:09Z</time>
      </trkpt>
      <trkpt lat="45.52358815446496" lon="7.084715226665139">
        <ele>2101.0999999999999</ele>
        <time>2014-08-03T09:13:11Z</time>
      </trkpt>
      <trkpt lat="45.523463767021894" lon="7.084668120369315">
        <ele>2103.5</ele>
        <time>2014-08-03T09:13:25Z</time>
      </trkpt>
      <trkpt lat="45.523437280207872" lon="7.08463123999536">
        <ele>2103.5</ele>
        <time>2014-08-03T09:13:29Z</time>
      </trkpt>
      <trkpt lat="45.523314401507378" lon="7.084489585831761">
        <ele>2104.9400000000001</ele>
        <time>2014-08-03T09:13:43Z</time>
      </trkpt>
      <trkpt lat="45.523329237475991" lon="7.08431264385581">
        <ele>2107.3499999999999</ele>
        <time>2014-08-03T09:13:57Z</time>
      </trkpt>
      <trkpt lat="45.523310462012887" lon="7.084183897823095">
        <ele>2110.23</ele>
        <time>2014-08-03T09:14:09Z</time>
      </trkpt>
      <trkpt lat="45.523267043754458" lon="7.084080129861832">
        <ele>2113.5999999999999</ele>
        <time>2014-08-03T09:14:22Z</time>
      </trkpt>
      <trkpt lat="45.523220859467983" lon="7.08399061113596">
        <ele>2116.48</ele>
        <time>2014-08-03T09:14:35Z</time>
      </trkpt>
      <trkpt lat="45.523148607462645" lon="7.083911234512925">
        <ele>2119.3600000000001</ele>
        <time>2014-08-03T09:14:48Z</time>
      </trkpt>
      <trkpt lat="45.523113068193197" lon="7.083802856504917">
        <ele>2121.77</ele>
        <time>2014-08-03T09:14:59Z</time>
      </trkpt>
      <trkpt lat="45.523091861978173" lon="7.083765892311931">
        <ele>2122.25</ele>
        <time>2014-08-03T09:15:03Z</time>
      </trkpt>
      <trkpt lat="45.523044001311064" lon="7.083732364699245">
        <ele>2122.25</ele>
        <time>2014-08-03T09:15:09Z</time>
      </trkpt>
      <trkpt lat="45.523038720712066" lon="7.083687353879213">
        <ele>2122.25</ele>
        <time>2014-08-03T09:15:22Z</time>
      </trkpt>
      <trkpt lat="45.522989938035607" lon="7.083657514303923">
        <ele>2122.25</ele>
        <time>2014-08-03T09:15:43Z</time>
      </trkpt>
      <trkpt lat="45.522967139258981" lon="7.08370135165751">
        <ele>2122.25</ele>
        <time>2014-08-03T09:15:55Z</time>
      </trkpt>
      <trkpt lat="45.522879213094711" lon="7.08375072106719">
        <ele>2121.77</ele>
        <time>2014-08-03T09:16:09Z</time>
      </trkpt>
      <trkpt lat="45.522802099585533" lon="7.08384451456368">
        <ele>2121.29</ele>
        <time>2014-08-03T09:16:22Z</time>
      </trkpt>
      <trkpt lat="45.522720124572515" lon="7.083876701071858">
        <ele>2121.29</ele>
        <time>2014-08-03T09:16:31Z</time>
      </trkpt>
      <trkpt lat="45.522563131526113" lon="7.083914754912257">
        <ele>2120.3200000000002</ele>
        <time>2014-08-03T09:16:47Z</time>
      </trkpt>
      <trkpt lat="45.522485096007586" lon="7.083872007206082">
        <ele>2120.3200000000002</ele>
        <time>2014-08-03T09:17:04Z</time>
      </trkpt>
      <trkpt lat="45.52244134247303" lon="7.083905199542642">
        <ele>2119.8400000000001</ele>
        <time>2014-08-03T09:17:22Z</time>
      </trkpt>
      <trkpt lat="45.522338664159179" lon="7.083927830681205">
        <ele>2120.3200000000002</ele>
        <time>2014-08-03T09:17:36Z</time>
      </trkpt>
      <trkpt lat="45.52219114266336" lon="7.084050541743636">
        <ele>2119.8400000000001</ele>
        <time>2014-08-03T09:17:53Z</time>
      </trkpt>
      <trkpt lat="45.522060301154852" lon="7.084152968600392">
        <ele>2119.3600000000001</ele>
        <time>2014-08-03T09:18:08Z</time>
      </trkpt>
      <trkpt lat="45.521923676133156" lon="7.084208456799388">
        <ele>2118.8800000000001</ele>
        <time>2014-08-03T09:18:22Z</time>
      </trkpt>
      <trkpt lat="45.521773472428322" lon="7.084257490932941">
        <ele>2118.8800000000001</ele>
        <time>2014-08-03T09:18:37Z</time>
      </trkpt>
      <trkpt lat="45.521748242899776" lon="7.084262100979686">
        <ele>2118.4000000000001</ele>
        <time>2014-08-03T09:18:39Z</time>
      </trkpt>
      <trkpt lat="45.521601140499115" lon="7.084351452067494">
        <ele>2118.4000000000001</ele>
        <time>2014-08-03T09:18:54Z</time>
      </trkpt>
      <trkpt lat="45.52158378995955" lon="7.084424626082182">
        <ele>2118.8800000000001</ele>
        <time>2014-08-03T09:19:00Z</time>
      </trkpt>
      <trkpt lat="45.521593177691102" lon="7.084513893350959">
        <ele>2118.8800000000001</ele>
        <time>2014-08-03T09:19:06Z</time>
      </trkpt>
      <trkpt lat="45.521502066403627" lon="7.084533255547285">
        <ele>2120.3200000000002</ele>
        <time>2014-08-03T09:19:18Z</time>
      </trkpt>
      <trkpt lat="45.521457558497787" lon="7.08460726775229">
        <ele>2122.25</ele>
        <time>2014-08-03T09:19:30Z</time>
      </trkpt>
      <trkpt lat="45.521398968994617" lon="7.084672395139933">
        <ele>2124.6500000000001</ele>
        <time>2014-08-03T09:19:43Z</time>
      </trkpt>
      <trkpt lat="45.521349683403969" lon="7.084742803126574">
        <ele>2127.0500000000002</ele>
        <time>2014-08-03T09:19:58Z</time>
      </trkpt>
      <trkpt lat="45.521336607635021" lon="7.084789238870144">
        <ele>2128.98</ele>
        <time>2014-08-03T09:20:08Z</time>
      </trkpt>
      <trkpt lat="45.521277766674757" lon="7.084792843088508">
        <ele>2130.9000000000001</ele>
        <time>2014-08-03T09:20:19Z</time>
      </trkpt>
      <trkpt lat="45.521213812753558" lon="7.084847157821059">
        <ele>2132.3400000000001</ele>
        <time>2014-08-03T09:20:30Z</time>
      </trkpt>
      <trkpt lat="45.52113376557827" lon="7.084837350994349">
        <ele>2134.7399999999998</ele>
        <time>2014-08-03T09:20:44Z</time>
      </trkpt>
      <trkpt lat="45.521062267944217" lon="7.084839111194015">
        <ele>2137.1500000000001</ele>
        <time>2014-08-03T09:20:57Z</time>
      </trkpt>
      <trkpt lat="45.521043911576271" lon="7.084912620484829">
        <ele>2139.5500000000002</ele>
        <time>2014-08-03T09:21:12Z</time>
      </trkpt>
      <trkpt lat="45.52101407200098" lon="7.085004569962621">
        <ele>2141.9499999999998</ele>
        <time>2014-08-03T09:21:25Z</time>
      </trkpt>
      <trkpt lat="45.520940562710166" lon="7.085031559690833">
        <ele>2143.8800000000001</ele>
        <time>2014-08-03T09:21:38Z</time>
      </trkpt>
      <trkpt lat="45.520879542455077" lon="7.085043294355273">
        <ele>2146.2800000000002</ele>
        <time>2014-08-03T09:21:50Z</time>
      </trkpt>
      <trkpt lat="45.520823132246733" lon="7.085117306560278">
        <ele>2148.6799999999998</ele>
        <time>2014-08-03T09:22:03Z</time>
      </trkpt>
      <trkpt lat="45.520766386762261" lon="7.085151923820376">
        <ele>2151.0900000000001</ele>
        <time>2014-08-03T09:22:15Z</time>
      </trkpt>
      <trkpt lat="45.520782899111509" lon="7.085184780880809">
        <ele>2152.5300000000002</ele>
        <time>2014-08-03T09:22:21Z</time>
      </trkpt>
      <trkpt lat="45.520720202475786" lon="7.085204729810357">
        <ele>2154.4499999999998</ele>
        <time>2014-08-03T09:22:32Z</time>
      </trkpt>
      <trkpt lat="45.520714251324534" lon="7.085268432274461">
        <ele>2156.8600000000001</ele>
        <time>2014-08-03T09:22:45Z</time>
      </trkpt>
      <trkpt lat="45.520753227174282" lon="7.085316041484475">
        <ele>2158.7800000000002</ele>
        <time>2014-08-03T09:22:56Z</time>
      </trkpt>
      <trkpt lat="45.520772002637386" lon="7.085416875779629">
        <ele>2161.1799999999998</ele>
        <time>2014-08-03T09:23:08Z</time>
      </trkpt>
      <trkpt lat="45.520755825564265" lon="7.085424587130547">
        <ele>2161.6599999999999</ele>
        <time>2014-08-03T09:23:10Z</time>
      </trkpt>
      <trkpt lat="45.520712323486805" lon="7.085490636527538">
        <ele>2164.0599999999999</ele>
        <time>2014-08-03T09:23:23Z</time>
      </trkpt>
      <trkpt lat="45.52068960852921" lon="7.085530953481793">
        <ele>2164.5500000000002</ele>
        <time>2014-08-03T09:23:27Z</time>
      </trkpt>
      <trkpt lat="45.520592043176293" lon="7.085601445287466">
        <ele>2166.4699999999998</ele>
        <time>2014-08-03T09:23:41Z</time>
      </trkpt>
      <trkpt lat="45.520541248843074" lon="7.085709655657411">
        <ele>2168.8699999999999</ele>
        <time>2014-08-03T09:23:55Z</time>
      </trkpt>
      <trkpt lat="45.520439492538571" lon="7.085733208805323">
        <ele>2171.7600000000002</ele>
        <time>2014-08-03T09:24:10Z</time>
      </trkpt>
      <trkpt lat="45.52043940871954" lon="7.085806299000979">
        <ele>2174.6399999999999</ele>
        <time>2014-08-03T09:24:22Z</time>
      </trkpt>
      <trkpt lat="45.520366653800011" lon="7.085875449702144">
        <ele>2177.04</ele>
        <time>2014-08-03T09:24:34Z</time>
      </trkpt>
      <trkpt lat="45.520326001569629" lon="7.085986426100135">
        <ele>2178.48</ele>
        <time>2014-08-03T09:24:46Z</time>
      </trkpt>
      <trkpt lat="45.520316613838077" lon="7.086002435535193">
        <ele>2179.9299999999998</ele>
        <time>2014-08-03T09:24:49Z</time>
      </trkpt>
      <trkpt lat="45.520292893052101" lon="7.086013248190284">
        <ele>2179.9299999999998</ele>
        <time>2014-08-03T09:24:52Z</time>
      </trkpt>
      <trkpt lat="45.520129697397351" lon="7.086045937612653">
        <ele>2179.9299999999998</ele>
        <time>2014-08-03T09:25:07Z</time>
      </trkpt>
      <trkpt lat="45.520057529211044" lon="7.086114501580596">
        <ele>2180.4099999999999</ele>
        <time>2014-08-03T09:25:17Z</time>
      </trkpt>
      <trkpt lat="45.520037747919559" lon="7.086224053055048">
        <ele>2182.8099999999999</ele>
        <time>2014-08-03T09:25:29Z</time>
      </trkpt>
      <trkpt lat="45.520082591101527" lon="7.086197733879089">
        <ele>2184.73</ele>
        <time>2014-08-03T09:25:39Z</time>
      </trkpt>
      <trkpt lat="45.520107904449105" lon="7.086186083033681">
        <ele>2185.21</ele>
        <time>2014-08-03T09:25:42Z</time>
      </trkpt>
      <trkpt lat="45.520034646615386" lon="7.086345925927162">
        <ele>2187.1399999999999</ele>
        <time>2014-08-03T09:25:55Z</time>
      </trkpt>
      <trkpt lat="45.519942780956626" lon="7.08636243827641">
        <ele>2188.0999999999999</ele>
        <time>2014-08-03T09:26:05Z</time>
      </trkpt>
      <trkpt lat="45.519882682710886" lon="7.086371742188931">
        <ele>2188.5799999999999</ele>
        <time>2014-08-03T09:26:14Z</time>
      </trkpt>
      <trkpt lat="45.519753433763981" lon="7.086419351398945">
        <ele>2190.02</ele>
        <time>2014-08-03T09:26:28Z</time>
      </trkpt>
      <trkpt lat="45.519641954451799" lon="7.086389344185591">
        <ele>2191.9400000000001</ele>
        <time>2014-08-03T09:26:40Z</time>
      </trkpt>
      <trkpt lat="45.519550256431103" lon="7.086336370557547">
        <ele>2194.3499999999999</ele>
        <time>2014-08-03T09:26:53Z</time>
      </trkpt>
      <trkpt lat="45.519466185942292" lon="7.086260346695781">
        <ele>2197.23</ele>
        <time>2014-08-03T09:27:09Z</time>
      </trkpt>
      <trkpt lat="45.519384713843465" lon="7.086194884032011">
        <ele>2200.1100000000001</ele>
        <time>2014-08-03T09:27:23Z</time>
      </trkpt>
      <trkpt lat="45.519269378855824" lon="7.086204355582595">
        <ele>2203</ele>
        <time>2014-08-03T09:27:38Z</time>
      </trkpt>
      <trkpt lat="45.519167874008417" lon="7.086176695302129">
        <ele>2204.9200000000001</ele>
        <time>2014-08-03T09:27:50Z</time>
      </trkpt>
      <trkpt lat="45.519059579819441" lon="7.086152639240027">
        <ele>2206.8400000000001</ele>
        <time>2014-08-03T09:28:03Z</time>
      </trkpt>
      <trkpt lat="45.518943909555674" lon="7.086099917069078">
        <ele>2208.77</ele>
        <time>2014-08-03T09:28:17Z</time>
      </trkpt>
      <trkpt lat="45.518825640901923" lon="7.086041243746877">
        <ele>2209.73</ele>
        <time>2014-08-03T09:28:30Z</time>
      </trkpt>
      <trkpt lat="45.518694631755352" lon="7.085974859073758">
        <ele>2211.1700000000001</ele>
        <time>2014-08-03T09:28:44Z</time>
      </trkpt>
      <trkpt lat="45.518553480505943" lon="7.085928590968251">
        <ele>2213.5700000000002</ele>
        <time>2014-08-03T09:28:59Z</time>
      </trkpt>
      <trkpt lat="45.518468404188752" lon="7.08588257431984">
        <ele>2214.5300000000002</ele>
        <time>2014-08-03T09:29:09Z</time>
      </trkpt>
      <trkpt lat="45.518357679247856" lon="7.085753409191966">
        <ele>2216.46</ele>
        <time>2014-08-03T09:29:24Z</time>
      </trkpt>
      <trkpt lat="45.518285343423486" lon="7.085644863545895">
        <ele>2218.3800000000001</ele>
        <time>2014-08-03T09:29:36Z</time>
      </trkpt>
      <trkpt lat="45.518236309289932" lon="7.085603289306164">
        <ele>2219.3400000000001</ele>
        <time>2014-08-03T09:29:43Z</time>
      </trkpt>
      <trkpt lat="45.518112257122993" lon="7.085557607933879">
        <ele>2220.3000000000002</ele>
        <time>2014-08-03T09:29:56Z</time>
      </trkpt>
      <trkpt lat="45.518004968762398" lon="7.085501700639725">
        <ele>2221.7399999999998</ele>
        <time>2014-08-03T09:30:09Z</time>
      </trkpt>
      <trkpt lat="45.517906062304974" lon="7.085452750325203">
        <ele>2223.1900000000001</ele>
        <time>2014-08-03T09:30:20Z</time>
      </trkpt>
      <trkpt lat="45.517823584377766" lon="7.085382342338562">
        <ele>2224.1500000000001</ele>
        <time>2014-08-03T09:30:30Z</time>
      </trkpt>
      <trkpt lat="45.517728785052896" lon="7.085238257423043">
        <ele>2225.1100000000001</ele>
        <time>2014-08-03T09:30:45Z</time>
      </trkpt>
      <trkpt lat="45.517642702907324" lon="7.085173381492496">
        <ele>2226.5500000000002</ele>
        <time>2014-08-03T09:30:56Z</time>
      </trkpt>
      <trkpt lat="45.517545221373439" lon="7.085175812244415">
        <ele>2227.9899999999998</ele>
        <time>2014-08-03T09:31:08Z</time>
      </trkpt>
      <trkpt lat="45.51753549836576" lon="7.08518092520535">
        <ele>2227.9899999999998</ele>
        <time>2014-08-03T09:31:09Z</time>
      </trkpt>
      <trkpt lat="45.517458133399487" lon="7.085317214950919">
        <ele>2229.4299999999998</ele>
        <time>2014-08-03T09:31:22Z</time>
      </trkpt>
      <trkpt lat="45.517371045425534" lon="7.085437746718526">
        <ele>2229.9200000000001</ele>
        <time>2014-08-03T09:31:35Z</time>
      </trkpt>
      <trkpt lat="45.517270294949412" lon="7.085514776408672">
        <ele>2231.3600000000001</ele>
        <time>2014-08-03T09:31:48Z</time>
      </trkpt>
      <trkpt lat="45.517169125378132" lon="7.085620807483792">
        <ele>2232.3200000000002</ele>
        <time>2014-08-03T09:32:00Z</time>
      </trkpt>
      <trkpt lat="45.517083713784814" lon="7.085759192705154">
        <ele>2234.2399999999998</ele>
        <time>2014-08-03T09:32:14Z</time>
      </trkpt>
      <trkpt lat="45.517076086252928" lon="7.085780734196305">
        <ele>2234.2399999999998</ele>
        <time>2014-08-03T09:32:16Z</time>
      </trkpt>
      <trkpt lat="45.517036188393831" lon="7.085926998406649">
        <ele>2235.1999999999998</ele>
        <time>2014-08-03T09:32:27Z</time>
      </trkpt>
      <trkpt lat="45.517014814540744" lon="7.086008302867413">
        <ele>2236.1599999999999</ele>
        <time>2014-08-03T09:32:34Z</time>
      </trkpt>
      <trkpt lat="45.516974916681647" lon="7.08612204529345">
        <ele>2238.0900000000001</ele>
        <time>2014-08-03T09:32:46Z</time>
      </trkpt>
      <trkpt lat="45.516922865062952" lon="7.086174683645368">
        <ele>2240.0100000000002</ele>
        <time>2014-08-03T09:32:55Z</time>
      </trkpt>
      <trkpt lat="45.516806188970804" lon="7.086286330595613">
        <ele>2242.8899999999999</ele>
        <time>2014-08-03T09:33:11Z</time>
      </trkpt>
      <trkpt lat="45.516702253371477" lon="7.086374759674072">
        <ele>2245.3000000000002</ele>
        <time>2014-08-03T09:33:26Z</time>
      </trkpt>
      <trkpt lat="45.516601921990514" lon="7.086430080235004">
        <ele>2247.6999999999998</ele>
        <time>2014-08-03T09:33:40Z</time>
      </trkpt>
      <trkpt lat="45.516539225354791" lon="7.086452459916472">
        <ele>2249.1399999999999</ele>
        <time>2014-08-03T09:33:49Z</time>
      </trkpt>
      <trkpt lat="45.516440067440271" lon="7.086408790200949">
        <ele>2249.6199999999999</ele>
        <time>2014-08-03T09:34:01Z</time>
      </trkpt>
      <trkpt lat="45.516365887597203" lon="7.086413148790598">
        <ele>2250.5799999999999</ele>
        <time>2014-08-03T09:34:13Z</time>
      </trkpt>
      <trkpt lat="45.516302939504385" lon="7.086475426331163">
        <ele>2251.0599999999999</ele>
        <time>2014-08-03T09:34:23Z</time>
      </trkpt>
      <trkpt lat="45.516254492104053" lon="7.086522113531828">
        <ele>2252.5100000000002</ele>
        <time>2014-08-03T09:34:34Z</time>
      </trkpt>
      <trkpt lat="45.516148125752807" lon="7.086494537070394">
        <ele>2254.4299999999998</ele>
        <time>2014-08-03T09:34:48Z</time>
      </trkpt>
      <trkpt lat="45.516073275357485" lon="7.086478359997273">
        <ele>2256.8299999999999</ele>
        <time>2014-08-03T09:35:01Z</time>
      </trkpt>
      <trkpt lat="45.516024325042963" lon="7.086429828777909">
        <ele>2259.7199999999998</ele>
        <time>2014-08-03T09:35:13Z</time>
      </trkpt>
      <trkpt lat="45.515971854329109" lon="7.086406778544188">
        <ele>2262.1199999999999</ele>
        <time>2014-08-03T09:35:25Z</time>
      </trkpt>
      <trkpt lat="45.515866493806243" lon="7.086384482681751">
        <ele>2264.52</ele>
        <time>2014-08-03T09:35:38Z</time>
      </trkpt>
      <trkpt lat="45.515838582068682" lon="7.086343411356211">
        <ele>2264.52</ele>
        <time>2014-08-03T09:35:42Z</time>
      </trkpt>
      <trkpt lat="45.51580622792244" lon="7.086184909567237">
        <ele>2266.4499999999998</ele>
        <time>2014-08-03T09:35:56Z</time>
      </trkpt>
      <trkpt lat="45.515768006443977" lon="7.086080219596624">
        <ele>2269.8099999999999</ele>
        <time>2014-08-03T09:36:10Z</time>
      </trkpt>
      <trkpt lat="45.515763815492392" lon="7.086069909855723">
        <ele>2269.3299999999999</ele>
        <time>2014-08-03T09:36:11Z</time>
      </trkpt>
      <trkpt lat="45.515698520466685" lon="7.085928255692124">
        <ele>2271.25</ele>
        <time>2014-08-03T09:36:24Z</time>
      </trkpt>
      <trkpt lat="45.515622580423951" lon="7.085779896005988">
        <ele>2272.21</ele>
        <time>2014-08-03T09:36:37Z</time>
      </trkpt>
      <trkpt lat="45.515544377267361" lon="7.085729269310832">
        <ele>2273.1700000000001</ele>
        <time>2014-08-03T09:36:46Z</time>
      </trkpt>
      <trkpt lat="45.51542610861361" lon="7.085719797760248">
        <ele>2274.6199999999999</ele>
        <time>2014-08-03T09:36:59Z</time>
      </trkpt>
      <trkpt lat="45.515378164127469" lon="7.085690293461084">
        <ele>2275.5799999999999</ele>
        <time>2014-08-03T09:37:06Z</time>
      </trkpt>
      <trkpt lat="45.515324436128139" lon="7.085557691752911">
        <ele>2276.54</ele>
        <time>2014-08-03T09:37:18Z</time>
      </trkpt>
      <trkpt lat="45.515234582126141" lon="7.085444368422031">
        <ele>2277.98</ele>
        <time>2014-08-03T09:37:30Z</time>
      </trkpt>
      <trkpt lat="45.51515688188374" lon="7.085297852754593">
        <ele>2279.4200000000001</ele>
        <time>2014-08-03T09:37:44Z</time>
      </trkpt>
      <trkpt lat="45.515143973752856" lon="7.08522342145443">
        <ele>2280.3800000000001</ele>
        <time>2014-08-03T09:37:52Z</time>
      </trkpt>
      <trkpt lat="45.515139363706112" lon="7.085183104500175">
        <ele>2280.8699999999999</ele>
        <time>2014-08-03T09:37:55Z</time>
      </trkpt>
      <trkpt lat="45.515161072835326" lon="7.085144631564617">
        <ele>2280.8699999999999</ele>
        <time>2014-08-03T09:37:58Z</time>
      </trkpt>
      <trkpt lat="45.515187475830317" lon="7.085131136700511">
        <ele>2280.8699999999999</ele>
        <time>2014-08-03T09:38:00Z</time>
      </trkpt>
      <trkpt lat="45.515252351760864" lon="7.085133483633399">
        <ele>2280.3800000000001</ele>
        <time>2014-08-03T09:38:05Z</time>
      </trkpt>
      <trkpt lat="45.515312785282731" lon="7.085119402036071">
        <ele>2281.8299999999999</ele>
        <time>2014-08-03T09:38:12Z</time>
      </trkpt>
      <trkpt lat="45.515375062823296" lon="7.085015885531902">
        <ele>2283.27</ele>
        <time>2014-08-03T09:38:25Z</time>
      </trkpt>
      <trkpt lat="45.515400124713778" lon="7.084918906912208">
        <ele>2285.6700000000001</ele>
        <time>2014-08-03T09:38:35Z</time>
      </trkpt>
      <trkpt lat="45.515402974560857" lon="7.08479636348784">
        <ele>2287.5900000000001</ele>
        <time>2014-08-03T09:38:46Z</time>
      </trkpt>
      <trkpt lat="45.515404902398586" lon="7.08471623249352">
        <ele>2289.04</ele>
        <time>2014-08-03T09:38:53Z</time>
      </trkpt>
      <trkpt lat="45.515490062534809" lon="7.084560245275497">
        <ele>2289.52</ele>
        <time>2014-08-03T09:39:08Z</time>
      </trkpt>
      <trkpt lat="45.515554687008262" lon="7.084474498406053">
        <ele>2291.9200000000001</ele>
        <time>2014-08-03T09:39:20Z</time>
      </trkpt>
      <trkpt lat="45.515591064468026" lon="7.084385817870498">
        <ele>2293.3600000000001</ele>
        <time>2014-08-03T09:39:29Z</time>
      </trkpt>
      <trkpt lat="45.515650408342481" lon="7.084356481209397">
        <ele>2294.3200000000002</ele>
        <time>2014-08-03T09:39:38Z</time>
      </trkpt>
      <trkpt lat="45.515638338401914" lon="7.084441473707557">
        <ele>2294.3200000000002</ele>
        <time>2014-08-03T09:39:52Z</time>
      </trkpt>
      <trkpt lat="45.515643870458007" lon="7.084408449009061">
        <ele>2294.3200000000002</ele>
        <time>2014-08-03T09:40:12Z</time>
      </trkpt>
      <trkpt lat="45.515656946226954" lon="7.084409957751632">
        <ele>2294.3200000000002</ele>
        <time>2014-08-03T09:40:26Z</time>
      </trkpt>
      <trkpt lat="45.515679158270359" lon="7.084401240572333">
        <ele>2293.8400000000001</ele>
        <time>2014-08-03T09:40:38Z</time>
      </trkpt>
      <trkpt lat="45.515656946226954" lon="7.08440157584846">
        <ele>2294.3200000000002</ele>
        <time>2014-08-03T09:40:55Z</time>
      </trkpt>
      <trkpt lat="45.515679912641644" lon="7.084444742649794">
        <ele>2293.8400000000001</ele>
        <time>2014-08-03T09:41:14Z</time>
      </trkpt>
      <trkpt lat="45.515641691163182" lon="7.08442403934896">
        <ele>2294.3200000000002</ele>
        <time>2014-08-03T09:41:29Z</time>
      </trkpt>
      <trkpt lat="45.515658957883716" lon="7.084403000771999">
        <ele>2294.3200000000002</ele>
        <time>2014-08-03T09:41:41Z</time>
      </trkpt>
      <trkpt lat="45.515674045309424" lon="7.08441180177033">
        <ele>2293.3600000000001</ele>
        <time>2014-08-03T09:41:46Z</time>
      </trkpt>
      <trkpt lat="45.515657365322113" lon="7.084403755143285">
        <ele>2293.8400000000001</ele>
        <time>2014-08-03T09:41:50Z</time>
      </trkpt>
      <trkpt lat="45.515637416392565" lon="7.08443870767951">
        <ele>2294.3200000000002</ele>
        <time>2014-08-03T09:42:03Z</time>
      </trkpt>
      <trkpt lat="45.515619982033968" lon="7.084432253614068">
        <ele>2293.8400000000001</ele>
        <time>2014-08-03T09:42:12Z</time>
      </trkpt>
      <trkpt lat="45.515634315088391" lon="7.084462428465486">
        <ele>2294.3200000000002</ele>
        <time>2014-08-03T09:42:30Z</time>
      </trkpt>
      <trkpt lat="45.515620149672031" lon="7.08442647010088">
        <ele>2294.8000000000002</ele>
        <time>2014-08-03T09:42:36Z</time>
      </trkpt>
      <trkpt lat="45.515659544616938" lon="7.084365449845791">
        <ele>2294.8000000000002</ele>
        <time>2014-08-03T09:42:40Z</time>
      </trkpt>
      <trkpt lat="45.515672704204917" lon="7.084312811493874">
        <ele>2294.8000000000002</ele>
        <time>2014-08-03T09:42:43Z</time>
      </trkpt>
      <trkpt lat="45.515748225152493" lon="7.084307363256812">
        <ele>2295.77</ele>
        <time>2014-08-03T09:42:57Z</time>
      </trkpt>
      <trkpt lat="45.515744285658002" lon="7.084243493154645">
        <ele>2294.3200000000002</ele>
        <time>2014-08-03T09:43:46Z</time>
      </trkpt>
      <trkpt lat="45.515800947323442" lon="7.084321528673172">
        <ele>2294.3200000000002</ele>
        <time>2014-08-03T09:44:01Z</time>
      </trkpt>
      <trkpt lat="45.515752416104078" lon="7.084284480661154">
        <ele>2293.8400000000001</ele>
        <time>2014-08-03T09:44:08Z</time>
      </trkpt>
      <trkpt lat="45.515699191018939" lon="7.08429747261107">
        <ele>2294.3200000000002</ele>
        <time>2014-08-03T09:44:12Z</time>
      </trkpt>
      <trkpt lat="45.515678403899074" lon="7.084403168410063">
        <ele>2294.3200000000002</ele>
        <time>2014-08-03T09:44:24Z</time>
      </trkpt>
      <trkpt lat="45.51574369892478" lon="7.084625791758299">
        <ele>2294.3200000000002</ele>
        <time>2014-08-03T09:44:47Z</time>
      </trkpt>
      <trkpt lat="45.515771526843309" lon="7.084710951894522">
        <ele>2292.8800000000001</ele>
        <time>2014-08-03T09:44:56Z</time>
      </trkpt>
      <trkpt lat="45.515795666724443" lon="7.084779851138592">
        <ele>2293.3600000000001</ele>
        <time>2014-08-03T09:45:03Z</time>
      </trkpt>
      <trkpt lat="45.515810837969184" lon="7.084823185577989">
        <ele>2298.6500000000001</ele>
        <time>2014-08-03T09:45:07Z</time>
      </trkpt>
    </trkseg>
  </trk>

</gpx>